<?xml version="1.0" encoding="UTF-8" standalone="no" ?>
<gpx xmlns="http://www.topografix.com/GPX/1/1" xmlns:xsi="http://www.w3.org/2001/XMLSchema-instance" xsi:schemaLocation="http://www.topografix.com/GPX/1/1 http://www.topografix.com/GPX/1/1/gpx.xsd" version="1.1" creator="VisuGPX - https://www.visugpx.com">
  <metadata>
    <name>Reco Sacré Trail des Collines - Tullins - Isère</name>
    <desc><![CDATA[[b]Reco Sacré Trail des Collines - Tullins - Isère[/b]
16 janvier 2011
http://www.raidlight.com/CR-Reco-Belledonne-Gelon-Raidlight.html]]></desc>
  </metadata>
  <trk>
    <name><![CDATA[Reco Sacré Trail des Collines - Tullins - Isère_1]]></name>
    <trkseg>
      <trkpt lat="45.3237" lon="5.46629">
        <ele>713.68432617188</ele>
        <time>2011-01-16T07:17:36Z</time>
      </trkpt>
      <trkpt lat="45.32369" lon="5.46628">
        <ele>713.369140625</ele>
        <time>2011-01-16T07:17:37Z</time>
      </trkpt>
      <trkpt lat="45.3237" lon="5.46611">
        <ele>711.46875</ele>
        <time>2011-01-16T07:17:42Z</time>
      </trkpt>
      <trkpt lat="45.3237" lon="5.46599">
        <ele>708.62463378906</ele>
        <time>2011-01-16T07:17:45Z</time>
      </trkpt>
      <trkpt lat="45.32373" lon="5.46577">
        <ele>706.40991210938</ele>
        <time>2011-01-16T07:17:51Z</time>
      </trkpt>
      <trkpt lat="45.32375" lon="5.46566">
        <ele>706.26574707031</ele>
        <time>2011-01-16T07:17:54Z</time>
      </trkpt>
      <trkpt lat="45.32378" lon="5.46553">
        <ele>705.9111328125</ele>
        <time>2011-01-16T07:17:58Z</time>
      </trkpt>
      <trkpt lat="45.32385" lon="5.46533">
        <ele>704.99206542969</ele>
        <time>2011-01-16T07:18:03Z</time>
      </trkpt>
      <trkpt lat="45.32391" lon="5.46519">
        <ele>705.02862548828</ele>
        <time>2011-01-16T07:18:07Z</time>
      </trkpt>
      <trkpt lat="45.32397" lon="5.46512">
        <ele>705.88006591797</ele>
        <time>2011-01-16T07:18:10Z</time>
      </trkpt>
      <trkpt lat="45.32399" lon="5.46505">
        <ele>705.15222167969</ele>
        <time>2011-01-16T07:18:12Z</time>
      </trkpt>
      <trkpt lat="45.32401" lon="5.46489">
        <ele>702.85656738281</ele>
        <time>2011-01-16T07:18:16Z</time>
      </trkpt>
      <trkpt lat="45.32409" lon="5.4647">
        <ele>702.41827392578</ele>
        <time>2011-01-16T07:18:21Z</time>
      </trkpt>
      <trkpt lat="45.32409" lon="5.4646">
        <ele>700.29022216797</ele>
        <time>2011-01-16T07:18:23Z</time>
      </trkpt>
      <trkpt lat="45.32409" lon="5.4644">
        <ele>696.18286132812</ele>
        <time>2011-01-16T07:18:27Z</time>
      </trkpt>
      <trkpt lat="45.3241" lon="5.46435">
        <ele>695.64038085938</ele>
        <time>2011-01-16T07:18:28Z</time>
      </trkpt>
      <trkpt lat="45.32416" lon="5.46415">
        <ele>695.24591064453</ele>
        <time>2011-01-16T07:18:34Z</time>
      </trkpt>
      <trkpt lat="45.32421" lon="5.46405">
        <ele>694.69793701172</ele>
        <time>2011-01-16T07:18:37Z</time>
      </trkpt>
      <trkpt lat="45.32423" lon="5.46403">
        <ele>694.86273193359</ele>
        <time>2011-01-16T07:18:38Z</time>
      </trkpt>
      <trkpt lat="45.32426" lon="5.464">
        <ele>694.94171142578</ele>
        <time>2011-01-16T07:18:40Z</time>
      </trkpt>
      <trkpt lat="45.32438" lon="5.46393">
        <ele>696.92266845703</ele>
        <time>2011-01-16T07:18:46Z</time>
      </trkpt>
      <trkpt lat="45.32448" lon="5.46401">
        <ele>701.36273193359</ele>
        <time>2011-01-16T07:18:51Z</time>
      </trkpt>
      <trkpt lat="45.32457" lon="5.46413">
        <ele>705.24884033203</ele>
        <time>2011-01-16T07:18:56Z</time>
      </trkpt>
      <trkpt lat="45.32458" lon="5.46434">
        <ele>708.20043945312</ele>
        <time>2011-01-16T07:19:02Z</time>
      </trkpt>
      <trkpt lat="45.32458" lon="5.46451">
        <ele>710.63421630859</ele>
        <time>2011-01-16T07:19:07Z</time>
      </trkpt>
      <trkpt lat="45.32458" lon="5.46471">
        <ele>714.25848388672</ele>
        <time>2011-01-16T07:19:13Z</time>
      </trkpt>
      <trkpt lat="45.32454" lon="5.46488">
        <ele>716.45062255859</ele>
        <time>2011-01-16T07:19:18Z</time>
      </trkpt>
      <trkpt lat="45.32448" lon="5.46505">
        <ele>718.39245605469</ele>
        <time>2011-01-16T07:19:23Z</time>
      </trkpt>
      <trkpt lat="45.32441" lon="5.46522">
        <ele>719.05767822266</ele>
        <time>2011-01-16T07:19:29Z</time>
      </trkpt>
      <trkpt lat="45.32433" lon="5.4654">
        <ele>719.32421875</ele>
        <time>2011-01-16T07:19:35Z</time>
      </trkpt>
      <trkpt lat="45.32431" lon="5.46547">
        <ele>719.54052734375</ele>
        <time>2011-01-16T07:19:37Z</time>
      </trkpt>
      <trkpt lat="45.32431" lon="5.46551">
        <ele>719.74926757812</ele>
        <time>2011-01-16T07:19:39Z</time>
      </trkpt>
      <trkpt lat="45.32445" lon="5.46546">
        <ele>720</ele>
        <time>2011-01-16T07:19:44Z</time>
      </trkpt>
      <trkpt lat="45.32452" lon="5.46543">
        <ele>720</ele>
        <time>2011-01-16T07:19:47Z</time>
      </trkpt>
      <trkpt lat="45.32466" lon="5.46527">
        <ele>719.92028808594</ele>
        <time>2011-01-16T07:19:54Z</time>
      </trkpt>
      <trkpt lat="45.32473" lon="5.46514">
        <ele>718.87963867188</ele>
        <time>2011-01-16T07:19:58Z</time>
      </trkpt>
      <trkpt lat="45.32481" lon="5.46501">
        <ele>716.85504150391</ele>
        <time>2011-01-16T07:20:02Z</time>
      </trkpt>
      <trkpt lat="45.32486" lon="5.46487">
        <ele>714.87994384766</ele>
        <time>2011-01-16T07:20:06Z</time>
      </trkpt>
      <trkpt lat="45.3249" lon="5.46471">
        <ele>712.94140625</ele>
        <time>2011-01-16T07:20:10Z</time>
      </trkpt>
      <trkpt lat="45.32494" lon="5.46448">
        <ele>710.56127929688</ele>
        <time>2011-01-16T07:20:15Z</time>
      </trkpt>
      <trkpt lat="45.32498" lon="5.46433">
        <ele>709.20648193359</ele>
        <time>2011-01-16T07:20:19Z</time>
      </trkpt>
      <trkpt lat="45.32501" lon="5.46414">
        <ele>707.47045898438</ele>
        <time>2011-01-16T07:20:24Z</time>
      </trkpt>
      <trkpt lat="45.32505" lon="5.46401">
        <ele>705.51110839844</ele>
        <time>2011-01-16T07:20:28Z</time>
      </trkpt>
      <trkpt lat="45.32506" lon="5.46398">
        <ele>705.12567138672</ele>
        <time>2011-01-16T07:20:29Z</time>
      </trkpt>
      <trkpt lat="45.32505" lon="5.4639">
        <ele>704.36193847656</ele>
        <time>2011-01-16T07:20:31Z</time>
      </trkpt>
      <trkpt lat="45.32509" lon="5.46371">
        <ele>702.60998535156</ele>
        <time>2011-01-16T07:20:36Z</time>
      </trkpt>
      <trkpt lat="45.32516" lon="5.46354">
        <ele>700.78759765625</ele>
        <time>2011-01-16T07:20:42Z</time>
      </trkpt>
      <trkpt lat="45.32522" lon="5.46336">
        <ele>699.36059570312</ele>
        <time>2011-01-16T07:20:47Z</time>
      </trkpt>
      <trkpt lat="45.32527" lon="5.4632">
        <ele>697.67163085938</ele>
        <time>2011-01-16T07:20:52Z</time>
      </trkpt>
      <trkpt lat="45.32527" lon="5.46306">
        <ele>696.10272216797</ele>
        <time>2011-01-16T07:20:57Z</time>
      </trkpt>
      <trkpt lat="45.32526" lon="5.46295">
        <ele>695.73974609375</ele>
        <time>2011-01-16T07:21:00Z</time>
      </trkpt>
      <trkpt lat="45.32531" lon="5.46272">
        <ele>694.92010498047</ele>
        <time>2011-01-16T07:21:06Z</time>
      </trkpt>
      <trkpt lat="45.32537" lon="5.46251">
        <ele>694.98266601562</ele>
        <time>2011-01-16T07:21:11Z</time>
      </trkpt>
      <trkpt lat="45.32542" lon="5.46236">
        <ele>695.50262451172</ele>
        <time>2011-01-16T07:21:15Z</time>
      </trkpt>
      <trkpt lat="45.32544" lon="5.46217">
        <ele>696.20471191406</ele>
        <time>2011-01-16T07:21:19Z</time>
      </trkpt>
      <trkpt lat="45.32549" lon="5.46201">
        <ele>696.76776123047</ele>
        <time>2011-01-16T07:21:24Z</time>
      </trkpt>
      <trkpt lat="45.32553" lon="5.46188">
        <ele>697.22033691406</ele>
        <time>2011-01-16T07:21:29Z</time>
      </trkpt>
      <trkpt lat="45.32555" lon="5.46185">
        <ele>697.31927490234</ele>
        <time>2011-01-16T07:21:30Z</time>
      </trkpt>
      <trkpt lat="45.32559" lon="5.46177">
        <ele>697.63122558594</ele>
        <time>2011-01-16T07:21:33Z</time>
      </trkpt>
      <trkpt lat="45.32561" lon="5.46162">
        <ele>698.18225097656</ele>
        <time>2011-01-16T07:21:38Z</time>
      </trkpt>
      <trkpt lat="45.32565" lon="5.46149">
        <ele>698.63372802734</ele>
        <time>2011-01-16T07:21:42Z</time>
      </trkpt>
      <trkpt lat="45.32568" lon="5.46138">
        <ele>699.00915527344</ele>
        <time>2011-01-16T07:21:45Z</time>
      </trkpt>
      <trkpt lat="45.32571" lon="5.46127">
        <ele>699.18218994141</ele>
        <time>2011-01-16T07:21:49Z</time>
      </trkpt>
      <trkpt lat="45.32573" lon="5.46122">
        <ele>699.21331787109</ele>
        <time>2011-01-16T07:21:51Z</time>
      </trkpt>
      <trkpt lat="45.32586" lon="5.46107">
        <ele>697.92724609375</ele>
        <time>2011-01-16T07:21:57Z</time>
      </trkpt>
      <trkpt lat="45.32587" lon="5.46102">
        <ele>697.38049316406</ele>
        <time>2011-01-16T07:21:59Z</time>
      </trkpt>
      <trkpt lat="45.32591" lon="5.46089">
        <ele>696.3505859375</ele>
        <time>2011-01-16T07:22:05Z</time>
      </trkpt>
      <trkpt lat="45.32598" lon="5.4608">
        <ele>693.90686035156</ele>
        <time>2011-01-16T07:22:09Z</time>
      </trkpt>
      <trkpt lat="45.32608" lon="5.46067">
        <ele>690.20544433594</ele>
        <time>2011-01-16T07:22:15Z</time>
      </trkpt>
      <trkpt lat="45.32618" lon="5.46059">
        <ele>685.2744140625</ele>
        <time>2011-01-16T07:22:19Z</time>
      </trkpt>
      <trkpt lat="45.32632" lon="5.46046">
        <ele>678.92321777344</ele>
        <time>2011-01-16T07:22:26Z</time>
      </trkpt>
      <trkpt lat="45.32639" lon="5.46039">
        <ele>676.38201904297</ele>
        <time>2011-01-16T07:22:30Z</time>
      </trkpt>
      <trkpt lat="45.32647" lon="5.4603">
        <ele>672.95422363281</ele>
        <time>2011-01-16T07:22:35Z</time>
      </trkpt>
      <trkpt lat="45.32654" lon="5.46021">
        <ele>669.38873291016</ele>
        <time>2011-01-16T07:22:39Z</time>
      </trkpt>
      <trkpt lat="45.32656" lon="5.46018">
        <ele>668.26702880859</ele>
        <time>2011-01-16T07:22:41Z</time>
      </trkpt>
      <trkpt lat="45.32669" lon="5.46007">
        <ele>661.41131591797</ele>
        <time>2011-01-16T07:22:47Z</time>
      </trkpt>
      <trkpt lat="45.32677" lon="5.45995">
        <ele>657.01025390625</ele>
        <time>2011-01-16T07:22:52Z</time>
      </trkpt>
      <trkpt lat="45.32685" lon="5.45984">
        <ele>652.10992431641</ele>
        <time>2011-01-16T07:22:57Z</time>
      </trkpt>
      <trkpt lat="45.32687" lon="5.45981">
        <ele>651.43957519531</ele>
        <time>2011-01-16T07:22:58Z</time>
      </trkpt>
      <trkpt lat="45.32694" lon="5.45966">
        <ele>646.36236572266</ele>
        <time>2011-01-16T07:23:03Z</time>
      </trkpt>
      <trkpt lat="45.32705" lon="5.45957">
        <ele>642.73645019531</ele>
        <time>2011-01-16T07:23:08Z</time>
      </trkpt>
      <trkpt lat="45.32713" lon="5.45941">
        <ele>640.70947265625</ele>
        <time>2011-01-16T07:23:15Z</time>
      </trkpt>
      <trkpt lat="45.32715" lon="5.45935">
        <ele>640.10961914062</ele>
        <time>2011-01-16T07:23:17Z</time>
      </trkpt>
      <trkpt lat="45.32725" lon="5.45918">
        <ele>637.16705322266</ele>
        <time>2011-01-16T07:23:23Z</time>
      </trkpt>
      <trkpt lat="45.32727" lon="5.45911">
        <ele>636.17785644531</ele>
        <time>2011-01-16T07:23:25Z</time>
      </trkpt>
      <trkpt lat="45.32738" lon="5.45892">
        <ele>629.75378417969</ele>
        <time>2011-01-16T07:23:32Z</time>
      </trkpt>
      <trkpt lat="45.32747" lon="5.45873">
        <ele>624.75012207031</ele>
        <time>2011-01-16T07:23:38Z</time>
      </trkpt>
      <trkpt lat="45.32756" lon="5.45856">
        <ele>621.33966064453</ele>
        <time>2011-01-16T07:23:43Z</time>
      </trkpt>
      <trkpt lat="45.32764" lon="5.45844">
        <ele>619.50262451172</ele>
        <time>2011-01-16T07:23:47Z</time>
      </trkpt>
      <trkpt lat="45.32772" lon="5.45832">
        <ele>617.09234619141</ele>
        <time>2011-01-16T07:23:52Z</time>
      </trkpt>
      <trkpt lat="45.32781" lon="5.45839">
        <ele>613.68688964844</ele>
        <time>2011-01-16T07:23:56Z</time>
      </trkpt>
      <trkpt lat="45.32787" lon="5.45852">
        <ele>611.3505859375</ele>
        <time>2011-01-16T07:24:00Z</time>
      </trkpt>
      <trkpt lat="45.32792" lon="5.45865">
        <ele>609.47857666016</ele>
        <time>2011-01-16T07:24:04Z</time>
      </trkpt>
      <trkpt lat="45.32793" lon="5.45868">
        <ele>608.81829833984</ele>
        <time>2011-01-16T07:24:05Z</time>
      </trkpt>
      <trkpt lat="45.32804" lon="5.45891">
        <ele>605.44061279297</ele>
        <time>2011-01-16T07:24:12Z</time>
      </trkpt>
      <trkpt lat="45.3281" lon="5.45907">
        <ele>603.37481689453</ele>
        <time>2011-01-16T07:24:17Z</time>
      </trkpt>
      <trkpt lat="45.32821" lon="5.45921">
        <ele>599.91741943359</ele>
        <time>2011-01-16T07:24:22Z</time>
      </trkpt>
      <trkpt lat="45.3283" lon="5.45929">
        <ele>596.98907470703</ele>
        <time>2011-01-16T07:24:26Z</time>
      </trkpt>
      <trkpt lat="45.32843" lon="5.45936">
        <ele>589.90899658203</ele>
        <time>2011-01-16T07:24:31Z</time>
      </trkpt>
      <trkpt lat="45.32848" lon="5.45939">
        <ele>587.06036376953</ele>
        <time>2011-01-16T07:24:33Z</time>
      </trkpt>
      <trkpt lat="45.32857" lon="5.45955">
        <ele>580.48565673828</ele>
        <time>2011-01-16T07:24:39Z</time>
      </trkpt>
      <trkpt lat="45.32859" lon="5.45965">
        <ele>578.46954345703</ele>
        <time>2011-01-16T07:24:43Z</time>
      </trkpt>
      <trkpt lat="45.32857" lon="5.45971">
        <ele>579.43762207031</ele>
        <time>2011-01-16T07:24:49Z</time>
      </trkpt>
      <trkpt lat="45.32857" lon="5.45973">
        <ele>579.31481933594</ele>
        <time>2011-01-16T07:24:58Z</time>
      </trkpt>
      <trkpt lat="45.32861" lon="5.45973">
        <ele>577.20684814453</ele>
        <time>2011-01-16T07:25:18Z</time>
      </trkpt>
      <trkpt lat="45.32862" lon="5.45976">
        <ele>575.97808837891</ele>
        <time>2011-01-16T07:25:39Z</time>
      </trkpt>
      <trkpt lat="45.32864" lon="5.45977">
        <ele>574.89678955078</ele>
        <time>2011-01-16T07:25:41Z</time>
      </trkpt>
      <trkpt lat="45.32867" lon="5.45986">
        <ele>572.88647460938</ele>
        <time>2011-01-16T07:25:46Z</time>
      </trkpt>
      <trkpt lat="45.3287" lon="5.45991">
        <ele>571.18286132812</ele>
        <time>2011-01-16T07:25:49Z</time>
      </trkpt>
      <trkpt lat="45.32875" lon="5.45995">
        <ele>568.41296386719</ele>
        <time>2011-01-16T07:25:52Z</time>
      </trkpt>
      <trkpt lat="45.3288" lon="5.4599">
        <ele>565.73681640625</ele>
        <time>2011-01-16T07:25:57Z</time>
      </trkpt>
      <trkpt lat="45.3288" lon="5.45987">
        <ele>566.08563232422</ele>
        <time>2011-01-16T07:25:58Z</time>
      </trkpt>
      <trkpt lat="45.32879" lon="5.45966">
        <ele>567.34558105469</ele>
        <time>2011-01-16T07:26:04Z</time>
      </trkpt>
      <trkpt lat="45.32881" lon="5.45964">
        <ele>566.53979492188</ele>
        <time>2011-01-16T07:26:05Z</time>
      </trkpt>
      <trkpt lat="45.32882" lon="5.45947">
        <ele>566.44738769531</ele>
        <time>2011-01-16T07:26:11Z</time>
      </trkpt>
      <trkpt lat="45.32881" lon="5.45932">
        <ele>567.15789794922</ele>
        <time>2011-01-16T07:26:15Z</time>
      </trkpt>
      <trkpt lat="45.3288" lon="5.45913">
        <ele>568.28161621094</ele>
        <time>2011-01-16T07:26:20Z</time>
      </trkpt>
      <trkpt lat="45.32881" lon="5.45909">
        <ele>568.14587402344</ele>
        <time>2011-01-16T07:26:21Z</time>
      </trkpt>
      <trkpt lat="45.32882" lon="5.45897">
        <ele>567.56964111328</ele>
        <time>2011-01-16T07:26:25Z</time>
      </trkpt>
      <trkpt lat="45.32885" lon="5.45884">
        <ele>566.251953125</ele>
        <time>2011-01-16T07:26:29Z</time>
      </trkpt>
      <trkpt lat="45.32888" lon="5.45871">
        <ele>564.7138671875</ele>
        <time>2011-01-16T07:26:33Z</time>
      </trkpt>
      <trkpt lat="45.32889" lon="5.45848">
        <ele>564.36938476562</ele>
        <time>2011-01-16T07:26:39Z</time>
      </trkpt>
      <trkpt lat="45.32889" lon="5.45828">
        <ele>565.07818603516</ele>
        <time>2011-01-16T07:26:44Z</time>
      </trkpt>
      <trkpt lat="45.32889" lon="5.45821">
        <ele>565.49548339844</ele>
        <time>2011-01-16T07:26:46Z</time>
      </trkpt>
      <trkpt lat="45.32891" lon="5.45809">
        <ele>565.10565185547</ele>
        <time>2011-01-16T07:26:50Z</time>
      </trkpt>
      <trkpt lat="45.3289" lon="5.45783">
        <ele>566.3759765625</ele>
        <time>2011-01-16T07:26:55Z</time>
      </trkpt>
      <trkpt lat="45.32894" lon="5.45768">
        <ele>565.25842285156</ele>
        <time>2011-01-16T07:26:59Z</time>
      </trkpt>
      <trkpt lat="45.32898" lon="5.45751">
        <ele>563.90234375</ele>
        <time>2011-01-16T07:27:04Z</time>
      </trkpt>
      <trkpt lat="45.32899" lon="5.45747">
        <ele>563.4267578125</ele>
        <time>2011-01-16T07:27:05Z</time>
      </trkpt>
      <trkpt lat="45.32905" lon="5.4573">
        <ele>561.11962890625</ele>
        <time>2011-01-16T07:27:10Z</time>
      </trkpt>
      <trkpt lat="45.32908" lon="5.45709">
        <ele>560.13000488281</ele>
        <time>2011-01-16T07:27:16Z</time>
      </trkpt>
      <trkpt lat="45.32909" lon="5.45695">
        <ele>560.45959472656</ele>
        <time>2011-01-16T07:27:20Z</time>
      </trkpt>
      <trkpt lat="45.32909" lon="5.45681">
        <ele>560.48797607422</ele>
        <time>2011-01-16T07:27:24Z</time>
      </trkpt>
      <trkpt lat="45.3291" lon="5.45663">
        <ele>560.76043701172</ele>
        <time>2011-01-16T07:27:29Z</time>
      </trkpt>
      <trkpt lat="45.32914" lon="5.45645">
        <ele>558.98199462891</ele>
        <time>2011-01-16T07:27:35Z</time>
      </trkpt>
      <trkpt lat="45.32915" lon="5.4564">
        <ele>558.66748046875</ele>
        <time>2011-01-16T07:27:36Z</time>
      </trkpt>
      <trkpt lat="45.32919" lon="5.45614">
        <ele>557.83715820312</ele>
        <time>2011-01-16T07:27:42Z</time>
      </trkpt>
      <trkpt lat="45.32921" lon="5.45607">
        <ele>557.19287109375</ele>
        <time>2011-01-16T07:27:44Z</time>
      </trkpt>
      <trkpt lat="45.32922" lon="5.45598">
        <ele>557.17224121094</ele>
        <time>2011-01-16T07:27:47Z</time>
      </trkpt>
      <trkpt lat="45.32924" lon="5.45583">
        <ele>556.61987304688</ele>
        <time>2011-01-16T07:27:51Z</time>
      </trkpt>
      <trkpt lat="45.32926" lon="5.45563">
        <ele>555.54870605469</ele>
        <time>2011-01-16T07:27:57Z</time>
      </trkpt>
      <trkpt lat="45.32926" lon="5.45559">
        <ele>555.54870605469</ele>
        <time>2011-01-16T07:27:58Z</time>
      </trkpt>
      <trkpt lat="45.32927" lon="5.45544">
        <ele>555.34417724609</ele>
        <time>2011-01-16T07:28:03Z</time>
      </trkpt>
      <trkpt lat="45.32927" lon="5.45528">
        <ele>555.55627441406</ele>
        <time>2011-01-16T07:28:08Z</time>
      </trkpt>
      <trkpt lat="45.3293" lon="5.45518">
        <ele>554.07458496094</ele>
        <time>2011-01-16T07:28:12Z</time>
      </trkpt>
      <trkpt lat="45.32937" lon="5.45501">
        <ele>550.40551757812</ele>
        <time>2011-01-16T07:28:18Z</time>
      </trkpt>
      <trkpt lat="45.32944" lon="5.45487">
        <ele>546.87963867188</ele>
        <time>2011-01-16T07:28:23Z</time>
      </trkpt>
      <trkpt lat="45.32948" lon="5.45473">
        <ele>545.13482666016</ele>
        <time>2011-01-16T07:28:28Z</time>
      </trkpt>
      <trkpt lat="45.32952" lon="5.45457">
        <ele>543.08764648438</ele>
        <time>2011-01-16T07:28:33Z</time>
      </trkpt>
      <trkpt lat="45.32956" lon="5.45444">
        <ele>541.13446044922</ele>
        <time>2011-01-16T07:28:37Z</time>
      </trkpt>
      <trkpt lat="45.32961" lon="5.45433">
        <ele>538.87188720703</ele>
        <time>2011-01-16T07:28:41Z</time>
      </trkpt>
      <trkpt lat="45.32967" lon="5.45412">
        <ele>535.47009277344</ele>
        <time>2011-01-16T07:28:48Z</time>
      </trkpt>
      <trkpt lat="45.32966" lon="5.45382">
        <ele>534.11968994141</ele>
        <time>2011-01-16T07:28:54Z</time>
      </trkpt>
      <trkpt lat="45.32965" lon="5.45362">
        <ele>533.72143554688</ele>
        <time>2011-01-16T07:28:58Z</time>
      </trkpt>
      <trkpt lat="45.32965" lon="5.45338">
        <ele>532.31988525391</ele>
        <time>2011-01-16T07:29:04Z</time>
      </trkpt>
      <trkpt lat="45.32964" lon="5.45317">
        <ele>532.01721191406</ele>
        <time>2011-01-16T07:29:09Z</time>
      </trkpt>
      <trkpt lat="45.32962" lon="5.45298">
        <ele>531.71594238281</ele>
        <time>2011-01-16T07:29:12Z</time>
      </trkpt>
      <trkpt lat="45.32961" lon="5.4527">
        <ele>530.20520019531</ele>
        <time>2011-01-16T07:29:17Z</time>
      </trkpt>
      <trkpt lat="45.32958" lon="5.45255">
        <ele>530.14367675781</ele>
        <time>2011-01-16T07:29:20Z</time>
      </trkpt>
      <trkpt lat="45.32955" lon="5.45231">
        <ele>529.62725830078</ele>
        <time>2011-01-16T07:29:25Z</time>
      </trkpt>
      <trkpt lat="45.32956" lon="5.45214">
        <ele>528.25738525391</ele>
        <time>2011-01-16T07:29:29Z</time>
      </trkpt>
      <trkpt lat="45.32957" lon="5.45207">
        <ele>527.09899902344</ele>
        <time>2011-01-16T07:29:31Z</time>
      </trkpt>
      <trkpt lat="45.32957" lon="5.45185">
        <ele>525.36541748047</ele>
        <time>2011-01-16T07:29:37Z</time>
      </trkpt>
      <trkpt lat="45.32957" lon="5.45181">
        <ele>525.15057373047</ele>
        <time>2011-01-16T07:29:38Z</time>
      </trkpt>
      <trkpt lat="45.32957" lon="5.45174">
        <ele>524.63934326172</ele>
        <time>2011-01-16T07:29:40Z</time>
      </trkpt>
      <trkpt lat="45.32961" lon="5.45157">
        <ele>522.66265869141</ele>
        <time>2011-01-16T07:29:45Z</time>
      </trkpt>
      <trkpt lat="45.32964" lon="5.45141">
        <ele>520.84283447266</ele>
        <time>2011-01-16T07:29:50Z</time>
      </trkpt>
      <trkpt lat="45.32964" lon="5.45133">
        <ele>520.44323730469</ele>
        <time>2011-01-16T07:29:52Z</time>
      </trkpt>
      <trkpt lat="45.32965" lon="5.45114">
        <ele>519.46282958984</ele>
        <time>2011-01-16T07:29:57Z</time>
      </trkpt>
      <trkpt lat="45.3296" lon="5.45098">
        <ele>519.04986572266</ele>
        <time>2011-01-16T07:30:01Z</time>
      </trkpt>
      <trkpt lat="45.32959" lon="5.45081">
        <ele>517.80981445312</ele>
        <time>2011-01-16T07:30:06Z</time>
      </trkpt>
      <trkpt lat="45.32959" lon="5.45063">
        <ele>517.59539794922</ele>
        <time>2011-01-16T07:30:11Z</time>
      </trkpt>
      <trkpt lat="45.32954" lon="5.45037">
        <ele>517.23693847656</ele>
        <time>2011-01-16T07:30:17Z</time>
      </trkpt>
      <trkpt lat="45.3295" lon="5.45019">
        <ele>516.51068115234</ele>
        <time>2011-01-16T07:30:21Z</time>
      </trkpt>
      <trkpt lat="45.32949" lon="5.45">
        <ele>515.26513671875</ele>
        <time>2011-01-16T07:30:26Z</time>
      </trkpt>
      <trkpt lat="45.32949" lon="5.44978">
        <ele>514.49438476562</ele>
        <time>2011-01-16T07:30:31Z</time>
      </trkpt>
      <trkpt lat="45.32949" lon="5.44954">
        <ele>513.1943359375</ele>
        <time>2011-01-16T07:30:37Z</time>
      </trkpt>
      <trkpt lat="45.32949" lon="5.44939">
        <ele>512.25598144531</ele>
        <time>2011-01-16T07:30:41Z</time>
      </trkpt>
      <trkpt lat="45.32949" lon="5.44924">
        <ele>511.65728759766</ele>
        <time>2011-01-16T07:30:45Z</time>
      </trkpt>
      <trkpt lat="45.32948" lon="5.4491">
        <ele>510.99459838867</ele>
        <time>2011-01-16T07:30:49Z</time>
      </trkpt>
      <trkpt lat="45.32947" lon="5.44894">
        <ele>510.07183837891</ele>
        <time>2011-01-16T07:30:53Z</time>
      </trkpt>
      <trkpt lat="45.32947" lon="5.44879">
        <ele>509.34594726562</ele>
        <time>2011-01-16T07:30:57Z</time>
      </trkpt>
      <trkpt lat="45.32947" lon="5.44857">
        <ele>508.46759033203</ele>
        <time>2011-01-16T07:31:03Z</time>
      </trkpt>
      <trkpt lat="45.32947" lon="5.44854">
        <ele>508.24099731445</ele>
        <time>2011-01-16T07:31:04Z</time>
      </trkpt>
      <trkpt lat="45.32943" lon="5.44835">
        <ele>507.45504760742</ele>
        <time>2011-01-16T07:31:09Z</time>
      </trkpt>
      <trkpt lat="45.32938" lon="5.44821">
        <ele>507.68032836914</ele>
        <time>2011-01-16T07:31:13Z</time>
      </trkpt>
      <trkpt lat="45.32935" lon="5.44806">
        <ele>507.34255981445</ele>
        <time>2011-01-16T07:31:17Z</time>
      </trkpt>
      <trkpt lat="45.32932" lon="5.44785">
        <ele>506.41729736328</ele>
        <time>2011-01-16T07:31:22Z</time>
      </trkpt>
      <trkpt lat="45.32924" lon="5.44768">
        <ele>506.1907043457</ele>
        <time>2011-01-16T07:31:27Z</time>
      </trkpt>
      <trkpt lat="45.32919" lon="5.44749">
        <ele>505.59765625</ele>
        <time>2011-01-16T07:31:32Z</time>
      </trkpt>
      <trkpt lat="45.32915" lon="5.4473">
        <ele>505.39245605469</ele>
        <time>2011-01-16T07:31:37Z</time>
      </trkpt>
      <trkpt lat="45.32913" lon="5.44721">
        <ele>505.24490356445</ele>
        <time>2011-01-16T07:31:39Z</time>
      </trkpt>
      <trkpt lat="45.32912" lon="5.44704">
        <ele>503.58151245117</ele>
        <time>2011-01-16T07:31:43Z</time>
      </trkpt>
      <trkpt lat="45.32912" lon="5.44678">
        <ele>501.8818359375</ele>
        <time>2011-01-16T07:31:49Z</time>
      </trkpt>
      <trkpt lat="45.32911" lon="5.44656">
        <ele>500.80462646484</ele>
        <time>2011-01-16T07:31:55Z</time>
      </trkpt>
      <trkpt lat="45.32906" lon="5.44638">
        <ele>499.73489379883</ele>
        <time>2011-01-16T07:32:00Z</time>
      </trkpt>
      <trkpt lat="45.329" lon="5.44621">
        <ele>499.82455444336</ele>
        <time>2011-01-16T07:32:05Z</time>
      </trkpt>
      <trkpt lat="45.32898" lon="5.44612">
        <ele>499.67730712891</ele>
        <time>2011-01-16T07:32:07Z</time>
      </trkpt>
      <trkpt lat="45.32902" lon="5.44597">
        <ele>499.76867675781</ele>
        <time>2011-01-16T07:32:11Z</time>
      </trkpt>
      <trkpt lat="45.3291" lon="5.44574">
        <ele>500</ele>
        <time>2011-01-16T07:32:17Z</time>
      </trkpt>
      <trkpt lat="45.32915" lon="5.44558">
        <ele>500</ele>
        <time>2011-01-16T07:32:22Z</time>
      </trkpt>
      <trkpt lat="45.3291" lon="5.44548">
        <ele>500</ele>
        <time>2011-01-16T07:32:25Z</time>
      </trkpt>
      <trkpt lat="45.32896" lon="5.44532">
        <ele>500</ele>
        <time>2011-01-16T07:32:31Z</time>
      </trkpt>
      <trkpt lat="45.32881" lon="5.44516">
        <ele>500</ele>
        <time>2011-01-16T07:32:37Z</time>
      </trkpt>
      <trkpt lat="45.32873" lon="5.44505">
        <ele>500</ele>
        <time>2011-01-16T07:32:41Z</time>
      </trkpt>
      <trkpt lat="45.32863" lon="5.44489">
        <ele>500</ele>
        <time>2011-01-16T07:32:46Z</time>
      </trkpt>
      <trkpt lat="45.32853" lon="5.44472">
        <ele>500</ele>
        <time>2011-01-16T07:32:52Z</time>
      </trkpt>
      <trkpt lat="45.32842" lon="5.44457">
        <ele>500</ele>
        <time>2011-01-16T07:32:57Z</time>
      </trkpt>
      <trkpt lat="45.32832" lon="5.44444">
        <ele>500</ele>
        <time>2011-01-16T07:33:02Z</time>
      </trkpt>
      <trkpt lat="45.32822" lon="5.4443">
        <ele>500</ele>
        <time>2011-01-16T07:33:07Z</time>
      </trkpt>
      <trkpt lat="45.32814" lon="5.44416">
        <ele>500.0119934082</ele>
        <time>2011-01-16T07:33:12Z</time>
      </trkpt>
      <trkpt lat="45.32802" lon="5.44403">
        <ele>500</ele>
        <time>2011-01-16T07:33:17Z</time>
      </trkpt>
      <trkpt lat="45.32793" lon="5.44395">
        <ele>500</ele>
        <time>2011-01-16T07:33:21Z</time>
      </trkpt>
      <trkpt lat="45.32782" lon="5.44382">
        <ele>500.04263305664</ele>
        <time>2011-01-16T07:33:26Z</time>
      </trkpt>
      <trkpt lat="45.32772" lon="5.44368">
        <ele>499.84799194336</ele>
        <time>2011-01-16T07:33:31Z</time>
      </trkpt>
      <trkpt lat="45.3276" lon="5.44356">
        <ele>499.41818237305</ele>
        <time>2011-01-16T07:33:36Z</time>
      </trkpt>
      <trkpt lat="45.32747" lon="5.4434">
        <ele>498.82809448242</ele>
        <time>2011-01-16T07:33:42Z</time>
      </trkpt>
      <trkpt lat="45.32737" lon="5.44327">
        <ele>497.96078491211</ele>
        <time>2011-01-16T07:33:47Z</time>
      </trkpt>
      <trkpt lat="45.32727" lon="5.44312">
        <ele>496.75537109375</ele>
        <time>2011-01-16T07:33:53Z</time>
      </trkpt>
      <trkpt lat="45.32719" lon="5.44298">
        <ele>496.07336425781</ele>
        <time>2011-01-16T07:33:58Z</time>
      </trkpt>
      <trkpt lat="45.32704" lon="5.44283">
        <ele>496.5940246582</ele>
        <time>2011-01-16T07:34:04Z</time>
      </trkpt>
      <trkpt lat="45.3269" lon="5.44267">
        <ele>497.37991333008</ele>
        <time>2011-01-16T07:34:09Z</time>
      </trkpt>
      <trkpt lat="45.3268" lon="5.44257">
        <ele>498.16354370117</ele>
        <time>2011-01-16T07:34:13Z</time>
      </trkpt>
      <trkpt lat="45.32668" lon="5.44243">
        <ele>498.37478637695</ele>
        <time>2011-01-16T07:34:18Z</time>
      </trkpt>
      <trkpt lat="45.32659" lon="5.44233">
        <ele>498.31985473633</ele>
        <time>2011-01-16T07:34:23Z</time>
      </trkpt>
      <trkpt lat="45.32648" lon="5.44218">
        <ele>498.16744995117</ele>
        <time>2011-01-16T07:34:28Z</time>
      </trkpt>
      <trkpt lat="45.32643" lon="5.44205">
        <ele>498.11080932617</ele>
        <time>2011-01-16T07:34:32Z</time>
      </trkpt>
      <trkpt lat="45.32639" lon="5.44191">
        <ele>497.84759521484</ele>
        <time>2011-01-16T07:34:36Z</time>
      </trkpt>
      <trkpt lat="45.32635" lon="5.44175">
        <ele>497.26843261719</ele>
        <time>2011-01-16T07:34:40Z</time>
      </trkpt>
      <trkpt lat="45.32631" lon="5.44161">
        <ele>496.78863525391</ele>
        <time>2011-01-16T07:34:44Z</time>
      </trkpt>
      <trkpt lat="45.32626" lon="5.44142">
        <ele>496.10369873047</ele>
        <time>2011-01-16T07:34:49Z</time>
      </trkpt>
      <trkpt lat="45.32621" lon="5.44125">
        <ele>495.50115966797</ele>
        <time>2011-01-16T07:34:54Z</time>
      </trkpt>
      <trkpt lat="45.32617" lon="5.44111">
        <ele>494.98315429688</ele>
        <time>2011-01-16T07:34:58Z</time>
      </trkpt>
      <trkpt lat="45.32613" lon="5.44096">
        <ele>494.42440795898</ele>
        <time>2011-01-16T07:35:03Z</time>
      </trkpt>
      <trkpt lat="45.32604" lon="5.44082">
        <ele>493.97610473633</ele>
        <time>2011-01-16T07:35:08Z</time>
      </trkpt>
      <trkpt lat="45.32594" lon="5.44073">
        <ele>493.85708618164</ele>
        <time>2011-01-16T07:35:13Z</time>
      </trkpt>
      <trkpt lat="45.32583" lon="5.44062">
        <ele>494.0041809082</ele>
        <time>2011-01-16T07:35:18Z</time>
      </trkpt>
      <trkpt lat="45.32574" lon="5.44048">
        <ele>493.72198486328</ele>
        <time>2011-01-16T07:35:23Z</time>
      </trkpt>
      <trkpt lat="45.32565" lon="5.44028">
        <ele>493.0009765625</ele>
        <time>2011-01-16T07:35:29Z</time>
      </trkpt>
      <trkpt lat="45.32555" lon="5.44009">
        <ele>493.03344726562</ele>
        <time>2011-01-16T07:35:35Z</time>
      </trkpt>
      <trkpt lat="45.32544" lon="5.43991">
        <ele>493.1005859375</ele>
        <time>2011-01-16T07:35:41Z</time>
      </trkpt>
      <trkpt lat="45.32534" lon="5.43977">
        <ele>492.94439697266</ele>
        <time>2011-01-16T07:35:46Z</time>
      </trkpt>
      <trkpt lat="45.32523" lon="5.43965">
        <ele>493.17327880859</ele>
        <time>2011-01-16T07:35:51Z</time>
      </trkpt>
      <trkpt lat="45.32515" lon="5.43955">
        <ele>493.44793701172</ele>
        <time>2011-01-16T07:35:55Z</time>
      </trkpt>
      <trkpt lat="45.32507" lon="5.43945">
        <ele>493.736328125</ele>
        <time>2011-01-16T07:35:59Z</time>
      </trkpt>
      <trkpt lat="45.32493" lon="5.4393">
        <ele>493.88150024414</ele>
        <time>2011-01-16T07:36:06Z</time>
      </trkpt>
      <trkpt lat="45.32485" lon="5.43921">
        <ele>494.14004516602</ele>
        <time>2011-01-16T07:36:10Z</time>
      </trkpt>
      <trkpt lat="45.32478" lon="5.43906">
        <ele>494.61499023438</ele>
        <time>2011-01-16T07:36:15Z</time>
      </trkpt>
      <trkpt lat="45.32473" lon="5.43888">
        <ele>494.94458007812</ele>
        <time>2011-01-16T07:36:21Z</time>
      </trkpt>
      <trkpt lat="45.32471" lon="5.43873">
        <ele>495.0546875</ele>
        <time>2011-01-16T07:36:25Z</time>
      </trkpt>
      <trkpt lat="45.32471" lon="5.43854">
        <ele>495.03427124023</ele>
        <time>2011-01-16T07:36:31Z</time>
      </trkpt>
      <trkpt lat="45.32471" lon="5.43848">
        <ele>495.06079101562</ele>
        <time>2011-01-16T07:36:33Z</time>
      </trkpt>
      <trkpt lat="45.32469" lon="5.43823">
        <ele>495.21923828125</ele>
        <time>2011-01-16T07:36:40Z</time>
      </trkpt>
      <trkpt lat="45.32468" lon="5.43806">
        <ele>495.3291015625</ele>
        <time>2011-01-16T07:36:45Z</time>
      </trkpt>
      <trkpt lat="45.32466" lon="5.43787">
        <ele>495.43896484375</ele>
        <time>2011-01-16T07:36:50Z</time>
      </trkpt>
      <trkpt lat="45.32463" lon="5.43769">
        <ele>495.65869140625</ele>
        <time>2011-01-16T07:36:55Z</time>
      </trkpt>
      <trkpt lat="45.3246" lon="5.43754">
        <ele>495.90588378906</ele>
        <time>2011-01-16T07:36:59Z</time>
      </trkpt>
      <trkpt lat="45.32457" lon="5.43734">
        <ele>495.53851318359</ele>
        <time>2011-01-16T07:37:04Z</time>
      </trkpt>
      <trkpt lat="45.32456" lon="5.43729">
        <ele>495.38745117188</ele>
        <time>2011-01-16T07:37:06Z</time>
      </trkpt>
      <trkpt lat="45.32449" lon="5.43727">
        <ele>495.85952758789</ele>
        <time>2011-01-16T07:37:11Z</time>
      </trkpt>
      <trkpt lat="45.32437" lon="5.43733">
        <ele>496.66064453125</ele>
        <time>2011-01-16T07:37:18Z</time>
      </trkpt>
      <trkpt lat="45.32423" lon="5.43737">
        <ele>497.31640625</ele>
        <time>2011-01-16T07:37:25Z</time>
      </trkpt>
      <trkpt lat="45.32412" lon="5.4374">
        <ele>497.94256591797</ele>
        <time>2011-01-16T07:37:30Z</time>
      </trkpt>
      <trkpt lat="45.32398" lon="5.43743">
        <ele>499.07037353516</ele>
        <time>2011-01-16T07:37:36Z</time>
      </trkpt>
      <trkpt lat="45.32386" lon="5.43746">
        <ele>500.55700683594</ele>
        <time>2011-01-16T07:37:42Z</time>
      </trkpt>
      <trkpt lat="45.32373" lon="5.4375">
        <ele>503.33413696289</ele>
        <time>2011-01-16T07:37:48Z</time>
      </trkpt>
      <trkpt lat="45.32359" lon="5.43755">
        <ele>506.5080871582</ele>
        <time>2011-01-16T07:37:54Z</time>
      </trkpt>
      <trkpt lat="45.32348" lon="5.43755">
        <ele>508.17797851562</ele>
        <time>2011-01-16T07:37:59Z</time>
      </trkpt>
      <trkpt lat="45.32336" lon="5.43757">
        <ele>510.06353759766</ele>
        <time>2011-01-16T07:38:05Z</time>
      </trkpt>
      <trkpt lat="45.32324" lon="5.43758">
        <ele>512.57641601562</ele>
        <time>2011-01-16T07:38:11Z</time>
      </trkpt>
      <trkpt lat="45.32314" lon="5.43761">
        <ele>514.92822265625</ele>
        <time>2011-01-16T07:38:17Z</time>
      </trkpt>
      <trkpt lat="45.3231" lon="5.43764">
        <ele>515.99249267578</ele>
        <time>2011-01-16T07:38:20Z</time>
      </trkpt>
      <trkpt lat="45.32307" lon="5.43774">
        <ele>517.48937988281</ele>
        <time>2011-01-16T07:38:25Z</time>
      </trkpt>
      <trkpt lat="45.32305" lon="5.43787">
        <ele>518.72430419922</ele>
        <time>2011-01-16T07:38:30Z</time>
      </trkpt>
      <trkpt lat="45.32297" lon="5.43803">
        <ele>521.37817382812</ele>
        <time>2011-01-16T07:38:37Z</time>
      </trkpt>
      <trkpt lat="45.32296" lon="5.43804">
        <ele>521.63568115234</ele>
        <time>2011-01-16T07:38:38Z</time>
      </trkpt>
      <trkpt lat="45.32288" lon="5.43816">
        <ele>523.09509277344</ele>
        <time>2011-01-16T07:38:44Z</time>
      </trkpt>
      <trkpt lat="45.32281" lon="5.43824">
        <ele>524.3310546875</ele>
        <time>2011-01-16T07:38:49Z</time>
      </trkpt>
      <trkpt lat="45.32272" lon="5.43834">
        <ele>525.66979980469</ele>
        <time>2011-01-16T07:38:54Z</time>
      </trkpt>
      <trkpt lat="45.32264" lon="5.4384">
        <ele>526.53497314453</ele>
        <time>2011-01-16T07:38:59Z</time>
      </trkpt>
      <trkpt lat="45.32259" lon="5.43843">
        <ele>526.98815917969</ele>
        <time>2011-01-16T07:39:02Z</time>
      </trkpt>
      <trkpt lat="45.32253" lon="5.4385">
        <ele>527.64733886719</ele>
        <time>2011-01-16T07:39:06Z</time>
      </trkpt>
      <trkpt lat="45.32248" lon="5.43856">
        <ele>528.42559814453</ele>
        <time>2011-01-16T07:39:10Z</time>
      </trkpt>
      <trkpt lat="45.32241" lon="5.43868">
        <ele>529.80493164062</ele>
        <time>2011-01-16T07:39:17Z</time>
      </trkpt>
      <trkpt lat="45.32238" lon="5.43879">
        <ele>530.86920166016</ele>
        <time>2011-01-16T07:39:22Z</time>
      </trkpt>
      <trkpt lat="45.32236" lon="5.43882">
        <ele>531.24859619141</ele>
        <time>2011-01-16T07:39:24Z</time>
      </trkpt>
      <trkpt lat="45.32232" lon="5.43888">
        <ele>532.23046875</ele>
        <time>2011-01-16T07:39:28Z</time>
      </trkpt>
      <trkpt lat="45.32226" lon="5.43902">
        <ele>534.08605957031</ele>
        <time>2011-01-16T07:39:35Z</time>
      </trkpt>
      <trkpt lat="45.32219" lon="5.43914">
        <ele>536.39099121094</ele>
        <time>2011-01-16T07:39:41Z</time>
      </trkpt>
      <trkpt lat="45.3221" lon="5.43927">
        <ele>538.59490966797</ele>
        <time>2011-01-16T07:39:47Z</time>
      </trkpt>
      <trkpt lat="45.32201" lon="5.43937">
        <ele>540.55529785156</ele>
        <time>2011-01-16T07:39:53Z</time>
      </trkpt>
      <trkpt lat="45.32194" lon="5.43946">
        <ele>542.04418945312</ele>
        <time>2011-01-16T07:39:59Z</time>
      </trkpt>
      <trkpt lat="45.32191" lon="5.43951">
        <ele>542.4287109375</ele>
        <time>2011-01-16T07:40:02Z</time>
      </trkpt>
      <trkpt lat="45.32188" lon="5.43957">
        <ele>542.97802734375</ele>
        <time>2011-01-16T07:40:06Z</time>
      </trkpt>
      <trkpt lat="45.32181" lon="5.43968">
        <ele>543.91186523438</ele>
        <time>2011-01-16T07:40:14Z</time>
      </trkpt>
      <trkpt lat="45.32174" lon="5.43977">
        <ele>545.03839111328</ele>
        <time>2011-01-16T07:40:20Z</time>
      </trkpt>
      <trkpt lat="45.32172" lon="5.43982">
        <ele>545.56945800781</ele>
        <time>2011-01-16T07:40:23Z</time>
      </trkpt>
      <trkpt lat="45.32162" lon="5.43994">
        <ele>548.18829345703</ele>
        <time>2011-01-16T07:40:31Z</time>
      </trkpt>
      <trkpt lat="45.32157" lon="5.44006">
        <ele>550.015625</ele>
        <time>2011-01-16T07:40:37Z</time>
      </trkpt>
      <trkpt lat="45.32153" lon="5.44017">
        <ele>551.43286132812</ele>
        <time>2011-01-16T07:40:42Z</time>
      </trkpt>
      <trkpt lat="45.32148" lon="5.4403">
        <ele>554.0625</ele>
        <time>2011-01-16T07:40:49Z</time>
      </trkpt>
      <trkpt lat="45.32145" lon="5.44037">
        <ele>555.64752197266</ele>
        <time>2011-01-16T07:40:52Z</time>
      </trkpt>
      <trkpt lat="45.32141" lon="5.4405">
        <ele>558.62817382812</ele>
        <time>2011-01-16T07:40:58Z</time>
      </trkpt>
      <trkpt lat="45.32137" lon="5.44061">
        <ele>560.2412109375</ele>
        <time>2011-01-16T07:41:03Z</time>
      </trkpt>
      <trkpt lat="45.32133" lon="5.44074">
        <ele>561.03875732422</ele>
        <time>2011-01-16T07:41:08Z</time>
      </trkpt>
      <trkpt lat="45.32132" lon="5.44083">
        <ele>561.31646728516</ele>
        <time>2011-01-16T07:41:11Z</time>
      </trkpt>
      <trkpt lat="45.32127" lon="5.441">
        <ele>562.39624023438</ele>
        <time>2011-01-16T07:41:17Z</time>
      </trkpt>
      <trkpt lat="45.32125" lon="5.44105">
        <ele>562.95483398438</ele>
        <time>2011-01-16T07:41:19Z</time>
      </trkpt>
      <trkpt lat="45.32119" lon="5.4412">
        <ele>564.52728271484</ele>
        <time>2011-01-16T07:41:25Z</time>
      </trkpt>
      <trkpt lat="45.32114" lon="5.44135">
        <ele>566.23358154297</ele>
        <time>2011-01-16T07:41:31Z</time>
      </trkpt>
      <trkpt lat="45.32109" lon="5.44148">
        <ele>568.05548095703</ele>
        <time>2011-01-16T07:41:36Z</time>
      </trkpt>
      <trkpt lat="45.32103" lon="5.44165">
        <ele>570.33514404297</ele>
        <time>2011-01-16T07:41:42Z</time>
      </trkpt>
      <trkpt lat="45.32097" lon="5.4418">
        <ele>572.27075195312</ele>
        <time>2011-01-16T07:41:48Z</time>
      </trkpt>
      <trkpt lat="45.32092" lon="5.44189">
        <ele>573.76495361328</ele>
        <time>2011-01-16T07:41:52Z</time>
      </trkpt>
      <trkpt lat="45.32086" lon="5.44205">
        <ele>576.49462890625</ele>
        <time>2011-01-16T07:41:59Z</time>
      </trkpt>
      <trkpt lat="45.3208" lon="5.44219">
        <ele>579.25823974609</ele>
        <time>2011-01-16T07:42:05Z</time>
      </trkpt>
      <trkpt lat="45.32075" lon="5.44232">
        <ele>580.9140625</ele>
        <time>2011-01-16T07:42:10Z</time>
      </trkpt>
      <trkpt lat="45.32069" lon="5.44245">
        <ele>582.73248291016</ele>
        <time>2011-01-16T07:42:16Z</time>
      </trkpt>
      <trkpt lat="45.32067" lon="5.44252">
        <ele>583.55767822266</ele>
        <time>2011-01-16T07:42:19Z</time>
      </trkpt>
      <trkpt lat="45.32062" lon="5.44267">
        <ele>585.7353515625</ele>
        <time>2011-01-16T07:42:26Z</time>
      </trkpt>
      <trkpt lat="45.3206" lon="5.44276">
        <ele>586.67041015625</ele>
        <time>2011-01-16T07:42:30Z</time>
      </trkpt>
      <trkpt lat="45.32055" lon="5.44286">
        <ele>588.16491699219</ele>
        <time>2011-01-16T07:42:35Z</time>
      </trkpt>
      <trkpt lat="45.32052" lon="5.44296">
        <ele>588.93395996094</ele>
        <time>2011-01-16T07:42:40Z</time>
      </trkpt>
      <trkpt lat="45.32048" lon="5.44309">
        <ele>589.80493164062</ele>
        <time>2011-01-16T07:42:46Z</time>
      </trkpt>
      <trkpt lat="45.32047" lon="5.44312">
        <ele>589.93432617188</ele>
        <time>2011-01-16T07:42:47Z</time>
      </trkpt>
      <trkpt lat="45.32045" lon="5.44326">
        <ele>590.21014404297</ele>
        <time>2011-01-16T07:42:53Z</time>
      </trkpt>
      <trkpt lat="45.32042" lon="5.44337">
        <ele>591.03369140625</ele>
        <time>2011-01-16T07:42:58Z</time>
      </trkpt>
      <trkpt lat="45.32036" lon="5.44353">
        <ele>592.57177734375</ele>
        <time>2011-01-16T07:43:05Z</time>
      </trkpt>
      <trkpt lat="45.3203" lon="5.44366">
        <ele>594.47399902344</ele>
        <time>2011-01-16T07:43:11Z</time>
      </trkpt>
      <trkpt lat="45.32029" lon="5.44368">
        <ele>594.98754882812</ele>
        <time>2011-01-16T07:43:12Z</time>
      </trkpt>
      <trkpt lat="45.3202" lon="5.44386">
        <ele>597.35601806641</ele>
        <time>2011-01-16T07:43:20Z</time>
      </trkpt>
      <trkpt lat="45.32018" lon="5.4439">
        <ele>597.79138183594</ele>
        <time>2011-01-16T07:43:22Z</time>
      </trkpt>
      <trkpt lat="45.32017" lon="5.44394">
        <ele>598.05139160156</ele>
        <time>2011-01-16T07:43:24Z</time>
      </trkpt>
      <trkpt lat="45.3201" lon="5.44404">
        <ele>599.64514160156</ele>
        <time>2011-01-16T07:43:31Z</time>
      </trkpt>
      <trkpt lat="45.32008" lon="5.44406">
        <ele>599.9130859375</ele>
        <time>2011-01-16T07:43:32Z</time>
      </trkpt>
      <trkpt lat="45.31999" lon="5.44416">
        <ele>602.14489746094</ele>
        <time>2011-01-16T07:43:39Z</time>
      </trkpt>
      <trkpt lat="45.31993" lon="5.44428">
        <ele>603.67651367188</ele>
        <time>2011-01-16T07:43:45Z</time>
      </trkpt>
      <trkpt lat="45.31987" lon="5.44437">
        <ele>605.05633544922</ele>
        <time>2011-01-16T07:43:50Z</time>
      </trkpt>
      <trkpt lat="45.31987" lon="5.44438">
        <ele>605.25848388672</ele>
        <time>2011-01-16T07:43:51Z</time>
      </trkpt>
      <trkpt lat="45.31979" lon="5.44445">
        <ele>607.42095947266</ele>
        <time>2011-01-16T07:43:57Z</time>
      </trkpt>
      <trkpt lat="45.3197" lon="5.44456">
        <ele>610.02691650391</ele>
        <time>2011-01-16T07:44:04Z</time>
      </trkpt>
      <trkpt lat="45.31962" lon="5.44465">
        <ele>612.17730712891</ele>
        <time>2011-01-16T07:44:09Z</time>
      </trkpt>
      <trkpt lat="45.31957" lon="5.44471">
        <ele>613.32116699219</ele>
        <time>2011-01-16T07:44:13Z</time>
      </trkpt>
      <trkpt lat="45.31956" lon="5.44473">
        <ele>613.54943847656</ele>
        <time>2011-01-16T07:44:14Z</time>
      </trkpt>
      <trkpt lat="45.31946" lon="5.44481">
        <ele>615.38446044922</ele>
        <time>2011-01-16T07:44:21Z</time>
      </trkpt>
      <trkpt lat="45.31938" lon="5.44486">
        <ele>616.50744628906</ele>
        <time>2011-01-16T07:44:26Z</time>
      </trkpt>
      <trkpt lat="45.31934" lon="5.44489">
        <ele>617.07885742188</ele>
        <time>2011-01-16T07:44:28Z</time>
      </trkpt>
      <trkpt lat="45.31925" lon="5.44497">
        <ele>618.56195068359</ele>
        <time>2011-01-16T07:44:35Z</time>
      </trkpt>
      <trkpt lat="45.31918" lon="5.44503">
        <ele>619.83087158203</ele>
        <time>2011-01-16T07:44:40Z</time>
      </trkpt>
      <trkpt lat="45.31909" lon="5.44508">
        <ele>620.26953125</ele>
        <time>2011-01-16T07:44:46Z</time>
      </trkpt>
      <trkpt lat="45.319" lon="5.44513">
        <ele>620.58538818359</ele>
        <time>2011-01-16T07:44:52Z</time>
      </trkpt>
      <trkpt lat="45.31892" lon="5.44517">
        <ele>620.87377929688</ele>
        <time>2011-01-16T07:44:57Z</time>
      </trkpt>
      <trkpt lat="45.31886" lon="5.4452">
        <ele>621.162109375</ele>
        <time>2011-01-16T07:45:01Z</time>
      </trkpt>
      <trkpt lat="45.31876" lon="5.44522">
        <ele>621.83758544922</ele>
        <time>2011-01-16T07:45:08Z</time>
      </trkpt>
      <trkpt lat="45.31868" lon="5.44524">
        <ele>622.42864990234</ele>
        <time>2011-01-16T07:45:13Z</time>
      </trkpt>
      <trkpt lat="45.31863" lon="5.44525">
        <ele>622.80847167969</ele>
        <time>2011-01-16T07:45:16Z</time>
      </trkpt>
      <trkpt lat="45.31855" lon="5.44527">
        <ele>623.57269287109</ele>
        <time>2011-01-16T07:45:24Z</time>
      </trkpt>
      <trkpt lat="45.31854" lon="5.44527">
        <ele>623.72204589844</ele>
        <time>2011-01-16T07:45:30Z</time>
      </trkpt>
      <trkpt lat="45.31853" lon="5.44527">
        <ele>623.77868652344</ele>
        <time>2011-01-16T07:45:39Z</time>
      </trkpt>
      <trkpt lat="45.31851" lon="5.44525">
        <ele>623.96923828125</ele>
        <time>2011-01-16T07:45:46Z</time>
      </trkpt>
      <trkpt lat="45.31852" lon="5.44526">
        <ele>623.97436523438</ele>
        <time>2011-01-16T07:46:14Z</time>
      </trkpt>
      <trkpt lat="45.31852" lon="5.44528">
        <ele>623.97094726562</ele>
        <time>2011-01-16T07:46:38Z</time>
      </trkpt>
      <trkpt lat="45.31853" lon="5.44532">
        <ele>624.06018066406</ele>
        <time>2011-01-16T07:47:50Z</time>
      </trkpt>
      <trkpt lat="45.31854" lon="5.44533">
        <ele>623.97778320312</ele>
        <time>2011-01-16T07:48:33Z</time>
      </trkpt>
      <trkpt lat="45.31847" lon="5.44527">
        <ele>624.50823974609</ele>
        <time>2011-01-16T07:50:37Z</time>
      </trkpt>
      <trkpt lat="45.3184" lon="5.44523">
        <ele>625.10046386719</ele>
        <time>2011-01-16T07:50:44Z</time>
      </trkpt>
      <trkpt lat="45.31834" lon="5.44516">
        <ele>625.52447509766</ele>
        <time>2011-01-16T07:50:53Z</time>
      </trkpt>
      <trkpt lat="45.3183" lon="5.44507">
        <ele>625.51922607422</ele>
        <time>2011-01-16T07:51:00Z</time>
      </trkpt>
      <trkpt lat="45.31827" lon="5.44499">
        <ele>625.44482421875</ele>
        <time>2011-01-16T07:51:06Z</time>
      </trkpt>
      <trkpt lat="45.31824" lon="5.44488">
        <ele>625.20452880859</ele>
        <time>2011-01-16T07:51:12Z</time>
      </trkpt>
      <trkpt lat="45.3182" lon="5.4447">
        <ele>624.81225585938</ele>
        <time>2011-01-16T07:51:21Z</time>
      </trkpt>
      <trkpt lat="45.31819" lon="5.4446">
        <ele>624.39666748047</ele>
        <time>2011-01-16T07:51:27Z</time>
      </trkpt>
      <trkpt lat="45.31818" lon="5.44458">
        <ele>624.30474853516</ele>
        <time>2011-01-16T07:51:28Z</time>
      </trkpt>
      <trkpt lat="45.31817" lon="5.44451">
        <ele>623.970703125</ele>
        <time>2011-01-16T07:51:31Z</time>
      </trkpt>
      <trkpt lat="45.31811" lon="5.44437">
        <ele>623.53527832031</ele>
        <time>2011-01-16T07:51:36Z</time>
      </trkpt>
      <trkpt lat="45.31808" lon="5.44425">
        <ele>623.21429443359</ele>
        <time>2011-01-16T07:51:40Z</time>
      </trkpt>
      <trkpt lat="45.31803" lon="5.44414">
        <ele>622.80426025391</ele>
        <time>2011-01-16T07:51:44Z</time>
      </trkpt>
      <trkpt lat="45.31795" lon="5.44409">
        <ele>622.4541015625</ele>
        <time>2011-01-16T07:51:49Z</time>
      </trkpt>
      <trkpt lat="45.31785" lon="5.44404">
        <ele>622.10046386719</ele>
        <time>2011-01-16T07:51:53Z</time>
      </trkpt>
      <trkpt lat="45.31772" lon="5.44394">
        <ele>621.16955566406</ele>
        <time>2011-01-16T07:51:59Z</time>
      </trkpt>
      <trkpt lat="45.31763" lon="5.44388">
        <ele>620.42755126953</ele>
        <time>2011-01-16T07:52:03Z</time>
      </trkpt>
      <trkpt lat="45.31752" lon="5.44379">
        <ele>619.42767333984</ele>
        <time>2011-01-16T07:52:08Z</time>
      </trkpt>
      <trkpt lat="45.31741" lon="5.44366">
        <ele>618.31317138672</ele>
        <time>2011-01-16T07:52:14Z</time>
      </trkpt>
      <trkpt lat="45.31731" lon="5.44357">
        <ele>617.69799804688</ele>
        <time>2011-01-16T07:52:19Z</time>
      </trkpt>
      <trkpt lat="45.31717" lon="5.44343">
        <ele>617.01025390625</ele>
        <time>2011-01-16T07:52:25Z</time>
      </trkpt>
      <trkpt lat="45.31708" lon="5.44329">
        <ele>616.85150146484</ele>
        <time>2011-01-16T07:52:30Z</time>
      </trkpt>
      <trkpt lat="45.31706" lon="5.44326">
        <ele>616.89270019531</ele>
        <time>2011-01-16T07:52:31Z</time>
      </trkpt>
      <trkpt lat="45.31699" lon="5.44315">
        <ele>617.02490234375</ele>
        <time>2011-01-16T07:52:35Z</time>
      </trkpt>
      <trkpt lat="45.31693" lon="5.44306">
        <ele>617.00885009766</ele>
        <time>2011-01-16T07:52:38Z</time>
      </trkpt>
      <trkpt lat="45.31681" lon="5.44282">
        <ele>616.56713867188</ele>
        <time>2011-01-16T07:52:45Z</time>
      </trkpt>
      <trkpt lat="45.31675" lon="5.44267">
        <ele>616.71527099609</ele>
        <time>2011-01-16T07:52:49Z</time>
      </trkpt>
      <trkpt lat="45.31667" lon="5.44254">
        <ele>616.97619628906</ele>
        <time>2011-01-16T07:52:53Z</time>
      </trkpt>
      <trkpt lat="45.31656" lon="5.44247">
        <ele>617.46917724609</ele>
        <time>2011-01-16T07:52:57Z</time>
      </trkpt>
      <trkpt lat="45.31643" lon="5.44246">
        <ele>618.10931396484</ele>
        <time>2011-01-16T07:53:02Z</time>
      </trkpt>
      <trkpt lat="45.31633" lon="5.44244">
        <ele>618.76477050781</ele>
        <time>2011-01-16T07:53:07Z</time>
      </trkpt>
      <trkpt lat="45.31617" lon="5.44244">
        <ele>619.67120361328</ele>
        <time>2011-01-16T07:53:14Z</time>
      </trkpt>
      <trkpt lat="45.31606" lon="5.44243">
        <ele>620</ele>
        <time>2011-01-16T07:53:19Z</time>
      </trkpt>
      <trkpt lat="45.31594" lon="5.4424">
        <ele>620</ele>
        <time>2011-01-16T07:53:24Z</time>
      </trkpt>
      <trkpt lat="45.31585" lon="5.44238">
        <ele>620</ele>
        <time>2011-01-16T07:53:28Z</time>
      </trkpt>
      <trkpt lat="45.31578" lon="5.44237">
        <ele>618.95196533203</ele>
        <time>2011-01-16T07:53:31Z</time>
      </trkpt>
      <trkpt lat="45.31571" lon="5.44235">
        <ele>617.53662109375</ele>
        <time>2011-01-16T07:53:35Z</time>
      </trkpt>
      <trkpt lat="45.31565" lon="5.44246">
        <ele>616.16259765625</ele>
        <time>2011-01-16T07:53:40Z</time>
      </trkpt>
      <trkpt lat="45.31559" lon="5.44246">
        <ele>614.78295898438</ele>
        <time>2011-01-16T07:53:44Z</time>
      </trkpt>
      <trkpt lat="45.31556" lon="5.44243">
        <ele>614.25744628906</ele>
        <time>2011-01-16T07:53:46Z</time>
      </trkpt>
      <trkpt lat="45.31546" lon="5.44232">
        <ele>611.11120605469</ele>
        <time>2011-01-16T07:53:51Z</time>
      </trkpt>
      <trkpt lat="45.31533" lon="5.44222">
        <ele>606.22235107422</ele>
        <time>2011-01-16T07:53:56Z</time>
      </trkpt>
      <trkpt lat="45.31523" lon="5.44214">
        <ele>601.65612792969</ele>
        <time>2011-01-16T07:54:01Z</time>
      </trkpt>
      <trkpt lat="45.31522" lon="5.44213">
        <ele>601.31677246094</ele>
        <time>2011-01-16T07:54:02Z</time>
      </trkpt>
      <trkpt lat="45.31518" lon="5.44213">
        <ele>599.58062744141</ele>
        <time>2011-01-16T07:54:10Z</time>
      </trkpt>
      <trkpt lat="45.31517" lon="5.44212">
        <ele>599.40362548828</ele>
        <time>2011-01-16T07:54:16Z</time>
      </trkpt>
      <trkpt lat="45.31516" lon="5.44217">
        <ele>599.15423583984</ele>
        <time>2011-01-16T07:54:22Z</time>
      </trkpt>
      <trkpt lat="45.31516" lon="5.44217">
        <ele>599.15179443359</ele>
        <time>2011-01-16T07:54:29Z</time>
      </trkpt>
      <trkpt lat="45.31515" lon="5.44213">
        <ele>598.51531982422</ele>
        <time>2011-01-16T07:54:36Z</time>
      </trkpt>
      <trkpt lat="45.31513" lon="5.44209">
        <ele>597.33923339844</ele>
        <time>2011-01-16T07:54:39Z</time>
      </trkpt>
      <trkpt lat="45.31507" lon="5.44195">
        <ele>593.96228027344</ele>
        <time>2011-01-16T07:54:45Z</time>
      </trkpt>
      <trkpt lat="45.31499" lon="5.44184">
        <ele>590.33404541016</ele>
        <time>2011-01-16T07:54:50Z</time>
      </trkpt>
      <trkpt lat="45.3149" lon="5.44172">
        <ele>588.03204345703</ele>
        <time>2011-01-16T07:54:55Z</time>
      </trkpt>
      <trkpt lat="45.31476" lon="5.44156">
        <ele>584.42364501953</ele>
        <time>2011-01-16T07:55:02Z</time>
      </trkpt>
      <trkpt lat="45.31469" lon="5.44146">
        <ele>582.47271728516</ele>
        <time>2011-01-16T07:55:06Z</time>
      </trkpt>
      <trkpt lat="45.31466" lon="5.44139">
        <ele>581.07379150391</ele>
        <time>2011-01-16T07:55:10Z</time>
      </trkpt>
      <trkpt lat="45.31456" lon="5.44125">
        <ele>577.62567138672</ele>
        <time>2011-01-16T07:55:17Z</time>
      </trkpt>
      <trkpt lat="45.31447" lon="5.44108">
        <ele>573.44525146484</ele>
        <time>2011-01-16T07:55:22Z</time>
      </trkpt>
      <trkpt lat="45.31439" lon="5.44097">
        <ele>568.96228027344</ele>
        <time>2011-01-16T07:55:26Z</time>
      </trkpt>
      <trkpt lat="45.31432" lon="5.44086">
        <ele>564.28692626953</ele>
        <time>2011-01-16T07:55:30Z</time>
      </trkpt>
      <trkpt lat="45.31425" lon="5.4407">
        <ele>558.82373046875</ele>
        <time>2011-01-16T07:55:35Z</time>
      </trkpt>
      <trkpt lat="45.31423" lon="5.44064">
        <ele>556.95434570312</ele>
        <time>2011-01-16T07:55:37Z</time>
      </trkpt>
      <trkpt lat="45.31417" lon="5.44051">
        <ele>552.400390625</ele>
        <time>2011-01-16T07:55:41Z</time>
      </trkpt>
      <trkpt lat="45.31403" lon="5.44039">
        <ele>545.45391845703</ele>
        <time>2011-01-16T07:55:47Z</time>
      </trkpt>
      <trkpt lat="45.31392" lon="5.44039">
        <ele>541.37371826172</ele>
        <time>2011-01-16T07:55:51Z</time>
      </trkpt>
      <trkpt lat="45.31376" lon="5.44039">
        <ele>536.234375</ele>
        <time>2011-01-16T07:55:56Z</time>
      </trkpt>
      <trkpt lat="45.31357" lon="5.4404">
        <ele>529.81921386719</ele>
        <time>2011-01-16T07:56:03Z</time>
      </trkpt>
      <trkpt lat="45.31343" lon="5.44056">
        <ele>525.23553466797</ele>
        <time>2011-01-16T07:56:09Z</time>
      </trkpt>
      <trkpt lat="45.3134" lon="5.44074">
        <ele>524.52111816406</ele>
        <time>2011-01-16T07:56:13Z</time>
      </trkpt>
      <trkpt lat="45.31337" lon="5.44091">
        <ele>524.22271728516</ele>
        <time>2011-01-16T07:56:17Z</time>
      </trkpt>
      <trkpt lat="45.31336" lon="5.44102">
        <ele>523.96569824219</ele>
        <time>2011-01-16T07:56:21Z</time>
      </trkpt>
      <trkpt lat="45.31334" lon="5.44115">
        <ele>523.25262451172</ele>
        <time>2011-01-16T07:56:25Z</time>
      </trkpt>
      <trkpt lat="45.31327" lon="5.44134">
        <ele>523.00561523438</ele>
        <time>2011-01-16T07:56:30Z</time>
      </trkpt>
      <trkpt lat="45.31322" lon="5.44155">
        <ele>522.90808105469</ele>
        <time>2011-01-16T07:56:36Z</time>
      </trkpt>
      <trkpt lat="45.31317" lon="5.44175">
        <ele>522.91833496094</ele>
        <time>2011-01-16T07:56:41Z</time>
      </trkpt>
      <trkpt lat="45.31311" lon="5.44191">
        <ele>522.72784423828</ele>
        <time>2011-01-16T07:56:45Z</time>
      </trkpt>
      <trkpt lat="45.31304" lon="5.44216">
        <ele>522.70935058594</ele>
        <time>2011-01-16T07:56:51Z</time>
      </trkpt>
      <trkpt lat="45.31303" lon="5.44234">
        <ele>523.73553466797</ele>
        <time>2011-01-16T07:56:55Z</time>
      </trkpt>
      <trkpt lat="45.31301" lon="5.4425">
        <ele>524.85577392578</ele>
        <time>2011-01-16T07:56:59Z</time>
      </trkpt>
      <trkpt lat="45.31294" lon="5.4426">
        <ele>524.77740478516</ele>
        <time>2011-01-16T07:57:03Z</time>
      </trkpt>
      <trkpt lat="45.31284" lon="5.44258">
        <ele>524.28985595703</ele>
        <time>2011-01-16T07:57:07Z</time>
      </trkpt>
      <trkpt lat="45.31271" lon="5.44251">
        <ele>525.47918701172</ele>
        <time>2011-01-16T07:57:13Z</time>
      </trkpt>
      <trkpt lat="45.3126" lon="5.44249">
        <ele>527.69024658203</ele>
        <time>2011-01-16T07:57:18Z</time>
      </trkpt>
      <trkpt lat="45.31249" lon="5.44246">
        <ele>530.01348876953</ele>
        <time>2011-01-16T07:57:23Z</time>
      </trkpt>
      <trkpt lat="45.31242" lon="5.44237">
        <ele>531.23791503906</ele>
        <time>2011-01-16T07:57:28Z</time>
      </trkpt>
      <trkpt lat="45.31241" lon="5.4422">
        <ele>530.43896484375</ele>
        <time>2011-01-16T07:57:34Z</time>
      </trkpt>
      <trkpt lat="45.31242" lon="5.44209">
        <ele>529.72137451172</ele>
        <time>2011-01-16T07:57:39Z</time>
      </trkpt>
      <trkpt lat="45.31245" lon="5.44202">
        <ele>528.81500244141</ele>
        <time>2011-01-16T07:57:43Z</time>
      </trkpt>
      <trkpt lat="45.31244" lon="5.44191">
        <ele>528.55432128906</ele>
        <time>2011-01-16T07:57:47Z</time>
      </trkpt>
      <trkpt lat="45.31243" lon="5.44171">
        <ele>528.46740722656</ele>
        <time>2011-01-16T07:57:54Z</time>
      </trkpt>
      <trkpt lat="45.31242" lon="5.44157">
        <ele>527.99279785156</ele>
        <time>2011-01-16T07:57:59Z</time>
      </trkpt>
      <trkpt lat="45.31242" lon="5.44139">
        <ele>527.00494384766</ele>
        <time>2011-01-16T07:58:05Z</time>
      </trkpt>
      <trkpt lat="45.31243" lon="5.44127">
        <ele>525.83428955078</ele>
        <time>2011-01-16T07:58:09Z</time>
      </trkpt>
      <trkpt lat="45.31241" lon="5.44109">
        <ele>525.50512695312</ele>
        <time>2011-01-16T07:58:14Z</time>
      </trkpt>
      <trkpt lat="45.31239" lon="5.4409">
        <ele>524.71551513672</ele>
        <time>2011-01-16T07:58:19Z</time>
      </trkpt>
      <trkpt lat="45.31237" lon="5.44068">
        <ele>525.02764892578</ele>
        <time>2011-01-16T07:58:25Z</time>
      </trkpt>
      <trkpt lat="45.31234" lon="5.44051">
        <ele>525.58374023438</ele>
        <time>2011-01-16T07:58:30Z</time>
      </trkpt>
      <trkpt lat="45.31231" lon="5.44028">
        <ele>525.37933349609</ele>
        <time>2011-01-16T07:58:37Z</time>
      </trkpt>
      <trkpt lat="45.31229" lon="5.44013">
        <ele>525.54510498047</ele>
        <time>2011-01-16T07:58:41Z</time>
      </trkpt>
      <trkpt lat="45.31228" lon="5.43997">
        <ele>525.48138427734</ele>
        <time>2011-01-16T07:58:46Z</time>
      </trkpt>
      <trkpt lat="45.31226" lon="5.4398">
        <ele>525.52490234375</ele>
        <time>2011-01-16T07:58:51Z</time>
      </trkpt>
      <trkpt lat="45.31224" lon="5.4396">
        <ele>524.74914550781</ele>
        <time>2011-01-16T07:58:57Z</time>
      </trkpt>
      <trkpt lat="45.31223" lon="5.4394">
        <ele>523.69372558594</ele>
        <time>2011-01-16T07:59:02Z</time>
      </trkpt>
      <trkpt lat="45.31224" lon="5.43924">
        <ele>523.07977294922</ele>
        <time>2011-01-16T07:59:07Z</time>
      </trkpt>
      <trkpt lat="45.31226" lon="5.43899">
        <ele>521.45739746094</ele>
        <time>2011-01-16T07:59:14Z</time>
      </trkpt>
      <trkpt lat="45.31229" lon="5.43878">
        <ele>520.43896484375</ele>
        <time>2011-01-16T07:59:20Z</time>
      </trkpt>
      <trkpt lat="45.31232" lon="5.43859">
        <ele>520</ele>
        <time>2011-01-16T07:59:25Z</time>
      </trkpt>
      <trkpt lat="45.31233" lon="5.43844">
        <ele>520</ele>
        <time>2011-01-16T07:59:29Z</time>
      </trkpt>
      <trkpt lat="45.31234" lon="5.43825">
        <ele>520</ele>
        <time>2011-01-16T07:59:34Z</time>
      </trkpt>
      <trkpt lat="45.31235" lon="5.43807">
        <ele>520</ele>
        <time>2011-01-16T07:59:39Z</time>
      </trkpt>
      <trkpt lat="45.31236" lon="5.43789">
        <ele>520</ele>
        <time>2011-01-16T07:59:44Z</time>
      </trkpt>
      <trkpt lat="45.31236" lon="5.43773">
        <ele>520</ele>
        <time>2011-01-16T07:59:48Z</time>
      </trkpt>
      <trkpt lat="45.31234" lon="5.43766">
        <ele>520</ele>
        <time>2011-01-16T07:59:50Z</time>
      </trkpt>
      <trkpt lat="45.31231" lon="5.43757">
        <ele>520</ele>
        <time>2011-01-16T07:59:53Z</time>
      </trkpt>
      <trkpt lat="45.31223" lon="5.43756">
        <ele>520</ele>
        <time>2011-01-16T07:59:59Z</time>
      </trkpt>
      <trkpt lat="45.31214" lon="5.43752">
        <ele>521.69964599609</ele>
        <time>2011-01-16T08:00:05Z</time>
      </trkpt>
      <trkpt lat="45.31206" lon="5.43748">
        <ele>524.21539306641</ele>
        <time>2011-01-16T08:00:09Z</time>
      </trkpt>
      <trkpt lat="45.31196" lon="5.43742">
        <ele>527.75915527344</ele>
        <time>2011-01-16T08:00:15Z</time>
      </trkpt>
      <trkpt lat="45.31193" lon="5.4374">
        <ele>528.77990722656</ele>
        <time>2011-01-16T08:00:17Z</time>
      </trkpt>
      <trkpt lat="45.31181" lon="5.43735">
        <ele>531.783203125</ele>
        <time>2011-01-16T08:00:23Z</time>
      </trkpt>
      <trkpt lat="45.31168" lon="5.43728">
        <ele>534.86773681641</ele>
        <time>2011-01-16T08:00:29Z</time>
      </trkpt>
      <trkpt lat="45.31153" lon="5.43724">
        <ele>536.76025390625</ele>
        <time>2011-01-16T08:00:35Z</time>
      </trkpt>
      <trkpt lat="45.31144" lon="5.43719">
        <ele>538.33447265625</ele>
        <time>2011-01-16T08:00:39Z</time>
      </trkpt>
      <trkpt lat="45.31133" lon="5.43716">
        <ele>539.87274169922</ele>
        <time>2011-01-16T08:00:44Z</time>
      </trkpt>
      <trkpt lat="45.3112" lon="5.43709">
        <ele>543.01483154297</ele>
        <time>2011-01-16T08:00:50Z</time>
      </trkpt>
      <trkpt lat="45.31109" lon="5.43703">
        <ele>546.76391601562</ele>
        <time>2011-01-16T08:00:55Z</time>
      </trkpt>
      <trkpt lat="45.31094" lon="5.43695">
        <ele>552.13153076172</ele>
        <time>2011-01-16T08:01:02Z</time>
      </trkpt>
      <trkpt lat="45.31081" lon="5.43687">
        <ele>554.88433837891</ele>
        <time>2011-01-16T08:01:08Z</time>
      </trkpt>
      <trkpt lat="45.3107" lon="5.43685">
        <ele>555.36334228516</ele>
        <time>2011-01-16T08:01:13Z</time>
      </trkpt>
      <trkpt lat="45.31055" lon="5.43677">
        <ele>556.25805664062</ele>
        <time>2011-01-16T08:01:20Z</time>
      </trkpt>
      <trkpt lat="45.31043" lon="5.4367">
        <ele>557.25402832031</ele>
        <time>2011-01-16T08:01:27Z</time>
      </trkpt>
      <trkpt lat="45.31033" lon="5.43665">
        <ele>557.98052978516</ele>
        <time>2011-01-16T08:01:32Z</time>
      </trkpt>
      <trkpt lat="45.31024" lon="5.4366">
        <ele>558.46478271484</ele>
        <time>2011-01-16T08:01:37Z</time>
      </trkpt>
      <trkpt lat="45.31012" lon="5.43656">
        <ele>558.74627685547</ele>
        <time>2011-01-16T08:01:43Z</time>
      </trkpt>
      <trkpt lat="45.30999" lon="5.4365">
        <ele>559.18475341797</ele>
        <time>2011-01-16T08:01:49Z</time>
      </trkpt>
      <trkpt lat="45.3099" lon="5.43647">
        <ele>559.53668212891</ele>
        <time>2011-01-16T08:01:54Z</time>
      </trkpt>
      <trkpt lat="45.30982" lon="5.43645">
        <ele>559.71258544922</ele>
        <time>2011-01-16T08:01:59Z</time>
      </trkpt>
      <trkpt lat="45.30973" lon="5.43639">
        <ele>560.00433349609</ele>
        <time>2011-01-16T08:02:06Z</time>
      </trkpt>
      <trkpt lat="45.30967" lon="5.43634">
        <ele>561.98016357422</ele>
        <time>2011-01-16T08:02:13Z</time>
      </trkpt>
      <trkpt lat="45.30961" lon="5.43632">
        <ele>563.59210205078</ele>
        <time>2011-01-16T08:02:18Z</time>
      </trkpt>
      <trkpt lat="45.30954" lon="5.43632">
        <ele>565.37908935547</ele>
        <time>2011-01-16T08:02:25Z</time>
      </trkpt>
      <trkpt lat="45.30951" lon="5.43633">
        <ele>565.94897460938</ele>
        <time>2011-01-16T08:02:27Z</time>
      </trkpt>
      <trkpt lat="45.30938" lon="5.43627">
        <ele>569.86517333984</ele>
        <time>2011-01-16T08:02:35Z</time>
      </trkpt>
      <trkpt lat="45.3093" lon="5.43623">
        <ele>572.39373779297</ele>
        <time>2011-01-16T08:02:41Z</time>
      </trkpt>
      <trkpt lat="45.30925" lon="5.43622">
        <ele>573.59674072266</ele>
        <time>2011-01-16T08:02:45Z</time>
      </trkpt>
      <trkpt lat="45.30921" lon="5.43622">
        <ele>574.61315917969</ele>
        <time>2011-01-16T08:02:49Z</time>
      </trkpt>
      <trkpt lat="45.30907" lon="5.43617">
        <ele>576.19378662109</ele>
        <time>2011-01-16T08:02:57Z</time>
      </trkpt>
      <trkpt lat="45.30896" lon="5.43614">
        <ele>576.73431396484</ele>
        <time>2011-01-16T08:03:03Z</time>
      </trkpt>
      <trkpt lat="45.30887" lon="5.43609">
        <ele>577.14575195312</ele>
        <time>2011-01-16T08:03:08Z</time>
      </trkpt>
      <trkpt lat="45.30878" lon="5.43605">
        <ele>577.50579833984</ele>
        <time>2011-01-16T08:03:13Z</time>
      </trkpt>
      <trkpt lat="45.30869" lon="5.43598">
        <ele>577.85137939453</ele>
        <time>2011-01-16T08:03:19Z</time>
      </trkpt>
      <trkpt lat="45.30859" lon="5.43593">
        <ele>578</ele>
        <time>2011-01-16T08:03:24Z</time>
      </trkpt>
      <trkpt lat="45.30852" lon="5.43588">
        <ele>578</ele>
        <time>2011-01-16T08:03:29Z</time>
      </trkpt>
      <trkpt lat="45.3084" lon="5.43583">
        <ele>578</ele>
        <time>2011-01-16T08:03:35Z</time>
      </trkpt>
      <trkpt lat="45.30834" lon="5.4358">
        <ele>578.13171386719</ele>
        <time>2011-01-16T08:03:39Z</time>
      </trkpt>
      <trkpt lat="45.30828" lon="5.43577">
        <ele>578.23303222656</ele>
        <time>2011-01-16T08:03:43Z</time>
      </trkpt>
      <trkpt lat="45.30819" lon="5.43572">
        <ele>578.42358398438</ele>
        <time>2011-01-16T08:03:49Z</time>
      </trkpt>
      <trkpt lat="45.30807" lon="5.43562">
        <ele>578.76861572266</ele>
        <time>2011-01-16T08:03:56Z</time>
      </trkpt>
      <trkpt lat="45.30804" lon="5.4356">
        <ele>578.84381103516</ele>
        <time>2011-01-16T08:03:58Z</time>
      </trkpt>
      <trkpt lat="45.30799" lon="5.4356">
        <ele>578.86749267578</ele>
        <time>2011-01-16T08:04:02Z</time>
      </trkpt>
      <trkpt lat="45.30796" lon="5.4356">
        <ele>578.89410400391</ele>
        <time>2011-01-16T08:04:04Z</time>
      </trkpt>
      <trkpt lat="45.30791" lon="5.43558">
        <ele>578.96398925781</ele>
        <time>2011-01-16T08:04:07Z</time>
      </trkpt>
      <trkpt lat="45.30781" lon="5.43556">
        <ele>578.9970703125</ele>
        <time>2011-01-16T08:04:13Z</time>
      </trkpt>
      <trkpt lat="45.30779" lon="5.43556">
        <ele>578.99884033203</ele>
        <time>2011-01-16T08:04:14Z</time>
      </trkpt>
      <trkpt lat="45.30769" lon="5.43556">
        <ele>579.00036621094</ele>
        <time>2011-01-16T08:04:20Z</time>
      </trkpt>
      <trkpt lat="45.30757" lon="5.43555">
        <ele>579.01922607422</ele>
        <time>2011-01-16T08:04:27Z</time>
      </trkpt>
      <trkpt lat="45.30746" lon="5.43554">
        <ele>580.15197753906</ele>
        <time>2011-01-16T08:04:32Z</time>
      </trkpt>
      <trkpt lat="45.30738" lon="5.43554">
        <ele>582.28546142578</ele>
        <time>2011-01-16T08:04:37Z</time>
      </trkpt>
      <trkpt lat="45.30732" lon="5.43553">
        <ele>584.14764404297</ele>
        <time>2011-01-16T08:04:41Z</time>
      </trkpt>
      <trkpt lat="45.3072" lon="5.43551">
        <ele>586.875</ele>
        <time>2011-01-16T08:04:47Z</time>
      </trkpt>
      <trkpt lat="45.30708" lon="5.43547">
        <ele>588.15899658203</ele>
        <time>2011-01-16T08:04:53Z</time>
      </trkpt>
      <trkpt lat="45.30699" lon="5.43544">
        <ele>589.16497802734</ele>
        <time>2011-01-16T08:04:58Z</time>
      </trkpt>
      <trkpt lat="45.3069" lon="5.43543">
        <ele>590.71063232422</ele>
        <time>2011-01-16T08:05:03Z</time>
      </trkpt>
      <trkpt lat="45.30686" lon="5.43542">
        <ele>591.34155273438</ele>
        <time>2011-01-16T08:05:10Z</time>
      </trkpt>
      <trkpt lat="45.30685" lon="5.43539">
        <ele>591.388671875</ele>
        <time>2011-01-16T08:05:19Z</time>
      </trkpt>
      <trkpt lat="45.3068" lon="5.43538">
        <ele>592.34893798828</ele>
        <time>2011-01-16T08:05:26Z</time>
      </trkpt>
      <trkpt lat="45.30679" lon="5.43537">
        <ele>592.60662841797</ele>
        <time>2011-01-16T08:05:42Z</time>
      </trkpt>
      <trkpt lat="45.3068" lon="5.43538">
        <ele>592.42816162109</ele>
        <time>2011-01-16T08:05:55Z</time>
      </trkpt>
      <trkpt lat="45.3068" lon="5.43538">
        <ele>592.408203125</ele>
        <time>2011-01-16T08:05:57Z</time>
      </trkpt>
      <trkpt lat="45.30677" lon="5.43534">
        <ele>592.712890625</ele>
        <time>2011-01-16T08:06:03Z</time>
      </trkpt>
      <trkpt lat="45.30679" lon="5.43534">
        <ele>592.34155273438</ele>
        <time>2011-01-16T08:06:12Z</time>
      </trkpt>
      <trkpt lat="45.3068" lon="5.4353">
        <ele>591.80218505859</ele>
        <time>2011-01-16T08:06:18Z</time>
      </trkpt>
      <trkpt lat="45.30683" lon="5.43526">
        <ele>590.99847412109</ele>
        <time>2011-01-16T08:06:25Z</time>
      </trkpt>
      <trkpt lat="45.30687" lon="5.43517">
        <ele>590.17108154297</ele>
        <time>2011-01-16T08:06:34Z</time>
      </trkpt>
      <trkpt lat="45.30691" lon="5.43511">
        <ele>589.43811035156</ele>
        <time>2011-01-16T08:06:40Z</time>
      </trkpt>
      <trkpt lat="45.30693" lon="5.43505">
        <ele>589.06732177734</ele>
        <time>2011-01-16T08:06:46Z</time>
      </trkpt>
      <trkpt lat="45.30693" lon="5.43499">
        <ele>589.53582763672</ele>
        <time>2011-01-16T08:06:53Z</time>
      </trkpt>
      <trkpt lat="45.30689" lon="5.43497">
        <ele>590.58258056641</ele>
        <time>2011-01-16T08:06:59Z</time>
      </trkpt>
      <trkpt lat="45.30685" lon="5.43497">
        <ele>591.5888671875</ele>
        <time>2011-01-16T08:07:05Z</time>
      </trkpt>
      <trkpt lat="45.30682" lon="5.43497">
        <ele>592.37322998047</ele>
        <time>2011-01-16T08:07:10Z</time>
      </trkpt>
      <trkpt lat="45.30678" lon="5.43496">
        <ele>593.47424316406</ele>
        <time>2011-01-16T08:07:17Z</time>
      </trkpt>
      <trkpt lat="45.30674" lon="5.43493">
        <ele>594.47454833984</ele>
        <time>2011-01-16T08:07:23Z</time>
      </trkpt>
      <trkpt lat="45.30669" lon="5.4349">
        <ele>595.73602294922</ele>
        <time>2011-01-16T08:07:30Z</time>
      </trkpt>
      <trkpt lat="45.30666" lon="5.43489">
        <ele>596.46490478516</ele>
        <time>2011-01-16T08:07:36Z</time>
      </trkpt>
      <trkpt lat="45.30663" lon="5.43488">
        <ele>597.32049560547</ele>
        <time>2011-01-16T08:07:42Z</time>
      </trkpt>
      <trkpt lat="45.30659" lon="5.43486">
        <ele>598.26336669922</ele>
        <time>2011-01-16T08:07:49Z</time>
      </trkpt>
      <trkpt lat="45.30656" lon="5.43486">
        <ele>599.08026123047</ele>
        <time>2011-01-16T08:07:54Z</time>
      </trkpt>
      <trkpt lat="45.3065" lon="5.43486">
        <ele>600.501953125</ele>
        <time>2011-01-16T08:08:02Z</time>
      </trkpt>
      <trkpt lat="45.30646" lon="5.43485">
        <ele>601.31768798828</ele>
        <time>2011-01-16T08:08:08Z</time>
      </trkpt>
      <trkpt lat="45.30643" lon="5.43483">
        <ele>602.12414550781</ele>
        <time>2011-01-16T08:08:15Z</time>
      </trkpt>
      <trkpt lat="45.30639" lon="5.4348">
        <ele>603.14855957031</ele>
        <time>2011-01-16T08:08:20Z</time>
      </trkpt>
      <trkpt lat="45.30635" lon="5.43477">
        <ele>604.48779296875</ele>
        <time>2011-01-16T08:08:27Z</time>
      </trkpt>
      <trkpt lat="45.30632" lon="5.43473">
        <ele>605.56079101562</ele>
        <time>2011-01-16T08:08:32Z</time>
      </trkpt>
      <trkpt lat="45.30629" lon="5.43468">
        <ele>606.84423828125</ele>
        <time>2011-01-16T08:08:39Z</time>
      </trkpt>
      <trkpt lat="45.30625" lon="5.43465">
        <ele>608.18243408203</ele>
        <time>2011-01-16T08:08:44Z</time>
      </trkpt>
      <trkpt lat="45.30622" lon="5.43466">
        <ele>609.67907714844</ele>
        <time>2011-01-16T08:08:50Z</time>
      </trkpt>
      <trkpt lat="45.30619" lon="5.43469">
        <ele>610.99859619141</ele>
        <time>2011-01-16T08:08:59Z</time>
      </trkpt>
      <trkpt lat="45.30613" lon="5.43469">
        <ele>613.36273193359</ele>
        <time>2011-01-16T08:09:06Z</time>
      </trkpt>
      <trkpt lat="45.30608" lon="5.4347">
        <ele>614.52697753906</ele>
        <time>2011-01-16T08:09:14Z</time>
      </trkpt>
      <trkpt lat="45.30602" lon="5.43468">
        <ele>615.37756347656</ele>
        <time>2011-01-16T08:09:21Z</time>
      </trkpt>
      <trkpt lat="45.30598" lon="5.43469">
        <ele>615.98773193359</ele>
        <time>2011-01-16T08:09:28Z</time>
      </trkpt>
      <trkpt lat="45.30592" lon="5.43469">
        <ele>616.74481201172</ele>
        <time>2011-01-16T08:09:35Z</time>
      </trkpt>
      <trkpt lat="45.30588" lon="5.43469">
        <ele>617.32830810547</ele>
        <time>2011-01-16T08:09:41Z</time>
      </trkpt>
      <trkpt lat="45.30584" lon="5.4347">
        <ele>617.91229248047</ele>
        <time>2011-01-16T08:09:49Z</time>
      </trkpt>
      <trkpt lat="45.30578" lon="5.43471">
        <ele>619.34655761719</ele>
        <time>2011-01-16T08:09:57Z</time>
      </trkpt>
      <trkpt lat="45.30574" lon="5.43469">
        <ele>620.32867431641</ele>
        <time>2011-01-16T08:10:03Z</time>
      </trkpt>
      <trkpt lat="45.30569" lon="5.43468">
        <ele>621.36651611328</ele>
        <time>2011-01-16T08:10:10Z</time>
      </trkpt>
      <trkpt lat="45.30563" lon="5.43468">
        <ele>622.85552978516</ele>
        <time>2011-01-16T08:10:18Z</time>
      </trkpt>
      <trkpt lat="45.30559" lon="5.43467">
        <ele>623.65295410156</ele>
        <time>2011-01-16T08:10:24Z</time>
      </trkpt>
      <trkpt lat="45.30554" lon="5.43466">
        <ele>624.8857421875</ele>
        <time>2011-01-16T08:10:30Z</time>
      </trkpt>
      <trkpt lat="45.30549" lon="5.43466">
        <ele>627.05249023438</ele>
        <time>2011-01-16T08:10:37Z</time>
      </trkpt>
      <trkpt lat="45.30546" lon="5.43463">
        <ele>627.98474121094</ele>
        <time>2011-01-16T08:10:43Z</time>
      </trkpt>
      <trkpt lat="45.30542" lon="5.43464">
        <ele>629.7392578125</ele>
        <time>2011-01-16T08:10:48Z</time>
      </trkpt>
      <trkpt lat="45.30537" lon="5.43462">
        <ele>631.62762451172</ele>
        <time>2011-01-16T08:10:55Z</time>
      </trkpt>
      <trkpt lat="45.30529" lon="5.43459">
        <ele>634.39294433594</ele>
        <time>2011-01-16T08:11:04Z</time>
      </trkpt>
      <trkpt lat="45.30524" lon="5.43459">
        <ele>636.494140625</ele>
        <time>2011-01-16T08:11:12Z</time>
      </trkpt>
      <trkpt lat="45.30519" lon="5.43457">
        <ele>638.16955566406</ele>
        <time>2011-01-16T08:11:19Z</time>
      </trkpt>
      <trkpt lat="45.30515" lon="5.43456">
        <ele>639.31970214844</ele>
        <time>2011-01-16T08:11:24Z</time>
      </trkpt>
      <trkpt lat="45.30511" lon="5.43453">
        <ele>640.7822265625</ele>
        <time>2011-01-16T08:11:30Z</time>
      </trkpt>
      <trkpt lat="45.30506" lon="5.43451">
        <ele>642.36840820312</ele>
        <time>2011-01-16T08:11:37Z</time>
      </trkpt>
      <trkpt lat="45.30502" lon="5.43449">
        <ele>643.80004882812</ele>
        <time>2011-01-16T08:11:45Z</time>
      </trkpt>
      <trkpt lat="45.30499" lon="5.4345">
        <ele>645.11572265625</ele>
        <time>2011-01-16T08:11:50Z</time>
      </trkpt>
      <trkpt lat="45.30493" lon="5.43453">
        <ele>648.05261230469</ele>
        <time>2011-01-16T08:11:58Z</time>
      </trkpt>
      <trkpt lat="45.30485" lon="5.43453">
        <ele>651.93591308594</ele>
        <time>2011-01-16T08:12:06Z</time>
      </trkpt>
      <trkpt lat="45.3048" lon="5.43453">
        <ele>654.30407714844</ele>
        <time>2011-01-16T08:12:13Z</time>
      </trkpt>
      <trkpt lat="45.30475" lon="5.43453">
        <ele>656.65612792969</ele>
        <time>2011-01-16T08:12:20Z</time>
      </trkpt>
      <trkpt lat="45.30468" lon="5.4345">
        <ele>658.34045410156</ele>
        <time>2011-01-16T08:12:28Z</time>
      </trkpt>
      <trkpt lat="45.30462" lon="5.4345">
        <ele>659.35260009766</ele>
        <time>2011-01-16T08:12:36Z</time>
      </trkpt>
      <trkpt lat="45.30457" lon="5.4345">
        <ele>660.13153076172</ele>
        <time>2011-01-16T08:12:43Z</time>
      </trkpt>
      <trkpt lat="45.30449" lon="5.4345">
        <ele>661.43823242188</ele>
        <time>2011-01-16T08:12:50Z</time>
      </trkpt>
      <trkpt lat="45.30446" lon="5.43449">
        <ele>661.9453125</ele>
        <time>2011-01-16T08:12:52Z</time>
      </trkpt>
      <trkpt lat="45.30444" lon="5.43451">
        <ele>662.37384033203</ele>
        <time>2011-01-16T08:12:54Z</time>
      </trkpt>
      <trkpt lat="45.30438" lon="5.4345">
        <ele>664.05731201172</ele>
        <time>2011-01-16T08:13:02Z</time>
      </trkpt>
      <trkpt lat="45.30432" lon="5.43448">
        <ele>665.78967285156</ele>
        <time>2011-01-16T08:13:09Z</time>
      </trkpt>
      <trkpt lat="45.30428" lon="5.43448">
        <ele>666.91619873047</ele>
        <time>2011-01-16T08:13:15Z</time>
      </trkpt>
      <trkpt lat="45.30427" lon="5.43448">
        <ele>667.25225830078</ele>
        <time>2011-01-16T08:13:16Z</time>
      </trkpt>
      <trkpt lat="45.30424" lon="5.43448">
        <ele>668.14562988281</ele>
        <time>2011-01-16T08:13:19Z</time>
      </trkpt>
      <trkpt lat="45.30415" lon="5.43446">
        <ele>670.92626953125</ele>
        <time>2011-01-16T08:13:27Z</time>
      </trkpt>
      <trkpt lat="45.30411" lon="5.43448">
        <ele>672.45404052734</ele>
        <time>2011-01-16T08:13:33Z</time>
      </trkpt>
      <trkpt lat="45.30399" lon="5.43446">
        <ele>676.345703125</ele>
        <time>2011-01-16T08:13:41Z</time>
      </trkpt>
      <trkpt lat="45.30392" lon="5.4344">
        <ele>678.32012939453</ele>
        <time>2011-01-16T08:13:49Z</time>
      </trkpt>
      <trkpt lat="45.30392" lon="5.4344">
        <ele>678.54357910156</ele>
        <time>2011-01-16T08:13:50Z</time>
      </trkpt>
      <trkpt lat="45.30386" lon="5.43436">
        <ele>679.68908691406</ele>
        <time>2011-01-16T08:13:56Z</time>
      </trkpt>
      <trkpt lat="45.30384" lon="5.43436">
        <ele>680.12152099609</ele>
        <time>2011-01-16T08:13:58Z</time>
      </trkpt>
      <trkpt lat="45.3038" lon="5.43435">
        <ele>681.06304931641</ele>
        <time>2011-01-16T08:14:06Z</time>
      </trkpt>
      <trkpt lat="45.30378" lon="5.43435">
        <ele>681.55383300781</ele>
        <time>2011-01-16T08:14:19Z</time>
      </trkpt>
      <trkpt lat="45.30374" lon="5.43439">
        <ele>683.07873535156</ele>
        <time>2011-01-16T08:15:17Z</time>
      </trkpt>
      <trkpt lat="45.30373" lon="5.4344">
        <ele>683.45166015625</ele>
        <time>2011-01-16T08:15:31Z</time>
      </trkpt>
      <trkpt lat="45.30371" lon="5.4344">
        <ele>683.96551513672</ele>
        <time>2011-01-16T08:15:50Z</time>
      </trkpt>
      <trkpt lat="45.30372" lon="5.43438">
        <ele>683.41735839844</ele>
        <time>2011-01-16T08:16:04Z</time>
      </trkpt>
      <trkpt lat="45.30373" lon="5.43439">
        <ele>683.15606689453</ele>
        <time>2011-01-16T08:16:20Z</time>
      </trkpt>
      <trkpt lat="45.30374" lon="5.43438">
        <ele>682.93322753906</ele>
        <time>2011-01-16T08:16:27Z</time>
      </trkpt>
      <trkpt lat="45.30374" lon="5.43439">
        <ele>683.08477783203</ele>
        <time>2011-01-16T08:16:37Z</time>
      </trkpt>
      <trkpt lat="45.30373" lon="5.4344">
        <ele>683.32708740234</ele>
        <time>2011-01-16T08:16:44Z</time>
      </trkpt>
      <trkpt lat="45.30372" lon="5.43437">
        <ele>683.31811523438</ele>
        <time>2011-01-16T08:16:56Z</time>
      </trkpt>
      <trkpt lat="45.30371" lon="5.43436">
        <ele>683.41546630859</ele>
        <time>2011-01-16T08:17:06Z</time>
      </trkpt>
      <trkpt lat="45.30368" lon="5.43434">
        <ele>683.90118408203</ele>
        <time>2011-01-16T08:17:12Z</time>
      </trkpt>
      <trkpt lat="45.30361" lon="5.43432">
        <ele>685.30401611328</ele>
        <time>2011-01-16T08:17:21Z</time>
      </trkpt>
      <trkpt lat="45.30354" lon="5.4343">
        <ele>686.94757080078</ele>
        <time>2011-01-16T08:17:28Z</time>
      </trkpt>
      <trkpt lat="45.30349" lon="5.4343">
        <ele>688.60699462891</ele>
        <time>2011-01-16T08:17:35Z</time>
      </trkpt>
      <trkpt lat="45.30342" lon="5.43428">
        <ele>690.44421386719</ele>
        <time>2011-01-16T08:17:44Z</time>
      </trkpt>
      <trkpt lat="45.30336" lon="5.43427">
        <ele>692.45849609375</ele>
        <time>2011-01-16T08:17:53Z</time>
      </trkpt>
      <trkpt lat="45.30328" lon="5.43428">
        <ele>694.08062744141</ele>
        <time>2011-01-16T08:18:02Z</time>
      </trkpt>
      <trkpt lat="45.30321" lon="5.4343">
        <ele>695.73199462891</ele>
        <time>2011-01-16T08:18:10Z</time>
      </trkpt>
      <trkpt lat="45.30313" lon="5.43428">
        <ele>696.88043212891</ele>
        <time>2011-01-16T08:18:19Z</time>
      </trkpt>
      <trkpt lat="45.30306" lon="5.43429">
        <ele>698.26055908203</ele>
        <time>2011-01-16T08:18:26Z</time>
      </trkpt>
      <trkpt lat="45.30304" lon="5.43429">
        <ele>698.47845458984</ele>
        <time>2011-01-16T08:18:28Z</time>
      </trkpt>
      <trkpt lat="45.30302" lon="5.43428">
        <ele>698.60571289062</ele>
        <time>2011-01-16T08:18:30Z</time>
      </trkpt>
      <trkpt lat="45.30297" lon="5.43429">
        <ele>699.14556884766</ele>
        <time>2011-01-16T08:18:37Z</time>
      </trkpt>
      <trkpt lat="45.30291" lon="5.43429">
        <ele>699.66497802734</ele>
        <time>2011-01-16T08:18:44Z</time>
      </trkpt>
      <trkpt lat="45.30284" lon="5.4343">
        <ele>700.38470458984</ele>
        <time>2011-01-16T08:18:51Z</time>
      </trkpt>
      <trkpt lat="45.30278" lon="5.43429">
        <ele>700.88983154297</ele>
        <time>2011-01-16T08:18:57Z</time>
      </trkpt>
      <trkpt lat="45.3027" lon="5.43429">
        <ele>704.86444091797</ele>
        <time>2011-01-16T08:19:05Z</time>
      </trkpt>
      <trkpt lat="45.30263" lon="5.4343">
        <ele>708.27093505859</ele>
        <time>2011-01-16T08:19:12Z</time>
      </trkpt>
      <trkpt lat="45.30259" lon="5.43435">
        <ele>710.16436767578</ele>
        <time>2011-01-16T08:19:15Z</time>
      </trkpt>
      <trkpt lat="45.3025" lon="5.43439">
        <ele>714.73657226562</ele>
        <time>2011-01-16T08:19:24Z</time>
      </trkpt>
      <trkpt lat="45.30243" lon="5.43439">
        <ele>715.87182617188</ele>
        <time>2011-01-16T08:19:31Z</time>
      </trkpt>
      <trkpt lat="45.30235" lon="5.43438">
        <ele>716.99279785156</ele>
        <time>2011-01-16T08:19:38Z</time>
      </trkpt>
      <trkpt lat="45.30224" lon="5.4344">
        <ele>718.59265136719</ele>
        <time>2011-01-16T08:19:47Z</time>
      </trkpt>
      <trkpt lat="45.30215" lon="5.43438">
        <ele>719.80072021484</ele>
        <time>2011-01-16T08:19:54Z</time>
      </trkpt>
      <trkpt lat="45.30212" lon="5.43442">
        <ele>720.31640625</ele>
        <time>2011-01-16T08:20:01Z</time>
      </trkpt>
      <trkpt lat="45.30207" lon="5.43446">
        <ele>721.36883544922</ele>
        <time>2011-01-16T08:20:08Z</time>
      </trkpt>
      <trkpt lat="45.30202" lon="5.43451">
        <ele>722.52581787109</ele>
        <time>2011-01-16T08:20:14Z</time>
      </trkpt>
      <trkpt lat="45.30191" lon="5.43456">
        <ele>725.26776123047</ele>
        <time>2011-01-16T08:20:22Z</time>
      </trkpt>
      <trkpt lat="45.3019" lon="5.43457">
        <ele>725.67974853516</ele>
        <time>2011-01-16T08:20:23Z</time>
      </trkpt>
      <trkpt lat="45.3018" lon="5.43466">
        <ele>729.42022705078</ele>
        <time>2011-01-16T08:20:32Z</time>
      </trkpt>
      <trkpt lat="45.30175" lon="5.43473">
        <ele>731.54370117188</ele>
        <time>2011-01-16T08:20:37Z</time>
      </trkpt>
      <trkpt lat="45.30169" lon="5.43481">
        <ele>734.31774902344</ele>
        <time>2011-01-16T08:20:43Z</time>
      </trkpt>
      <trkpt lat="45.30161" lon="5.43487">
        <ele>736.69146728516</ele>
        <time>2011-01-16T08:20:51Z</time>
      </trkpt>
      <trkpt lat="45.30158" lon="5.43488">
        <ele>737.35559082031</ele>
        <time>2011-01-16T08:20:54Z</time>
      </trkpt>
      <trkpt lat="45.30151" lon="5.43489">
        <ele>738.88977050781</ele>
        <time>2011-01-16T08:21:01Z</time>
      </trkpt>
      <trkpt lat="45.30143" lon="5.43492">
        <ele>740.69921875</ele>
        <time>2011-01-16T08:21:06Z</time>
      </trkpt>
      <trkpt lat="45.30132" lon="5.43497">
        <ele>743.27764892578</ele>
        <time>2011-01-16T08:21:13Z</time>
      </trkpt>
      <trkpt lat="45.30124" lon="5.43506">
        <ele>745.25329589844</ele>
        <time>2011-01-16T08:21:20Z</time>
      </trkpt>
      <trkpt lat="45.30116" lon="5.43523">
        <ele>747.109375</ele>
        <time>2011-01-16T08:21:27Z</time>
      </trkpt>
      <trkpt lat="45.30111" lon="5.43534">
        <ele>747.72521972656</ele>
        <time>2011-01-16T08:21:31Z</time>
      </trkpt>
      <trkpt lat="45.30098" lon="5.43545">
        <ele>746.29144287109</ele>
        <time>2011-01-16T08:21:38Z</time>
      </trkpt>
      <trkpt lat="45.3009" lon="5.4355">
        <ele>745.55718994141</ele>
        <time>2011-01-16T08:21:42Z</time>
      </trkpt>
      <trkpt lat="45.30088" lon="5.4355">
        <ele>745.34381103516</ele>
        <time>2011-01-16T08:21:43Z</time>
      </trkpt>
      <trkpt lat="45.30075" lon="5.43547">
        <ele>744.4052734375</ele>
        <time>2011-01-16T08:21:49Z</time>
      </trkpt>
      <trkpt lat="45.30064" lon="5.43544">
        <ele>743.60876464844</ele>
        <time>2011-01-16T08:21:54Z</time>
      </trkpt>
      <trkpt lat="45.30054" lon="5.43537">
        <ele>742.8671875</ele>
        <time>2011-01-16T08:21:59Z</time>
      </trkpt>
      <trkpt lat="45.30052" lon="5.43535">
        <ele>742.75732421875</ele>
        <time>2011-01-16T08:22:02Z</time>
      </trkpt>
      <trkpt lat="45.3005" lon="5.43544">
        <ele>742.61999511719</ele>
        <time>2011-01-16T08:22:09Z</time>
      </trkpt>
      <trkpt lat="45.30048" lon="5.43544">
        <ele>742.427734375</ele>
        <time>2011-01-16T08:22:11Z</time>
      </trkpt>
      <trkpt lat="45.30042" lon="5.43543">
        <ele>742.01574707031</ele>
        <time>2011-01-16T08:22:15Z</time>
      </trkpt>
      <trkpt lat="45.30034" lon="5.43537">
        <ele>741.43896484375</ele>
        <time>2011-01-16T08:22:22Z</time>
      </trkpt>
      <trkpt lat="45.30033" lon="5.43537">
        <ele>741.35656738281</ele>
        <time>2011-01-16T08:22:23Z</time>
      </trkpt>
      <trkpt lat="45.30028" lon="5.43536">
        <ele>741.02697753906</ele>
        <time>2011-01-16T08:22:28Z</time>
      </trkpt>
      <trkpt lat="45.30022" lon="5.43528">
        <ele>741</ele>
        <time>2011-01-16T08:22:35Z</time>
      </trkpt>
      <trkpt lat="45.3002" lon="5.43518">
        <ele>741</ele>
        <time>2011-01-16T08:22:40Z</time>
      </trkpt>
      <trkpt lat="45.30019" lon="5.43502">
        <ele>741</ele>
        <time>2011-01-16T08:22:46Z</time>
      </trkpt>
      <trkpt lat="45.30019" lon="5.43494">
        <ele>741</ele>
        <time>2011-01-16T08:22:52Z</time>
      </trkpt>
      <trkpt lat="45.30019" lon="5.43492">
        <ele>741</ele>
        <time>2011-01-16T08:22:54Z</time>
      </trkpt>
      <trkpt lat="45.30017" lon="5.43492">
        <ele>741</ele>
        <time>2011-01-16T08:23:07Z</time>
      </trkpt>
      <trkpt lat="45.30016" lon="5.43496">
        <ele>741</ele>
        <time>2011-01-16T08:23:13Z</time>
      </trkpt>
      <trkpt lat="45.30016" lon="5.43498">
        <ele>741</ele>
        <time>2011-01-16T08:23:24Z</time>
      </trkpt>
      <trkpt lat="45.30016" lon="5.43499">
        <ele>741</ele>
        <time>2011-01-16T08:23:31Z</time>
      </trkpt>
      <trkpt lat="45.30018" lon="5.43516">
        <ele>741</ele>
        <time>2011-01-16T08:23:37Z</time>
      </trkpt>
      <trkpt lat="45.3002" lon="5.43531">
        <ele>741</ele>
        <time>2011-01-16T08:23:42Z</time>
      </trkpt>
      <trkpt lat="45.3002" lon="5.43533">
        <ele>741</ele>
        <time>2011-01-16T08:23:43Z</time>
      </trkpt>
      <trkpt lat="45.30021" lon="5.43544">
        <ele>741</ele>
        <time>2011-01-16T08:23:50Z</time>
      </trkpt>
      <trkpt lat="45.30022" lon="5.43545">
        <ele>741</ele>
        <time>2011-01-16T08:23:51Z</time>
      </trkpt>
      <trkpt lat="45.30025" lon="5.43554">
        <ele>741</ele>
        <time>2011-01-16T08:24:01Z</time>
      </trkpt>
      <trkpt lat="45.30023" lon="5.43549">
        <ele>741</ele>
        <time>2011-01-16T08:24:13Z</time>
      </trkpt>
      <trkpt lat="45.30022" lon="5.43549">
        <ele>741</ele>
        <time>2011-01-16T08:24:26Z</time>
      </trkpt>
      <trkpt lat="45.30022" lon="5.4355">
        <ele>741</ele>
        <time>2011-01-16T08:25:29Z</time>
      </trkpt>
      <trkpt lat="45.3002" lon="5.43555">
        <ele>741</ele>
        <time>2011-01-16T08:25:45Z</time>
      </trkpt>
      <trkpt lat="45.3002" lon="5.43556">
        <ele>740.99365234375</ele>
        <time>2011-01-16T08:25:54Z</time>
      </trkpt>
      <trkpt lat="45.30018" lon="5.43556">
        <ele>740.99951171875</ele>
        <time>2011-01-16T08:26:12Z</time>
      </trkpt>
      <trkpt lat="45.30018" lon="5.43552">
        <ele>741</ele>
        <time>2011-01-16T08:26:49Z</time>
      </trkpt>
      <trkpt lat="45.30017" lon="5.43549">
        <ele>741</ele>
        <time>2011-01-16T08:27:26Z</time>
      </trkpt>
      <trkpt lat="45.30017" lon="5.43548">
        <ele>741</ele>
        <time>2011-01-16T08:27:36Z</time>
      </trkpt>
      <trkpt lat="45.30019" lon="5.43547">
        <ele>741</ele>
        <time>2011-01-16T08:27:53Z</time>
      </trkpt>
      <trkpt lat="45.3002" lon="5.43546">
        <ele>741</ele>
        <time>2011-01-16T08:28:05Z</time>
      </trkpt>
      <trkpt lat="45.3002" lon="5.43547">
        <ele>741</ele>
        <time>2011-01-16T08:28:21Z</time>
      </trkpt>
      <trkpt lat="45.30019" lon="5.43551">
        <ele>741</ele>
        <time>2011-01-16T08:28:24Z</time>
      </trkpt>
      <trkpt lat="45.3002" lon="5.43569">
        <ele>740.859375</ele>
        <time>2011-01-16T08:28:30Z</time>
      </trkpt>
      <trkpt lat="45.3002" lon="5.43582">
        <ele>740.72857666016</ele>
        <time>2011-01-16T08:28:34Z</time>
      </trkpt>
      <trkpt lat="45.3002" lon="5.43589">
        <ele>740.61633300781</ele>
        <time>2011-01-16T08:28:36Z</time>
      </trkpt>
      <trkpt lat="45.30021" lon="5.43613">
        <ele>740.17822265625</ele>
        <time>2011-01-16T08:28:43Z</time>
      </trkpt>
      <trkpt lat="45.30021" lon="5.4363">
        <ele>739.86798095703</ele>
        <time>2011-01-16T08:28:48Z</time>
      </trkpt>
      <trkpt lat="45.30024" lon="5.43647">
        <ele>740.34442138672</ele>
        <time>2011-01-16T08:28:53Z</time>
      </trkpt>
      <trkpt lat="45.30025" lon="5.43661">
        <ele>740.36022949219</ele>
        <time>2011-01-16T08:28:58Z</time>
      </trkpt>
      <trkpt lat="45.30023" lon="5.43675">
        <ele>739.87530517578</ele>
        <time>2011-01-16T08:29:02Z</time>
      </trkpt>
      <trkpt lat="45.30024" lon="5.43695">
        <ele>740.00079345703</ele>
        <time>2011-01-16T08:29:08Z</time>
      </trkpt>
      <trkpt lat="45.30024" lon="5.43713">
        <ele>739.37420654297</ele>
        <time>2011-01-16T08:29:13Z</time>
      </trkpt>
      <trkpt lat="45.30025" lon="5.43731">
        <ele>739.29418945312</ele>
        <time>2011-01-16T08:29:19Z</time>
      </trkpt>
      <trkpt lat="45.30028" lon="5.43749">
        <ele>739.998046875</ele>
        <time>2011-01-16T08:29:25Z</time>
      </trkpt>
      <trkpt lat="45.30027" lon="5.4376">
        <ele>739.52087402344</ele>
        <time>2011-01-16T08:29:29Z</time>
      </trkpt>
      <trkpt lat="45.3003" lon="5.43775">
        <ele>739.34814453125</ele>
        <time>2011-01-16T08:29:34Z</time>
      </trkpt>
      <trkpt lat="45.30032" lon="5.4378">
        <ele>739.45245361328</ele>
        <time>2011-01-16T08:29:36Z</time>
      </trkpt>
      <trkpt lat="45.30038" lon="5.43797">
        <ele>740.11163330078</ele>
        <time>2011-01-16T08:29:42Z</time>
      </trkpt>
      <trkpt lat="45.3004" lon="5.43806">
        <ele>740.35882568359</ele>
        <time>2011-01-16T08:29:45Z</time>
      </trkpt>
      <trkpt lat="45.30048" lon="5.43823">
        <ele>741.1416015625</ele>
        <time>2011-01-16T08:29:52Z</time>
      </trkpt>
      <trkpt lat="45.30058" lon="5.43841">
        <ele>742.07263183594</ele>
        <time>2011-01-16T08:30:00Z</time>
      </trkpt>
      <trkpt lat="45.3006" lon="5.43845">
        <ele>742.09924316406</ele>
        <time>2011-01-16T08:30:02Z</time>
      </trkpt>
      <trkpt lat="45.30067" lon="5.43855">
        <ele>742.08471679688</ele>
        <time>2011-01-16T08:30:06Z</time>
      </trkpt>
      <trkpt lat="45.30075" lon="5.43873">
        <ele>742</ele>
        <time>2011-01-16T08:30:13Z</time>
      </trkpt>
      <trkpt lat="45.30083" lon="5.43885">
        <ele>742.00952148438</ele>
        <time>2011-01-16T08:30:18Z</time>
      </trkpt>
      <trkpt lat="45.30088" lon="5.43894">
        <ele>742.30993652344</ele>
        <time>2011-01-16T08:30:22Z</time>
      </trkpt>
      <trkpt lat="45.30093" lon="5.43903">
        <ele>742.52331542969</ele>
        <time>2011-01-16T08:30:26Z</time>
      </trkpt>
      <trkpt lat="45.30104" lon="5.43922">
        <ele>742.74633789062</ele>
        <time>2011-01-16T08:30:34Z</time>
      </trkpt>
      <trkpt lat="45.30112" lon="5.43937">
        <ele>742.90307617188</ele>
        <time>2011-01-16T08:30:40Z</time>
      </trkpt>
      <trkpt lat="45.30119" lon="5.43949">
        <ele>742.43615722656</ele>
        <time>2011-01-16T08:30:45Z</time>
      </trkpt>
      <trkpt lat="45.30124" lon="5.43964">
        <ele>742.05163574219</ele>
        <time>2011-01-16T08:30:51Z</time>
      </trkpt>
      <trkpt lat="45.30127" lon="5.43972">
        <ele>741.88684082031</ele>
        <time>2011-01-16T08:30:54Z</time>
      </trkpt>
      <trkpt lat="45.30131" lon="5.43982">
        <ele>741.24194335938</ele>
        <time>2011-01-16T08:31:00Z</time>
      </trkpt>
      <trkpt lat="45.30134" lon="5.43993">
        <ele>740.62915039062</ele>
        <time>2011-01-16T08:31:06Z</time>
      </trkpt>
      <trkpt lat="45.30137" lon="5.44002">
        <ele>740.11779785156</ele>
        <time>2011-01-16T08:31:12Z</time>
      </trkpt>
      <trkpt lat="45.3014" lon="5.44013">
        <ele>740</ele>
        <time>2011-01-16T08:31:18Z</time>
      </trkpt>
      <trkpt lat="45.30143" lon="5.44024">
        <ele>740</ele>
        <time>2011-01-16T08:31:23Z</time>
      </trkpt>
      <trkpt lat="45.30146" lon="5.44034">
        <ele>740</ele>
        <time>2011-01-16T08:31:27Z</time>
      </trkpt>
      <trkpt lat="45.30147" lon="5.44052">
        <ele>740</ele>
        <time>2011-01-16T08:31:33Z</time>
      </trkpt>
      <trkpt lat="45.30148" lon="5.44058">
        <ele>740</ele>
        <time>2011-01-16T08:31:35Z</time>
      </trkpt>
      <trkpt lat="45.30147" lon="5.44061">
        <ele>740</ele>
        <time>2011-01-16T08:31:40Z</time>
      </trkpt>
      <trkpt lat="45.30148" lon="5.44053">
        <ele>740</ele>
        <time>2011-01-16T08:31:45Z</time>
      </trkpt>
      <trkpt lat="45.30148" lon="5.44052">
        <ele>740</ele>
        <time>2011-01-16T08:31:46Z</time>
      </trkpt>
      <trkpt lat="45.30148" lon="5.44044">
        <ele>740</ele>
        <time>2011-01-16T08:31:51Z</time>
      </trkpt>
      <trkpt lat="45.30146" lon="5.44036">
        <ele>740</ele>
        <time>2011-01-16T08:31:58Z</time>
      </trkpt>
      <trkpt lat="45.30143" lon="5.44024">
        <ele>740</ele>
        <time>2011-01-16T08:32:06Z</time>
      </trkpt>
      <trkpt lat="45.3014" lon="5.44012">
        <ele>740</ele>
        <time>2011-01-16T08:32:13Z</time>
      </trkpt>
      <trkpt lat="45.30137" lon="5.44002">
        <ele>740.11779785156</ele>
        <time>2011-01-16T08:32:21Z</time>
      </trkpt>
      <trkpt lat="45.30135" lon="5.43992">
        <ele>740.58453369141</ele>
        <time>2011-01-16T08:32:28Z</time>
      </trkpt>
      <trkpt lat="45.30132" lon="5.43982">
        <ele>741.14758300781</ele>
        <time>2011-01-16T08:32:34Z</time>
      </trkpt>
      <trkpt lat="45.3013" lon="5.43973">
        <ele>741.57330322266</ele>
        <time>2011-01-16T08:32:40Z</time>
      </trkpt>
      <trkpt lat="45.3013" lon="5.4397">
        <ele>741.6396484375</ele>
        <time>2011-01-16T08:32:46Z</time>
      </trkpt>
      <trkpt lat="45.30136" lon="5.43971">
        <ele>741.22766113281</ele>
        <time>2011-01-16T08:33:12Z</time>
      </trkpt>
      <trkpt lat="45.30136" lon="5.43968">
        <ele>741.22766113281</ele>
        <time>2011-01-16T08:33:24Z</time>
      </trkpt>
      <trkpt lat="45.30131" lon="5.43962">
        <ele>741.55725097656</ele>
        <time>2011-01-16T08:33:31Z</time>
      </trkpt>
      <trkpt lat="45.30129" lon="5.43956">
        <ele>741.72204589844</ele>
        <time>2011-01-16T08:33:39Z</time>
      </trkpt>
      <trkpt lat="45.30123" lon="5.43949">
        <ele>742.13403320312</ele>
        <time>2011-01-16T08:33:45Z</time>
      </trkpt>
      <trkpt lat="45.30113" lon="5.43929">
        <ele>742.87561035156</ele>
        <time>2011-01-16T08:33:52Z</time>
      </trkpt>
      <trkpt lat="45.30105" lon="5.43917">
        <ele>742.77380371094</ele>
        <time>2011-01-16T08:33:56Z</time>
      </trkpt>
      <trkpt lat="45.30095" lon="5.43904">
        <ele>742.59344482422</ele>
        <time>2011-01-16T08:34:01Z</time>
      </trkpt>
      <trkpt lat="45.30084" lon="5.43888">
        <ele>742.03698730469</ele>
        <time>2011-01-16T08:34:06Z</time>
      </trkpt>
      <trkpt lat="45.30074" lon="5.4387">
        <ele>742</ele>
        <time>2011-01-16T08:34:12Z</time>
      </trkpt>
      <trkpt lat="45.30064" lon="5.43852">
        <ele>742.10876464844</ele>
        <time>2011-01-16T08:34:18Z</time>
      </trkpt>
      <trkpt lat="45.30054" lon="5.43832">
        <ele>741.80078125</ele>
        <time>2011-01-16T08:34:24Z</time>
      </trkpt>
      <trkpt lat="45.30043" lon="5.4381">
        <ele>740.68841552734</ele>
        <time>2011-01-16T08:34:30Z</time>
      </trkpt>
      <trkpt lat="45.30035" lon="5.43787">
        <ele>739.8232421875</ele>
        <time>2011-01-16T08:34:36Z</time>
      </trkpt>
      <trkpt lat="45.30031" lon="5.43771">
        <ele>739.55895996094</ele>
        <time>2011-01-16T08:34:40Z</time>
      </trkpt>
      <trkpt lat="45.30027" lon="5.43755">
        <ele>739.49896240234</ele>
        <time>2011-01-16T08:34:44Z</time>
      </trkpt>
      <trkpt lat="45.30025" lon="5.4374">
        <ele>739.15789794922</ele>
        <time>2011-01-16T08:34:48Z</time>
      </trkpt>
      <trkpt lat="45.30023" lon="5.43725">
        <ele>738.73217773438</ele>
        <time>2011-01-16T08:34:52Z</time>
      </trkpt>
      <trkpt lat="45.30021" lon="5.43715">
        <ele>738.62408447266</ele>
        <time>2011-01-16T08:34:55Z</time>
      </trkpt>
      <trkpt lat="45.30022" lon="5.43709">
        <ele>739.13903808594</ele>
        <time>2011-01-16T08:34:58Z</time>
      </trkpt>
      <trkpt lat="45.30021" lon="5.43695">
        <ele>739.25921630859</ele>
        <time>2011-01-16T08:35:02Z</time>
      </trkpt>
      <trkpt lat="45.3002" lon="5.43672">
        <ele>739.2138671875</ele>
        <time>2011-01-16T08:35:08Z</time>
      </trkpt>
      <trkpt lat="45.30021" lon="5.43657">
        <ele>739.521484375</ele>
        <time>2011-01-16T08:35:12Z</time>
      </trkpt>
      <trkpt lat="45.30019" lon="5.43639">
        <ele>739.34844970703</ele>
        <time>2011-01-16T08:35:17Z</time>
      </trkpt>
      <trkpt lat="45.30018" lon="5.43627">
        <ele>739.58508300781</ele>
        <time>2011-01-16T08:35:22Z</time>
      </trkpt>
      <trkpt lat="45.30017" lon="5.43609">
        <ele>739.93182373047</ele>
        <time>2011-01-16T08:35:27Z</time>
      </trkpt>
      <trkpt lat="45.30018" lon="5.43589">
        <ele>740.49517822266</ele>
        <time>2011-01-16T08:35:33Z</time>
      </trkpt>
      <trkpt lat="45.30017" lon="5.43571">
        <ele>740.78466796875</ele>
        <time>2011-01-16T08:35:38Z</time>
      </trkpt>
      <trkpt lat="45.30016" lon="5.43554">
        <ele>741</ele>
        <time>2011-01-16T08:35:43Z</time>
      </trkpt>
      <trkpt lat="45.30016" lon="5.43539">
        <ele>741</ele>
        <time>2011-01-16T08:35:48Z</time>
      </trkpt>
      <trkpt lat="45.30016" lon="5.43528">
        <ele>741</ele>
        <time>2011-01-16T08:35:53Z</time>
      </trkpt>
      <trkpt lat="45.30016" lon="5.43525">
        <ele>741</ele>
        <time>2011-01-16T08:35:54Z</time>
      </trkpt>
      <trkpt lat="45.30016" lon="5.43497">
        <ele>741</ele>
        <time>2011-01-16T08:36:03Z</time>
      </trkpt>
      <trkpt lat="45.30015" lon="5.43478">
        <ele>741</ele>
        <time>2011-01-16T08:36:09Z</time>
      </trkpt>
      <trkpt lat="45.30015" lon="5.43462">
        <ele>741</ele>
        <time>2011-01-16T08:36:14Z</time>
      </trkpt>
      <trkpt lat="45.30017" lon="5.43453">
        <ele>741</ele>
        <time>2011-01-16T08:36:17Z</time>
      </trkpt>
      <trkpt lat="45.30017" lon="5.43447">
        <ele>741</ele>
        <time>2011-01-16T08:36:19Z</time>
      </trkpt>
      <trkpt lat="45.30019" lon="5.4343">
        <ele>741</ele>
        <time>2011-01-16T08:36:25Z</time>
      </trkpt>
      <trkpt lat="45.30021" lon="5.43413">
        <ele>741</ele>
        <time>2011-01-16T08:36:30Z</time>
      </trkpt>
      <trkpt lat="45.30023" lon="5.43389">
        <ele>741</ele>
        <time>2011-01-16T08:36:37Z</time>
      </trkpt>
      <trkpt lat="45.30023" lon="5.43372">
        <ele>741</ele>
        <time>2011-01-16T08:36:41Z</time>
      </trkpt>
      <trkpt lat="45.30023" lon="5.4335">
        <ele>741</ele>
        <time>2011-01-16T08:36:46Z</time>
      </trkpt>
      <trkpt lat="45.30024" lon="5.43329">
        <ele>741</ele>
        <time>2011-01-16T08:36:51Z</time>
      </trkpt>
      <trkpt lat="45.30026" lon="5.43316">
        <ele>741</ele>
        <time>2011-01-16T08:36:55Z</time>
      </trkpt>
      <trkpt lat="45.30027" lon="5.43294">
        <ele>741</ele>
        <time>2011-01-16T08:37:00Z</time>
      </trkpt>
      <trkpt lat="45.30027" lon="5.4328">
        <ele>741</ele>
        <time>2011-01-16T08:37:04Z</time>
      </trkpt>
      <trkpt lat="45.3003" lon="5.43266">
        <ele>741.27368164062</ele>
        <time>2011-01-16T08:37:08Z</time>
      </trkpt>
      <trkpt lat="45.30032" lon="5.43252">
        <ele>741.54833984375</ele>
        <time>2011-01-16T08:37:12Z</time>
      </trkpt>
      <trkpt lat="45.30031" lon="5.43239">
        <ele>741.49340820312</ele>
        <time>2011-01-16T08:37:16Z</time>
      </trkpt>
      <trkpt lat="45.30031" lon="5.43225">
        <ele>741.49340820312</ele>
        <time>2011-01-16T08:37:21Z</time>
      </trkpt>
      <trkpt lat="45.30028" lon="5.43209">
        <ele>741.05395507812</ele>
        <time>2011-01-16T08:37:26Z</time>
      </trkpt>
      <trkpt lat="45.30028" lon="5.43191">
        <ele>741.05395507812</ele>
        <time>2011-01-16T08:37:31Z</time>
      </trkpt>
      <trkpt lat="45.30029" lon="5.43174">
        <ele>741.21875</ele>
        <time>2011-01-16T08:37:36Z</time>
      </trkpt>
      <trkpt lat="45.30031" lon="5.43163">
        <ele>741.4384765625</ele>
        <time>2011-01-16T08:37:40Z</time>
      </trkpt>
      <trkpt lat="45.30036" lon="5.43144">
        <ele>742.15258789062</ele>
        <time>2011-01-16T08:37:47Z</time>
      </trkpt>
      <trkpt lat="45.30039" lon="5.43129">
        <ele>742.59204101562</ele>
        <time>2011-01-16T08:37:52Z</time>
      </trkpt>
      <trkpt lat="45.30037" lon="5.43111">
        <ele>742.3173828125</ele>
        <time>2011-01-16T08:37:57Z</time>
      </trkpt>
      <trkpt lat="45.30037" lon="5.43095">
        <ele>742.50537109375</ele>
        <time>2011-01-16T08:38:02Z</time>
      </trkpt>
      <trkpt lat="45.30038" lon="5.43082">
        <ele>742.78405761719</ele>
        <time>2011-01-16T08:38:06Z</time>
      </trkpt>
      <trkpt lat="45.30042" lon="5.43065">
        <ele>743.470703125</ele>
        <time>2011-01-16T08:38:12Z</time>
      </trkpt>
      <trkpt lat="45.30046" lon="5.43049">
        <ele>744.29467773438</ele>
        <time>2011-01-16T08:38:17Z</time>
      </trkpt>
      <trkpt lat="45.3005" lon="5.43033">
        <ele>744.91265869141</ele>
        <time>2011-01-16T08:38:22Z</time>
      </trkpt>
      <trkpt lat="45.30051" lon="5.43011">
        <ele>745.18731689453</ele>
        <time>2011-01-16T08:38:28Z</time>
      </trkpt>
      <trkpt lat="45.30052" lon="5.4299">
        <ele>745.32464599609</ele>
        <time>2011-01-16T08:38:33Z</time>
      </trkpt>
      <trkpt lat="45.30057" lon="5.42979">
        <ele>746.13037109375</ele>
        <time>2011-01-16T08:38:37Z</time>
      </trkpt>
      <trkpt lat="45.30066" lon="5.42965">
        <ele>747.21954345703</ele>
        <time>2011-01-16T08:38:43Z</time>
      </trkpt>
      <trkpt lat="45.3007" lon="5.4295">
        <ele>748.05004882812</ele>
        <time>2011-01-16T08:38:48Z</time>
      </trkpt>
      <trkpt lat="45.30074" lon="5.42937">
        <ele>748.5908203125</ele>
        <time>2011-01-16T08:38:52Z</time>
      </trkpt>
      <trkpt lat="45.30078" lon="5.42924">
        <ele>749.25</ele>
        <time>2011-01-16T08:38:56Z</time>
      </trkpt>
      <trkpt lat="45.30084" lon="5.42909">
        <ele>750.1611328125</ele>
        <time>2011-01-16T08:39:01Z</time>
      </trkpt>
      <trkpt lat="45.30089" lon="5.42897">
        <ele>751.05377197266</ele>
        <time>2011-01-16T08:39:05Z</time>
      </trkpt>
      <trkpt lat="45.30093" lon="5.42882">
        <ele>751.82537841797</ele>
        <time>2011-01-16T08:39:09Z</time>
      </trkpt>
      <trkpt lat="45.30096" lon="5.4287">
        <ele>752.68322753906</ele>
        <time>2011-01-16T08:39:12Z</time>
      </trkpt>
      <trkpt lat="45.30105" lon="5.42853">
        <ele>754.72521972656</ele>
        <time>2011-01-16T08:39:18Z</time>
      </trkpt>
      <trkpt lat="45.30111" lon="5.42838">
        <ele>755.96118164062</ele>
        <time>2011-01-16T08:39:23Z</time>
      </trkpt>
      <trkpt lat="45.30114" lon="5.42827">
        <ele>755.79168701172</ele>
        <time>2011-01-16T08:39:27Z</time>
      </trkpt>
      <trkpt lat="45.3012" lon="5.42813">
        <ele>755.6123046875</ele>
        <time>2011-01-16T08:39:33Z</time>
      </trkpt>
      <trkpt lat="45.3012" lon="5.42807">
        <ele>755.64611816406</ele>
        <time>2011-01-16T08:39:36Z</time>
      </trkpt>
      <trkpt lat="45.30123" lon="5.42796">
        <ele>756.07427978516</ele>
        <time>2011-01-16T08:39:42Z</time>
      </trkpt>
      <trkpt lat="45.30124" lon="5.42794">
        <ele>756.13830566406</ele>
        <time>2011-01-16T08:39:43Z</time>
      </trkpt>
      <trkpt lat="45.30127" lon="5.42789">
        <ele>756.37469482422</ele>
        <time>2011-01-16T08:39:46Z</time>
      </trkpt>
      <trkpt lat="45.30135" lon="5.4278">
        <ele>756.87884521484</ele>
        <time>2011-01-16T08:39:51Z</time>
      </trkpt>
      <trkpt lat="45.30144" lon="5.42765">
        <ele>758.07757568359</ele>
        <time>2011-01-16T08:39:57Z</time>
      </trkpt>
      <trkpt lat="45.30152" lon="5.42748">
        <ele>759.50305175781</ele>
        <time>2011-01-16T08:40:04Z</time>
      </trkpt>
      <trkpt lat="45.30156" lon="5.4273">
        <ele>759.89068603516</ele>
        <time>2011-01-16T08:40:10Z</time>
      </trkpt>
      <trkpt lat="45.30163" lon="5.42712">
        <ele>760</ele>
        <time>2011-01-16T08:40:16Z</time>
      </trkpt>
      <trkpt lat="45.3017" lon="5.42698">
        <ele>760</ele>
        <time>2011-01-16T08:40:21Z</time>
      </trkpt>
      <trkpt lat="45.30176" lon="5.42688">
        <ele>760</ele>
        <time>2011-01-16T08:40:25Z</time>
      </trkpt>
      <trkpt lat="45.3018" lon="5.42682">
        <ele>760</ele>
        <time>2011-01-16T08:40:29Z</time>
      </trkpt>
      <trkpt lat="45.30183" lon="5.42677">
        <ele>760</ele>
        <time>2011-01-16T08:40:33Z</time>
      </trkpt>
      <trkpt lat="45.30188" lon="5.42669">
        <ele>760</ele>
        <time>2011-01-16T08:40:40Z</time>
      </trkpt>
      <trkpt lat="45.3019" lon="5.4266">
        <ele>759.61285400391</ele>
        <time>2011-01-16T08:40:47Z</time>
      </trkpt>
      <trkpt lat="45.30194" lon="5.42649">
        <ele>758.77685546875</ele>
        <time>2011-01-16T08:40:55Z</time>
      </trkpt>
      <trkpt lat="45.30196" lon="5.42647">
        <ele>758.40960693359</ele>
        <time>2011-01-16T08:40:57Z</time>
      </trkpt>
      <trkpt lat="45.30199" lon="5.4264">
        <ele>757.37768554688</ele>
        <time>2011-01-16T08:41:02Z</time>
      </trkpt>
      <trkpt lat="45.30205" lon="5.42627">
        <ele>755.53833007812</ele>
        <time>2011-01-16T08:41:10Z</time>
      </trkpt>
      <trkpt lat="45.30209" lon="5.42614">
        <ele>753.74810791016</ele>
        <time>2011-01-16T08:41:18Z</time>
      </trkpt>
      <trkpt lat="45.3021" lon="5.42607">
        <ele>752.61120605469</ele>
        <time>2011-01-16T08:41:23Z</time>
      </trkpt>
      <trkpt lat="45.30211" lon="5.426">
        <ele>751.42333984375</ele>
        <time>2011-01-16T08:41:30Z</time>
      </trkpt>
      <trkpt lat="45.30211" lon="5.426">
        <ele>751.43017578125</ele>
        <time>2011-01-16T08:41:40Z</time>
      </trkpt>
      <trkpt lat="45.3021" lon="5.42599">
        <ele>751.39587402344</ele>
        <time>2011-01-16T08:41:49Z</time>
      </trkpt>
      <trkpt lat="45.3021" lon="5.42599">
        <ele>751.37524414062</ele>
        <time>2011-01-16T08:41:58Z</time>
      </trkpt>
      <trkpt lat="45.3021" lon="5.42596">
        <ele>750.95642089844</ele>
        <time>2011-01-16T08:42:07Z</time>
      </trkpt>
      <trkpt lat="45.30213" lon="5.42591">
        <ele>749.74108886719</ele>
        <time>2011-01-16T08:42:14Z</time>
      </trkpt>
      <trkpt lat="45.30216" lon="5.42582">
        <ele>747.94586181641</ele>
        <time>2011-01-16T08:42:22Z</time>
      </trkpt>
      <trkpt lat="45.30219" lon="5.42573">
        <ele>746.43524169922</ele>
        <time>2011-01-16T08:42:29Z</time>
      </trkpt>
      <trkpt lat="45.30225" lon="5.42563">
        <ele>744.62109375</ele>
        <time>2011-01-16T08:42:37Z</time>
      </trkpt>
      <trkpt lat="45.3023" lon="5.42554">
        <ele>743.25354003906</ele>
        <time>2011-01-16T08:42:42Z</time>
      </trkpt>
      <trkpt lat="45.30235" lon="5.42547">
        <ele>741.88708496094</ele>
        <time>2011-01-16T08:42:49Z</time>
      </trkpt>
      <trkpt lat="45.3024" lon="5.42543">
        <ele>740.89831542969</ele>
        <time>2011-01-16T08:42:52Z</time>
      </trkpt>
      <trkpt lat="45.30247" lon="5.42547">
        <ele>740.93951416016</ele>
        <time>2011-01-16T08:42:56Z</time>
      </trkpt>
      <trkpt lat="45.30258" lon="5.42557">
        <ele>740.98693847656</ele>
        <time>2011-01-16T08:43:02Z</time>
      </trkpt>
      <trkpt lat="45.30268" lon="5.42569">
        <ele>740.87884521484</ele>
        <time>2011-01-16T08:43:08Z</time>
      </trkpt>
      <trkpt lat="45.30278" lon="5.42584">
        <ele>741.04150390625</ele>
        <time>2011-01-16T08:43:14Z</time>
      </trkpt>
      <trkpt lat="45.30291" lon="5.42599">
        <ele>741.84484863281</ele>
        <time>2011-01-16T08:43:20Z</time>
      </trkpt>
      <trkpt lat="45.303" lon="5.42611">
        <ele>742.54522705078</ele>
        <time>2011-01-16T08:43:25Z</time>
      </trkpt>
      <trkpt lat="45.30309" lon="5.42624">
        <ele>742.61047363281</ele>
        <time>2011-01-16T08:43:30Z</time>
      </trkpt>
      <trkpt lat="45.30315" lon="5.42637">
        <ele>742.85186767578</ele>
        <time>2011-01-16T08:43:35Z</time>
      </trkpt>
      <trkpt lat="45.30324" lon="5.42654">
        <ele>743.81091308594</ele>
        <time>2011-01-16T08:43:42Z</time>
      </trkpt>
      <trkpt lat="45.30332" lon="5.42669">
        <ele>744.42010498047</ele>
        <time>2011-01-16T08:43:48Z</time>
      </trkpt>
      <trkpt lat="45.30342" lon="5.42688">
        <ele>744.28277587891</ele>
        <time>2011-01-16T08:43:55Z</time>
      </trkpt>
      <trkpt lat="45.3035" lon="5.42702">
        <ele>743.91778564453</ele>
        <time>2011-01-16T08:44:00Z</time>
      </trkpt>
      <trkpt lat="45.30352" lon="5.42704">
        <ele>743.72552490234</ele>
        <time>2011-01-16T08:44:01Z</time>
      </trkpt>
      <trkpt lat="45.30363" lon="5.4271">
        <ele>742.31286621094</ele>
        <time>2011-01-16T08:44:07Z</time>
      </trkpt>
      <trkpt lat="45.30364" lon="5.4271">
        <ele>742.16717529297</ele>
        <time>2011-01-16T08:44:08Z</time>
      </trkpt>
      <trkpt lat="45.30366" lon="5.4271">
        <ele>741.93054199219</ele>
        <time>2011-01-16T08:44:17Z</time>
      </trkpt>
      <trkpt lat="45.30366" lon="5.42708">
        <ele>741.91577148438</ele>
        <time>2011-01-16T08:44:27Z</time>
      </trkpt>
      <trkpt lat="45.30366" lon="5.42708">
        <ele>741.92175292969</ele>
        <time>2011-01-16T08:44:35Z</time>
      </trkpt>
      <trkpt lat="45.30366" lon="5.42708">
        <ele>741.86566162109</ele>
        <time>2011-01-16T08:44:42Z</time>
      </trkpt>
      <trkpt lat="45.30366" lon="5.42708">
        <ele>741.90777587891</ele>
        <time>2011-01-16T08:44:48Z</time>
      </trkpt>
      <trkpt lat="45.30365" lon="5.42708">
        <ele>741.95788574219</ele>
        <time>2011-01-16T08:44:55Z</time>
      </trkpt>
      <trkpt lat="45.30366" lon="5.42708">
        <ele>741.86163330078</ele>
        <time>2011-01-16T08:45:08Z</time>
      </trkpt>
      <trkpt lat="45.30367" lon="5.4271">
        <ele>741.89349365234</ele>
        <time>2011-01-16T08:45:18Z</time>
      </trkpt>
      <trkpt lat="45.30367" lon="5.42711">
        <ele>741.83050537109</ele>
        <time>2011-01-16T08:45:28Z</time>
      </trkpt>
      <trkpt lat="45.30368" lon="5.42711">
        <ele>741.79638671875</ele>
        <time>2011-01-16T08:45:38Z</time>
      </trkpt>
      <trkpt lat="45.30367" lon="5.42709">
        <ele>741.8544921875</ele>
        <time>2011-01-16T08:46:02Z</time>
      </trkpt>
      <trkpt lat="45.30366" lon="5.42709">
        <ele>741.91638183594</ele>
        <time>2011-01-16T08:46:17Z</time>
      </trkpt>
      <trkpt lat="45.30366" lon="5.42711">
        <ele>742.03796386719</ele>
        <time>2011-01-16T08:46:23Z</time>
      </trkpt>
      <trkpt lat="45.30365" lon="5.42712">
        <ele>742.14685058594</ele>
        <time>2011-01-16T08:46:27Z</time>
      </trkpt>
      <trkpt lat="45.30365" lon="5.42712">
        <ele>742.21649169922</ele>
        <time>2011-01-16T08:46:31Z</time>
      </trkpt>
      <trkpt lat="45.30365" lon="5.42711">
        <ele>742.13122558594</ele>
        <time>2011-01-16T08:46:37Z</time>
      </trkpt>
      <trkpt lat="45.30366" lon="5.42712">
        <ele>742.05999755859</ele>
        <time>2011-01-16T08:46:43Z</time>
      </trkpt>
      <trkpt lat="45.30367" lon="5.42709">
        <ele>741.81927490234</ele>
        <time>2011-01-16T08:46:55Z</time>
      </trkpt>
      <trkpt lat="45.30366" lon="5.42708">
        <ele>741.91778564453</ele>
        <time>2011-01-16T08:47:02Z</time>
      </trkpt>
      <trkpt lat="45.30366" lon="5.42708">
        <ele>741.88171386719</ele>
        <time>2011-01-16T08:47:09Z</time>
      </trkpt>
      <trkpt lat="45.30366" lon="5.42708">
        <ele>741.83325195312</ele>
        <time>2011-01-16T08:47:17Z</time>
      </trkpt>
      <trkpt lat="45.30367" lon="5.42709">
        <ele>741.73822021484</ele>
        <time>2011-01-16T08:47:25Z</time>
      </trkpt>
      <trkpt lat="45.30367" lon="5.42709">
        <ele>741.85864257812</ele>
        <time>2011-01-16T08:47:33Z</time>
      </trkpt>
      <trkpt lat="45.30367" lon="5.42709">
        <ele>741.767578125</ele>
        <time>2011-01-16T08:47:41Z</time>
      </trkpt>
      <trkpt lat="45.30365" lon="5.42708">
        <ele>741.94799804688</ele>
        <time>2011-01-16T08:47:46Z</time>
      </trkpt>
      <trkpt lat="45.30361" lon="5.42707">
        <ele>742.44085693359</ele>
        <time>2011-01-16T08:47:51Z</time>
      </trkpt>
      <trkpt lat="45.30353" lon="5.42701">
        <ele>743.38049316406</ele>
        <time>2011-01-16T08:47:56Z</time>
      </trkpt>
      <trkpt lat="45.30342" lon="5.42686">
        <ele>744.21752929688</ele>
        <time>2011-01-16T08:48:03Z</time>
      </trkpt>
      <trkpt lat="45.30336" lon="5.42675">
        <ele>744.25531005859</ele>
        <time>2011-01-16T08:48:08Z</time>
      </trkpt>
      <trkpt lat="45.30329" lon="5.42661">
        <ele>743.93499755859</ele>
        <time>2011-01-16T08:48:13Z</time>
      </trkpt>
      <trkpt lat="45.30323" lon="5.42649">
        <ele>743.26861572266</ele>
        <time>2011-01-16T08:48:17Z</time>
      </trkpt>
      <trkpt lat="45.30316" lon="5.42632">
        <ele>742.49420166016</ele>
        <time>2011-01-16T08:48:23Z</time>
      </trkpt>
      <trkpt lat="45.3031" lon="5.4262">
        <ele>742.27593994141</ele>
        <time>2011-01-16T08:48:27Z</time>
      </trkpt>
      <trkpt lat="45.30304" lon="5.42608">
        <ele>741.70068359375</ele>
        <time>2011-01-16T08:48:31Z</time>
      </trkpt>
      <trkpt lat="45.30294" lon="5.4259">
        <ele>740.2724609375</ele>
        <time>2011-01-16T08:48:37Z</time>
      </trkpt>
      <trkpt lat="45.30279" lon="5.42573">
        <ele>739.76580810547</ele>
        <time>2011-01-16T08:48:43Z</time>
      </trkpt>
      <trkpt lat="45.30268" lon="5.42559">
        <ele>739.74243164062</ele>
        <time>2011-01-16T08:48:48Z</time>
      </trkpt>
      <trkpt lat="45.30259" lon="5.42547">
        <ele>739.48547363281</ele>
        <time>2011-01-16T08:48:53Z</time>
      </trkpt>
      <trkpt lat="45.30247" lon="5.42538">
        <ele>739.607421875</ele>
        <time>2011-01-16T08:48:58Z</time>
      </trkpt>
      <trkpt lat="45.30239" lon="5.4253">
        <ele>739.05126953125</ele>
        <time>2011-01-16T08:49:02Z</time>
      </trkpt>
      <trkpt lat="45.30238" lon="5.42526">
        <ele>738.62432861328</ele>
        <time>2011-01-16T08:49:04Z</time>
      </trkpt>
      <trkpt lat="45.30243" lon="5.42513">
        <ele>736.84753417969</ele>
        <time>2011-01-16T08:49:09Z</time>
      </trkpt>
      <trkpt lat="45.30247" lon="5.42497">
        <ele>734.58453369141</ele>
        <time>2011-01-16T08:49:13Z</time>
      </trkpt>
      <trkpt lat="45.30255" lon="5.42478">
        <ele>730.65539550781</ele>
        <time>2011-01-16T08:49:19Z</time>
      </trkpt>
      <trkpt lat="45.30259" lon="5.42461">
        <ele>727.68041992188</ele>
        <time>2011-01-16T08:49:24Z</time>
      </trkpt>
      <trkpt lat="45.30259" lon="5.42456">
        <ele>726.99377441406</ele>
        <time>2011-01-16T08:49:25Z</time>
      </trkpt>
      <trkpt lat="45.30265" lon="5.42436">
        <ele>724.04376220703</ele>
        <time>2011-01-16T08:49:30Z</time>
      </trkpt>
      <trkpt lat="45.30272" lon="5.4242">
        <ele>721.86193847656</ele>
        <time>2011-01-16T08:49:35Z</time>
      </trkpt>
      <trkpt lat="45.30278" lon="5.42409">
        <ele>719.54119873047</ele>
        <time>2011-01-16T08:49:39Z</time>
      </trkpt>
      <trkpt lat="45.30282" lon="5.42404">
        <ele>718.33099365234</ele>
        <time>2011-01-16T08:49:41Z</time>
      </trkpt>
      <trkpt lat="45.30293" lon="5.42387">
        <ele>714.22631835938</ele>
        <time>2011-01-16T08:49:47Z</time>
      </trkpt>
      <trkpt lat="45.30305" lon="5.4238">
        <ele>712.02221679688</ele>
        <time>2011-01-16T08:49:51Z</time>
      </trkpt>
      <trkpt lat="45.30317" lon="5.42377">
        <ele>710.13317871094</ele>
        <time>2011-01-16T08:49:55Z</time>
      </trkpt>
      <trkpt lat="45.30338" lon="5.42375">
        <ele>706.76025390625</ele>
        <time>2011-01-16T08:50:01Z</time>
      </trkpt>
      <trkpt lat="45.30353" lon="5.42371">
        <ele>703.51409912109</ele>
        <time>2011-01-16T08:50:06Z</time>
      </trkpt>
      <trkpt lat="45.30366" lon="5.42358">
        <ele>699.94970703125</ele>
        <time>2011-01-16T08:50:11Z</time>
      </trkpt>
      <trkpt lat="45.30373" lon="5.42349">
        <ele>697.33154296875</ele>
        <time>2011-01-16T08:50:14Z</time>
      </trkpt>
      <trkpt lat="45.30384" lon="5.42334">
        <ele>692.87603759766</ele>
        <time>2011-01-16T08:50:19Z</time>
      </trkpt>
      <trkpt lat="45.30392" lon="5.42323">
        <ele>690.26605224609</ele>
        <time>2011-01-16T08:50:23Z</time>
      </trkpt>
      <trkpt lat="45.30402" lon="5.42308">
        <ele>687.01483154297</ele>
        <time>2011-01-16T08:50:28Z</time>
      </trkpt>
      <trkpt lat="45.3041" lon="5.42294">
        <ele>683.35522460938</ele>
        <time>2011-01-16T08:50:33Z</time>
      </trkpt>
      <trkpt lat="45.30417" lon="5.4228">
        <ele>680.20251464844</ele>
        <time>2011-01-16T08:50:37Z</time>
      </trkpt>
      <trkpt lat="45.30418" lon="5.42274">
        <ele>678.79840087891</ele>
        <time>2011-01-16T08:50:39Z</time>
      </trkpt>
      <trkpt lat="45.30418" lon="5.42261">
        <ele>676.06896972656</ele>
        <time>2011-01-16T08:50:44Z</time>
      </trkpt>
      <trkpt lat="45.3042" lon="5.42248">
        <ele>672.45294189453</ele>
        <time>2011-01-16T08:50:48Z</time>
      </trkpt>
      <trkpt lat="45.30426" lon="5.42236">
        <ele>666.75964355469</ele>
        <time>2011-01-16T08:50:52Z</time>
      </trkpt>
      <trkpt lat="45.30437" lon="5.42217">
        <ele>658.64978027344</ele>
        <time>2011-01-16T08:50:58Z</time>
      </trkpt>
      <trkpt lat="45.30444" lon="5.42212">
        <ele>656.2744140625</ele>
        <time>2011-01-16T08:51:01Z</time>
      </trkpt>
      <trkpt lat="45.3045" lon="5.42205">
        <ele>654.56573486328</ele>
        <time>2011-01-16T08:51:04Z</time>
      </trkpt>
      <trkpt lat="45.30454" lon="5.42188">
        <ele>651.92260742188</ele>
        <time>2011-01-16T08:51:10Z</time>
      </trkpt>
      <trkpt lat="45.30452" lon="5.42173">
        <ele>650.40686035156</ele>
        <time>2011-01-16T08:51:15Z</time>
      </trkpt>
      <trkpt lat="45.30448" lon="5.42153">
        <ele>647.48828125</ele>
        <time>2011-01-16T08:51:21Z</time>
      </trkpt>
      <trkpt lat="45.30444" lon="5.42132">
        <ele>644.0869140625</ele>
        <time>2011-01-16T08:51:27Z</time>
      </trkpt>
      <trkpt lat="45.30443" lon="5.42122">
        <ele>642.63806152344</ele>
        <time>2011-01-16T08:51:30Z</time>
      </trkpt>
      <trkpt lat="45.30447" lon="5.42105">
        <ele>640.07299804688</ele>
        <time>2011-01-16T08:51:37Z</time>
      </trkpt>
      <trkpt lat="45.30447" lon="5.42102">
        <ele>639.74340820312</ele>
        <time>2011-01-16T08:51:46Z</time>
      </trkpt>
      <trkpt lat="45.30447" lon="5.42101">
        <ele>639.59228515625</ele>
        <time>2011-01-16T08:51:48Z</time>
      </trkpt>
      <trkpt lat="45.30436" lon="5.42084">
        <ele>637.10034179688</ele>
        <time>2011-01-16T08:51:55Z</time>
      </trkpt>
      <trkpt lat="45.30424" lon="5.42075">
        <ele>636.33618164062</ele>
        <time>2011-01-16T08:52:00Z</time>
      </trkpt>
      <trkpt lat="45.30412" lon="5.42072">
        <ele>636.64166259766</ele>
        <time>2011-01-16T08:52:06Z</time>
      </trkpt>
      <trkpt lat="45.30402" lon="5.4207">
        <ele>637.37622070312</ele>
        <time>2011-01-16T08:52:10Z</time>
      </trkpt>
      <trkpt lat="45.30388" lon="5.42067">
        <ele>638.26824951172</ele>
        <time>2011-01-16T08:52:17Z</time>
      </trkpt>
      <trkpt lat="45.30386" lon="5.42065">
        <ele>638.31457519531</ele>
        <time>2011-01-16T08:52:18Z</time>
      </trkpt>
      <trkpt lat="45.30369" lon="5.42061">
        <ele>639.76171875</ele>
        <time>2011-01-16T08:52:25Z</time>
      </trkpt>
      <trkpt lat="45.3036" lon="5.42061">
        <ele>640.748046875</ele>
        <time>2011-01-16T08:52:29Z</time>
      </trkpt>
      <trkpt lat="45.30351" lon="5.42061">
        <ele>643.12042236328</ele>
        <time>2011-01-16T08:52:33Z</time>
      </trkpt>
      <trkpt lat="45.30337" lon="5.42063">
        <ele>646.84375</ele>
        <time>2011-01-16T08:52:39Z</time>
      </trkpt>
      <trkpt lat="45.30323" lon="5.4206">
        <ele>649.99426269531</ele>
        <time>2011-01-16T08:52:45Z</time>
      </trkpt>
      <trkpt lat="45.30316" lon="5.42057">
        <ele>651.55364990234</ele>
        <time>2011-01-16T08:52:49Z</time>
      </trkpt>
      <trkpt lat="45.30317" lon="5.4205">
        <ele>650.30456542969</ele>
        <time>2011-01-16T08:52:54Z</time>
      </trkpt>
      <trkpt lat="45.30322" lon="5.42046">
        <ele>648.66345214844</ele>
        <time>2011-01-16T08:52:57Z</time>
      </trkpt>
      <trkpt lat="45.30328" lon="5.42038">
        <ele>645.86883544922</ele>
        <time>2011-01-16T08:53:02Z</time>
      </trkpt>
      <trkpt lat="45.30336" lon="5.42029">
        <ele>642.34631347656</ele>
        <time>2011-01-16T08:53:07Z</time>
      </trkpt>
      <trkpt lat="45.3034" lon="5.42024">
        <ele>640.97888183594</ele>
        <time>2011-01-16T08:53:09Z</time>
      </trkpt>
      <trkpt lat="45.30345" lon="5.42019">
        <ele>639.13177490234</ele>
        <time>2011-01-16T08:53:12Z</time>
      </trkpt>
      <trkpt lat="45.30357" lon="5.42003">
        <ele>634.50891113281</ele>
        <time>2011-01-16T08:53:18Z</time>
      </trkpt>
      <trkpt lat="45.30366" lon="5.41994">
        <ele>631.56591796875</ele>
        <time>2011-01-16T08:53:22Z</time>
      </trkpt>
      <trkpt lat="45.30377" lon="5.41982">
        <ele>628.77124023438</ele>
        <time>2011-01-16T08:53:27Z</time>
      </trkpt>
      <trkpt lat="45.30385" lon="5.41974">
        <ele>626.75256347656</ele>
        <time>2011-01-16T08:53:31Z</time>
      </trkpt>
      <trkpt lat="45.30392" lon="5.41967">
        <ele>625.17602539062</ele>
        <time>2011-01-16T08:53:36Z</time>
      </trkpt>
      <trkpt lat="45.30398" lon="5.41962">
        <ele>624.17352294922</ele>
        <time>2011-01-16T08:53:39Z</time>
      </trkpt>
      <trkpt lat="45.3041" lon="5.41952">
        <ele>622.271484375</ele>
        <time>2011-01-16T08:53:45Z</time>
      </trkpt>
      <trkpt lat="45.3042" lon="5.4194">
        <ele>620.76147460938</ele>
        <time>2011-01-16T08:53:50Z</time>
      </trkpt>
      <trkpt lat="45.30423" lon="5.41934">
        <ele>620.49328613281</ele>
        <time>2011-01-16T08:53:52Z</time>
      </trkpt>
      <trkpt lat="45.30435" lon="5.41937">
        <ele>620.25799560547</ele>
        <time>2011-01-16T08:53:56Z</time>
      </trkpt>
      <trkpt lat="45.30438" lon="5.41939">
        <ele>620.18774414062</ele>
        <time>2011-01-16T08:53:57Z</time>
      </trkpt>
      <trkpt lat="45.30447" lon="5.41941">
        <ele>620</ele>
        <time>2011-01-16T08:54:00Z</time>
      </trkpt>
      <trkpt lat="45.30464" lon="5.41944">
        <ele>620</ele>
        <time>2011-01-16T08:54:06Z</time>
      </trkpt>
      <trkpt lat="45.30473" lon="5.41946">
        <ele>620.259765625</ele>
        <time>2011-01-16T08:54:10Z</time>
      </trkpt>
      <trkpt lat="45.30479" lon="5.41946">
        <ele>620.65808105469</ele>
        <time>2011-01-16T08:54:14Z</time>
      </trkpt>
      <trkpt lat="45.30483" lon="5.41944">
        <ele>620.75866699219</ele>
        <time>2011-01-16T08:54:18Z</time>
      </trkpt>
      <trkpt lat="45.30484" lon="5.41943">
        <ele>620.81481933594</ele>
        <time>2011-01-16T08:54:23Z</time>
      </trkpt>
      <trkpt lat="45.30499" lon="5.41936">
        <ele>621.28894042969</ele>
        <time>2011-01-16T08:54:29Z</time>
      </trkpt>
      <trkpt lat="45.3051" lon="5.41927">
        <ele>622.84167480469</ele>
        <time>2011-01-16T08:54:34Z</time>
      </trkpt>
      <trkpt lat="45.30518" lon="5.41915">
        <ele>623.75537109375</ele>
        <time>2011-01-16T08:54:39Z</time>
      </trkpt>
      <trkpt lat="45.30524" lon="5.41901">
        <ele>623.71557617188</ele>
        <time>2011-01-16T08:54:44Z</time>
      </trkpt>
      <trkpt lat="45.30531" lon="5.41887">
        <ele>623.8115234375</ele>
        <time>2011-01-16T08:54:49Z</time>
      </trkpt>
      <trkpt lat="45.30547" lon="5.41883">
        <ele>627.65283203125</ele>
        <time>2011-01-16T08:54:55Z</time>
      </trkpt>
      <trkpt lat="45.30561" lon="5.41879">
        <ele>631.05725097656</ele>
        <time>2011-01-16T08:55:01Z</time>
      </trkpt>
      <trkpt lat="45.30574" lon="5.41875">
        <ele>633.91217041016</ele>
        <time>2011-01-16T08:55:06Z</time>
      </trkpt>
      <trkpt lat="45.30588" lon="5.41868">
        <ele>636.61273193359</ele>
        <time>2011-01-16T08:55:12Z</time>
      </trkpt>
      <trkpt lat="45.30599" lon="5.41859">
        <ele>638.67785644531</ele>
        <time>2011-01-16T08:55:17Z</time>
      </trkpt>
      <trkpt lat="45.30611" lon="5.41854">
        <ele>641.90942382812</ele>
        <time>2011-01-16T08:55:22Z</time>
      </trkpt>
      <trkpt lat="45.30626" lon="5.41852">
        <ele>643.83032226562</ele>
        <time>2011-01-16T08:55:27Z</time>
      </trkpt>
      <trkpt lat="45.3064" lon="5.41854">
        <ele>644.86163330078</ele>
        <time>2011-01-16T08:55:33Z</time>
      </trkpt>
      <trkpt lat="45.30652" lon="5.41856">
        <ele>644.51867675781</ele>
        <time>2011-01-16T08:55:38Z</time>
      </trkpt>
      <trkpt lat="45.30672" lon="5.41858">
        <ele>643.95983886719</ele>
        <time>2011-01-16T08:55:46Z</time>
      </trkpt>
      <trkpt lat="45.30686" lon="5.4186">
        <ele>643.40368652344</ele>
        <time>2011-01-16T08:55:52Z</time>
      </trkpt>
      <trkpt lat="45.30689" lon="5.4186">
        <ele>643.35729980469</ele>
        <time>2011-01-16T08:55:53Z</time>
      </trkpt>
      <trkpt lat="45.30704" lon="5.41861">
        <ele>643.17193603516</ele>
        <time>2011-01-16T08:55:59Z</time>
      </trkpt>
      <trkpt lat="45.3072" lon="5.41861">
        <ele>642.99548339844</ele>
        <time>2011-01-16T08:56:05Z</time>
      </trkpt>
      <trkpt lat="45.30733" lon="5.41862">
        <ele>641.72534179688</ele>
        <time>2011-01-16T08:56:10Z</time>
      </trkpt>
      <trkpt lat="45.30745" lon="5.41863">
        <ele>640.46606445312</ele>
        <time>2011-01-16T08:56:14Z</time>
      </trkpt>
      <trkpt lat="45.3076" lon="5.41863">
        <ele>640</ele>
        <time>2011-01-16T08:56:20Z</time>
      </trkpt>
      <trkpt lat="45.30771" lon="5.41861">
        <ele>640</ele>
        <time>2011-01-16T08:56:24Z</time>
      </trkpt>
      <trkpt lat="45.30783" lon="5.41854">
        <ele>642.22674560547</ele>
        <time>2011-01-16T08:56:29Z</time>
      </trkpt>
      <trkpt lat="45.30785" lon="5.41853">
        <ele>642.56658935547</ele>
        <time>2011-01-16T08:56:30Z</time>
      </trkpt>
      <trkpt lat="45.30799" lon="5.41852">
        <ele>642.87561035156</ele>
        <time>2011-01-16T08:56:35Z</time>
      </trkpt>
      <trkpt lat="45.30814" lon="5.41852">
        <ele>642.55004882812</ele>
        <time>2011-01-16T08:56:41Z</time>
      </trkpt>
      <trkpt lat="45.30827" lon="5.41852">
        <ele>641.95404052734</ele>
        <time>2011-01-16T08:56:46Z</time>
      </trkpt>
      <trkpt lat="45.30838" lon="5.41855">
        <ele>640.73211669922</ele>
        <time>2011-01-16T08:56:50Z</time>
      </trkpt>
      <trkpt lat="45.30847" lon="5.41861">
        <ele>638.99035644531</ele>
        <time>2011-01-16T08:56:53Z</time>
      </trkpt>
      <trkpt lat="45.30861" lon="5.41875">
        <ele>636.93530273438</ele>
        <time>2011-01-16T08:56:59Z</time>
      </trkpt>
      <trkpt lat="45.30864" lon="5.41878">
        <ele>636.36682128906</ele>
        <time>2011-01-16T08:57:00Z</time>
      </trkpt>
      <trkpt lat="45.30876" lon="5.4189">
        <ele>633.08618164062</ele>
        <time>2011-01-16T08:57:05Z</time>
      </trkpt>
      <trkpt lat="45.30884" lon="5.41899">
        <ele>629.29833984375</ele>
        <time>2011-01-16T08:57:09Z</time>
      </trkpt>
      <trkpt lat="45.30891" lon="5.41909">
        <ele>625.50115966797</ele>
        <time>2011-01-16T08:57:13Z</time>
      </trkpt>
      <trkpt lat="45.30901" lon="5.41928">
        <ele>621.82177734375</ele>
        <time>2011-01-16T08:57:20Z</time>
      </trkpt>
      <trkpt lat="45.30902" lon="5.4193">
        <ele>621.52825927734</ele>
        <time>2011-01-16T08:57:21Z</time>
      </trkpt>
      <trkpt lat="45.30916" lon="5.41945">
        <ele>619.97888183594</ele>
        <time>2011-01-16T08:57:26Z</time>
      </trkpt>
      <trkpt lat="45.30922" lon="5.4195">
        <ele>619.59057617188</ele>
        <time>2011-01-16T08:57:28Z</time>
      </trkpt>
      <trkpt lat="45.3094" lon="5.41962">
        <ele>618.72198486328</ele>
        <time>2011-01-16T08:57:34Z</time>
      </trkpt>
      <trkpt lat="45.30955" lon="5.41965">
        <ele>617.20086669922</ele>
        <time>2011-01-16T08:57:39Z</time>
      </trkpt>
      <trkpt lat="45.30967" lon="5.41967">
        <ele>615.50067138672</ele>
        <time>2011-01-16T08:57:43Z</time>
      </trkpt>
      <trkpt lat="45.30981" lon="5.41968">
        <ele>613.06353759766</ele>
        <time>2011-01-16T08:57:48Z</time>
      </trkpt>
      <trkpt lat="45.30986" lon="5.41969">
        <ele>612.0927734375</ele>
        <time>2011-01-16T08:57:50Z</time>
      </trkpt>
      <trkpt lat="45.30997" lon="5.41972">
        <ele>609.49884033203</ele>
        <time>2011-01-16T08:57:56Z</time>
      </trkpt>
      <trkpt lat="45.31018" lon="5.41972">
        <ele>603.39184570312</ele>
        <time>2011-01-16T08:58:02Z</time>
      </trkpt>
      <trkpt lat="45.31035" lon="5.41974">
        <ele>600</ele>
        <time>2011-01-16T08:58:06Z</time>
      </trkpt>
      <trkpt lat="45.3105" lon="5.41971">
        <ele>600.22412109375</ele>
        <time>2011-01-16T08:58:11Z</time>
      </trkpt>
      <trkpt lat="45.31067" lon="5.41972">
        <ele>600.01373291016</ele>
        <time>2011-01-16T08:58:17Z</time>
      </trkpt>
      <trkpt lat="45.31076" lon="5.41977">
        <ele>599.5986328125</ele>
        <time>2011-01-16T08:58:20Z</time>
      </trkpt>
      <trkpt lat="45.31087" lon="5.41988">
        <ele>598.02886962891</ele>
        <time>2011-01-16T08:58:24Z</time>
      </trkpt>
      <trkpt lat="45.31103" lon="5.41996">
        <ele>595.60363769531</ele>
        <time>2011-01-16T08:58:30Z</time>
      </trkpt>
      <trkpt lat="45.31121" lon="5.42005">
        <ele>591.97216796875</ele>
        <time>2011-01-16T08:58:34Z</time>
      </trkpt>
      <trkpt lat="45.31124" lon="5.42007">
        <ele>591.24536132812</ele>
        <time>2011-01-16T08:58:35Z</time>
      </trkpt>
      <trkpt lat="45.31137" lon="5.42014">
        <ele>588.23217773438</ele>
        <time>2011-01-16T08:58:38Z</time>
      </trkpt>
      <trkpt lat="45.3116" lon="5.42026">
        <ele>581.81652832031</ele>
        <time>2011-01-16T08:58:43Z</time>
      </trkpt>
      <trkpt lat="45.31161" lon="5.42027">
        <ele>581.40777587891</ele>
        <time>2011-01-16T08:58:44Z</time>
      </trkpt>
      <trkpt lat="45.31175" lon="5.42036">
        <ele>579.20715332031</ele>
        <time>2011-01-16T08:58:49Z</time>
      </trkpt>
      <trkpt lat="45.31184" lon="5.42041">
        <ele>578.29699707031</ele>
        <time>2011-01-16T08:58:53Z</time>
      </trkpt>
      <trkpt lat="45.31199" lon="5.4205">
        <ele>575.79931640625</ele>
        <time>2011-01-16T08:58:59Z</time>
      </trkpt>
      <trkpt lat="45.31214" lon="5.42052">
        <ele>572.4033203125</ele>
        <time>2011-01-16T08:59:05Z</time>
      </trkpt>
      <trkpt lat="45.31229" lon="5.42059">
        <ele>568.27325439453</ele>
        <time>2011-01-16T08:59:10Z</time>
      </trkpt>
      <trkpt lat="45.31248" lon="5.42067">
        <ele>563.35333251953</ele>
        <time>2011-01-16T08:59:16Z</time>
      </trkpt>
      <trkpt lat="45.31258" lon="5.42075">
        <ele>561.11444091797</ele>
        <time>2011-01-16T08:59:20Z</time>
      </trkpt>
      <trkpt lat="45.31279" lon="5.42082">
        <ele>560.00402832031</ele>
        <time>2011-01-16T08:59:26Z</time>
      </trkpt>
      <trkpt lat="45.31291" lon="5.42092">
        <ele>559.53839111328</ele>
        <time>2011-01-16T08:59:31Z</time>
      </trkpt>
      <trkpt lat="45.31305" lon="5.42105">
        <ele>557.77868652344</ele>
        <time>2011-01-16T08:59:36Z</time>
      </trkpt>
      <trkpt lat="45.3132" lon="5.4212">
        <ele>555.48498535156</ele>
        <time>2011-01-16T08:59:41Z</time>
      </trkpt>
      <trkpt lat="45.31334" lon="5.42143">
        <ele>552.39929199219</ele>
        <time>2011-01-16T08:59:46Z</time>
      </trkpt>
      <trkpt lat="45.31339" lon="5.42157">
        <ele>550.03076171875</ele>
        <time>2011-01-16T08:59:48Z</time>
      </trkpt>
      <trkpt lat="45.31343" lon="5.42175">
        <ele>547.6865234375</ele>
        <time>2011-01-16T08:59:51Z</time>
      </trkpt>
      <trkpt lat="45.31346" lon="5.42174">
        <ele>547.20245361328</ele>
        <time>2011-01-16T08:59:54Z</time>
      </trkpt>
      <trkpt lat="45.31347" lon="5.42171">
        <ele>547.28143310547</ele>
        <time>2011-01-16T08:59:56Z</time>
      </trkpt>
      <trkpt lat="45.31348" lon="5.4217">
        <ele>547.10974121094</ele>
        <time>2011-01-16T09:00:02Z</time>
      </trkpt>
      <trkpt lat="45.31351" lon="5.42164">
        <ele>547.02429199219</ele>
        <time>2011-01-16T09:00:08Z</time>
      </trkpt>
      <trkpt lat="45.31353" lon="5.42149">
        <ele>548.82019042969</ele>
        <time>2011-01-16T09:00:13Z</time>
      </trkpt>
      <trkpt lat="45.31354" lon="5.42132">
        <ele>550.57202148438</ele>
        <time>2011-01-16T09:00:18Z</time>
      </trkpt>
      <trkpt lat="45.31353" lon="5.42127">
        <ele>551.00122070312</ele>
        <time>2011-01-16T09:00:20Z</time>
      </trkpt>
      <trkpt lat="45.3136" lon="5.42115">
        <ele>550.81579589844</ele>
        <time>2011-01-16T09:00:26Z</time>
      </trkpt>
      <trkpt lat="45.31369" lon="5.42115">
        <ele>549.87133789062</ele>
        <time>2011-01-16T09:00:31Z</time>
      </trkpt>
      <trkpt lat="45.31372" lon="5.42114">
        <ele>549.62072753906</ele>
        <time>2011-01-16T09:00:33Z</time>
      </trkpt>
      <trkpt lat="45.31387" lon="5.42113">
        <ele>548.08605957031</ele>
        <time>2011-01-16T09:00:43Z</time>
      </trkpt>
      <trkpt lat="45.31398" lon="5.42113">
        <ele>546.81237792969</ele>
        <time>2011-01-16T09:00:50Z</time>
      </trkpt>
      <trkpt lat="45.31413" lon="5.42111">
        <ele>545.41595458984</ele>
        <time>2011-01-16T09:00:57Z</time>
      </trkpt>
      <trkpt lat="45.31432" lon="5.42107">
        <ele>544.82159423828</ele>
        <time>2011-01-16T09:01:05Z</time>
      </trkpt>
      <trkpt lat="45.31435" lon="5.42106">
        <ele>544.83489990234</ele>
        <time>2011-01-16T09:01:07Z</time>
      </trkpt>
      <trkpt lat="45.31438" lon="5.42104">
        <ele>544.94305419922</ele>
        <time>2011-01-16T09:01:14Z</time>
      </trkpt>
      <trkpt lat="45.31441" lon="5.42101">
        <ele>545.17419433594</ele>
        <time>2011-01-16T09:01:24Z</time>
      </trkpt>
      <trkpt lat="45.31447" lon="5.42086">
        <ele>546.447265625</ele>
        <time>2011-01-16T09:01:32Z</time>
      </trkpt>
      <trkpt lat="45.31444" lon="5.4207">
        <ele>547.97320556641</ele>
        <time>2011-01-16T09:01:38Z</time>
      </trkpt>
      <trkpt lat="45.31438" lon="5.42056">
        <ele>548.99285888672</ele>
        <time>2011-01-16T09:01:43Z</time>
      </trkpt>
      <trkpt lat="45.3143" lon="5.4205">
        <ele>549.41857910156</ele>
        <time>2011-01-16T09:01:49Z</time>
      </trkpt>
      <trkpt lat="45.31422" lon="5.42038">
        <ele>550.29748535156</ele>
        <time>2011-01-16T09:01:56Z</time>
      </trkpt>
      <trkpt lat="45.3142" lon="5.42036">
        <ele>550.43823242188</ele>
        <time>2011-01-16T09:01:58Z</time>
      </trkpt>
      <trkpt lat="45.31413" lon="5.42029">
        <ele>551.79309082031</ele>
        <time>2011-01-16T09:02:05Z</time>
      </trkpt>
      <trkpt lat="45.31412" lon="5.42028">
        <ele>552.06628417969</ele>
        <time>2011-01-16T09:02:06Z</time>
      </trkpt>
      <trkpt lat="45.31408" lon="5.42023">
        <ele>553.17822265625</ele>
        <time>2011-01-16T09:02:10Z</time>
      </trkpt>
      <trkpt lat="45.314" lon="5.42007">
        <ele>555.82958984375</ele>
        <time>2011-01-16T09:02:19Z</time>
      </trkpt>
      <trkpt lat="45.31394" lon="5.42001">
        <ele>557.68951416016</ele>
        <time>2011-01-16T09:02:23Z</time>
      </trkpt>
      <trkpt lat="45.31387" lon="5.41994">
        <ele>559.40020751953</ele>
        <time>2011-01-16T09:02:28Z</time>
      </trkpt>
      <trkpt lat="45.31382" lon="5.41989">
        <ele>560.18695068359</ele>
        <time>2011-01-16T09:02:32Z</time>
      </trkpt>
      <trkpt lat="45.3138" lon="5.41985">
        <ele>560.70251464844</ele>
        <time>2011-01-16T09:02:35Z</time>
      </trkpt>
      <trkpt lat="45.31375" lon="5.41981">
        <ele>561.53387451172</ele>
        <time>2011-01-16T09:02:39Z</time>
      </trkpt>
      <trkpt lat="45.31369" lon="5.4197">
        <ele>563.00042724609</ele>
        <time>2011-01-16T09:02:47Z</time>
      </trkpt>
      <trkpt lat="45.31364" lon="5.41962">
        <ele>564.25231933594</ele>
        <time>2011-01-16T09:02:52Z</time>
      </trkpt>
      <trkpt lat="45.31358" lon="5.41956">
        <ele>566.06549072266</ele>
        <time>2011-01-16T09:02:57Z</time>
      </trkpt>
      <trkpt lat="45.31353" lon="5.41953">
        <ele>567.45349121094</ele>
        <time>2011-01-16T09:03:00Z</time>
      </trkpt>
      <trkpt lat="45.31349" lon="5.41946">
        <ele>569.27728271484</ele>
        <time>2011-01-16T09:03:04Z</time>
      </trkpt>
      <trkpt lat="45.31346" lon="5.41936">
        <ele>571.06549072266</ele>
        <time>2011-01-16T09:03:11Z</time>
      </trkpt>
      <trkpt lat="45.31341" lon="5.41931">
        <ele>572.703125</ele>
        <time>2011-01-16T09:03:16Z</time>
      </trkpt>
      <trkpt lat="45.31333" lon="5.41925">
        <ele>575.45965576172</ele>
        <time>2011-01-16T09:03:23Z</time>
      </trkpt>
      <trkpt lat="45.31324" lon="5.41917">
        <ele>577.91296386719</ele>
        <time>2011-01-16T09:03:30Z</time>
      </trkpt>
      <trkpt lat="45.31319" lon="5.4191">
        <ele>579.36993408203</ele>
        <time>2011-01-16T09:03:37Z</time>
      </trkpt>
      <trkpt lat="45.31314" lon="5.41909">
        <ele>580.15765380859</ele>
        <time>2011-01-16T09:03:41Z</time>
      </trkpt>
      <trkpt lat="45.3131" lon="5.41907">
        <ele>580.99798583984</ele>
        <time>2011-01-16T09:03:45Z</time>
      </trkpt>
      <trkpt lat="45.31303" lon="5.41902">
        <ele>581.73614501953</ele>
        <time>2011-01-16T09:03:51Z</time>
      </trkpt>
      <trkpt lat="45.31294" lon="5.41898">
        <ele>582.8701171875</ele>
        <time>2011-01-16T09:03:57Z</time>
      </trkpt>
      <trkpt lat="45.31288" lon="5.41895">
        <ele>583.58905029297</ele>
        <time>2011-01-16T09:04:00Z</time>
      </trkpt>
      <trkpt lat="45.31282" lon="5.4189">
        <ele>584.39190673828</ele>
        <time>2011-01-16T09:04:04Z</time>
      </trkpt>
      <trkpt lat="45.31277" lon="5.41886">
        <ele>585.07861328125</ele>
        <time>2011-01-16T09:04:08Z</time>
      </trkpt>
      <trkpt lat="45.31271" lon="5.41881">
        <ele>586.61669921875</ele>
        <time>2011-01-16T09:04:12Z</time>
      </trkpt>
      <trkpt lat="45.31262" lon="5.4187">
        <ele>589.01995849609</ele>
        <time>2011-01-16T09:04:18Z</time>
      </trkpt>
      <trkpt lat="45.3126" lon="5.41867">
        <ele>589.50061035156</ele>
        <time>2011-01-16T09:04:19Z</time>
      </trkpt>
      <trkpt lat="45.31256" lon="5.41862">
        <ele>590.4619140625</ele>
        <time>2011-01-16T09:04:21Z</time>
      </trkpt>
      <trkpt lat="45.31251" lon="5.4185">
        <ele>592.07727050781</ele>
        <time>2011-01-16T09:04:26Z</time>
      </trkpt>
      <trkpt lat="45.31245" lon="5.4184">
        <ele>593.55322265625</ele>
        <time>2011-01-16T09:04:31Z</time>
      </trkpt>
      <trkpt lat="45.3124" lon="5.41834">
        <ele>594.67645263672</ele>
        <time>2011-01-16T09:04:34Z</time>
      </trkpt>
      <trkpt lat="45.31238" lon="5.4183">
        <ele>595.17651367188</ele>
        <time>2011-01-16T09:04:36Z</time>
      </trkpt>
      <trkpt lat="45.31235" lon="5.41817">
        <ele>595.98553466797</ele>
        <time>2011-01-16T09:04:42Z</time>
      </trkpt>
      <trkpt lat="45.31231" lon="5.41804">
        <ele>597.15173339844</ele>
        <time>2011-01-16T09:04:47Z</time>
      </trkpt>
      <trkpt lat="45.31229" lon="5.41793">
        <ele>597.79705810547</ele>
        <time>2011-01-16T09:04:53Z</time>
      </trkpt>
      <trkpt lat="45.31229" lon="5.41788">
        <ele>598.01684570312</ele>
        <time>2011-01-16T09:04:57Z</time>
      </trkpt>
      <trkpt lat="45.31228" lon="5.41786">
        <ele>598.24896240234</ele>
        <time>2011-01-16T09:04:58Z</time>
      </trkpt>
      <trkpt lat="45.31227" lon="5.41784">
        <ele>598.48602294922</ele>
        <time>2011-01-16T09:05:00Z</time>
      </trkpt>
      <trkpt lat="45.31225" lon="5.41775">
        <ele>599.55920410156</ele>
        <time>2011-01-16T09:05:07Z</time>
      </trkpt>
      <trkpt lat="45.31224" lon="5.41773">
        <ele>599.88879394531</ele>
        <time>2011-01-16T09:05:08Z</time>
      </trkpt>
      <trkpt lat="45.31219" lon="5.41762">
        <ele>601.90313720703</ele>
        <time>2011-01-16T09:05:16Z</time>
      </trkpt>
      <trkpt lat="45.31217" lon="5.41754">
        <ele>603.27990722656</ele>
        <time>2011-01-16T09:05:22Z</time>
      </trkpt>
      <trkpt lat="45.31216" lon="5.41748">
        <ele>604.04406738281</ele>
        <time>2011-01-16T09:05:26Z</time>
      </trkpt>
      <trkpt lat="45.31213" lon="5.41737">
        <ele>605.97839355469</ele>
        <time>2011-01-16T09:05:33Z</time>
      </trkpt>
      <trkpt lat="45.31209" lon="5.41722">
        <ele>608.35516357422</ele>
        <time>2011-01-16T09:05:40Z</time>
      </trkpt>
      <trkpt lat="45.31208" lon="5.4172">
        <ele>608.89428710938</ele>
        <time>2011-01-16T09:05:42Z</time>
      </trkpt>
      <trkpt lat="45.31207" lon="5.41711">
        <ele>610.3154296875</ele>
        <time>2011-01-16T09:05:48Z</time>
      </trkpt>
      <trkpt lat="45.31203" lon="5.41701">
        <ele>612.23565673828</ele>
        <time>2011-01-16T09:05:55Z</time>
      </trkpt>
      <trkpt lat="45.31199" lon="5.41694">
        <ele>614.07720947266</ele>
        <time>2011-01-16T09:06:00Z</time>
      </trkpt>
      <trkpt lat="45.31196" lon="5.41687">
        <ele>614.97772216797</ele>
        <time>2011-01-16T09:06:05Z</time>
      </trkpt>
      <trkpt lat="45.31194" lon="5.41682">
        <ele>615.60559082031</ele>
        <time>2011-01-16T09:06:09Z</time>
      </trkpt>
      <trkpt lat="45.31189" lon="5.41669">
        <ele>616.6533203125</ele>
        <time>2011-01-16T09:06:16Z</time>
      </trkpt>
      <trkpt lat="45.31185" lon="5.41661">
        <ele>617.8935546875</ele>
        <time>2011-01-16T09:06:22Z</time>
      </trkpt>
      <trkpt lat="45.31182" lon="5.41655">
        <ele>618.88916015625</ele>
        <time>2011-01-16T09:06:26Z</time>
      </trkpt>
      <trkpt lat="45.31178" lon="5.41646">
        <ele>620.15502929688</ele>
        <time>2011-01-16T09:06:32Z</time>
      </trkpt>
      <trkpt lat="45.31176" lon="5.41638">
        <ele>621.13159179688</ele>
        <time>2011-01-16T09:06:37Z</time>
      </trkpt>
      <trkpt lat="45.31176" lon="5.41636">
        <ele>621.23400878906</ele>
        <time>2011-01-16T09:06:39Z</time>
      </trkpt>
      <trkpt lat="45.31173" lon="5.41632">
        <ele>622.09643554688</ele>
        <time>2011-01-16T09:06:43Z</time>
      </trkpt>
      <trkpt lat="45.31171" lon="5.41627">
        <ele>623.04705810547</ele>
        <time>2011-01-16T09:06:47Z</time>
      </trkpt>
      <trkpt lat="45.31163" lon="5.41617">
        <ele>626.52160644531</ele>
        <time>2011-01-16T09:06:52Z</time>
      </trkpt>
      <trkpt lat="45.31158" lon="5.41609">
        <ele>629.30096435547</ele>
        <time>2011-01-16T09:06:55Z</time>
      </trkpt>
      <trkpt lat="45.31154" lon="5.41606">
        <ele>630.95239257812</ele>
        <time>2011-01-16T09:06:57Z</time>
      </trkpt>
      <trkpt lat="45.31142" lon="5.41584">
        <ele>637.09503173828</ele>
        <time>2011-01-16T09:07:04Z</time>
      </trkpt>
      <trkpt lat="45.31141" lon="5.41582">
        <ele>637.58660888672</ele>
        <time>2011-01-16T09:07:05Z</time>
      </trkpt>
      <trkpt lat="45.31134" lon="5.41569">
        <ele>641.49682617188</ele>
        <time>2011-01-16T09:07:10Z</time>
      </trkpt>
      <trkpt lat="45.31126" lon="5.41556">
        <ele>646.279296875</ele>
        <time>2011-01-16T09:07:15Z</time>
      </trkpt>
      <trkpt lat="45.31121" lon="5.41544">
        <ele>650.28375244141</ele>
        <time>2011-01-16T09:07:19Z</time>
      </trkpt>
      <trkpt lat="45.31119" lon="5.41539">
        <ele>651.93927001953</ele>
        <time>2011-01-16T09:07:21Z</time>
      </trkpt>
      <trkpt lat="45.31112" lon="5.41523">
        <ele>656.04937744141</ele>
        <time>2011-01-16T09:07:26Z</time>
      </trkpt>
      <trkpt lat="45.31112" lon="5.41521">
        <ele>656.08837890625</ele>
        <time>2011-01-16T09:07:27Z</time>
      </trkpt>
      <trkpt lat="45.31112" lon="5.4151">
        <ele>657.04406738281</ele>
        <time>2011-01-16T09:07:32Z</time>
      </trkpt>
      <trkpt lat="45.31116" lon="5.41501">
        <ele>656.70617675781</ele>
        <time>2011-01-16T09:07:37Z</time>
      </trkpt>
      <trkpt lat="45.3112" lon="5.41496">
        <ele>656.63397216797</ele>
        <time>2011-01-16T09:07:41Z</time>
      </trkpt>
      <trkpt lat="45.31123" lon="5.4149">
        <ele>656.97491455078</ele>
        <time>2011-01-16T09:07:47Z</time>
      </trkpt>
      <trkpt lat="45.31126" lon="5.41489">
        <ele>656.91748046875</ele>
        <time>2011-01-16T09:07:52Z</time>
      </trkpt>
      <trkpt lat="45.31128" lon="5.4149">
        <ele>656.48553466797</ele>
        <time>2011-01-16T09:07:58Z</time>
      </trkpt>
      <trkpt lat="45.31129" lon="5.41486">
        <ele>657.02777099609</ele>
        <time>2011-01-16T09:08:00Z</time>
      </trkpt>
      <trkpt lat="45.31136" lon="5.41483">
        <ele>657.12493896484</ele>
        <time>2011-01-16T09:08:05Z</time>
      </trkpt>
      <trkpt lat="45.31142" lon="5.41479">
        <ele>658.05218505859</ele>
        <time>2011-01-16T09:08:10Z</time>
      </trkpt>
      <trkpt lat="45.31147" lon="5.4148">
        <ele>657.65771484375</ele>
        <time>2011-01-16T09:08:15Z</time>
      </trkpt>
      <trkpt lat="45.31152" lon="5.41475">
        <ele>659.01361083984</ele>
        <time>2011-01-16T09:08:22Z</time>
      </trkpt>
      <trkpt lat="45.31158" lon="5.4147">
        <ele>660.55670166016</ele>
        <time>2011-01-16T09:08:30Z</time>
      </trkpt>
      <trkpt lat="45.31164" lon="5.41469">
        <ele>660.982421875</ele>
        <time>2011-01-16T09:08:34Z</time>
      </trkpt>
      <trkpt lat="45.31171" lon="5.41462">
        <ele>662.33703613281</ele>
        <time>2011-01-16T09:08:38Z</time>
      </trkpt>
      <trkpt lat="45.31173" lon="5.41461">
        <ele>662.70782470703</ele>
        <time>2011-01-16T09:08:40Z</time>
      </trkpt>
      <trkpt lat="45.31176" lon="5.41458">
        <ele>663.1884765625</ele>
        <time>2011-01-16T09:08:44Z</time>
      </trkpt>
      <trkpt lat="45.31184" lon="5.41456">
        <ele>662.94128417969</ele>
        <time>2011-01-16T09:08:51Z</time>
      </trkpt>
      <trkpt lat="45.31186" lon="5.41455">
        <ele>662.96875</ele>
        <time>2011-01-16T09:08:53Z</time>
      </trkpt>
      <trkpt lat="45.3119" lon="5.41453">
        <ele>662.88635253906</ele>
        <time>2011-01-16T09:08:57Z</time>
      </trkpt>
      <trkpt lat="45.31195" lon="5.4145">
        <ele>663.29821777344</ele>
        <time>2011-01-16T09:09:03Z</time>
      </trkpt>
      <trkpt lat="45.31197" lon="5.41449">
        <ele>663.39019775391</ele>
        <time>2011-01-16T09:09:05Z</time>
      </trkpt>
      <trkpt lat="45.31199" lon="5.41444">
        <ele>664.2412109375</ele>
        <time>2011-01-16T09:09:11Z</time>
      </trkpt>
      <trkpt lat="45.31202" lon="5.41441">
        <ele>665.84057617188</ele>
        <time>2011-01-16T09:09:18Z</time>
      </trkpt>
      <trkpt lat="45.31205" lon="5.41439">
        <ele>666.64111328125</ele>
        <time>2011-01-16T09:09:24Z</time>
      </trkpt>
      <trkpt lat="45.31208" lon="5.41435">
        <ele>668.52783203125</ele>
        <time>2011-01-16T09:09:31Z</time>
      </trkpt>
      <trkpt lat="45.31212" lon="5.4143">
        <ele>670.98687744141</ele>
        <time>2011-01-16T09:09:35Z</time>
      </trkpt>
      <trkpt lat="45.31229" lon="5.41431">
        <ele>669.68151855469</ele>
        <time>2011-01-16T09:09:43Z</time>
      </trkpt>
      <trkpt lat="45.31236" lon="5.41432">
        <ele>669.13220214844</ele>
        <time>2011-01-16T09:09:49Z</time>
      </trkpt>
      <trkpt lat="45.31242" lon="5.41429">
        <ele>670.91748046875</ele>
        <time>2011-01-16T09:09:55Z</time>
      </trkpt>
      <trkpt lat="45.31246" lon="5.41427">
        <ele>672.70275878906</ele>
        <time>2011-01-16T09:10:00Z</time>
      </trkpt>
      <trkpt lat="45.3125" lon="5.41424">
        <ele>674.48803710938</ele>
        <time>2011-01-16T09:10:05Z</time>
      </trkpt>
      <trkpt lat="45.31255" lon="5.41422">
        <ele>676.61590576172</ele>
        <time>2011-01-16T09:10:11Z</time>
      </trkpt>
      <trkpt lat="45.3126" lon="5.41422">
        <ele>676.53045654297</ele>
        <time>2011-01-16T09:10:16Z</time>
      </trkpt>
      <trkpt lat="45.31265" lon="5.41421">
        <ele>677.02203369141</ele>
        <time>2011-01-16T09:10:22Z</time>
      </trkpt>
      <trkpt lat="45.31271" lon="5.41422">
        <ele>676.64282226562</ele>
        <time>2011-01-16T09:10:30Z</time>
      </trkpt>
      <trkpt lat="45.3128" lon="5.41422">
        <ele>677.40045166016</ele>
        <time>2011-01-16T09:10:36Z</time>
      </trkpt>
      <trkpt lat="45.31282" lon="5.41421">
        <ele>678.10272216797</ele>
        <time>2011-01-16T09:10:38Z</time>
      </trkpt>
      <trkpt lat="45.31289" lon="5.41419">
        <ele>680.13580322266</ele>
        <time>2011-01-16T09:10:45Z</time>
      </trkpt>
      <trkpt lat="45.31294" lon="5.41418">
        <ele>681.4619140625</ele>
        <time>2011-01-16T09:10:49Z</time>
      </trkpt>
      <trkpt lat="45.31306" lon="5.41419">
        <ele>682.92120361328</ele>
        <time>2011-01-16T09:10:54Z</time>
      </trkpt>
      <trkpt lat="45.31313" lon="5.41418">
        <ele>684.29962158203</ele>
        <time>2011-01-16T09:11:00Z</time>
      </trkpt>
      <trkpt lat="45.31318" lon="5.41419">
        <ele>684.40026855469</ele>
        <time>2011-01-16T09:11:03Z</time>
      </trkpt>
      <trkpt lat="45.31322" lon="5.41418">
        <ele>685.22485351562</ele>
        <time>2011-01-16T09:11:07Z</time>
      </trkpt>
      <trkpt lat="45.31329" lon="5.41418">
        <ele>685.96685791016</ele>
        <time>2011-01-16T09:11:12Z</time>
      </trkpt>
      <trkpt lat="45.31333" lon="5.41417">
        <ele>686.88757324219</ele>
        <time>2011-01-16T09:11:17Z</time>
      </trkpt>
      <trkpt lat="45.31338" lon="5.41418">
        <ele>686.84100341797</ele>
        <time>2011-01-16T09:11:23Z</time>
      </trkpt>
      <trkpt lat="45.31343" lon="5.41418">
        <ele>687.00366210938</ele>
        <time>2011-01-16T09:11:28Z</time>
      </trkpt>
      <trkpt lat="45.31349" lon="5.41418">
        <ele>687.54864501953</ele>
        <time>2011-01-16T09:11:35Z</time>
      </trkpt>
      <trkpt lat="45.31354" lon="5.4142">
        <ele>687.13330078125</ele>
        <time>2011-01-16T09:11:39Z</time>
      </trkpt>
      <trkpt lat="45.31371" lon="5.41425">
        <ele>687.81964111328</ele>
        <time>2011-01-16T09:11:48Z</time>
      </trkpt>
      <trkpt lat="45.31372" lon="5.41425">
        <ele>688.06085205078</ele>
        <time>2011-01-16T09:11:49Z</time>
      </trkpt>
      <trkpt lat="45.3138" lon="5.41428">
        <ele>688.46948242188</ele>
        <time>2011-01-16T09:11:55Z</time>
      </trkpt>
      <trkpt lat="45.31385" lon="5.41428">
        <ele>689.34124755859</ele>
        <time>2011-01-16T09:11:58Z</time>
      </trkpt>
      <trkpt lat="45.31396" lon="5.41428">
        <ele>690.96661376953</ele>
        <time>2011-01-16T09:12:05Z</time>
      </trkpt>
      <trkpt lat="45.31405" lon="5.41431">
        <ele>691.38891601562</ele>
        <time>2011-01-16T09:12:10Z</time>
      </trkpt>
      <trkpt lat="45.31407" lon="5.41432">
        <ele>691.36462402344</ele>
        <time>2011-01-16T09:12:11Z</time>
      </trkpt>
      <trkpt lat="45.31418" lon="5.41437">
        <ele>691.75616455078</ele>
        <time>2011-01-16T09:12:19Z</time>
      </trkpt>
      <trkpt lat="45.31421" lon="5.41438">
        <ele>691.93310546875</ele>
        <time>2011-01-16T09:12:21Z</time>
      </trkpt>
      <trkpt lat="45.31428" lon="5.4144">
        <ele>692.95062255859</ele>
        <time>2011-01-16T09:12:27Z</time>
      </trkpt>
      <trkpt lat="45.31432" lon="5.41443">
        <ele>693.12225341797</ele>
        <time>2011-01-16T09:12:32Z</time>
      </trkpt>
      <trkpt lat="45.31441" lon="5.41445">
        <ele>694.94061279297</ele>
        <time>2011-01-16T09:12:40Z</time>
      </trkpt>
      <trkpt lat="45.31444" lon="5.41446">
        <ele>695.66748046875</ele>
        <time>2011-01-16T09:12:44Z</time>
      </trkpt>
      <trkpt lat="45.31447" lon="5.41446">
        <ele>696.138671875</ele>
        <time>2011-01-16T09:12:47Z</time>
      </trkpt>
      <trkpt lat="45.31456" lon="5.41444">
        <ele>697.67510986328</ele>
        <time>2011-01-16T09:12:55Z</time>
      </trkpt>
      <trkpt lat="45.31464" lon="5.4144">
        <ele>699.03234863281</ele>
        <time>2011-01-16T09:13:06Z</time>
      </trkpt>
      <trkpt lat="45.31473" lon="5.41441">
        <ele>700</ele>
        <time>2011-01-16T09:13:18Z</time>
      </trkpt>
      <trkpt lat="45.31478" lon="5.4144">
        <ele>700</ele>
        <time>2011-01-16T09:13:24Z</time>
      </trkpt>
      <trkpt lat="45.31483" lon="5.41441">
        <ele>700</ele>
        <time>2011-01-16T09:13:29Z</time>
      </trkpt>
      <trkpt lat="45.31487" lon="5.41442">
        <ele>700</ele>
        <time>2011-01-16T09:13:34Z</time>
      </trkpt>
      <trkpt lat="45.31492" lon="5.41444">
        <ele>700</ele>
        <time>2011-01-16T09:13:40Z</time>
      </trkpt>
      <trkpt lat="45.31499" lon="5.41445">
        <ele>699.9990234375</ele>
        <time>2011-01-16T09:13:48Z</time>
      </trkpt>
      <trkpt lat="45.31503" lon="5.41448">
        <ele>700</ele>
        <time>2011-01-16T09:13:53Z</time>
      </trkpt>
      <trkpt lat="45.31509" lon="5.41451">
        <ele>700</ele>
        <time>2011-01-16T09:13:58Z</time>
      </trkpt>
      <trkpt lat="45.31515" lon="5.41454">
        <ele>700</ele>
        <time>2011-01-16T09:14:04Z</time>
      </trkpt>
      <trkpt lat="45.31522" lon="5.41462">
        <ele>700</ele>
        <time>2011-01-16T09:14:11Z</time>
      </trkpt>
      <trkpt lat="45.31531" lon="5.4147">
        <ele>700</ele>
        <time>2011-01-16T09:14:17Z</time>
      </trkpt>
      <trkpt lat="45.31535" lon="5.41472">
        <ele>700</ele>
        <time>2011-01-16T09:14:19Z</time>
      </trkpt>
      <trkpt lat="45.31541" lon="5.41475">
        <ele>700</ele>
        <time>2011-01-16T09:14:25Z</time>
      </trkpt>
      <trkpt lat="45.31548" lon="5.41479">
        <ele>700</ele>
        <time>2011-01-16T09:14:31Z</time>
      </trkpt>
      <trkpt lat="45.31556" lon="5.41485">
        <ele>700</ele>
        <time>2011-01-16T09:14:38Z</time>
      </trkpt>
      <trkpt lat="45.3156" lon="5.41487">
        <ele>700</ele>
        <time>2011-01-16T09:14:41Z</time>
      </trkpt>
      <trkpt lat="45.3157" lon="5.41492">
        <ele>700</ele>
        <time>2011-01-16T09:14:48Z</time>
      </trkpt>
      <trkpt lat="45.31573" lon="5.41494">
        <ele>700</ele>
        <time>2011-01-16T09:14:50Z</time>
      </trkpt>
      <trkpt lat="45.31581" lon="5.41501">
        <ele>700</ele>
        <time>2011-01-16T09:14:57Z</time>
      </trkpt>
      <trkpt lat="45.31584" lon="5.41503">
        <ele>700</ele>
        <time>2011-01-16T09:14:59Z</time>
      </trkpt>
      <trkpt lat="45.31591" lon="5.41511">
        <ele>700</ele>
        <time>2011-01-16T09:15:07Z</time>
      </trkpt>
      <trkpt lat="45.31594" lon="5.41514">
        <ele>700</ele>
        <time>2011-01-16T09:15:10Z</time>
      </trkpt>
      <trkpt lat="45.31598" lon="5.41517">
        <ele>700</ele>
        <time>2011-01-16T09:15:15Z</time>
      </trkpt>
      <trkpt lat="45.31603" lon="5.41512">
        <ele>700</ele>
        <time>2011-01-16T09:15:22Z</time>
      </trkpt>
      <trkpt lat="45.31605" lon="5.41505">
        <ele>700</ele>
        <time>2011-01-16T09:15:29Z</time>
      </trkpt>
      <trkpt lat="45.31607" lon="5.41502">
        <ele>700</ele>
        <time>2011-01-16T09:15:35Z</time>
      </trkpt>
      <trkpt lat="45.31605" lon="5.41502">
        <ele>700</ele>
        <time>2011-01-16T09:15:42Z</time>
      </trkpt>
      <trkpt lat="45.31606" lon="5.41501">
        <ele>700</ele>
        <time>2011-01-16T09:15:50Z</time>
      </trkpt>
      <trkpt lat="45.31607" lon="5.41503">
        <ele>700</ele>
        <time>2011-01-16T09:16:06Z</time>
      </trkpt>
      <trkpt lat="45.31607" lon="5.41506">
        <ele>700</ele>
        <time>2011-01-16T09:16:14Z</time>
      </trkpt>
      <trkpt lat="45.31609" lon="5.41508">
        <ele>700</ele>
        <time>2011-01-16T09:16:29Z</time>
      </trkpt>
      <trkpt lat="45.31606" lon="5.41508">
        <ele>700</ele>
        <time>2011-01-16T09:16:51Z</time>
      </trkpt>
      <trkpt lat="45.31607" lon="5.41508">
        <ele>700</ele>
        <time>2011-01-16T09:17:03Z</time>
      </trkpt>
      <trkpt lat="45.31607" lon="5.41507">
        <ele>700</ele>
        <time>2011-01-16T09:17:12Z</time>
      </trkpt>
      <trkpt lat="45.31606" lon="5.41509">
        <ele>700</ele>
        <time>2011-01-16T09:17:22Z</time>
      </trkpt>
      <trkpt lat="45.31607" lon="5.4151">
        <ele>700</ele>
        <time>2011-01-16T09:17:34Z</time>
      </trkpt>
      <trkpt lat="45.31606" lon="5.41506">
        <ele>700</ele>
        <time>2011-01-16T09:17:42Z</time>
      </trkpt>
      <trkpt lat="45.31607" lon="5.41502">
        <ele>700</ele>
        <time>2011-01-16T09:17:45Z</time>
      </trkpt>
      <trkpt lat="45.31611" lon="5.41482">
        <ele>700</ele>
        <time>2011-01-16T09:17:51Z</time>
      </trkpt>
      <trkpt lat="45.31611" lon="5.41463">
        <ele>700</ele>
        <time>2011-01-16T09:17:57Z</time>
      </trkpt>
      <trkpt lat="45.3161" lon="5.41446">
        <ele>700</ele>
        <time>2011-01-16T09:18:01Z</time>
      </trkpt>
      <trkpt lat="45.3161" lon="5.41439">
        <ele>700</ele>
        <time>2011-01-16T09:18:04Z</time>
      </trkpt>
      <trkpt lat="45.31609" lon="5.41425">
        <ele>700</ele>
        <time>2011-01-16T09:18:10Z</time>
      </trkpt>
      <trkpt lat="45.31609" lon="5.41422">
        <ele>700</ele>
        <time>2011-01-16T09:18:11Z</time>
      </trkpt>
      <trkpt lat="45.3161" lon="5.41398">
        <ele>700</ele>
        <time>2011-01-16T09:18:18Z</time>
      </trkpt>
      <trkpt lat="45.31609" lon="5.41383">
        <ele>700</ele>
        <time>2011-01-16T09:18:23Z</time>
      </trkpt>
      <trkpt lat="45.31601" lon="5.41364">
        <ele>700</ele>
        <time>2011-01-16T09:18:30Z</time>
      </trkpt>
      <trkpt lat="45.31596" lon="5.41357">
        <ele>700</ele>
        <time>2011-01-16T09:18:33Z</time>
      </trkpt>
      <trkpt lat="45.3159" lon="5.4135">
        <ele>700</ele>
        <time>2011-01-16T09:18:37Z</time>
      </trkpt>
      <trkpt lat="45.31574" lon="5.41337">
        <ele>700</ele>
        <time>2011-01-16T09:18:44Z</time>
      </trkpt>
      <trkpt lat="45.31562" lon="5.41332">
        <ele>700</ele>
        <time>2011-01-16T09:18:49Z</time>
      </trkpt>
      <trkpt lat="45.31557" lon="5.41332">
        <ele>700</ele>
        <time>2011-01-16T09:18:52Z</time>
      </trkpt>
      <trkpt lat="45.31547" lon="5.41334">
        <ele>700</ele>
        <time>2011-01-16T09:18:57Z</time>
      </trkpt>
      <trkpt lat="45.31538" lon="5.41335">
        <ele>700</ele>
        <time>2011-01-16T09:19:02Z</time>
      </trkpt>
      <trkpt lat="45.31529" lon="5.41333">
        <ele>700</ele>
        <time>2011-01-16T09:19:06Z</time>
      </trkpt>
      <trkpt lat="45.31517" lon="5.41325">
        <ele>700.43292236328</ele>
        <time>2011-01-16T09:19:11Z</time>
      </trkpt>
      <trkpt lat="45.31503" lon="5.41316">
        <ele>701.19543457031</ele>
        <time>2011-01-16T09:19:17Z</time>
      </trkpt>
      <trkpt lat="45.31491" lon="5.41315">
        <ele>701.30059814453</ele>
        <time>2011-01-16T09:19:22Z</time>
      </trkpt>
      <trkpt lat="45.3148" lon="5.41315">
        <ele>701.29718017578</ele>
        <time>2011-01-16T09:19:27Z</time>
      </trkpt>
      <trkpt lat="45.31472" lon="5.41312">
        <ele>701.57238769531</ele>
        <time>2011-01-16T09:19:31Z</time>
      </trkpt>
      <trkpt lat="45.3146" lon="5.41305">
        <ele>702.47998046875</ele>
        <time>2011-01-16T09:19:36Z</time>
      </trkpt>
      <trkpt lat="45.31448" lon="5.41295">
        <ele>703.26452636719</ele>
        <time>2011-01-16T09:19:41Z</time>
      </trkpt>
      <trkpt lat="45.31435" lon="5.41286">
        <ele>704.26000976562</ele>
        <time>2011-01-16T09:19:47Z</time>
      </trkpt>
      <trkpt lat="45.31425" lon="5.41282">
        <ele>705.13220214844</ele>
        <time>2011-01-16T09:19:51Z</time>
      </trkpt>
      <trkpt lat="45.31409" lon="5.41277">
        <ele>706.45239257812</ele>
        <time>2011-01-16T09:19:58Z</time>
      </trkpt>
      <trkpt lat="45.31397" lon="5.41272">
        <ele>706.52795410156</ele>
        <time>2011-01-16T09:20:02Z</time>
      </trkpt>
      <trkpt lat="45.3138" lon="5.41267">
        <ele>708.02630615234</ele>
        <time>2011-01-16T09:20:09Z</time>
      </trkpt>
      <trkpt lat="45.3137" lon="5.41265">
        <ele>709.38195800781</ele>
        <time>2011-01-16T09:20:14Z</time>
      </trkpt>
      <trkpt lat="45.31363" lon="5.41259">
        <ele>709.07702636719</ele>
        <time>2011-01-16T09:20:17Z</time>
      </trkpt>
      <trkpt lat="45.3135" lon="5.4125">
        <ele>712.40985107422</ele>
        <time>2011-01-16T09:20:23Z</time>
      </trkpt>
      <trkpt lat="45.31332" lon="5.41243">
        <ele>716.8388671875</ele>
        <time>2011-01-16T09:20:29Z</time>
      </trkpt>
      <trkpt lat="45.31321" lon="5.41238">
        <ele>715.51318359375</ele>
        <time>2011-01-16T09:20:34Z</time>
      </trkpt>
      <trkpt lat="45.31311" lon="5.41234">
        <ele>714.95776367188</ele>
        <time>2011-01-16T09:20:39Z</time>
      </trkpt>
      <trkpt lat="45.31299" lon="5.41228">
        <ele>714.82067871094</ele>
        <time>2011-01-16T09:20:46Z</time>
      </trkpt>
      <trkpt lat="45.31285" lon="5.41223">
        <ele>716.64288330078</ele>
        <time>2011-01-16T09:20:54Z</time>
      </trkpt>
      <trkpt lat="45.31276" lon="5.4122">
        <ele>717.99774169922</ele>
        <time>2011-01-16T09:20:59Z</time>
      </trkpt>
      <trkpt lat="45.31265" lon="5.41216">
        <ele>719.32843017578</ele>
        <time>2011-01-16T09:21:05Z</time>
      </trkpt>
      <trkpt lat="45.31254" lon="5.41211">
        <ele>720.93286132812</ele>
        <time>2011-01-16T09:21:11Z</time>
      </trkpt>
      <trkpt lat="45.31252" lon="5.4121">
        <ele>721.24182128906</ele>
        <time>2011-01-16T09:21:12Z</time>
      </trkpt>
      <trkpt lat="45.31239" lon="5.41213">
        <ele>723.72406005859</ele>
        <time>2011-01-16T09:21:20Z</time>
      </trkpt>
      <trkpt lat="45.31229" lon="5.41219">
        <ele>725.58312988281</ele>
        <time>2011-01-16T09:21:26Z</time>
      </trkpt>
      <trkpt lat="45.31219" lon="5.41226">
        <ele>727.38934326172</ele>
        <time>2011-01-16T09:21:32Z</time>
      </trkpt>
      <trkpt lat="45.31209" lon="5.41228">
        <ele>729.32232666016</ele>
        <time>2011-01-16T09:21:37Z</time>
      </trkpt>
      <trkpt lat="45.31195" lon="5.41228">
        <ele>732.57647705078</ele>
        <time>2011-01-16T09:21:44Z</time>
      </trkpt>
      <trkpt lat="45.31183" lon="5.41224">
        <ele>735.9365234375</ele>
        <time>2011-01-16T09:21:50Z</time>
      </trkpt>
      <trkpt lat="45.31179" lon="5.41223">
        <ele>737.19586181641</ele>
        <time>2011-01-16T09:21:52Z</time>
      </trkpt>
      <trkpt lat="45.31171" lon="5.4122">
        <ele>739.03106689453</ele>
        <time>2011-01-16T09:21:56Z</time>
      </trkpt>
      <trkpt lat="45.31163" lon="5.41216">
        <ele>740.63922119141</ele>
        <time>2011-01-16T09:22:00Z</time>
      </trkpt>
      <trkpt lat="45.31153" lon="5.41217">
        <ele>741.68060302734</ele>
        <time>2011-01-16T09:22:06Z</time>
      </trkpt>
      <trkpt lat="45.31147" lon="5.41218">
        <ele>742.43872070312</ele>
        <time>2011-01-16T09:22:10Z</time>
      </trkpt>
      <trkpt lat="45.31138" lon="5.41216">
        <ele>743.55285644531</ele>
        <time>2011-01-16T09:22:15Z</time>
      </trkpt>
      <trkpt lat="45.3113" lon="5.4121">
        <ele>745.11401367188</ele>
        <time>2011-01-16T09:22:21Z</time>
      </trkpt>
      <trkpt lat="45.31126" lon="5.41209">
        <ele>745.74420166016</ele>
        <time>2011-01-16T09:22:24Z</time>
      </trkpt>
      <trkpt lat="45.31124" lon="5.41209">
        <ele>746.15789794922</ele>
        <time>2011-01-16T09:22:26Z</time>
      </trkpt>
      <trkpt lat="45.31118" lon="5.41207">
        <ele>747.18041992188</ele>
        <time>2011-01-16T09:22:30Z</time>
      </trkpt>
      <trkpt lat="45.31109" lon="5.41203">
        <ele>748.92022705078</ele>
        <time>2011-01-16T09:22:37Z</time>
      </trkpt>
      <trkpt lat="45.31104" lon="5.41202">
        <ele>749.57257080078</ele>
        <time>2011-01-16T09:22:40Z</time>
      </trkpt>
      <trkpt lat="45.31095" lon="5.412">
        <ele>750.90222167969</ele>
        <time>2011-01-16T09:22:47Z</time>
      </trkpt>
      <trkpt lat="45.31087" lon="5.41196">
        <ele>752.44146728516</ele>
        <time>2011-01-16T09:22:52Z</time>
      </trkpt>
      <trkpt lat="45.31078" lon="5.4119">
        <ele>755.41058349609</ele>
        <time>2011-01-16T09:22:58Z</time>
      </trkpt>
      <trkpt lat="45.31073" lon="5.41184">
        <ele>757.25769042969</ele>
        <time>2011-01-16T09:23:02Z</time>
      </trkpt>
      <trkpt lat="45.31064" lon="5.41173">
        <ele>760.01031494141</ele>
        <time>2011-01-16T09:23:09Z</time>
      </trkpt>
      <trkpt lat="45.31054" lon="5.41164">
        <ele>761.06433105469</ele>
        <time>2011-01-16T09:23:15Z</time>
      </trkpt>
      <trkpt lat="45.31049" lon="5.41159">
        <ele>761.28283691406</ele>
        <time>2011-01-16T09:23:19Z</time>
      </trkpt>
      <trkpt lat="45.31038" lon="5.41147">
        <ele>762.09899902344</ele>
        <time>2011-01-16T09:23:26Z</time>
      </trkpt>
      <trkpt lat="45.31021" lon="5.41139">
        <ele>763.90161132812</ele>
        <time>2011-01-16T09:23:33Z</time>
      </trkpt>
      <trkpt lat="45.31013" lon="5.41136">
        <ele>765.23968505859</ele>
        <time>2011-01-16T09:23:37Z</time>
      </trkpt>
      <trkpt lat="45.31005" lon="5.41127">
        <ele>767.0751953125</ele>
        <time>2011-01-16T09:23:43Z</time>
      </trkpt>
      <trkpt lat="45.30998" lon="5.41118">
        <ele>769.37213134766</ele>
        <time>2011-01-16T09:23:47Z</time>
      </trkpt>
      <trkpt lat="45.30993" lon="5.41101">
        <ele>772.52905273438</ele>
        <time>2011-01-16T09:23:53Z</time>
      </trkpt>
      <trkpt lat="45.30988" lon="5.41086">
        <ele>775.30407714844</ele>
        <time>2011-01-16T09:23:58Z</time>
      </trkpt>
      <trkpt lat="45.30983" lon="5.4107">
        <ele>777.36389160156</ele>
        <time>2011-01-16T09:24:03Z</time>
      </trkpt>
      <trkpt lat="45.30981" lon="5.41062">
        <ele>777.86010742188</ele>
        <time>2011-01-16T09:24:06Z</time>
      </trkpt>
      <trkpt lat="45.30981" lon="5.41047">
        <ele>778.53314208984</ele>
        <time>2011-01-16T09:24:11Z</time>
      </trkpt>
      <trkpt lat="45.30981" lon="5.41044">
        <ele>778.6669921875</ele>
        <time>2011-01-16T09:24:12Z</time>
      </trkpt>
      <trkpt lat="45.30982" lon="5.4103">
        <ele>779.17205810547</ele>
        <time>2011-01-16T09:24:17Z</time>
      </trkpt>
      <trkpt lat="45.30984" lon="5.41015">
        <ele>779.56365966797</ele>
        <time>2011-01-16T09:24:22Z</time>
      </trkpt>
      <trkpt lat="45.30981" lon="5.40994">
        <ele>780</ele>
        <time>2011-01-16T09:24:28Z</time>
      </trkpt>
      <trkpt lat="45.30977" lon="5.40976">
        <ele>780</ele>
        <time>2011-01-16T09:24:33Z</time>
      </trkpt>
      <trkpt lat="45.30972" lon="5.40957">
        <ele>780</ele>
        <time>2011-01-16T09:24:39Z</time>
      </trkpt>
      <trkpt lat="45.3097" lon="5.40943">
        <ele>780</ele>
        <time>2011-01-16T09:24:44Z</time>
      </trkpt>
      <trkpt lat="45.30967" lon="5.4093">
        <ele>780</ele>
        <time>2011-01-16T09:24:49Z</time>
      </trkpt>
      <trkpt lat="45.30964" lon="5.40911">
        <ele>780</ele>
        <time>2011-01-16T09:24:54Z</time>
      </trkpt>
      <trkpt lat="45.30962" lon="5.40902">
        <ele>780</ele>
        <time>2011-01-16T09:24:57Z</time>
      </trkpt>
      <trkpt lat="45.30954" lon="5.40889">
        <ele>779.99981689453</ele>
        <time>2011-01-16T09:25:03Z</time>
      </trkpt>
      <trkpt lat="45.30951" lon="5.40885">
        <ele>779.92608642578</ele>
        <time>2011-01-16T09:25:05Z</time>
      </trkpt>
      <trkpt lat="45.30949" lon="5.4088">
        <ele>779.88903808594</ele>
        <time>2011-01-16T09:25:07Z</time>
      </trkpt>
      <trkpt lat="45.30944" lon="5.40864">
        <ele>780</ele>
        <time>2011-01-16T09:25:12Z</time>
      </trkpt>
      <trkpt lat="45.30939" lon="5.40836">
        <ele>773.50146484375</ele>
        <time>2011-01-16T09:25:20Z</time>
      </trkpt>
      <trkpt lat="45.30936" lon="5.4082">
        <ele>770.40417480469</ele>
        <time>2011-01-16T09:25:25Z</time>
      </trkpt>
      <trkpt lat="45.3093" lon="5.40798">
        <ele>765.18896484375</ele>
        <time>2011-01-16T09:25:30Z</time>
      </trkpt>
      <trkpt lat="45.30926" lon="5.40776">
        <ele>757.70654296875</ele>
        <time>2011-01-16T09:25:36Z</time>
      </trkpt>
      <trkpt lat="45.30923" lon="5.40759">
        <ele>754.287109375</ele>
        <time>2011-01-16T09:25:40Z</time>
      </trkpt>
      <trkpt lat="45.30923" lon="5.40756">
        <ele>753.72747802734</ele>
        <time>2011-01-16T09:25:41Z</time>
      </trkpt>
      <trkpt lat="45.30927" lon="5.40742">
        <ele>751.06860351562</ele>
        <time>2011-01-16T09:25:46Z</time>
      </trkpt>
      <trkpt lat="45.3093" lon="5.40735">
        <ele>749.59063720703</ele>
        <time>2011-01-16T09:25:51Z</time>
      </trkpt>
      <trkpt lat="45.30925" lon="5.40735">
        <ele>749.05334472656</ele>
        <time>2011-01-16T09:25:57Z</time>
      </trkpt>
      <trkpt lat="45.30919" lon="5.40737">
        <ele>748.91082763672</ele>
        <time>2011-01-16T09:26:03Z</time>
      </trkpt>
      <trkpt lat="45.30918" lon="5.40737">
        <ele>748.83532714844</ele>
        <time>2011-01-16T09:26:04Z</time>
      </trkpt>
      <trkpt lat="45.30907" lon="5.40737">
        <ele>748.16241455078</ele>
        <time>2011-01-16T09:26:11Z</time>
      </trkpt>
      <trkpt lat="45.30893" lon="5.40742">
        <ele>748.79876708984</ele>
        <time>2011-01-16T09:26:18Z</time>
      </trkpt>
      <trkpt lat="45.30882" lon="5.40745">
        <ele>749.43280029297</ele>
        <time>2011-01-16T09:26:23Z</time>
      </trkpt>
      <trkpt lat="45.30868" lon="5.40744">
        <ele>749.01568603516</ele>
        <time>2011-01-16T09:26:29Z</time>
      </trkpt>
      <trkpt lat="45.30862" lon="5.40742">
        <ele>748.44403076172</ele>
        <time>2011-01-16T09:26:32Z</time>
      </trkpt>
      <trkpt lat="45.30861" lon="5.40741">
        <ele>748.0732421875</ele>
        <time>2011-01-16T09:26:37Z</time>
      </trkpt>
      <trkpt lat="45.30861" lon="5.40742">
        <ele>748.43231201172</ele>
        <time>2011-01-16T09:26:43Z</time>
      </trkpt>
      <trkpt lat="45.30862" lon="5.40743">
        <ele>748.58306884766</ele>
        <time>2011-01-16T09:26:48Z</time>
      </trkpt>
      <trkpt lat="45.30863" lon="5.40743">
        <ele>748.72210693359</ele>
        <time>2011-01-16T09:27:03Z</time>
      </trkpt>
      <trkpt lat="45.30863" lon="5.40743">
        <ele>748.76849365234</ele>
        <time>2011-01-16T09:27:11Z</time>
      </trkpt>
      <trkpt lat="45.30859" lon="5.40742">
        <ele>748.85144042969</ele>
        <time>2011-01-16T09:27:19Z</time>
      </trkpt>
      <trkpt lat="45.30856" lon="5.40742">
        <ele>749.14599609375</ele>
        <time>2011-01-16T09:27:26Z</time>
      </trkpt>
      <trkpt lat="45.30855" lon="5.40742">
        <ele>749.39013671875</ele>
        <time>2011-01-16T09:27:27Z</time>
      </trkpt>
      <trkpt lat="45.3084" lon="5.4074">
        <ele>751.48028564453</ele>
        <time>2011-01-16T09:27:34Z</time>
      </trkpt>
      <trkpt lat="45.30827" lon="5.40739">
        <ele>752.53601074219</ele>
        <time>2011-01-16T09:27:40Z</time>
      </trkpt>
      <trkpt lat="45.30814" lon="5.40738">
        <ele>752.94171142578</ele>
        <time>2011-01-16T09:27:45Z</time>
      </trkpt>
      <trkpt lat="45.30802" lon="5.40739">
        <ele>753.81896972656</ele>
        <time>2011-01-16T09:27:49Z</time>
      </trkpt>
      <trkpt lat="45.30793" lon="5.40736">
        <ele>754.15704345703</ele>
        <time>2011-01-16T09:27:53Z</time>
      </trkpt>
      <trkpt lat="45.30782" lon="5.40735">
        <ele>754.92047119141</ele>
        <time>2011-01-16T09:27:58Z</time>
      </trkpt>
      <trkpt lat="45.30772" lon="5.40732">
        <ele>754.47387695312</ele>
        <time>2011-01-16T09:28:02Z</time>
      </trkpt>
      <trkpt lat="45.3076" lon="5.40728">
        <ele>753.32727050781</ele>
        <time>2011-01-16T09:28:07Z</time>
      </trkpt>
      <trkpt lat="45.30745" lon="5.40724">
        <ele>751.68334960938</ele>
        <time>2011-01-16T09:28:13Z</time>
      </trkpt>
      <trkpt lat="45.30731" lon="5.40719">
        <ele>749.68853759766</ele>
        <time>2011-01-16T09:28:18Z</time>
      </trkpt>
      <trkpt lat="45.30719" lon="5.40716">
        <ele>748.24987792969</ele>
        <time>2011-01-16T09:28:22Z</time>
      </trkpt>
      <trkpt lat="45.30717" lon="5.40715">
        <ele>747.93139648438</ele>
        <time>2011-01-16T09:28:23Z</time>
      </trkpt>
      <trkpt lat="45.30708" lon="5.40708">
        <ele>746.68804931641</ele>
        <time>2011-01-16T09:28:27Z</time>
      </trkpt>
      <trkpt lat="45.3069" lon="5.40703">
        <ele>744.81158447266</ele>
        <time>2011-01-16T09:28:33Z</time>
      </trkpt>
      <trkpt lat="45.30676" lon="5.40695">
        <ele>742.99914550781</ele>
        <time>2011-01-16T09:28:38Z</time>
      </trkpt>
      <trkpt lat="45.30668" lon="5.40691">
        <ele>741.98498535156</ele>
        <time>2011-01-16T09:28:41Z</time>
      </trkpt>
      <trkpt lat="45.30656" lon="5.40688">
        <ele>741.75219726562</ele>
        <time>2011-01-16T09:28:45Z</time>
      </trkpt>
      <trkpt lat="45.30641" lon="5.40677">
        <ele>741.38830566406</ele>
        <time>2011-01-16T09:28:51Z</time>
      </trkpt>
      <trkpt lat="45.30632" lon="5.40672">
        <ele>741.19427490234</ele>
        <time>2011-01-16T09:28:54Z</time>
      </trkpt>
      <trkpt lat="45.3062" lon="5.40663">
        <ele>741</ele>
        <time>2011-01-16T09:28:59Z</time>
      </trkpt>
      <trkpt lat="45.30609" lon="5.40655">
        <ele>741</ele>
        <time>2011-01-16T09:29:03Z</time>
      </trkpt>
      <trkpt lat="45.30598" lon="5.40646">
        <ele>741</ele>
        <time>2011-01-16T09:29:07Z</time>
      </trkpt>
      <trkpt lat="45.30586" lon="5.4064">
        <ele>741</ele>
        <time>2011-01-16T09:29:11Z</time>
      </trkpt>
      <trkpt lat="45.30569" lon="5.40632">
        <ele>740.76605224609</ele>
        <time>2011-01-16T09:29:17Z</time>
      </trkpt>
      <trkpt lat="45.30551" lon="5.40642">
        <ele>740.37310791016</ele>
        <time>2011-01-16T09:29:24Z</time>
      </trkpt>
      <trkpt lat="45.30544" lon="5.4065">
        <ele>739.81579589844</ele>
        <time>2011-01-16T09:29:27Z</time>
      </trkpt>
      <trkpt lat="45.30542" lon="5.40652">
        <ele>739.75024414062</ele>
        <time>2011-01-16T09:29:28Z</time>
      </trkpt>
      <trkpt lat="45.30531" lon="5.40656">
        <ele>739.12359619141</ele>
        <time>2011-01-16T09:29:32Z</time>
      </trkpt>
      <trkpt lat="45.30511" lon="5.40657">
        <ele>735.98333740234</ele>
        <time>2011-01-16T09:29:38Z</time>
      </trkpt>
      <trkpt lat="45.305" lon="5.40659">
        <ele>734.35925292969</ele>
        <time>2011-01-16T09:29:41Z</time>
      </trkpt>
      <trkpt lat="45.30487" lon="5.40659">
        <ele>731.08129882812</ele>
        <time>2011-01-16T09:29:45Z</time>
      </trkpt>
      <trkpt lat="45.30475" lon="5.40656">
        <ele>727.71759033203</ele>
        <time>2011-01-16T09:29:49Z</time>
      </trkpt>
      <trkpt lat="45.30463" lon="5.40651">
        <ele>725.75872802734</ele>
        <time>2011-01-16T09:29:53Z</time>
      </trkpt>
      <trkpt lat="45.30457" lon="5.40649">
        <ele>725.06213378906</ele>
        <time>2011-01-16T09:29:55Z</time>
      </trkpt>
      <trkpt lat="45.30445" lon="5.40643">
        <ele>723.68688964844</ele>
        <time>2011-01-16T09:30:00Z</time>
      </trkpt>
      <trkpt lat="45.30442" lon="5.40642">
        <ele>723.28448486328</ele>
        <time>2011-01-16T09:30:01Z</time>
      </trkpt>
      <trkpt lat="45.30426" lon="5.40636">
        <ele>721.48901367188</ele>
        <time>2011-01-16T09:30:06Z</time>
      </trkpt>
      <trkpt lat="45.30415" lon="5.40633">
        <ele>720.697265625</ele>
        <time>2011-01-16T09:30:10Z</time>
      </trkpt>
      <trkpt lat="45.30402" lon="5.40632">
        <ele>719.9765625</ele>
        <time>2011-01-16T09:30:14Z</time>
      </trkpt>
      <trkpt lat="45.30391" lon="5.40628">
        <ele>719.01397705078</ele>
        <time>2011-01-16T09:30:18Z</time>
      </trkpt>
      <trkpt lat="45.30381" lon="5.40627">
        <ele>716.44775390625</ele>
        <time>2011-01-16T09:30:22Z</time>
      </trkpt>
      <trkpt lat="45.30366" lon="5.40622">
        <ele>711.52795410156</ele>
        <time>2011-01-16T09:30:28Z</time>
      </trkpt>
      <trkpt lat="45.30357" lon="5.40616">
        <ele>709.03021240234</ele>
        <time>2011-01-16T09:30:32Z</time>
      </trkpt>
      <trkpt lat="45.30354" lon="5.40615">
        <ele>708.63018798828</ele>
        <time>2011-01-16T09:30:33Z</time>
      </trkpt>
      <trkpt lat="45.30344" lon="5.40602">
        <ele>705.91223144531</ele>
        <time>2011-01-16T09:30:38Z</time>
      </trkpt>
      <trkpt lat="45.30336" lon="5.4059">
        <ele>703.85107421875</ele>
        <time>2011-01-16T09:30:42Z</time>
      </trkpt>
      <trkpt lat="45.30326" lon="5.40574">
        <ele>701.71643066406</ele>
        <time>2011-01-16T09:30:47Z</time>
      </trkpt>
      <trkpt lat="45.30319" lon="5.40561">
        <ele>700.66723632812</ele>
        <time>2011-01-16T09:30:51Z</time>
      </trkpt>
      <trkpt lat="45.30311" lon="5.40545">
        <ele>697.32513427734</ele>
        <time>2011-01-16T09:30:56Z</time>
      </trkpt>
      <trkpt lat="45.30309" lon="5.40543">
        <ele>696.57495117188</ele>
        <time>2011-01-16T09:30:57Z</time>
      </trkpt>
      <trkpt lat="45.303" lon="5.40533">
        <ele>692.89599609375</ele>
        <time>2011-01-16T09:31:01Z</time>
      </trkpt>
      <trkpt lat="45.30278" lon="5.40524">
        <ele>689.47796630859</ele>
        <time>2011-01-16T09:31:07Z</time>
      </trkpt>
      <trkpt lat="45.3026" lon="5.40516">
        <ele>685.96807861328</ele>
        <time>2011-01-16T09:31:13Z</time>
      </trkpt>
      <trkpt lat="45.30246" lon="5.40515">
        <ele>684.29571533203</ele>
        <time>2011-01-16T09:31:18Z</time>
      </trkpt>
      <trkpt lat="45.30232" lon="5.40517">
        <ele>683.17364501953</ele>
        <time>2011-01-16T09:31:24Z</time>
      </trkpt>
      <trkpt lat="45.3022" lon="5.4052">
        <ele>682.30682373047</ele>
        <time>2011-01-16T09:31:30Z</time>
      </trkpt>
      <trkpt lat="45.30215" lon="5.40521">
        <ele>681.8896484375</ele>
        <time>2011-01-16T09:31:32Z</time>
      </trkpt>
      <trkpt lat="45.30207" lon="5.40521">
        <ele>681.15948486328</ele>
        <time>2011-01-16T09:31:37Z</time>
      </trkpt>
      <trkpt lat="45.30206" lon="5.40519">
        <ele>680.99078369141</ele>
        <time>2011-01-16T09:31:40Z</time>
      </trkpt>
      <trkpt lat="45.30198" lon="5.40513">
        <ele>680.21466064453</ele>
        <time>2011-01-16T09:31:45Z</time>
      </trkpt>
      <trkpt lat="45.30193" lon="5.40505">
        <ele>679.47009277344</ele>
        <time>2011-01-16T09:31:48Z</time>
      </trkpt>
      <trkpt lat="45.30185" lon="5.40489">
        <ele>674.14001464844</ele>
        <time>2011-01-16T09:31:54Z</time>
      </trkpt>
      <trkpt lat="45.30179" lon="5.40473">
        <ele>669.603515625</ele>
        <time>2011-01-16T09:31:59Z</time>
      </trkpt>
      <trkpt lat="45.30175" lon="5.40459">
        <ele>667.31750488281</ele>
        <time>2011-01-16T09:32:03Z</time>
      </trkpt>
      <trkpt lat="45.30174" lon="5.40442">
        <ele>665.92718505859</ele>
        <time>2011-01-16T09:32:08Z</time>
      </trkpt>
      <trkpt lat="45.30173" lon="5.40424">
        <ele>662.20837402344</ele>
        <time>2011-01-16T09:32:13Z</time>
      </trkpt>
      <trkpt lat="45.30167" lon="5.40407">
        <ele>657.89270019531</ele>
        <time>2011-01-16T09:32:18Z</time>
      </trkpt>
      <trkpt lat="45.30161" lon="5.4039">
        <ele>652.66455078125</ele>
        <time>2011-01-16T09:32:23Z</time>
      </trkpt>
      <trkpt lat="45.30154" lon="5.4037">
        <ele>647.67529296875</ele>
        <time>2011-01-16T09:32:29Z</time>
      </trkpt>
      <trkpt lat="45.30152" lon="5.40357">
        <ele>644.96875</ele>
        <time>2011-01-16T09:32:33Z</time>
      </trkpt>
      <trkpt lat="45.30152" lon="5.40354">
        <ele>644.25146484375</ele>
        <time>2011-01-16T09:32:34Z</time>
      </trkpt>
      <trkpt lat="45.30141" lon="5.40344">
        <ele>639.38031005859</ele>
        <time>2011-01-16T09:32:39Z</time>
      </trkpt>
      <trkpt lat="45.30128" lon="5.40341">
        <ele>633.44732666016</ele>
        <time>2011-01-16T09:32:44Z</time>
      </trkpt>
      <trkpt lat="45.30114" lon="5.40337">
        <ele>626.16375732422</ele>
        <time>2011-01-16T09:32:49Z</time>
      </trkpt>
      <trkpt lat="45.30103" lon="5.40336">
        <ele>621.71142578125</ele>
        <time>2011-01-16T09:32:53Z</time>
      </trkpt>
      <trkpt lat="45.30083" lon="5.40329">
        <ele>614.57775878906</ele>
        <time>2011-01-16T09:32:59Z</time>
      </trkpt>
      <trkpt lat="45.30074" lon="5.40322">
        <ele>611.60430908203</ele>
        <time>2011-01-16T09:33:03Z</time>
      </trkpt>
      <trkpt lat="45.30069" lon="5.40308">
        <ele>609.09454345703</ele>
        <time>2011-01-16T09:33:07Z</time>
      </trkpt>
      <trkpt lat="45.30068" lon="5.40305">
        <ele>608.60949707031</ele>
        <time>2011-01-16T09:33:08Z</time>
      </trkpt>
      <trkpt lat="45.30068" lon="5.40298">
        <ele>607.65911865234</ele>
        <time>2011-01-16T09:33:10Z</time>
      </trkpt>
      <trkpt lat="45.30074" lon="5.40281">
        <ele>606.73321533203</ele>
        <time>2011-01-16T09:33:15Z</time>
      </trkpt>
      <trkpt lat="45.30075" lon="5.40279">
        <ele>606.73352050781</ele>
        <time>2011-01-16T09:33:16Z</time>
      </trkpt>
      <trkpt lat="45.3009" lon="5.40266">
        <ele>609.0947265625</ele>
        <time>2011-01-16T09:33:23Z</time>
      </trkpt>
      <trkpt lat="45.30101" lon="5.40258">
        <ele>611.2578125</ele>
        <time>2011-01-16T09:33:28Z</time>
      </trkpt>
      <trkpt lat="45.30114" lon="5.40249">
        <ele>613.46441650391</ele>
        <time>2011-01-16T09:33:33Z</time>
      </trkpt>
      <trkpt lat="45.30128" lon="5.40236">
        <ele>614.49975585938</ele>
        <time>2011-01-16T09:33:39Z</time>
      </trkpt>
      <trkpt lat="45.30139" lon="5.40222">
        <ele>613.92034912109</ele>
        <time>2011-01-16T09:33:44Z</time>
      </trkpt>
      <trkpt lat="45.30148" lon="5.40205">
        <ele>612.51086425781</ele>
        <time>2011-01-16T09:33:49Z</time>
      </trkpt>
      <trkpt lat="45.30161" lon="5.40188">
        <ele>610.68872070312</ele>
        <time>2011-01-16T09:33:55Z</time>
      </trkpt>
      <trkpt lat="45.30173" lon="5.40169">
        <ele>607.5693359375</ele>
        <time>2011-01-16T09:34:01Z</time>
      </trkpt>
      <trkpt lat="45.30185" lon="5.40154">
        <ele>605.38262939453</ele>
        <time>2011-01-16T09:34:07Z</time>
      </trkpt>
      <trkpt lat="45.30194" lon="5.40144">
        <ele>603.56927490234</ele>
        <time>2011-01-16T09:34:11Z</time>
      </trkpt>
      <trkpt lat="45.30202" lon="5.40129">
        <ele>600.29614257812</ele>
        <time>2011-01-16T09:34:16Z</time>
      </trkpt>
      <trkpt lat="45.30209" lon="5.40108">
        <ele>596.27941894531</ele>
        <time>2011-01-16T09:34:22Z</time>
      </trkpt>
      <trkpt lat="45.30209" lon="5.40083">
        <ele>589.91052246094</ele>
        <time>2011-01-16T09:34:28Z</time>
      </trkpt>
      <trkpt lat="45.30203" lon="5.40069">
        <ele>587.38708496094</ele>
        <time>2011-01-16T09:34:32Z</time>
      </trkpt>
      <trkpt lat="45.30194" lon="5.40066">
        <ele>586.73999023438</ele>
        <time>2011-01-16T09:34:36Z</time>
      </trkpt>
      <trkpt lat="45.30187" lon="5.40065">
        <ele>585.29797363281</ele>
        <time>2011-01-16T09:34:39Z</time>
      </trkpt>
      <trkpt lat="45.30178" lon="5.40073">
        <ele>585.263671875</ele>
        <time>2011-01-16T09:34:44Z</time>
      </trkpt>
      <trkpt lat="45.30169" lon="5.40084">
        <ele>585.70886230469</ele>
        <time>2011-01-16T09:34:48Z</time>
      </trkpt>
      <trkpt lat="45.30165" lon="5.40093">
        <ele>587.90899658203</ele>
        <time>2011-01-16T09:34:51Z</time>
      </trkpt>
      <trkpt lat="45.30162" lon="5.40098">
        <ele>589.36120605469</ele>
        <time>2011-01-16T09:34:53Z</time>
      </trkpt>
      <trkpt lat="45.30149" lon="5.40115">
        <ele>592.97625732422</ele>
        <time>2011-01-16T09:35:00Z</time>
      </trkpt>
      <trkpt lat="45.30143" lon="5.40121">
        <ele>593.43975830078</ele>
        <time>2011-01-16T09:35:03Z</time>
      </trkpt>
      <trkpt lat="45.30131" lon="5.40133">
        <ele>594.07672119141</ele>
        <time>2011-01-16T09:35:09Z</time>
      </trkpt>
      <trkpt lat="45.30122" lon="5.40136">
        <ele>592.72747802734</ele>
        <time>2011-01-16T09:35:12Z</time>
      </trkpt>
      <trkpt lat="45.30106" lon="5.40138">
        <ele>589.2333984375</ele>
        <time>2011-01-16T09:35:17Z</time>
      </trkpt>
      <trkpt lat="45.30093" lon="5.40135">
        <ele>584.29937744141</ele>
        <time>2011-01-16T09:35:22Z</time>
      </trkpt>
      <trkpt lat="45.30083" lon="5.40133">
        <ele>580.86187744141</ele>
        <time>2011-01-16T09:35:26Z</time>
      </trkpt>
      <trkpt lat="45.30073" lon="5.40132">
        <ele>578.16381835938</ele>
        <time>2011-01-16T09:35:30Z</time>
      </trkpt>
      <trkpt lat="45.30062" lon="5.40135">
        <ele>576.08642578125</ele>
        <time>2011-01-16T09:35:35Z</time>
      </trkpt>
      <trkpt lat="45.30054" lon="5.40137">
        <ele>574.39428710938</ele>
        <time>2011-01-16T09:35:39Z</time>
      </trkpt>
      <trkpt lat="45.30052" lon="5.40137">
        <ele>573.83813476562</ele>
        <time>2011-01-16T09:35:40Z</time>
      </trkpt>
      <trkpt lat="45.30043" lon="5.40141">
        <ele>572.58239746094</ele>
        <time>2011-01-16T09:35:44Z</time>
      </trkpt>
      <trkpt lat="45.30035" lon="5.40144">
        <ele>571.11639404297</ele>
        <time>2011-01-16T09:35:47Z</time>
      </trkpt>
      <trkpt lat="45.30012" lon="5.40156">
        <ele>569.63055419922</ele>
        <time>2011-01-16T09:35:55Z</time>
      </trkpt>
      <trkpt lat="45.3" lon="5.40161">
        <ele>568.88836669922</ele>
        <time>2011-01-16T09:35:59Z</time>
      </trkpt>
      <trkpt lat="45.29992" lon="5.40164">
        <ele>567.35382080078</ele>
        <time>2011-01-16T09:36:02Z</time>
      </trkpt>
      <trkpt lat="45.29972" lon="5.40166">
        <ele>562.75006103516</ele>
        <time>2011-01-16T09:36:09Z</time>
      </trkpt>
      <trkpt lat="45.29969" lon="5.40167">
        <ele>562.35522460938</ele>
        <time>2011-01-16T09:36:10Z</time>
      </trkpt>
      <trkpt lat="45.29959" lon="5.40169">
        <ele>560.95349121094</ele>
        <time>2011-01-16T09:36:13Z</time>
      </trkpt>
      <trkpt lat="45.2995" lon="5.40169">
        <ele>559.34259033203</ele>
        <time>2011-01-16T09:36:16Z</time>
      </trkpt>
      <trkpt lat="45.29944" lon="5.40171">
        <ele>558.38427734375</ele>
        <time>2011-01-16T09:36:18Z</time>
      </trkpt>
      <trkpt lat="45.2993" lon="5.40175">
        <ele>555.85211181641</ele>
        <time>2011-01-16T09:36:23Z</time>
      </trkpt>
      <trkpt lat="45.29919" lon="5.40179">
        <ele>554.23498535156</ele>
        <time>2011-01-16T09:36:27Z</time>
      </trkpt>
      <trkpt lat="45.29916" lon="5.4018">
        <ele>553.73919677734</ele>
        <time>2011-01-16T09:36:28Z</time>
      </trkpt>
      <trkpt lat="45.29894" lon="5.4018">
        <ele>545.51727294922</ele>
        <time>2011-01-16T09:36:35Z</time>
      </trkpt>
      <trkpt lat="45.29881" lon="5.40186">
        <ele>543.62261962891</ele>
        <time>2011-01-16T09:36:40Z</time>
      </trkpt>
      <trkpt lat="45.29876" lon="5.40197">
        <ele>544.09338378906</ele>
        <time>2011-01-16T09:36:44Z</time>
      </trkpt>
      <trkpt lat="45.29875" lon="5.40214">
        <ele>544.70275878906</ele>
        <time>2011-01-16T09:36:48Z</time>
      </trkpt>
      <trkpt lat="45.29881" lon="5.4023">
        <ele>545.27612304688</ele>
        <time>2011-01-16T09:36:52Z</time>
      </trkpt>
      <trkpt lat="45.29889" lon="5.40249">
        <ele>545.95251464844</ele>
        <time>2011-01-16T09:36:57Z</time>
      </trkpt>
      <trkpt lat="45.29889" lon="5.40265">
        <ele>546.013671875</ele>
        <time>2011-01-16T09:37:01Z</time>
      </trkpt>
      <trkpt lat="45.29883" lon="5.40284">
        <ele>546.63262939453</ele>
        <time>2011-01-16T09:37:06Z</time>
      </trkpt>
      <trkpt lat="45.29873" lon="5.40296">
        <ele>547.49456787109</ele>
        <time>2011-01-16T09:37:10Z</time>
      </trkpt>
      <trkpt lat="45.29868" lon="5.403">
        <ele>547.75939941406</ele>
        <time>2011-01-16T09:37:12Z</time>
      </trkpt>
      <trkpt lat="45.29852" lon="5.40299">
        <ele>548.00604248047</ele>
        <time>2011-01-16T09:37:17Z</time>
      </trkpt>
      <trkpt lat="45.29845" lon="5.40284">
        <ele>547.33782958984</ele>
        <time>2011-01-16T09:37:21Z</time>
      </trkpt>
      <trkpt lat="45.29843" lon="5.40272">
        <ele>546.77990722656</ele>
        <time>2011-01-16T09:37:24Z</time>
      </trkpt>
      <trkpt lat="45.29841" lon="5.40264">
        <ele>546.48803710938</ele>
        <time>2011-01-16T09:37:26Z</time>
      </trkpt>
      <trkpt lat="45.29838" lon="5.40245">
        <ele>545.81170654297</ele>
        <time>2011-01-16T09:37:30Z</time>
      </trkpt>
      <trkpt lat="45.2983" lon="5.40229">
        <ele>545.80267333984</ele>
        <time>2011-01-16T09:37:35Z</time>
      </trkpt>
      <trkpt lat="45.29829" lon="5.40226">
        <ele>545.89880371094</ele>
        <time>2011-01-16T09:37:36Z</time>
      </trkpt>
      <trkpt lat="45.29823" lon="5.40215">
        <ele>546.60437011719</ele>
        <time>2011-01-16T09:37:40Z</time>
      </trkpt>
      <trkpt lat="45.29817" lon="5.40199">
        <ele>547.07470703125</ele>
        <time>2011-01-16T09:37:44Z</time>
      </trkpt>
      <trkpt lat="45.29815" lon="5.40186">
        <ele>547.00604248047</ele>
        <time>2011-01-16T09:37:47Z</time>
      </trkpt>
      <trkpt lat="45.29814" lon="5.40181">
        <ele>547.02661132812</ele>
        <time>2011-01-16T09:37:48Z</time>
      </trkpt>
      <trkpt lat="45.29811" lon="5.40153">
        <ele>546.33410644531</ele>
        <time>2011-01-16T09:37:54Z</time>
      </trkpt>
      <trkpt lat="45.29809" lon="5.40136">
        <ele>546.19372558594</ele>
        <time>2011-01-16T09:37:59Z</time>
      </trkpt>
      <trkpt lat="45.29803" lon="5.40123">
        <ele>546.71795654297</ele>
        <time>2011-01-16T09:38:03Z</time>
      </trkpt>
      <trkpt lat="45.29798" lon="5.40111">
        <ele>547.13854980469</ele>
        <time>2011-01-16T09:38:07Z</time>
      </trkpt>
      <trkpt lat="45.29787" lon="5.40117">
        <ele>548.92553710938</ele>
        <time>2011-01-16T09:38:13Z</time>
      </trkpt>
      <trkpt lat="45.29778" lon="5.40124">
        <ele>550.37609863281</ele>
        <time>2011-01-16T09:38:17Z</time>
      </trkpt>
      <trkpt lat="45.2977" lon="5.4013">
        <ele>551.36871337891</ele>
        <time>2011-01-16T09:38:22Z</time>
      </trkpt>
      <trkpt lat="45.29759" lon="5.40138">
        <ele>552.34997558594</ele>
        <time>2011-01-16T09:38:30Z</time>
      </trkpt>
      <trkpt lat="45.29757" lon="5.40139">
        <ele>552.54669189453</ele>
        <time>2011-01-16T09:38:32Z</time>
      </trkpt>
      <trkpt lat="45.29753" lon="5.40146">
        <ele>553.02221679688</ele>
        <time>2011-01-16T09:38:38Z</time>
      </trkpt>
      <trkpt lat="45.29755" lon="5.40152">
        <ele>553.07366943359</ele>
        <time>2011-01-16T09:38:43Z</time>
      </trkpt>
      <trkpt lat="45.29758" lon="5.40158">
        <ele>553.12347412109</ele>
        <time>2011-01-16T09:38:49Z</time>
      </trkpt>
      <trkpt lat="45.29761" lon="5.40168">
        <ele>553.26251220703</ele>
        <time>2011-01-16T09:38:55Z</time>
      </trkpt>
      <trkpt lat="45.2976" lon="5.40177">
        <ele>553.63330078125</ele>
        <time>2011-01-16T09:39:01Z</time>
      </trkpt>
      <trkpt lat="45.29761" lon="5.40184">
        <ele>553.84100341797</ele>
        <time>2011-01-16T09:39:07Z</time>
      </trkpt>
      <trkpt lat="45.29759" lon="5.40192">
        <ele>554.26672363281</ele>
        <time>2011-01-16T09:39:12Z</time>
      </trkpt>
      <trkpt lat="45.29761" lon="5.40205">
        <ele>554.2265625</ele>
        <time>2011-01-16T09:39:19Z</time>
      </trkpt>
      <trkpt lat="45.29756" lon="5.40218">
        <ele>554.55615234375</ele>
        <time>2011-01-16T09:39:26Z</time>
      </trkpt>
      <trkpt lat="45.29758" lon="5.40228">
        <ele>554.62799072266</ele>
        <time>2011-01-16T09:39:33Z</time>
      </trkpt>
      <trkpt lat="45.29758" lon="5.40232">
        <ele>554.78253173828</ele>
        <time>2011-01-16T09:39:35Z</time>
      </trkpt>
      <trkpt lat="45.29758" lon="5.40237">
        <ele>554.9404296875</ele>
        <time>2011-01-16T09:39:38Z</time>
      </trkpt>
      <trkpt lat="45.29758" lon="5.40249">
        <ele>555.40222167969</ele>
        <time>2011-01-16T09:39:44Z</time>
      </trkpt>
      <trkpt lat="45.29757" lon="5.4026">
        <ele>555.5673828125</ele>
        <time>2011-01-16T09:39:49Z</time>
      </trkpt>
      <trkpt lat="45.29755" lon="5.40271">
        <ele>555.77233886719</ele>
        <time>2011-01-16T09:39:55Z</time>
      </trkpt>
      <trkpt lat="45.29758" lon="5.4028">
        <ele>555.78973388672</ele>
        <time>2011-01-16T09:40:01Z</time>
      </trkpt>
      <trkpt lat="45.29755" lon="5.40292">
        <ele>556.32702636719</ele>
        <time>2011-01-16T09:40:09Z</time>
      </trkpt>
      <trkpt lat="45.29756" lon="5.40295">
        <ele>556.38195800781</ele>
        <time>2011-01-16T09:40:11Z</time>
      </trkpt>
      <trkpt lat="45.29755" lon="5.40302">
        <ele>556.67205810547</ele>
        <time>2011-01-16T09:40:16Z</time>
      </trkpt>
      <trkpt lat="45.29761" lon="5.40314">
        <ele>556.79040527344</ele>
        <time>2011-01-16T09:40:23Z</time>
      </trkpt>
      <trkpt lat="45.29762" lon="5.40316">
        <ele>556.80627441406</ele>
        <time>2011-01-16T09:40:26Z</time>
      </trkpt>
      <trkpt lat="45.29762" lon="5.40334">
        <ele>557.14910888672</ele>
        <time>2011-01-16T09:40:33Z</time>
      </trkpt>
      <trkpt lat="45.29763" lon="5.40344">
        <ele>557.26489257812</ele>
        <time>2011-01-16T09:40:38Z</time>
      </trkpt>
      <trkpt lat="45.29762" lon="5.40355">
        <ele>557.47155761719</ele>
        <time>2011-01-16T09:40:44Z</time>
      </trkpt>
      <trkpt lat="45.29764" lon="5.40367">
        <ele>557.69592285156</ele>
        <time>2011-01-16T09:40:50Z</time>
      </trkpt>
      <trkpt lat="45.29765" lon="5.40373">
        <ele>557.90020751953</ele>
        <time>2011-01-16T09:40:53Z</time>
      </trkpt>
      <trkpt lat="45.29764" lon="5.4038">
        <ele>558.16625976562</ele>
        <time>2011-01-16T09:40:58Z</time>
      </trkpt>
      <trkpt lat="45.29761" lon="5.40381">
        <ele>558.32592773438</ele>
        <time>2011-01-16T09:41:02Z</time>
      </trkpt>
      <trkpt lat="45.29755" lon="5.4039">
        <ele>558.84606933594</ele>
        <time>2011-01-16T09:41:08Z</time>
      </trkpt>
      <trkpt lat="45.2976" lon="5.40405">
        <ele>559.24090576172</ele>
        <time>2011-01-16T09:41:16Z</time>
      </trkpt>
      <trkpt lat="45.29763" lon="5.40415">
        <ele>559.48638916016</ele>
        <time>2011-01-16T09:41:20Z</time>
      </trkpt>
      <trkpt lat="45.2977" lon="5.40431">
        <ele>560.2177734375</ele>
        <time>2011-01-16T09:41:28Z</time>
      </trkpt>
      <trkpt lat="45.29776" lon="5.40439">
        <ele>560.08966064453</ele>
        <time>2011-01-16T09:41:32Z</time>
      </trkpt>
      <trkpt lat="45.29777" lon="5.4045">
        <ele>560.58038330078</ele>
        <time>2011-01-16T09:41:37Z</time>
      </trkpt>
      <trkpt lat="45.2978" lon="5.40468">
        <ele>561.39141845703</ele>
        <time>2011-01-16T09:41:45Z</time>
      </trkpt>
      <trkpt lat="45.29781" lon="5.4047">
        <ele>561.35211181641</ele>
        <time>2011-01-16T09:41:47Z</time>
      </trkpt>
      <trkpt lat="45.29784" lon="5.40483">
        <ele>562.81414794922</ele>
        <time>2011-01-16T09:41:55Z</time>
      </trkpt>
      <trkpt lat="45.29783" lon="5.4049">
        <ele>564.13177490234</ele>
        <time>2011-01-16T09:42:02Z</time>
      </trkpt>
      <trkpt lat="45.29789" lon="5.405">
        <ele>564.21862792969</ele>
        <time>2011-01-16T09:42:41Z</time>
      </trkpt>
      <trkpt lat="45.29788" lon="5.40506">
        <ele>564.99700927734</ele>
        <time>2011-01-16T09:42:46Z</time>
      </trkpt>
      <trkpt lat="45.2979" lon="5.40517">
        <ele>565.16851806641</ele>
        <time>2011-01-16T09:42:53Z</time>
      </trkpt>
      <trkpt lat="45.29789" lon="5.40518">
        <ele>565.51300048828</ele>
        <time>2011-01-16T09:42:54Z</time>
      </trkpt>
      <trkpt lat="45.29783" lon="5.40531">
        <ele>568.68670654297</ele>
        <time>2011-01-16T09:43:01Z</time>
      </trkpt>
      <trkpt lat="45.29783" lon="5.40541">
        <ele>570.27062988281</ele>
        <time>2011-01-16T09:43:06Z</time>
      </trkpt>
      <trkpt lat="45.29785" lon="5.40548">
        <ele>570.90661621094</ele>
        <time>2011-01-16T09:43:10Z</time>
      </trkpt>
      <trkpt lat="45.29786" lon="5.40559">
        <ele>572.19396972656</ele>
        <time>2011-01-16T09:43:18Z</time>
      </trkpt>
      <trkpt lat="45.29787" lon="5.40569">
        <ele>572.98187255859</ele>
        <time>2011-01-16T09:43:25Z</time>
      </trkpt>
      <trkpt lat="45.29788" lon="5.40585">
        <ele>574.75811767578</ele>
        <time>2011-01-16T09:43:34Z</time>
      </trkpt>
      <trkpt lat="45.29787" lon="5.40597">
        <ele>576.80340576172</ele>
        <time>2011-01-16T09:43:40Z</time>
      </trkpt>
      <trkpt lat="45.29787" lon="5.40609">
        <ele>578.97009277344</ele>
        <time>2011-01-16T09:43:47Z</time>
      </trkpt>
      <trkpt lat="45.29786" lon="5.40622">
        <ele>580.84191894531</ele>
        <time>2011-01-16T09:43:54Z</time>
      </trkpt>
      <trkpt lat="45.29785" lon="5.40631">
        <ele>582.1201171875</ele>
        <time>2011-01-16T09:44:00Z</time>
      </trkpt>
      <trkpt lat="45.29782" lon="5.40645">
        <ele>584.17163085938</ele>
        <time>2011-01-16T09:44:08Z</time>
      </trkpt>
      <trkpt lat="45.29782" lon="5.40648">
        <ele>584.62475585938</ele>
        <time>2011-01-16T09:44:10Z</time>
      </trkpt>
      <trkpt lat="45.29784" lon="5.40659">
        <ele>585.88134765625</ele>
        <time>2011-01-16T09:44:17Z</time>
      </trkpt>
      <trkpt lat="45.29786" lon="5.40666">
        <ele>586.74652099609</ele>
        <time>2011-01-16T09:44:21Z</time>
      </trkpt>
      <trkpt lat="45.29786" lon="5.40675">
        <ele>588.05798339844</ele>
        <time>2011-01-16T09:44:26Z</time>
      </trkpt>
      <trkpt lat="45.29785" lon="5.4068">
        <ele>588.86138916016</ele>
        <time>2011-01-16T09:44:29Z</time>
      </trkpt>
      <trkpt lat="45.29777" lon="5.4068">
        <ele>589.89392089844</ele>
        <time>2011-01-16T09:44:36Z</time>
      </trkpt>
      <trkpt lat="45.2977" lon="5.40677">
        <ele>590.03125</ele>
        <time>2011-01-16T09:44:43Z</time>
      </trkpt>
      <trkpt lat="45.2976" lon="5.4067">
        <ele>589.74279785156</ele>
        <time>2011-01-16T09:44:52Z</time>
      </trkpt>
      <trkpt lat="45.2975" lon="5.40663">
        <ele>589.46130371094</ele>
        <time>2011-01-16T09:44:59Z</time>
      </trkpt>
      <trkpt lat="45.2974" lon="5.40656">
        <ele>589.71057128906</ele>
        <time>2011-01-16T09:45:08Z</time>
      </trkpt>
      <trkpt lat="45.29731" lon="5.40653">
        <ele>590.52557373047</ele>
        <time>2011-01-16T09:45:16Z</time>
      </trkpt>
      <trkpt lat="45.29725" lon="5.40654">
        <ele>591.40026855469</ele>
        <time>2011-01-16T09:45:21Z</time>
      </trkpt>
      <trkpt lat="45.29723" lon="5.40658">
        <ele>591.92175292969</ele>
        <time>2011-01-16T09:45:24Z</time>
      </trkpt>
      <trkpt lat="45.29723" lon="5.40663">
        <ele>592.45544433594</ele>
        <time>2011-01-16T09:45:28Z</time>
      </trkpt>
      <trkpt lat="45.29728" lon="5.40663">
        <ele>592.00872802734</ele>
        <time>2011-01-16T09:45:34Z</time>
      </trkpt>
      <trkpt lat="45.29726" lon="5.40661">
        <ele>591.98773193359</ele>
        <time>2011-01-16T09:45:45Z</time>
      </trkpt>
      <trkpt lat="45.29727" lon="5.40666">
        <ele>592.45324707031</ele>
        <time>2011-01-16T09:45:57Z</time>
      </trkpt>
      <trkpt lat="45.29726" lon="5.40667">
        <ele>592.65887451172</ele>
        <time>2011-01-16T09:46:03Z</time>
      </trkpt>
      <trkpt lat="45.29724" lon="5.40661">
        <ele>592.24456787109</ele>
        <time>2011-01-16T09:46:16Z</time>
      </trkpt>
      <trkpt lat="45.29722" lon="5.40664">
        <ele>592.72772216797</ele>
        <time>2011-01-16T09:46:22Z</time>
      </trkpt>
      <trkpt lat="45.2972" lon="5.40664">
        <ele>592.69506835938</ele>
        <time>2011-01-16T09:46:30Z</time>
      </trkpt>
      <trkpt lat="45.2972" lon="5.40662">
        <ele>592.41870117188</ele>
        <time>2011-01-16T09:46:32Z</time>
      </trkpt>
      <trkpt lat="45.29723" lon="5.40654">
        <ele>591.583984375</ele>
        <time>2011-01-16T09:46:38Z</time>
      </trkpt>
      <trkpt lat="45.29726" lon="5.40654">
        <ele>591.19958496094</ele>
        <time>2011-01-16T09:46:45Z</time>
      </trkpt>
      <trkpt lat="45.29728" lon="5.40654">
        <ele>590.8671875</ele>
        <time>2011-01-16T09:46:49Z</time>
      </trkpt>
      <trkpt lat="45.29736" lon="5.40656">
        <ele>590.12286376953</ele>
        <time>2011-01-16T09:46:55Z</time>
      </trkpt>
      <trkpt lat="45.29749" lon="5.40662">
        <ele>589.47662353516</ele>
        <time>2011-01-16T09:47:02Z</time>
      </trkpt>
      <trkpt lat="45.29757" lon="5.40671">
        <ele>590.12048339844</ele>
        <time>2011-01-16T09:47:07Z</time>
      </trkpt>
      <trkpt lat="45.29767" lon="5.4068">
        <ele>590.66979980469</ele>
        <time>2011-01-16T09:47:12Z</time>
      </trkpt>
      <trkpt lat="45.29779" lon="5.40684">
        <ele>590.33081054688</ele>
        <time>2011-01-16T09:47:17Z</time>
      </trkpt>
      <trkpt lat="45.29781" lon="5.40685">
        <ele>590.22094726562</ele>
        <time>2011-01-16T09:47:18Z</time>
      </trkpt>
      <trkpt lat="45.29781" lon="5.40696">
        <ele>591.59545898438</ele>
        <time>2011-01-16T09:47:24Z</time>
      </trkpt>
      <trkpt lat="45.29778" lon="5.4071">
        <ele>593.06829833984</ele>
        <time>2011-01-16T09:47:32Z</time>
      </trkpt>
      <trkpt lat="45.29775" lon="5.40723">
        <ele>594.38488769531</ele>
        <time>2011-01-16T09:47:41Z</time>
      </trkpt>
      <trkpt lat="45.29772" lon="5.40736">
        <ele>596.54089355469</ele>
        <time>2011-01-16T09:47:49Z</time>
      </trkpt>
      <trkpt lat="45.29772" lon="5.40742">
        <ele>597.47473144531</ele>
        <time>2011-01-16T09:47:54Z</time>
      </trkpt>
      <trkpt lat="45.29771" lon="5.40754">
        <ele>599.28063964844</ele>
        <time>2011-01-16T09:48:03Z</time>
      </trkpt>
      <trkpt lat="45.2977" lon="5.40763">
        <ele>600.75006103516</ele>
        <time>2011-01-16T09:48:09Z</time>
      </trkpt>
      <trkpt lat="45.2977" lon="5.40765">
        <ele>600.99725341797</ele>
        <time>2011-01-16T09:48:10Z</time>
      </trkpt>
      <trkpt lat="45.29769" lon="5.40774">
        <ele>602.44604492188</ele>
        <time>2011-01-16T09:48:18Z</time>
      </trkpt>
      <trkpt lat="45.29767" lon="5.40785">
        <ele>604.67364501953</ele>
        <time>2011-01-16T09:48:26Z</time>
      </trkpt>
      <trkpt lat="45.29767" lon="5.40792">
        <ele>606.00500488281</ele>
        <time>2011-01-16T09:48:31Z</time>
      </trkpt>
      <trkpt lat="45.29766" lon="5.40802">
        <ele>608.08111572266</ele>
        <time>2011-01-16T09:48:38Z</time>
      </trkpt>
      <trkpt lat="45.29764" lon="5.40816">
        <ele>610.45202636719</ele>
        <time>2011-01-16T09:48:49Z</time>
      </trkpt>
      <trkpt lat="45.29762" lon="5.40822">
        <ele>611.49572753906</ele>
        <time>2011-01-16T09:48:56Z</time>
      </trkpt>
      <trkpt lat="45.29758" lon="5.40832">
        <ele>613.28790283203</ele>
        <time>2011-01-16T09:49:05Z</time>
      </trkpt>
      <trkpt lat="45.29753" lon="5.40838">
        <ele>614.78454589844</ele>
        <time>2011-01-16T09:49:12Z</time>
      </trkpt>
      <trkpt lat="45.29749" lon="5.40844">
        <ele>616.15454101562</ele>
        <time>2011-01-16T09:49:19Z</time>
      </trkpt>
      <trkpt lat="45.29745" lon="5.40852">
        <ele>617.30596923828</ele>
        <time>2011-01-16T09:49:25Z</time>
      </trkpt>
      <trkpt lat="45.29744" lon="5.40865">
        <ele>618.86700439453</ele>
        <time>2011-01-16T09:49:32Z</time>
      </trkpt>
      <trkpt lat="45.29744" lon="5.40881">
        <ele>619.57556152344</ele>
        <time>2011-01-16T09:49:41Z</time>
      </trkpt>
      <trkpt lat="45.29746" lon="5.409">
        <ele>621.4873046875</ele>
        <time>2011-01-16T09:49:51Z</time>
      </trkpt>
      <trkpt lat="45.29753" lon="5.40916">
        <ele>623.94494628906</ele>
        <time>2011-01-16T09:50:01Z</time>
      </trkpt>
      <trkpt lat="45.29758" lon="5.40932">
        <ele>625.60314941406</ele>
        <time>2011-01-16T09:50:10Z</time>
      </trkpt>
      <trkpt lat="45.29761" lon="5.40945">
        <ele>627.06457519531</ele>
        <time>2011-01-16T09:50:15Z</time>
      </trkpt>
      <trkpt lat="45.29763" lon="5.40964">
        <ele>628.74102783203</ele>
        <time>2011-01-16T09:50:22Z</time>
      </trkpt>
      <trkpt lat="45.29764" lon="5.40977">
        <ele>630.05218505859</ele>
        <time>2011-01-16T09:50:27Z</time>
      </trkpt>
      <trkpt lat="45.29765" lon="5.40988">
        <ele>631.23150634766</ele>
        <time>2011-01-16T09:50:31Z</time>
      </trkpt>
      <trkpt lat="45.2977" lon="5.41001">
        <ele>632.75982666016</ele>
        <time>2011-01-16T09:50:37Z</time>
      </trkpt>
      <trkpt lat="45.29775" lon="5.41014">
        <ele>633.94775390625</ele>
        <time>2011-01-16T09:50:43Z</time>
      </trkpt>
      <trkpt lat="45.29777" lon="5.41031">
        <ele>635.29895019531</ele>
        <time>2011-01-16T09:50:49Z</time>
      </trkpt>
      <trkpt lat="45.2978" lon="5.41044">
        <ele>636.53796386719</ele>
        <time>2011-01-16T09:50:55Z</time>
      </trkpt>
      <trkpt lat="45.29783" lon="5.41057">
        <ele>637.57995605469</ele>
        <time>2011-01-16T09:51:02Z</time>
      </trkpt>
      <trkpt lat="45.29784" lon="5.41074">
        <ele>638.83349609375</ele>
        <time>2011-01-16T09:51:12Z</time>
      </trkpt>
      <trkpt lat="45.29786" lon="5.41082">
        <ele>639.30065917969</ele>
        <time>2011-01-16T09:51:16Z</time>
      </trkpt>
      <trkpt lat="45.29788" lon="5.41095">
        <ele>639.86285400391</ele>
        <time>2011-01-16T09:51:24Z</time>
      </trkpt>
      <trkpt lat="45.29789" lon="5.41105">
        <ele>640.45715332031</ele>
        <time>2011-01-16T09:51:30Z</time>
      </trkpt>
      <trkpt lat="45.29792" lon="5.41117">
        <ele>641.23602294922</ele>
        <time>2011-01-16T09:51:38Z</time>
      </trkpt>
      <trkpt lat="45.29794" lon="5.41129">
        <ele>641.94757080078</ele>
        <time>2011-01-16T09:51:45Z</time>
      </trkpt>
      <trkpt lat="45.29798" lon="5.41146">
        <ele>643.47351074219</ele>
        <time>2011-01-16T09:51:54Z</time>
      </trkpt>
      <trkpt lat="45.29799" lon="5.41159">
        <ele>644.83081054688</ele>
        <time>2011-01-16T09:52:01Z</time>
      </trkpt>
      <trkpt lat="45.298" lon="5.41173">
        <ele>646.34954833984</ele>
        <time>2011-01-16T09:52:09Z</time>
      </trkpt>
      <trkpt lat="45.298" lon="5.41185">
        <ele>647.30413818359</ele>
        <time>2011-01-16T09:52:16Z</time>
      </trkpt>
      <trkpt lat="45.29798" lon="5.41202">
        <ele>648.03570556641</ele>
        <time>2011-01-16T09:52:25Z</time>
      </trkpt>
      <trkpt lat="45.29797" lon="5.41221">
        <ele>648.95812988281</ele>
        <time>2011-01-16T09:52:35Z</time>
      </trkpt>
      <trkpt lat="45.29799" lon="5.41239">
        <ele>651.15734863281</ele>
        <time>2011-01-16T09:52:45Z</time>
      </trkpt>
      <trkpt lat="45.29801" lon="5.41259">
        <ele>653.50891113281</ele>
        <time>2011-01-16T09:52:55Z</time>
      </trkpt>
      <trkpt lat="45.29804" lon="5.41277">
        <ele>656.00799560547</ele>
        <time>2011-01-16T09:53:04Z</time>
      </trkpt>
      <trkpt lat="45.29807" lon="5.41295">
        <ele>658.77288818359</ele>
        <time>2011-01-16T09:53:14Z</time>
      </trkpt>
      <trkpt lat="45.2981" lon="5.41312">
        <ele>659.77478027344</ele>
        <time>2011-01-16T09:53:23Z</time>
      </trkpt>
      <trkpt lat="45.29811" lon="5.4132">
        <ele>659.80151367188</ele>
        <time>2011-01-16T09:53:27Z</time>
      </trkpt>
      <trkpt lat="45.29812" lon="5.4132">
        <ele>659.78588867188</ele>
        <time>2011-01-16T09:53:39Z</time>
      </trkpt>
      <trkpt lat="45.29813" lon="5.41324">
        <ele>659.81243896484</ele>
        <time>2011-01-16T09:53:44Z</time>
      </trkpt>
      <trkpt lat="45.29815" lon="5.41339">
        <ele>660.49517822266</ele>
        <time>2011-01-16T09:53:52Z</time>
      </trkpt>
      <trkpt lat="45.29817" lon="5.41359">
        <ele>662.21813964844</ele>
        <time>2011-01-16T09:54:02Z</time>
      </trkpt>
      <trkpt lat="45.29818" lon="5.41373">
        <ele>663.07153320312</ele>
        <time>2011-01-16T09:54:09Z</time>
      </trkpt>
      <trkpt lat="45.29818" lon="5.41385">
        <ele>663.70037841797</ele>
        <time>2011-01-16T09:54:15Z</time>
      </trkpt>
      <trkpt lat="45.29818" lon="5.41398">
        <ele>664.56732177734</ele>
        <time>2011-01-16T09:54:22Z</time>
      </trkpt>
      <trkpt lat="45.29818" lon="5.41416">
        <ele>665.78729248047</ele>
        <time>2011-01-16T09:54:31Z</time>
      </trkpt>
      <trkpt lat="45.2982" lon="5.41433">
        <ele>667.62939453125</ele>
        <time>2011-01-16T09:54:40Z</time>
      </trkpt>
      <trkpt lat="45.29823" lon="5.41445">
        <ele>669.19897460938</ele>
        <time>2011-01-16T09:54:46Z</time>
      </trkpt>
      <trkpt lat="45.29827" lon="5.41461">
        <ele>670.71313476562</ele>
        <time>2011-01-16T09:54:55Z</time>
      </trkpt>
      <trkpt lat="45.29831" lon="5.41482">
        <ele>673.27191162109</ele>
        <time>2011-01-16T09:55:06Z</time>
      </trkpt>
      <trkpt lat="45.29833" lon="5.41497">
        <ele>675.68450927734</ele>
        <time>2011-01-16T09:55:14Z</time>
      </trkpt>
      <trkpt lat="45.29833" lon="5.41513">
        <ele>676.892578125</ele>
        <time>2011-01-16T09:55:22Z</time>
      </trkpt>
      <trkpt lat="45.29832" lon="5.41529">
        <ele>677.78540039062</ele>
        <time>2011-01-16T09:55:31Z</time>
      </trkpt>
      <trkpt lat="45.29833" lon="5.41543">
        <ele>679.05120849609</ele>
        <time>2011-01-16T09:55:39Z</time>
      </trkpt>
      <trkpt lat="45.29834" lon="5.41558">
        <ele>680.10473632812</ele>
        <time>2011-01-16T09:55:47Z</time>
      </trkpt>
      <trkpt lat="45.29836" lon="5.41572">
        <ele>680.63562011719</ele>
        <time>2011-01-16T09:55:54Z</time>
      </trkpt>
      <trkpt lat="45.29838" lon="5.41586">
        <ele>681.40704345703</ele>
        <time>2011-01-16T09:56:02Z</time>
      </trkpt>
      <trkpt lat="45.2984" lon="5.41602">
        <ele>682.7421875</ele>
        <time>2011-01-16T09:56:11Z</time>
      </trkpt>
      <trkpt lat="45.29843" lon="5.41614">
        <ele>683.76568603516</ele>
        <time>2011-01-16T09:56:18Z</time>
      </trkpt>
      <trkpt lat="45.29844" lon="5.41629">
        <ele>684.39739990234</ele>
        <time>2011-01-16T09:56:27Z</time>
      </trkpt>
      <trkpt lat="45.29844" lon="5.41643">
        <ele>685.04083251953</ele>
        <time>2011-01-16T09:56:34Z</time>
      </trkpt>
      <trkpt lat="45.29847" lon="5.41657">
        <ele>686.34301757812</ele>
        <time>2011-01-16T09:56:42Z</time>
      </trkpt>
      <trkpt lat="45.29845" lon="5.41671">
        <ele>686.96264648438</ele>
        <time>2011-01-16T09:56:49Z</time>
      </trkpt>
      <trkpt lat="45.29846" lon="5.41685">
        <ele>687.73864746094</ele>
        <time>2011-01-16T09:56:56Z</time>
      </trkpt>
      <trkpt lat="45.29846" lon="5.41698">
        <ele>688.57238769531</ele>
        <time>2011-01-16T09:57:03Z</time>
      </trkpt>
      <trkpt lat="45.29847" lon="5.41715">
        <ele>689.84954833984</ele>
        <time>2011-01-16T09:57:11Z</time>
      </trkpt>
      <trkpt lat="45.29848" lon="5.4173">
        <ele>691.18518066406</ele>
        <time>2011-01-16T09:57:19Z</time>
      </trkpt>
      <trkpt lat="45.29848" lon="5.41748">
        <ele>692.48858642578</ele>
        <time>2011-01-16T09:57:29Z</time>
      </trkpt>
      <trkpt lat="45.29848" lon="5.41764">
        <ele>693.80932617188</ele>
        <time>2011-01-16T09:57:38Z</time>
      </trkpt>
      <trkpt lat="45.2985" lon="5.41777">
        <ele>695.26849365234</ele>
        <time>2011-01-16T09:57:46Z</time>
      </trkpt>
      <trkpt lat="45.29852" lon="5.41788">
        <ele>696.560546875</ele>
        <time>2011-01-16T09:57:52Z</time>
      </trkpt>
      <trkpt lat="45.29854" lon="5.41802">
        <ele>698.20642089844</ele>
        <time>2011-01-16T09:58:00Z</time>
      </trkpt>
      <trkpt lat="45.29857" lon="5.41816">
        <ele>699.19653320312</ele>
        <time>2011-01-16T09:58:08Z</time>
      </trkpt>
      <trkpt lat="45.29861" lon="5.4183">
        <ele>700</ele>
        <time>2011-01-16T09:58:16Z</time>
      </trkpt>
      <trkpt lat="45.29865" lon="5.41845">
        <ele>700.42297363281</ele>
        <time>2011-01-16T09:58:25Z</time>
      </trkpt>
      <trkpt lat="45.29868" lon="5.41861">
        <ele>701.00122070312</ele>
        <time>2011-01-16T09:58:34Z</time>
      </trkpt>
      <trkpt lat="45.29871" lon="5.4187">
        <ele>701.11163330078</ele>
        <time>2011-01-16T09:58:41Z</time>
      </trkpt>
      <trkpt lat="45.29874" lon="5.41876">
        <ele>701.24835205078</ele>
        <time>2011-01-16T09:58:50Z</time>
      </trkpt>
      <trkpt lat="45.29882" lon="5.41885">
        <ele>701.67309570312</ele>
        <time>2011-01-16T09:58:56Z</time>
      </trkpt>
      <trkpt lat="45.29891" lon="5.41893">
        <ele>702</ele>
        <time>2011-01-16T09:59:01Z</time>
      </trkpt>
      <trkpt lat="45.299" lon="5.41905">
        <ele>702</ele>
        <time>2011-01-16T09:59:07Z</time>
      </trkpt>
      <trkpt lat="45.29908" lon="5.41921">
        <ele>702.09729003906</ele>
        <time>2011-01-16T09:59:13Z</time>
      </trkpt>
      <trkpt lat="45.29917" lon="5.41937">
        <ele>702.76013183594</ele>
        <time>2011-01-16T09:59:20Z</time>
      </trkpt>
      <trkpt lat="45.29921" lon="5.41951">
        <ele>703.19177246094</ele>
        <time>2011-01-16T09:59:25Z</time>
      </trkpt>
      <trkpt lat="45.29924" lon="5.41972">
        <ele>703.52593994141</ele>
        <time>2011-01-16T09:59:32Z</time>
      </trkpt>
      <trkpt lat="45.29925" lon="5.41977">
        <ele>703.78924560547</ele>
        <time>2011-01-16T09:59:34Z</time>
      </trkpt>
      <trkpt lat="45.2993" lon="5.41998">
        <ele>704.87414550781</ele>
        <time>2011-01-16T09:59:41Z</time>
      </trkpt>
      <trkpt lat="45.29934" lon="5.42012">
        <ele>705.51300048828</ele>
        <time>2011-01-16T09:59:46Z</time>
      </trkpt>
      <trkpt lat="45.29939" lon="5.42027">
        <ele>706.3447265625</ele>
        <time>2011-01-16T09:59:51Z</time>
      </trkpt>
      <trkpt lat="45.29942" lon="5.42039">
        <ele>707.04156494141</ele>
        <time>2011-01-16T09:59:55Z</time>
      </trkpt>
      <trkpt lat="45.29947" lon="5.42055">
        <ele>708.67486572266</ele>
        <time>2011-01-16T10:00:01Z</time>
      </trkpt>
      <trkpt lat="45.2995" lon="5.42076">
        <ele>709.85412597656</ele>
        <time>2011-01-16T10:00:09Z</time>
      </trkpt>
      <trkpt lat="45.29953" lon="5.42095">
        <ele>711.8671875</ele>
        <time>2011-01-16T10:00:16Z</time>
      </trkpt>
      <trkpt lat="45.29956" lon="5.42112">
        <ele>714.33068847656</ele>
        <time>2011-01-16T10:00:22Z</time>
      </trkpt>
      <trkpt lat="45.29961" lon="5.42126">
        <ele>716.0546875</ele>
        <time>2011-01-16T10:00:28Z</time>
      </trkpt>
      <trkpt lat="45.29963" lon="5.4214">
        <ele>716.98663330078</ele>
        <time>2011-01-16T10:00:34Z</time>
      </trkpt>
      <trkpt lat="45.29965" lon="5.42152">
        <ele>717.51263427734</ele>
        <time>2011-01-16T10:00:41Z</time>
      </trkpt>
      <trkpt lat="45.29966" lon="5.42166">
        <ele>717.73950195312</ele>
        <time>2011-01-16T10:00:49Z</time>
      </trkpt>
      <trkpt lat="45.29967" lon="5.42177">
        <ele>718.04217529297</ele>
        <time>2011-01-16T10:00:55Z</time>
      </trkpt>
      <trkpt lat="45.29971" lon="5.42193">
        <ele>718.83489990234</ele>
        <time>2011-01-16T10:01:05Z</time>
      </trkpt>
      <trkpt lat="45.29974" lon="5.4221">
        <ele>720.35290527344</ele>
        <time>2011-01-16T10:01:15Z</time>
      </trkpt>
      <trkpt lat="45.29978" lon="5.42224">
        <ele>722.310546875</ele>
        <time>2011-01-16T10:01:23Z</time>
      </trkpt>
      <trkpt lat="45.29981" lon="5.4223">
        <ele>723.99975585938</ele>
        <time>2011-01-16T10:01:27Z</time>
      </trkpt>
      <trkpt lat="45.29982" lon="5.42243">
        <ele>725.22540283203</ele>
        <time>2011-01-16T10:01:35Z</time>
      </trkpt>
      <trkpt lat="45.29983" lon="5.42262">
        <ele>727.78491210938</ele>
        <time>2011-01-16T10:01:45Z</time>
      </trkpt>
      <trkpt lat="45.29983" lon="5.42272">
        <ele>729.17053222656</ele>
        <time>2011-01-16T10:01:52Z</time>
      </trkpt>
      <trkpt lat="45.29982" lon="5.42273">
        <ele>729.30609130859</ele>
        <time>2011-01-16T10:01:53Z</time>
      </trkpt>
      <trkpt lat="45.29988" lon="5.42285">
        <ele>732.93402099609</ele>
        <time>2011-01-16T10:02:00Z</time>
      </trkpt>
      <trkpt lat="45.30001" lon="5.42294">
        <ele>736.76403808594</ele>
        <time>2011-01-16T10:02:07Z</time>
      </trkpt>
      <trkpt lat="45.30014" lon="5.42305">
        <ele>738.3896484375</ele>
        <time>2011-01-16T10:02:14Z</time>
      </trkpt>
      <trkpt lat="45.30021" lon="5.42317">
        <ele>739.26013183594</ele>
        <time>2011-01-16T10:02:19Z</time>
      </trkpt>
      <trkpt lat="45.30028" lon="5.42334">
        <ele>740</ele>
        <time>2011-01-16T10:02:25Z</time>
      </trkpt>
      <trkpt lat="45.30034" lon="5.42351">
        <ele>740.13665771484</ele>
        <time>2011-01-16T10:02:31Z</time>
      </trkpt>
      <trkpt lat="45.30043" lon="5.42372">
        <ele>740.56280517578</ele>
        <time>2011-01-16T10:02:39Z</time>
      </trkpt>
      <trkpt lat="45.30049" lon="5.42393">
        <ele>740.87115478516</ele>
        <time>2011-01-16T10:02:46Z</time>
      </trkpt>
      <trkpt lat="45.30051" lon="5.42411">
        <ele>741.53582763672</ele>
        <time>2011-01-16T10:02:52Z</time>
      </trkpt>
      <trkpt lat="45.30056" lon="5.42425">
        <ele>742.34045410156</ele>
        <time>2011-01-16T10:02:57Z</time>
      </trkpt>
      <trkpt lat="45.30067" lon="5.42444">
        <ele>743.38073730469</ele>
        <time>2011-01-16T10:03:04Z</time>
      </trkpt>
      <trkpt lat="45.3008" lon="5.42458">
        <ele>744.34545898438</ele>
        <time>2011-01-16T10:03:11Z</time>
      </trkpt>
      <trkpt lat="45.30094" lon="5.4247">
        <ele>745.61566162109</ele>
        <time>2011-01-16T10:03:18Z</time>
      </trkpt>
      <trkpt lat="45.30106" lon="5.42481">
        <ele>747.31988525391</ele>
        <time>2011-01-16T10:03:24Z</time>
      </trkpt>
      <trkpt lat="45.30122" lon="5.42494">
        <ele>748.10925292969</ele>
        <time>2011-01-16T10:03:31Z</time>
      </trkpt>
      <trkpt lat="45.30136" lon="5.42506">
        <ele>748.69854736328</ele>
        <time>2011-01-16T10:03:38Z</time>
      </trkpt>
      <trkpt lat="45.30148" lon="5.42513">
        <ele>748.734375</ele>
        <time>2011-01-16T10:03:43Z</time>
      </trkpt>
      <trkpt lat="45.30164" lon="5.42525">
        <ele>748.87170410156</ele>
        <time>2011-01-16T10:03:50Z</time>
      </trkpt>
      <trkpt lat="45.30178" lon="5.42536">
        <ele>748.62036132812</ele>
        <time>2011-01-16T10:03:57Z</time>
      </trkpt>
      <trkpt lat="45.3019" lon="5.42547">
        <ele>748.50366210938</ele>
        <time>2011-01-16T10:04:03Z</time>
      </trkpt>
      <trkpt lat="45.30201" lon="5.42556">
        <ele>747.94927978516</ele>
        <time>2011-01-16T10:04:09Z</time>
      </trkpt>
      <trkpt lat="45.30206" lon="5.42562">
        <ele>747.552734375</ele>
        <time>2011-01-16T10:04:18Z</time>
      </trkpt>
      <trkpt lat="45.30208" lon="5.42563">
        <ele>747.40173339844</ele>
        <time>2011-01-16T10:04:26Z</time>
      </trkpt>
      <trkpt lat="45.3021" lon="5.42569">
        <ele>747.53387451172</ele>
        <time>2011-01-16T10:04:32Z</time>
      </trkpt>
      <trkpt lat="45.30212" lon="5.42577">
        <ele>748.09692382812</ele>
        <time>2011-01-16T10:04:40Z</time>
      </trkpt>
      <trkpt lat="45.30212" lon="5.42583">
        <ele>748.85223388672</ele>
        <time>2011-01-16T10:04:45Z</time>
      </trkpt>
      <trkpt lat="45.30209" lon="5.42593">
        <ele>750.78479003906</ele>
        <time>2011-01-16T10:04:53Z</time>
      </trkpt>
      <trkpt lat="45.30208" lon="5.42596">
        <ele>751.41650390625</ele>
        <time>2011-01-16T10:04:55Z</time>
      </trkpt>
      <trkpt lat="45.30202" lon="5.42615">
        <ele>754.8720703125</ele>
        <time>2011-01-16T10:05:06Z</time>
      </trkpt>
      <trkpt lat="45.30198" lon="5.42626">
        <ele>756.56604003906</ele>
        <time>2011-01-16T10:05:12Z</time>
      </trkpt>
      <trkpt lat="45.30194" lon="5.42639">
        <ele>758.08190917969</ele>
        <time>2011-01-16T10:05:17Z</time>
      </trkpt>
      <trkpt lat="45.30189" lon="5.42652">
        <ele>759.17016601562</ele>
        <time>2011-01-16T10:05:22Z</time>
      </trkpt>
      <trkpt lat="45.3018" lon="5.4267">
        <ele>760</ele>
        <time>2011-01-16T10:05:28Z</time>
      </trkpt>
      <trkpt lat="45.30169" lon="5.42687">
        <ele>760</ele>
        <time>2011-01-16T10:05:34Z</time>
      </trkpt>
      <trkpt lat="45.30161" lon="5.42702">
        <ele>760</ele>
        <time>2011-01-16T10:05:39Z</time>
      </trkpt>
      <trkpt lat="45.30155" lon="5.42713">
        <ele>760</ele>
        <time>2011-01-16T10:05:43Z</time>
      </trkpt>
      <trkpt lat="45.30148" lon="5.42729">
        <ele>759.83776855469</ele>
        <time>2011-01-16T10:05:48Z</time>
      </trkpt>
      <trkpt lat="45.30144" lon="5.42748">
        <ele>759.236328125</ele>
        <time>2011-01-16T10:05:53Z</time>
      </trkpt>
      <trkpt lat="45.30136" lon="5.42764">
        <ele>757.88677978516</ele>
        <time>2011-01-16T10:05:58Z</time>
      </trkpt>
      <trkpt lat="45.30125" lon="5.42782">
        <ele>756.78155517578</ele>
        <time>2011-01-16T10:06:04Z</time>
      </trkpt>
      <trkpt lat="45.30118" lon="5.42795">
        <ele>756.21203613281</ele>
        <time>2011-01-16T10:06:09Z</time>
      </trkpt>
      <trkpt lat="45.30114" lon="5.4281">
        <ele>755.87878417969</ele>
        <time>2011-01-16T10:06:14Z</time>
      </trkpt>
      <trkpt lat="45.30107" lon="5.42827">
        <ele>755.17132568359</ele>
        <time>2011-01-16T10:06:19Z</time>
      </trkpt>
      <trkpt lat="45.30102" lon="5.4284">
        <ele>754.06604003906</ele>
        <time>2011-01-16T10:06:24Z</time>
      </trkpt>
      <trkpt lat="45.30095" lon="5.42862">
        <ele>752.5693359375</ele>
        <time>2011-01-16T10:06:30Z</time>
      </trkpt>
      <trkpt lat="45.30089" lon="5.42878">
        <ele>751.05993652344</ele>
        <time>2011-01-16T10:06:35Z</time>
      </trkpt>
      <trkpt lat="45.30083" lon="5.4289">
        <ele>749.97259521484</ele>
        <time>2011-01-16T10:06:39Z</time>
      </trkpt>
      <trkpt lat="45.30075" lon="5.42896">
        <ele>749.07958984375</ele>
        <time>2011-01-16T10:06:44Z</time>
      </trkpt>
      <trkpt lat="45.30074" lon="5.42896">
        <ele>748.84948730469</ele>
        <time>2011-01-16T10:06:45Z</time>
      </trkpt>
      <trkpt lat="45.30058" lon="5.42904">
        <ele>746.81414794922</ele>
        <time>2011-01-16T10:06:52Z</time>
      </trkpt>
      <trkpt lat="45.30047" lon="5.42915">
        <ele>744.55322265625</ele>
        <time>2011-01-16T10:06:57Z</time>
      </trkpt>
      <trkpt lat="45.30041" lon="5.42928">
        <ele>743.40203857422</ele>
        <time>2011-01-16T10:07:02Z</time>
      </trkpt>
      <trkpt lat="45.30035" lon="5.42944">
        <ele>742.23474121094</ele>
        <time>2011-01-16T10:07:07Z</time>
      </trkpt>
      <trkpt lat="45.30027" lon="5.42958">
        <ele>740.76385498047</ele>
        <time>2011-01-16T10:07:12Z</time>
      </trkpt>
      <trkpt lat="45.30014" lon="5.42976">
        <ele>737.26867675781</ele>
        <time>2011-01-16T10:07:18Z</time>
      </trkpt>
      <trkpt lat="45.30003" lon="5.42982">
        <ele>734.39508056641</ele>
        <time>2011-01-16T10:07:23Z</time>
      </trkpt>
      <trkpt lat="45.29987" lon="5.42979">
        <ele>727.33099365234</ele>
        <time>2011-01-16T10:07:29Z</time>
      </trkpt>
      <trkpt lat="45.2998" lon="5.42978">
        <ele>723.78894042969</ele>
        <time>2011-01-16T10:07:32Z</time>
      </trkpt>
      <trkpt lat="45.29969" lon="5.42985">
        <ele>718.71807861328</ele>
        <time>2011-01-16T10:07:37Z</time>
      </trkpt>
      <trkpt lat="45.29959" lon="5.43005">
        <ele>714.97576904297</ele>
        <time>2011-01-16T10:07:44Z</time>
      </trkpt>
      <trkpt lat="45.29951" lon="5.43015">
        <ele>712.57629394531</ele>
        <time>2011-01-16T10:07:48Z</time>
      </trkpt>
      <trkpt lat="45.29942" lon="5.43023">
        <ele>709.51287841797</ele>
        <time>2011-01-16T10:07:52Z</time>
      </trkpt>
      <trkpt lat="45.2993" lon="5.4303">
        <ele>704.51586914062</ele>
        <time>2011-01-16T10:07:57Z</time>
      </trkpt>
      <trkpt lat="45.29922" lon="5.4304">
        <ele>701.49859619141</ele>
        <time>2011-01-16T10:08:02Z</time>
      </trkpt>
      <trkpt lat="45.29913" lon="5.43049">
        <ele>699.109375</ele>
        <time>2011-01-16T10:08:07Z</time>
      </trkpt>
      <trkpt lat="45.299" lon="5.43054">
        <ele>698.10345458984</ele>
        <time>2011-01-16T10:08:13Z</time>
      </trkpt>
      <trkpt lat="45.29897" lon="5.43056">
        <ele>697.92279052734</ele>
        <time>2011-01-16T10:08:14Z</time>
      </trkpt>
      <trkpt lat="45.29891" lon="5.43058">
        <ele>697.30010986328</ele>
        <time>2011-01-16T10:08:17Z</time>
      </trkpt>
      <trkpt lat="45.29875" lon="5.43062">
        <ele>695.82928466797</ele>
        <time>2011-01-16T10:08:23Z</time>
      </trkpt>
      <trkpt lat="45.29863" lon="5.43065">
        <ele>694.83709716797</ele>
        <time>2011-01-16T10:08:28Z</time>
      </trkpt>
      <trkpt lat="45.29846" lon="5.43068">
        <ele>692.71862792969</ele>
        <time>2011-01-16T10:08:34Z</time>
      </trkpt>
      <trkpt lat="45.29827" lon="5.43074">
        <ele>690.80816650391</ele>
        <time>2011-01-16T10:08:40Z</time>
      </trkpt>
      <trkpt lat="45.29816" lon="5.43076">
        <ele>690.02239990234</ele>
        <time>2011-01-16T10:08:44Z</time>
      </trkpt>
      <trkpt lat="45.29805" lon="5.4308">
        <ele>689.45727539062</ele>
        <time>2011-01-16T10:08:49Z</time>
      </trkpt>
      <trkpt lat="45.29793" lon="5.43083">
        <ele>688.13372802734</ele>
        <time>2011-01-16T10:08:54Z</time>
      </trkpt>
      <trkpt lat="45.29791" lon="5.43084">
        <ele>688.08569335938</ele>
        <time>2011-01-16T10:08:55Z</time>
      </trkpt>
      <trkpt lat="45.29776" lon="5.43087">
        <ele>686.39239501953</ele>
        <time>2011-01-16T10:09:02Z</time>
      </trkpt>
      <trkpt lat="45.29763" lon="5.4309">
        <ele>685.81475830078</ele>
        <time>2011-01-16T10:09:07Z</time>
      </trkpt>
      <trkpt lat="45.2975" lon="5.43098">
        <ele>685.58508300781</ele>
        <time>2011-01-16T10:09:13Z</time>
      </trkpt>
      <trkpt lat="45.29749" lon="5.431">
        <ele>685.54309082031</ele>
        <time>2011-01-16T10:09:14Z</time>
      </trkpt>
      <trkpt lat="45.29738" lon="5.43116">
        <ele>684.7900390625</ele>
        <time>2011-01-16T10:09:19Z</time>
      </trkpt>
      <trkpt lat="45.2973" lon="5.43124">
        <ele>683.59185791016</ele>
        <time>2011-01-16T10:09:23Z</time>
      </trkpt>
      <trkpt lat="45.29725" lon="5.43138">
        <ele>683.54040527344</ele>
        <time>2011-01-16T10:09:28Z</time>
      </trkpt>
      <trkpt lat="45.29723" lon="5.4316">
        <ele>684.69384765625</ele>
        <time>2011-01-16T10:09:34Z</time>
      </trkpt>
      <trkpt lat="45.29722" lon="5.43179">
        <ele>685.90209960938</ele>
        <time>2011-01-16T10:09:39Z</time>
      </trkpt>
      <trkpt lat="45.29723" lon="5.43197">
        <ele>687.09509277344</ele>
        <time>2011-01-16T10:09:44Z</time>
      </trkpt>
      <trkpt lat="45.29725" lon="5.43212">
        <ele>687.83477783203</ele>
        <time>2011-01-16T10:09:48Z</time>
      </trkpt>
      <trkpt lat="45.29731" lon="5.43228">
        <ele>689.41455078125</ele>
        <time>2011-01-16T10:09:53Z</time>
      </trkpt>
      <trkpt lat="45.29738" lon="5.43258">
        <ele>691.1416015625</ele>
        <time>2011-01-16T10:10:00Z</time>
      </trkpt>
      <trkpt lat="45.29739" lon="5.43262">
        <ele>691.12731933594</ele>
        <time>2011-01-16T10:10:01Z</time>
      </trkpt>
      <trkpt lat="45.29745" lon="5.43278">
        <ele>691.72717285156</ele>
        <time>2011-01-16T10:10:06Z</time>
      </trkpt>
      <trkpt lat="45.2975" lon="5.43299">
        <ele>691.61682128906</ele>
        <time>2011-01-16T10:10:12Z</time>
      </trkpt>
      <trkpt lat="45.29751" lon="5.43302">
        <ele>691.53448486328</ele>
        <time>2011-01-16T10:10:13Z</time>
      </trkpt>
      <trkpt lat="45.29753" lon="5.43317">
        <ele>691.36651611328</ele>
        <time>2011-01-16T10:10:17Z</time>
      </trkpt>
      <trkpt lat="45.29753" lon="5.4332">
        <ele>691.12347412109</ele>
        <time>2011-01-16T10:10:18Z</time>
      </trkpt>
      <trkpt lat="45.29759" lon="5.43338">
        <ele>692.39440917969</ele>
        <time>2011-01-16T10:10:23Z</time>
      </trkpt>
      <trkpt lat="45.29766" lon="5.43353">
        <ele>694.18298339844</ele>
        <time>2011-01-16T10:10:28Z</time>
      </trkpt>
      <trkpt lat="45.29771" lon="5.43371">
        <ele>694.80706787109</ele>
        <time>2011-01-16T10:10:33Z</time>
      </trkpt>
      <trkpt lat="45.29774" lon="5.43388">
        <ele>693.88641357422</ele>
        <time>2011-01-16T10:10:38Z</time>
      </trkpt>
      <trkpt lat="45.29778" lon="5.43407">
        <ele>691.5830078125</ele>
        <time>2011-01-16T10:10:43Z</time>
      </trkpt>
      <trkpt lat="45.29782" lon="5.43424">
        <ele>690.86108398438</ele>
        <time>2011-01-16T10:10:48Z</time>
      </trkpt>
      <trkpt lat="45.29784" lon="5.43437">
        <ele>690.40789794922</ele>
        <time>2011-01-16T10:10:53Z</time>
      </trkpt>
      <trkpt lat="45.29784" lon="5.43439">
        <ele>690.53839111328</ele>
        <time>2011-01-16T10:10:54Z</time>
      </trkpt>
      <trkpt lat="45.2979" lon="5.43444">
        <ele>691.92199707031</ele>
        <time>2011-01-16T10:10:59Z</time>
      </trkpt>
      <trkpt lat="45.29795" lon="5.4345">
        <ele>693.73217773438</ele>
        <time>2011-01-16T10:11:04Z</time>
      </trkpt>
      <trkpt lat="45.29801" lon="5.43456">
        <ele>695.77154541016</ele>
        <time>2011-01-16T10:11:08Z</time>
      </trkpt>
      <trkpt lat="45.29807" lon="5.43461">
        <ele>697.08312988281</ele>
        <time>2011-01-16T10:11:12Z</time>
      </trkpt>
      <trkpt lat="45.29818" lon="5.43474">
        <ele>697.96099853516</ele>
        <time>2011-01-16T10:11:19Z</time>
      </trkpt>
      <trkpt lat="45.29827" lon="5.43487">
        <ele>699.05615234375</ele>
        <time>2011-01-16T10:11:25Z</time>
      </trkpt>
      <trkpt lat="45.29837" lon="5.43501">
        <ele>700</ele>
        <time>2011-01-16T10:11:32Z</time>
      </trkpt>
      <trkpt lat="45.29845" lon="5.43512">
        <ele>700</ele>
        <time>2011-01-16T10:11:37Z</time>
      </trkpt>
      <trkpt lat="45.29855" lon="5.43528">
        <ele>700</ele>
        <time>2011-01-16T10:11:44Z</time>
      </trkpt>
      <trkpt lat="45.29861" lon="5.43537">
        <ele>700</ele>
        <time>2011-01-16T10:11:49Z</time>
      </trkpt>
      <trkpt lat="45.29868" lon="5.43548">
        <ele>700.41198730469</ele>
        <time>2011-01-16T10:11:55Z</time>
      </trkpt>
      <trkpt lat="45.2987" lon="5.4355">
        <ele>700.39562988281</ele>
        <time>2011-01-16T10:11:56Z</time>
      </trkpt>
      <trkpt lat="45.29878" lon="5.43563">
        <ele>700.32550048828</ele>
        <time>2011-01-16T10:12:03Z</time>
      </trkpt>
      <trkpt lat="45.29882" lon="5.43569">
        <ele>700.74737548828</ele>
        <time>2011-01-16T10:12:06Z</time>
      </trkpt>
      <trkpt lat="45.29884" lon="5.43592">
        <ele>702.44512939453</ele>
        <time>2011-01-16T10:12:13Z</time>
      </trkpt>
      <trkpt lat="45.29887" lon="5.43602">
        <ele>703.70373535156</ele>
        <time>2011-01-16T10:12:16Z</time>
      </trkpt>
      <trkpt lat="45.2989" lon="5.43623">
        <ele>706.16296386719</ele>
        <time>2011-01-16T10:12:23Z</time>
      </trkpt>
      <trkpt lat="45.29892" lon="5.43632">
        <ele>707.16827392578</ele>
        <time>2011-01-16T10:12:26Z</time>
      </trkpt>
      <trkpt lat="45.29895" lon="5.43654">
        <ele>709.68267822266</ele>
        <time>2011-01-16T10:12:34Z</time>
      </trkpt>
      <trkpt lat="45.29898" lon="5.43665">
        <ele>711.18859863281</ele>
        <time>2011-01-16T10:12:38Z</time>
      </trkpt>
      <trkpt lat="45.299" lon="5.43667">
        <ele>711.61511230469</ele>
        <time>2011-01-16T10:12:39Z</time>
      </trkpt>
      <trkpt lat="45.29903" lon="5.43683">
        <ele>712.89276123047</ele>
        <time>2011-01-16T10:12:44Z</time>
      </trkpt>
      <trkpt lat="45.29904" lon="5.43692">
        <ele>713.50439453125</ele>
        <time>2011-01-16T10:12:48Z</time>
      </trkpt>
      <trkpt lat="45.29908" lon="5.43708">
        <ele>715.15478515625</ele>
        <time>2011-01-16T10:12:54Z</time>
      </trkpt>
      <trkpt lat="45.29913" lon="5.43717">
        <ele>716.27551269531</ele>
        <time>2011-01-16T10:12:58Z</time>
      </trkpt>
      <trkpt lat="45.29914" lon="5.43727">
        <ele>717.16522216797</ele>
        <time>2011-01-16T10:13:02Z</time>
      </trkpt>
      <trkpt lat="45.29918" lon="5.43744">
        <ele>718.69116210938</ele>
        <time>2011-01-16T10:13:08Z</time>
      </trkpt>
      <trkpt lat="45.29918" lon="5.43758">
        <ele>719.44647216797</ele>
        <time>2011-01-16T10:13:12Z</time>
      </trkpt>
      <trkpt lat="45.29923" lon="5.43771">
        <ele>720.42321777344</ele>
        <time>2011-01-16T10:13:18Z</time>
      </trkpt>
      <trkpt lat="45.29926" lon="5.43783">
        <ele>721.32006835938</ele>
        <time>2011-01-16T10:13:22Z</time>
      </trkpt>
      <trkpt lat="45.2993" lon="5.438">
        <ele>723.0263671875</ele>
        <time>2011-01-16T10:13:28Z</time>
      </trkpt>
      <trkpt lat="45.29933" lon="5.43804">
        <ele>723.64093017578</ele>
        <time>2011-01-16T10:13:30Z</time>
      </trkpt>
      <trkpt lat="45.29935" lon="5.4382">
        <ele>724.55432128906</ele>
        <time>2011-01-16T10:13:36Z</time>
      </trkpt>
      <trkpt lat="45.2994" lon="5.43834">
        <ele>725.52142333984</ele>
        <time>2011-01-16T10:13:42Z</time>
      </trkpt>
      <trkpt lat="45.29942" lon="5.43846">
        <ele>726.67840576172</ele>
        <time>2011-01-16T10:13:47Z</time>
      </trkpt>
      <trkpt lat="45.29943" lon="5.43858">
        <ele>727.69805908203</ele>
        <time>2011-01-16T10:13:52Z</time>
      </trkpt>
      <trkpt lat="45.29943" lon="5.43872">
        <ele>728.59954833984</ele>
        <time>2011-01-16T10:13:57Z</time>
      </trkpt>
      <trkpt lat="45.29943" lon="5.43881">
        <ele>729.23913574219</ele>
        <time>2011-01-16T10:14:00Z</time>
      </trkpt>
      <trkpt lat="45.29943" lon="5.43888">
        <ele>729.81964111328</ele>
        <time>2011-01-16T10:14:03Z</time>
      </trkpt>
      <trkpt lat="45.29945" lon="5.43904">
        <ele>731.17590332031</ele>
        <time>2011-01-16T10:14:09Z</time>
      </trkpt>
      <trkpt lat="45.29945" lon="5.43916">
        <ele>731.99987792969</ele>
        <time>2011-01-16T10:14:13Z</time>
      </trkpt>
      <trkpt lat="45.29944" lon="5.43926">
        <ele>732.32043457031</ele>
        <time>2011-01-16T10:14:18Z</time>
      </trkpt>
      <trkpt lat="45.29944" lon="5.43931">
        <ele>732.43377685547</ele>
        <time>2011-01-16T10:14:20Z</time>
      </trkpt>
      <trkpt lat="45.29942" lon="5.43945">
        <ele>732.65179443359</ele>
        <time>2011-01-16T10:14:25Z</time>
      </trkpt>
      <trkpt lat="45.29937" lon="5.43967">
        <ele>732.73931884766</ele>
        <time>2011-01-16T10:14:31Z</time>
      </trkpt>
      <trkpt lat="45.29937" lon="5.43969">
        <ele>732.77191162109</ele>
        <time>2011-01-16T10:14:32Z</time>
      </trkpt>
      <trkpt lat="45.29936" lon="5.4398">
        <ele>732.4658203125</ele>
        <time>2011-01-16T10:14:37Z</time>
      </trkpt>
      <trkpt lat="45.29936" lon="5.4399">
        <ele>732.13452148438</ele>
        <time>2011-01-16T10:14:41Z</time>
      </trkpt>
      <trkpt lat="45.29936" lon="5.44007">
        <ele>731.59332275391</ele>
        <time>2011-01-16T10:14:47Z</time>
      </trkpt>
      <trkpt lat="45.29942" lon="5.44025">
        <ele>731.81610107422</ele>
        <time>2011-01-16T10:14:54Z</time>
      </trkpt>
      <trkpt lat="45.29944" lon="5.44036">
        <ele>731.66516113281</ele>
        <time>2011-01-16T10:14:59Z</time>
      </trkpt>
      <trkpt lat="45.29944" lon="5.44041">
        <ele>731.48937988281</ele>
        <time>2011-01-16T10:15:01Z</time>
      </trkpt>
      <trkpt lat="45.29945" lon="5.44052">
        <ele>731.27105712891</ele>
        <time>2011-01-16T10:15:09Z</time>
      </trkpt>
      <trkpt lat="45.29945" lon="5.44054">
        <ele>731.18176269531</ele>
        <time>2011-01-16T10:15:11Z</time>
      </trkpt>
      <trkpt lat="45.29946" lon="5.44056">
        <ele>731.20184326172</ele>
        <time>2011-01-16T10:15:19Z</time>
      </trkpt>
      <trkpt lat="45.29945" lon="5.44056">
        <ele>731.14544677734</ele>
        <time>2011-01-16T10:15:29Z</time>
      </trkpt>
      <trkpt lat="45.29945" lon="5.44054">
        <ele>731.17492675781</ele>
        <time>2011-01-16T10:15:41Z</time>
      </trkpt>
      <trkpt lat="45.29945" lon="5.44055">
        <ele>731.15777587891</ele>
        <time>2011-01-16T10:15:51Z</time>
      </trkpt>
      <trkpt lat="45.29944" lon="5.44054">
        <ele>731.04583740234</ele>
        <time>2011-01-16T10:16:08Z</time>
      </trkpt>
      <trkpt lat="45.29945" lon="5.44061">
        <ele>731.27581787109</ele>
        <time>2011-01-16T10:16:22Z</time>
      </trkpt>
      <trkpt lat="45.29942" lon="5.44069">
        <ele>731.44659423828</ele>
        <time>2011-01-16T10:16:28Z</time>
      </trkpt>
      <trkpt lat="45.29942" lon="5.44075">
        <ele>731.69049072266</ele>
        <time>2011-01-16T10:16:33Z</time>
      </trkpt>
      <trkpt lat="45.29943" lon="5.44079">
        <ele>731.84039306641</ele>
        <time>2011-01-16T10:16:36Z</time>
      </trkpt>
      <trkpt lat="45.29945" lon="5.44093">
        <ele>732.37652587891</ele>
        <time>2011-01-16T10:16:44Z</time>
      </trkpt>
      <trkpt lat="45.29945" lon="5.441">
        <ele>732.66656494141</ele>
        <time>2011-01-16T10:16:52Z</time>
      </trkpt>
      <trkpt lat="45.29944" lon="5.44111">
        <ele>733.03033447266</ele>
        <time>2011-01-16T10:16:58Z</time>
      </trkpt>
      <trkpt lat="45.29943" lon="5.44117">
        <ele>733.32830810547</ele>
        <time>2011-01-16T10:17:02Z</time>
      </trkpt>
      <trkpt lat="45.29945" lon="5.44126">
        <ele>733.55474853516</ele>
        <time>2011-01-16T10:17:08Z</time>
      </trkpt>
      <trkpt lat="45.29943" lon="5.44135">
        <ele>733.96423339844</ele>
        <time>2011-01-16T10:17:13Z</time>
      </trkpt>
      <trkpt lat="45.29942" lon="5.44148">
        <ele>734.65826416016</ele>
        <time>2011-01-16T10:17:21Z</time>
      </trkpt>
      <trkpt lat="45.29942" lon="5.44152">
        <ele>734.86193847656</ele>
        <time>2011-01-16T10:17:24Z</time>
      </trkpt>
      <trkpt lat="45.29944" lon="5.44159">
        <ele>734.7666015625</ele>
        <time>2011-01-16T10:17:32Z</time>
      </trkpt>
      <trkpt lat="45.29947" lon="5.4416">
        <ele>734.69799804688</ele>
        <time>2011-01-16T10:17:38Z</time>
      </trkpt>
      <trkpt lat="45.2995" lon="5.44159">
        <ele>734.58355712891</ele>
        <time>2011-01-16T10:17:42Z</time>
      </trkpt>
      <trkpt lat="45.29957" lon="5.44167">
        <ele>734.55511474609</ele>
        <time>2011-01-16T10:17:49Z</time>
      </trkpt>
      <trkpt lat="45.29958" lon="5.44168">
        <ele>734.51477050781</ele>
        <time>2011-01-16T10:17:50Z</time>
      </trkpt>
      <trkpt lat="45.29959" lon="5.4417">
        <ele>734.44934082031</ele>
        <time>2011-01-16T10:17:52Z</time>
      </trkpt>
      <trkpt lat="45.29965" lon="5.4417">
        <ele>734.20288085938</ele>
        <time>2011-01-16T10:17:56Z</time>
      </trkpt>
      <trkpt lat="45.29968" lon="5.4417">
        <ele>734.06799316406</ele>
        <time>2011-01-16T10:17:58Z</time>
      </trkpt>
      <trkpt lat="45.29971" lon="5.44171">
        <ele>733.90936279297</ele>
        <time>2011-01-16T10:18:00Z</time>
      </trkpt>
      <trkpt lat="45.29974" lon="5.44172">
        <ele>733.71887207031</ele>
        <time>2011-01-16T10:18:03Z</time>
      </trkpt>
      <trkpt lat="45.29982" lon="5.44173">
        <ele>733.02880859375</ele>
        <time>2011-01-16T10:18:09Z</time>
      </trkpt>
      <trkpt lat="45.29985" lon="5.44174">
        <ele>732.79534912109</ele>
        <time>2011-01-16T10:18:11Z</time>
      </trkpt>
      <trkpt lat="45.2999" lon="5.44177">
        <ele>732.36108398438</ele>
        <time>2011-01-16T10:18:15Z</time>
      </trkpt>
      <trkpt lat="45.29997" lon="5.44181">
        <ele>731.66754150391</ele>
        <time>2011-01-16T10:18:21Z</time>
      </trkpt>
      <trkpt lat="45.29998" lon="5.44182">
        <ele>731.57482910156</ele>
        <time>2011-01-16T10:18:22Z</time>
      </trkpt>
      <trkpt lat="45.30002" lon="5.4418">
        <ele>731.47082519531</ele>
        <time>2011-01-16T10:18:29Z</time>
      </trkpt>
      <trkpt lat="45.30005" lon="5.44181">
        <ele>731.30944824219</ele>
        <time>2011-01-16T10:18:34Z</time>
      </trkpt>
      <trkpt lat="45.30006" lon="5.44181">
        <ele>731.26995849609</ele>
        <time>2011-01-16T10:18:35Z</time>
      </trkpt>
      <trkpt lat="45.30012" lon="5.44181">
        <ele>731.06225585938</ele>
        <time>2011-01-16T10:18:41Z</time>
      </trkpt>
      <trkpt lat="45.30015" lon="5.44178">
        <ele>731.07086181641</ele>
        <time>2011-01-16T10:18:47Z</time>
      </trkpt>
      <trkpt lat="45.30019" lon="5.44174">
        <ele>731.05883789062</ele>
        <time>2011-01-16T10:18:52Z</time>
      </trkpt>
      <trkpt lat="45.30021" lon="5.44174">
        <ele>730.97473144531</ele>
        <time>2011-01-16T10:19:00Z</time>
      </trkpt>
      <trkpt lat="45.30025" lon="5.44174">
        <ele>730.81506347656</ele>
        <time>2011-01-16T10:19:05Z</time>
      </trkpt>
      <trkpt lat="45.30034" lon="5.44182">
        <ele>730.64636230469</ele>
        <time>2011-01-16T10:19:10Z</time>
      </trkpt>
      <trkpt lat="45.30041" lon="5.44193">
        <ele>730.11175537109</ele>
        <time>2011-01-16T10:19:15Z</time>
      </trkpt>
      <trkpt lat="45.3005" lon="5.4421">
        <ele>728.34521484375</ele>
        <time>2011-01-16T10:19:21Z</time>
      </trkpt>
      <trkpt lat="45.30054" lon="5.44224">
        <ele>726.81573486328</ele>
        <time>2011-01-16T10:19:25Z</time>
      </trkpt>
      <trkpt lat="45.30059" lon="5.44243">
        <ele>724.95208740234</ele>
        <time>2011-01-16T10:19:30Z</time>
      </trkpt>
      <trkpt lat="45.30059" lon="5.44263">
        <ele>723.17749023438</ele>
        <time>2011-01-16T10:19:35Z</time>
      </trkpt>
      <trkpt lat="45.30056" lon="5.44285">
        <ele>720.63256835938</ele>
        <time>2011-01-16T10:19:41Z</time>
      </trkpt>
      <trkpt lat="45.30054" lon="5.44301">
        <ele>717.796875</ele>
        <time>2011-01-16T10:19:45Z</time>
      </trkpt>
      <trkpt lat="45.3005" lon="5.44315">
        <ele>715.94860839844</ele>
        <time>2011-01-16T10:19:49Z</time>
      </trkpt>
      <trkpt lat="45.30044" lon="5.44333">
        <ele>714.05346679688</ele>
        <time>2011-01-16T10:19:55Z</time>
      </trkpt>
      <trkpt lat="45.30042" lon="5.44348">
        <ele>711.62731933594</ele>
        <time>2011-01-16T10:19:59Z</time>
      </trkpt>
      <trkpt lat="45.30042" lon="5.44363">
        <ele>709.20593261719</ele>
        <time>2011-01-16T10:20:03Z</time>
      </trkpt>
      <trkpt lat="45.30043" lon="5.44365">
        <ele>708.94232177734</ele>
        <time>2011-01-16T10:20:04Z</time>
      </trkpt>
      <trkpt lat="45.30044" lon="5.44371">
        <ele>708.20739746094</ele>
        <time>2011-01-16T10:20:08Z</time>
      </trkpt>
      <trkpt lat="45.30045" lon="5.44381">
        <ele>706.76727294922</ele>
        <time>2011-01-16T10:20:15Z</time>
      </trkpt>
      <trkpt lat="45.30045" lon="5.44384">
        <ele>706.40740966797</ele>
        <time>2011-01-16T10:20:20Z</time>
      </trkpt>
      <trkpt lat="45.30043" lon="5.44385">
        <ele>706.4541015625</ele>
        <time>2011-01-16T10:20:26Z</time>
      </trkpt>
      <trkpt lat="45.30038" lon="5.44392">
        <ele>705.68615722656</ele>
        <time>2011-01-16T10:20:33Z</time>
      </trkpt>
      <trkpt lat="45.3004" lon="5.44403">
        <ele>703.56787109375</ele>
        <time>2011-01-16T10:20:37Z</time>
      </trkpt>
      <trkpt lat="45.3004" lon="5.44406">
        <ele>702.98248291016</ele>
        <time>2011-01-16T10:20:38Z</time>
      </trkpt>
      <trkpt lat="45.30045" lon="5.44428">
        <ele>699.66119384766</ele>
        <time>2011-01-16T10:20:45Z</time>
      </trkpt>
      <trkpt lat="45.30042" lon="5.44442">
        <ele>698.29211425781</ele>
        <time>2011-01-16T10:20:49Z</time>
      </trkpt>
      <trkpt lat="45.30041" lon="5.44456">
        <ele>695.95220947266</ele>
        <time>2011-01-16T10:20:53Z</time>
      </trkpt>
      <trkpt lat="45.3004" lon="5.4446">
        <ele>695.13659667969</ele>
        <time>2011-01-16T10:20:54Z</time>
      </trkpt>
      <trkpt lat="45.30042" lon="5.44484">
        <ele>691.49371337891</ele>
        <time>2011-01-16T10:20:59Z</time>
      </trkpt>
      <trkpt lat="45.30042" lon="5.44506">
        <ele>688.55767822266</ele>
        <time>2011-01-16T10:21:03Z</time>
      </trkpt>
      <trkpt lat="45.30038" lon="5.4452">
        <ele>685.29699707031</ele>
        <time>2011-01-16T10:21:06Z</time>
      </trkpt>
      <trkpt lat="45.30038" lon="5.44535">
        <ele>682.75537109375</ele>
        <time>2011-01-16T10:21:09Z</time>
      </trkpt>
      <trkpt lat="45.30032" lon="5.44555">
        <ele>678.86889648438</ele>
        <time>2011-01-16T10:21:13Z</time>
      </trkpt>
      <trkpt lat="45.30026" lon="5.44575">
        <ele>676.65588378906</ele>
        <time>2011-01-16T10:21:17Z</time>
      </trkpt>
      <trkpt lat="45.30019" lon="5.44594">
        <ele>674.65106201172</ele>
        <time>2011-01-16T10:21:21Z</time>
      </trkpt>
      <trkpt lat="45.30014" lon="5.44611">
        <ele>671.98217773438</ele>
        <time>2011-01-16T10:21:25Z</time>
      </trkpt>
      <trkpt lat="45.30008" lon="5.44629">
        <ele>670.26989746094</ele>
        <time>2011-01-16T10:21:29Z</time>
      </trkpt>
      <trkpt lat="45.30007" lon="5.44651">
        <ele>667.16094970703</ele>
        <time>2011-01-16T10:21:33Z</time>
      </trkpt>
      <trkpt lat="45.30005" lon="5.44675">
        <ele>663.26739501953</ele>
        <time>2011-01-16T10:21:38Z</time>
      </trkpt>
      <trkpt lat="45.30001" lon="5.44694">
        <ele>660.23083496094</ele>
        <time>2011-01-16T10:21:42Z</time>
      </trkpt>
      <trkpt lat="45.29998" lon="5.44716">
        <ele>654.16809082031</ele>
        <time>2011-01-16T10:21:47Z</time>
      </trkpt>
      <trkpt lat="45.29997" lon="5.44732">
        <ele>650.47131347656</ele>
        <time>2011-01-16T10:21:52Z</time>
      </trkpt>
      <trkpt lat="45.29998" lon="5.44747">
        <ele>647.04150390625</ele>
        <time>2011-01-16T10:21:56Z</time>
      </trkpt>
      <trkpt lat="45.29998" lon="5.44761">
        <ele>643.18713378906</ele>
        <time>2011-01-16T10:22:00Z</time>
      </trkpt>
      <trkpt lat="45.29998" lon="5.44779">
        <ele>637.87982177734</ele>
        <time>2011-01-16T10:22:05Z</time>
      </trkpt>
      <trkpt lat="45.29998" lon="5.44798">
        <ele>631.65008544922</ele>
        <time>2011-01-16T10:22:10Z</time>
      </trkpt>
      <trkpt lat="45.3" lon="5.44813">
        <ele>627.46118164062</ele>
        <time>2011-01-16T10:22:14Z</time>
      </trkpt>
      <trkpt lat="45.29999" lon="5.44826">
        <ele>624.54998779297</ele>
        <time>2011-01-16T10:22:18Z</time>
      </trkpt>
      <trkpt lat="45.29999" lon="5.44829">
        <ele>623.89855957031</ele>
        <time>2011-01-16T10:22:19Z</time>
      </trkpt>
      <trkpt lat="45.3" lon="5.44843">
        <ele>619.66809082031</ele>
        <time>2011-01-16T10:22:24Z</time>
      </trkpt>
      <trkpt lat="45.29994" lon="5.44861">
        <ele>613.68347167969</ele>
        <time>2011-01-16T10:22:30Z</time>
      </trkpt>
      <trkpt lat="45.29985" lon="5.44878">
        <ele>609.07904052734</ele>
        <time>2011-01-16T10:22:36Z</time>
      </trkpt>
      <trkpt lat="45.29982" lon="5.44895">
        <ele>604.9697265625</ele>
        <time>2011-01-16T10:22:41Z</time>
      </trkpt>
      <trkpt lat="45.29982" lon="5.44899">
        <ele>604.10821533203</ele>
        <time>2011-01-16T10:22:42Z</time>
      </trkpt>
      <trkpt lat="45.29981" lon="5.4492">
        <ele>599.72802734375</ele>
        <time>2011-01-16T10:22:47Z</time>
      </trkpt>
      <trkpt lat="45.2998" lon="5.44937">
        <ele>598.54699707031</ele>
        <time>2011-01-16T10:22:51Z</time>
      </trkpt>
      <trkpt lat="45.29979" lon="5.44961">
        <ele>596.24035644531</ele>
        <time>2011-01-16T10:22:57Z</time>
      </trkpt>
      <trkpt lat="45.29977" lon="5.44984">
        <ele>594.16180419922</ele>
        <time>2011-01-16T10:23:03Z</time>
      </trkpt>
      <trkpt lat="45.29974" lon="5.45">
        <ele>592.98663330078</ele>
        <time>2011-01-16T10:23:08Z</time>
      </trkpt>
      <trkpt lat="45.29973" lon="5.45019">
        <ele>590.99365234375</ele>
        <time>2011-01-16T10:23:13Z</time>
      </trkpt>
      <trkpt lat="45.29974" lon="5.45035">
        <ele>589.44012451172</ele>
        <time>2011-01-16T10:23:17Z</time>
      </trkpt>
      <trkpt lat="45.29975" lon="5.45062">
        <ele>587.42669677734</ele>
        <time>2011-01-16T10:23:22Z</time>
      </trkpt>
      <trkpt lat="45.29975" lon="5.45089">
        <ele>585.24664306641</ele>
        <time>2011-01-16T10:23:27Z</time>
      </trkpt>
      <trkpt lat="45.29974" lon="5.45121">
        <ele>582.24157714844</ele>
        <time>2011-01-16T10:23:33Z</time>
      </trkpt>
      <trkpt lat="45.29973" lon="5.45141">
        <ele>580.75347900391</ele>
        <time>2011-01-16T10:23:37Z</time>
      </trkpt>
      <trkpt lat="45.29973" lon="5.45161">
        <ele>578.62145996094</ele>
        <time>2011-01-16T10:23:41Z</time>
      </trkpt>
      <trkpt lat="45.29971" lon="5.45186">
        <ele>576.12921142578</ele>
        <time>2011-01-16T10:23:46Z</time>
      </trkpt>
      <trkpt lat="45.2997" lon="5.45207">
        <ele>573.89630126953</ele>
        <time>2011-01-16T10:23:51Z</time>
      </trkpt>
      <trkpt lat="45.29969" lon="5.45231">
        <ele>571.23498535156</ele>
        <time>2011-01-16T10:23:56Z</time>
      </trkpt>
      <trkpt lat="45.29968" lon="5.45259">
        <ele>568.02368164062</ele>
        <time>2011-01-16T10:24:02Z</time>
      </trkpt>
      <trkpt lat="45.29964" lon="5.45276">
        <ele>565.82641601562</ele>
        <time>2011-01-16T10:24:07Z</time>
      </trkpt>
      <trkpt lat="45.29951" lon="5.45285">
        <ele>565.36602783203</ele>
        <time>2011-01-16T10:24:13Z</time>
      </trkpt>
      <trkpt lat="45.29938" lon="5.45295">
        <ele>564.50421142578</ele>
        <time>2011-01-16T10:24:20Z</time>
      </trkpt>
      <trkpt lat="45.29934" lon="5.453">
        <ele>563.84991455078</ele>
        <time>2011-01-16T10:24:26Z</time>
      </trkpt>
      <trkpt lat="45.29929" lon="5.45308">
        <ele>562.80078125</ele>
        <time>2011-01-16T10:24:33Z</time>
      </trkpt>
      <trkpt lat="45.29927" lon="5.45309">
        <ele>562.71154785156</ele>
        <time>2011-01-16T10:24:35Z</time>
      </trkpt>
      <trkpt lat="45.29925" lon="5.45311">
        <ele>562.54675292969</ele>
        <time>2011-01-16T10:24:44Z</time>
      </trkpt>
      <trkpt lat="45.29925" lon="5.4531">
        <ele>562.76647949219</ele>
        <time>2011-01-16T10:24:50Z</time>
      </trkpt>
      <trkpt lat="45.29925" lon="5.4531">
        <ele>562.72521972656</ele>
        <time>2011-01-16T10:24:55Z</time>
      </trkpt>
      <trkpt lat="45.29925" lon="5.4531">
        <ele>562.73901367188</ele>
        <time>2011-01-16T10:25:09Z</time>
      </trkpt>
      <trkpt lat="45.29925" lon="5.45309">
        <ele>562.83508300781</ele>
        <time>2011-01-16T10:25:17Z</time>
      </trkpt>
      <trkpt lat="45.29926" lon="5.4531">
        <ele>562.71838378906</ele>
        <time>2011-01-16T10:25:24Z</time>
      </trkpt>
      <trkpt lat="45.29926" lon="5.4531">
        <ele>562.78704833984</ele>
        <time>2011-01-16T10:25:33Z</time>
      </trkpt>
      <trkpt lat="45.29925" lon="5.45309">
        <ele>562.86944580078</ele>
        <time>2011-01-16T10:25:38Z</time>
      </trkpt>
      <trkpt lat="45.29926" lon="5.45308">
        <ele>563.06170654297</ele>
        <time>2011-01-16T10:25:51Z</time>
      </trkpt>
      <trkpt lat="45.29926" lon="5.45307">
        <ele>563.12353515625</ele>
        <time>2011-01-16T10:25:59Z</time>
      </trkpt>
      <trkpt lat="45.29926" lon="5.45306">
        <ele>563.19903564453</ele>
        <time>2011-01-16T10:26:12Z</time>
      </trkpt>
      <trkpt lat="45.29926" lon="5.45306">
        <ele>563.20593261719</ele>
        <time>2011-01-16T10:26:22Z</time>
      </trkpt>
      <trkpt lat="45.29924" lon="5.45307">
        <ele>563.20593261719</ele>
        <time>2011-01-16T10:26:27Z</time>
      </trkpt>
      <trkpt lat="45.29924" lon="5.4531">
        <ele>562.86254882812</ele>
        <time>2011-01-16T10:26:33Z</time>
      </trkpt>
      <trkpt lat="45.29925" lon="5.4531">
        <ele>562.72521972656</ele>
        <time>2011-01-16T10:26:38Z</time>
      </trkpt>
      <trkpt lat="45.29925" lon="5.45311">
        <ele>562.69775390625</ele>
        <time>2011-01-16T10:26:50Z</time>
      </trkpt>
      <trkpt lat="45.29926" lon="5.45312">
        <ele>562.40252685547</ele>
        <time>2011-01-16T10:27:10Z</time>
      </trkpt>
      <trkpt lat="45.29928" lon="5.45314">
        <ele>561.99743652344</ele>
        <time>2011-01-16T10:27:44Z</time>
      </trkpt>
      <trkpt lat="45.29927" lon="5.45314">
        <ele>561.96997070312</ele>
        <time>2011-01-16T10:28:03Z</time>
      </trkpt>
      <trkpt lat="45.29928" lon="5.45316">
        <ele>561.66094970703</ele>
        <time>2011-01-16T10:28:48Z</time>
      </trkpt>
      <trkpt lat="45.29926" lon="5.45314">
        <ele>562.09350585938</ele>
        <time>2011-01-16T10:29:23Z</time>
      </trkpt>
      <trkpt lat="45.29926" lon="5.45311">
        <ele>562.47119140625</ele>
        <time>2011-01-16T10:29:48Z</time>
      </trkpt>
      <trkpt lat="45.29926" lon="5.4531">
        <ele>562.73211669922</ele>
        <time>2011-01-16T10:29:56Z</time>
      </trkpt>
      <trkpt lat="45.29927" lon="5.45309">
        <ele>562.73901367188</ele>
        <time>2011-01-16T10:30:04Z</time>
      </trkpt>
      <trkpt lat="45.29927" lon="5.45307">
        <ele>563.0205078125</ele>
        <time>2011-01-16T10:30:15Z</time>
      </trkpt>
      <trkpt lat="45.29933" lon="5.45306">
        <ele>562.72521972656</ele>
        <time>2011-01-16T10:30:23Z</time>
      </trkpt>
      <trkpt lat="45.29939" lon="5.4531">
        <ele>561.81201171875</ele>
        <time>2011-01-16T10:30:29Z</time>
      </trkpt>
      <trkpt lat="45.2995" lon="5.45319">
        <ele>560.11010742188</ele>
        <time>2011-01-16T10:30:34Z</time>
      </trkpt>
      <trkpt lat="45.29953" lon="5.45321">
        <ele>559.97314453125</ele>
        <time>2011-01-16T10:30:42Z</time>
      </trkpt>
      <trkpt lat="45.29961" lon="5.45329">
        <ele>559.11010742188</ele>
        <time>2011-01-16T10:30:47Z</time>
      </trkpt>
      <trkpt lat="45.29966" lon="5.45329">
        <ele>559.28338623047</ele>
        <time>2011-01-16T10:30:49Z</time>
      </trkpt>
      <trkpt lat="45.29972" lon="5.45345">
        <ele>556.84851074219</ele>
        <time>2011-01-16T10:30:54Z</time>
      </trkpt>
      <trkpt lat="45.29984" lon="5.45356">
        <ele>555.20581054688</ele>
        <time>2011-01-16T10:30:59Z</time>
      </trkpt>
      <trkpt lat="45.29995" lon="5.45364">
        <ele>554.48803710938</ele>
        <time>2011-01-16T10:31:03Z</time>
      </trkpt>
      <trkpt lat="45.29997" lon="5.45365">
        <ele>554.48284912109</ele>
        <time>2011-01-16T10:31:04Z</time>
      </trkpt>
      <trkpt lat="45.30012" lon="5.45372">
        <ele>554.91174316406</ele>
        <time>2011-01-16T10:31:10Z</time>
      </trkpt>
      <trkpt lat="45.30015" lon="5.45373">
        <ele>555.02996826172</ele>
        <time>2011-01-16T10:31:11Z</time>
      </trkpt>
      <trkpt lat="45.30023" lon="5.45375">
        <ele>555.57446289062</ele>
        <time>2011-01-16T10:31:16Z</time>
      </trkpt>
      <trkpt lat="45.30029" lon="5.45373">
        <ele>556.61505126953</ele>
        <time>2011-01-16T10:31:22Z</time>
      </trkpt>
      <trkpt lat="45.30037" lon="5.45372">
        <ele>558.75396728516</ele>
        <time>2011-01-16T10:31:29Z</time>
      </trkpt>
      <trkpt lat="45.30045" lon="5.45372">
        <ele>561.05078125</ele>
        <time>2011-01-16T10:31:37Z</time>
      </trkpt>
      <trkpt lat="45.30054" lon="5.45368">
        <ele>564.18188476562</ele>
        <time>2011-01-16T10:31:47Z</time>
      </trkpt>
      <trkpt lat="45.30058" lon="5.45366">
        <ele>564.91101074219</ele>
        <time>2011-01-16T10:31:49Z</time>
      </trkpt>
      <trkpt lat="45.30065" lon="5.45364">
        <ele>566.19506835938</ele>
        <time>2011-01-16T10:31:55Z</time>
      </trkpt>
      <trkpt lat="45.30069" lon="5.45365">
        <ele>566.68597412109</ele>
        <time>2011-01-16T10:31:59Z</time>
      </trkpt>
      <trkpt lat="45.30077" lon="5.45363">
        <ele>567.92883300781</ele>
        <time>2011-01-16T10:32:08Z</time>
      </trkpt>
      <trkpt lat="45.30087" lon="5.45362">
        <ele>570.38037109375</ele>
        <time>2011-01-16T10:32:16Z</time>
      </trkpt>
      <trkpt lat="45.30096" lon="5.4536">
        <ele>574.23645019531</ele>
        <time>2011-01-16T10:32:24Z</time>
      </trkpt>
      <trkpt lat="45.30106" lon="5.45361">
        <ele>578.11871337891</ele>
        <time>2011-01-16T10:32:33Z</time>
      </trkpt>
      <trkpt lat="45.30114" lon="5.45362">
        <ele>582.34252929688</ele>
        <time>2011-01-16T10:32:41Z</time>
      </trkpt>
      <trkpt lat="45.30123" lon="5.45362">
        <ele>588.38500976562</ele>
        <time>2011-01-16T10:32:49Z</time>
      </trkpt>
      <trkpt lat="45.3013" lon="5.4536">
        <ele>593.66461181641</ele>
        <time>2011-01-16T10:32:56Z</time>
      </trkpt>
      <trkpt lat="45.30133" lon="5.4536">
        <ele>595.93688964844</ele>
        <time>2011-01-16T10:32:59Z</time>
      </trkpt>
      <trkpt lat="45.30141" lon="5.45359">
        <ele>600.82476806641</ele>
        <time>2011-01-16T10:33:08Z</time>
      </trkpt>
      <trkpt lat="45.30147" lon="5.45359">
        <ele>601.91839599609</ele>
        <time>2011-01-16T10:33:15Z</time>
      </trkpt>
      <trkpt lat="45.30154" lon="5.45358">
        <ele>603.5478515625</ele>
        <time>2011-01-16T10:33:23Z</time>
      </trkpt>
      <trkpt lat="45.3016" lon="5.45356">
        <ele>604.9189453125</ele>
        <time>2011-01-16T10:33:30Z</time>
      </trkpt>
      <trkpt lat="45.30163" lon="5.45354">
        <ele>605.69390869141</ele>
        <time>2011-01-16T10:33:36Z</time>
      </trkpt>
      <trkpt lat="45.30167" lon="5.45354">
        <ele>606.47375488281</ele>
        <time>2011-01-16T10:33:43Z</time>
      </trkpt>
      <trkpt lat="45.30171" lon="5.45348">
        <ele>609.70855712891</ele>
        <time>2011-01-16T10:33:51Z</time>
      </trkpt>
      <trkpt lat="45.30175" lon="5.45344">
        <ele>612.5546875</ele>
        <time>2011-01-16T10:33:59Z</time>
      </trkpt>
      <trkpt lat="45.3018" lon="5.45348">
        <ele>615.09875488281</ele>
        <time>2011-01-16T10:34:05Z</time>
      </trkpt>
      <trkpt lat="45.30183" lon="5.45351">
        <ele>616.96984863281</ele>
        <time>2011-01-16T10:34:12Z</time>
      </trkpt>
      <trkpt lat="45.30186" lon="5.45357">
        <ele>618.42211914062</ele>
        <time>2011-01-16T10:34:19Z</time>
      </trkpt>
      <trkpt lat="45.3019" lon="5.45364">
        <ele>620.26684570312</ele>
        <time>2011-01-16T10:34:25Z</time>
      </trkpt>
      <trkpt lat="45.30196" lon="5.45365">
        <ele>623.07507324219</ele>
        <time>2011-01-16T10:34:29Z</time>
      </trkpt>
      <trkpt lat="45.30196" lon="5.45367">
        <ele>623.03387451172</ele>
        <time>2011-01-16T10:34:33Z</time>
      </trkpt>
      <trkpt lat="45.30196" lon="5.45373">
        <ele>622.44677734375</ele>
        <time>2011-01-16T10:34:40Z</time>
      </trkpt>
      <trkpt lat="45.30199" lon="5.45384">
        <ele>622.76611328125</ele>
        <time>2011-01-16T10:34:48Z</time>
      </trkpt>
      <trkpt lat="45.30204" lon="5.45389">
        <ele>623.67248535156</ele>
        <time>2011-01-16T10:34:54Z</time>
      </trkpt>
      <trkpt lat="45.30206" lon="5.45399">
        <ele>623.40118408203</ele>
        <time>2011-01-16T10:35:03Z</time>
      </trkpt>
      <trkpt lat="45.3021" lon="5.45404">
        <ele>624.17993164062</ele>
        <time>2011-01-16T10:35:07Z</time>
      </trkpt>
      <trkpt lat="45.30211" lon="5.45407">
        <ele>624.1875</ele>
        <time>2011-01-16T10:35:09Z</time>
      </trkpt>
      <trkpt lat="45.30212" lon="5.45414">
        <ele>623.68927001953</ele>
        <time>2011-01-16T10:35:12Z</time>
      </trkpt>
      <trkpt lat="45.30219" lon="5.45426">
        <ele>624.51641845703</ele>
        <time>2011-01-16T10:35:21Z</time>
      </trkpt>
      <trkpt lat="45.30221" lon="5.45428">
        <ele>624.77587890625</ele>
        <time>2011-01-16T10:35:23Z</time>
      </trkpt>
      <trkpt lat="45.30223" lon="5.45433">
        <ele>625.17529296875</ele>
        <time>2011-01-16T10:35:27Z</time>
      </trkpt>
      <trkpt lat="45.30228" lon="5.45444">
        <ele>625.837890625</ele>
        <time>2011-01-16T10:35:35Z</time>
      </trkpt>
      <trkpt lat="45.30235" lon="5.45454">
        <ele>626.3623046875</ele>
        <time>2011-01-16T10:35:44Z</time>
      </trkpt>
      <trkpt lat="45.30239" lon="5.45462">
        <ele>626.61462402344</ele>
        <time>2011-01-16T10:35:52Z</time>
      </trkpt>
      <trkpt lat="45.30246" lon="5.45469">
        <ele>627.56323242188</ele>
        <time>2011-01-16T10:36:00Z</time>
      </trkpt>
      <trkpt lat="45.30248" lon="5.45471">
        <ele>627.79565429688</ele>
        <time>2011-01-16T10:36:02Z</time>
      </trkpt>
      <trkpt lat="45.3025" lon="5.45475">
        <ele>627.748046875</ele>
        <time>2011-01-16T10:36:06Z</time>
      </trkpt>
      <trkpt lat="45.30256" lon="5.45484">
        <ele>629.57708740234</ele>
        <time>2011-01-16T10:36:15Z</time>
      </trkpt>
      <trkpt lat="45.30259" lon="5.45489">
        <ele>630.60430908203</ele>
        <time>2011-01-16T10:36:21Z</time>
      </trkpt>
      <trkpt lat="45.30262" lon="5.45491">
        <ele>632.21118164062</ele>
        <time>2011-01-16T10:36:26Z</time>
      </trkpt>
      <trkpt lat="45.30264" lon="5.45493">
        <ele>632.71588134766</ele>
        <time>2011-01-16T10:36:28Z</time>
      </trkpt>
      <trkpt lat="45.30266" lon="5.45499">
        <ele>633.60552978516</ele>
        <time>2011-01-16T10:36:32Z</time>
      </trkpt>
      <trkpt lat="45.30274" lon="5.45504">
        <ele>636.99328613281</ele>
        <time>2011-01-16T10:36:39Z</time>
      </trkpt>
      <trkpt lat="45.30276" lon="5.45512">
        <ele>636.70007324219</ele>
        <time>2011-01-16T10:36:46Z</time>
      </trkpt>
      <trkpt lat="45.30282" lon="5.45527">
        <ele>635.17102050781</ele>
        <time>2011-01-16T10:36:52Z</time>
      </trkpt>
      <trkpt lat="45.30287" lon="5.45541">
        <ele>633.92529296875</ele>
        <time>2011-01-16T10:37:00Z</time>
      </trkpt>
      <trkpt lat="45.30293" lon="5.4555">
        <ele>634.38995361328</ele>
        <time>2011-01-16T10:37:07Z</time>
      </trkpt>
      <trkpt lat="45.30294" lon="5.45554">
        <ele>634.15832519531</ele>
        <time>2011-01-16T10:37:10Z</time>
      </trkpt>
      <trkpt lat="45.30296" lon="5.45561">
        <ele>633.90991210938</ele>
        <time>2011-01-16T10:37:14Z</time>
      </trkpt>
      <trkpt lat="45.30299" lon="5.45568">
        <ele>634.03344726562</ele>
        <time>2011-01-16T10:37:20Z</time>
      </trkpt>
      <trkpt lat="45.30305" lon="5.45577">
        <ele>634.74755859375</ele>
        <time>2011-01-16T10:37:27Z</time>
      </trkpt>
      <trkpt lat="45.30308" lon="5.45585">
        <ele>634.63507080078</ele>
        <time>2011-01-16T10:37:34Z</time>
      </trkpt>
      <trkpt lat="45.30315" lon="5.45593">
        <ele>635.99462890625</ele>
        <time>2011-01-16T10:37:40Z</time>
      </trkpt>
      <trkpt lat="45.30319" lon="5.45596">
        <ele>637.07604980469</ele>
        <time>2011-01-16T10:37:44Z</time>
      </trkpt>
      <trkpt lat="45.30323" lon="5.45598">
        <ele>638.27087402344</ele>
        <time>2011-01-16T10:37:48Z</time>
      </trkpt>
      <trkpt lat="45.3033" lon="5.45601">
        <ele>640.96936035156</ele>
        <time>2011-01-16T10:37:56Z</time>
      </trkpt>
      <trkpt lat="45.30336" lon="5.45606">
        <ele>642.74395751953</ele>
        <time>2011-01-16T10:38:03Z</time>
      </trkpt>
      <trkpt lat="45.30339" lon="5.45608">
        <ele>643.60571289062</ele>
        <time>2011-01-16T10:38:06Z</time>
      </trkpt>
      <trkpt lat="45.30343" lon="5.45611">
        <ele>644.98370361328</ele>
        <time>2011-01-16T10:38:11Z</time>
      </trkpt>
      <trkpt lat="45.30348" lon="5.45617">
        <ele>646.30462646484</ele>
        <time>2011-01-16T10:38:18Z</time>
      </trkpt>
      <trkpt lat="45.30352" lon="5.4562">
        <ele>647.84063720703</ele>
        <time>2011-01-16T10:38:22Z</time>
      </trkpt>
      <trkpt lat="45.30353" lon="5.45623">
        <ele>647.78826904297</ele>
        <time>2011-01-16T10:38:24Z</time>
      </trkpt>
      <trkpt lat="45.30357" lon="5.45629">
        <ele>648.73913574219</ele>
        <time>2011-01-16T10:38:32Z</time>
      </trkpt>
      <trkpt lat="45.30361" lon="5.45634">
        <ele>649.86090087891</ele>
        <time>2011-01-16T10:38:40Z</time>
      </trkpt>
      <trkpt lat="45.30365" lon="5.45638">
        <ele>650.46514892578</ele>
        <time>2011-01-16T10:38:46Z</time>
      </trkpt>
      <trkpt lat="45.30372" lon="5.45639">
        <ele>652.50085449219</ele>
        <time>2011-01-16T10:38:53Z</time>
      </trkpt>
      <trkpt lat="45.30378" lon="5.45642">
        <ele>653.71618652344</ele>
        <time>2011-01-16T10:39:00Z</time>
      </trkpt>
      <trkpt lat="45.30381" lon="5.45644">
        <ele>654.21057128906</ele>
        <time>2011-01-16T10:39:06Z</time>
      </trkpt>
      <trkpt lat="45.30389" lon="5.45649">
        <ele>655.86706542969</ele>
        <time>2011-01-16T10:39:15Z</time>
      </trkpt>
      <trkpt lat="45.30392" lon="5.4565">
        <ele>657.02319335938</ele>
        <time>2011-01-16T10:39:20Z</time>
      </trkpt>
      <trkpt lat="45.30397" lon="5.4565">
        <ele>659.23370361328</ele>
        <time>2011-01-16T10:39:26Z</time>
      </trkpt>
      <trkpt lat="45.30399" lon="5.45654">
        <ele>659.427734375</ele>
        <time>2011-01-16T10:39:31Z</time>
      </trkpt>
      <trkpt lat="45.30407" lon="5.45658">
        <ele>661.71057128906</ele>
        <time>2011-01-16T10:39:38Z</time>
      </trkpt>
      <trkpt lat="45.30409" lon="5.45659">
        <ele>662.31677246094</ele>
        <time>2011-01-16T10:39:40Z</time>
      </trkpt>
      <trkpt lat="45.30413" lon="5.45661">
        <ele>663.36071777344</ele>
        <time>2011-01-16T10:39:44Z</time>
      </trkpt>
      <trkpt lat="45.30417" lon="5.45663">
        <ele>664.17474365234</ele>
        <time>2011-01-16T10:39:47Z</time>
      </trkpt>
      <trkpt lat="45.30421" lon="5.45665">
        <ele>665.15643310547</ele>
        <time>2011-01-16T10:39:55Z</time>
      </trkpt>
      <trkpt lat="45.30426" lon="5.45666">
        <ele>666.58355712891</ele>
        <time>2011-01-16T10:40:02Z</time>
      </trkpt>
      <trkpt lat="45.30432" lon="5.45667">
        <ele>668.49926757812</ele>
        <time>2011-01-16T10:40:07Z</time>
      </trkpt>
      <trkpt lat="45.30436" lon="5.45668">
        <ele>669.57269287109</ele>
        <time>2011-01-16T10:40:10Z</time>
      </trkpt>
      <trkpt lat="45.30443" lon="5.45668">
        <ele>672.09283447266</ele>
        <time>2011-01-16T10:40:17Z</time>
      </trkpt>
      <trkpt lat="45.30452" lon="5.45665">
        <ele>675.35687255859</ele>
        <time>2011-01-16T10:40:24Z</time>
      </trkpt>
      <trkpt lat="45.30455" lon="5.45665">
        <ele>676.14990234375</ele>
        <time>2011-01-16T10:40:27Z</time>
      </trkpt>
      <trkpt lat="45.30457" lon="5.45662">
        <ele>677.3515625</ele>
        <time>2011-01-16T10:40:34Z</time>
      </trkpt>
      <trkpt lat="45.30462" lon="5.45664">
        <ele>678.13262939453</ele>
        <time>2011-01-16T10:40:40Z</time>
      </trkpt>
      <trkpt lat="45.30467" lon="5.45668">
        <ele>678.50720214844</ele>
        <time>2011-01-16T10:40:44Z</time>
      </trkpt>
      <trkpt lat="45.30471" lon="5.45668">
        <ele>679.50799560547</ele>
        <time>2011-01-16T10:40:50Z</time>
      </trkpt>
      <trkpt lat="45.30478" lon="5.45664">
        <ele>682.30181884766</ele>
        <time>2011-01-16T10:40:58Z</time>
      </trkpt>
      <trkpt lat="45.30483" lon="5.45664">
        <ele>684.00891113281</ele>
        <time>2011-01-16T10:41:03Z</time>
      </trkpt>
      <trkpt lat="45.30489" lon="5.45665">
        <ele>685.95916748047</ele>
        <time>2011-01-16T10:41:08Z</time>
      </trkpt>
      <trkpt lat="45.30497" lon="5.45664">
        <ele>688.54431152344</ele>
        <time>2011-01-16T10:41:15Z</time>
      </trkpt>
      <trkpt lat="45.30505" lon="5.45661">
        <ele>691.06097412109</ele>
        <time>2011-01-16T10:41:23Z</time>
      </trkpt>
      <trkpt lat="45.3051" lon="5.4566">
        <ele>692.40612792969</ele>
        <time>2011-01-16T10:41:29Z</time>
      </trkpt>
      <trkpt lat="45.30515" lon="5.45659">
        <ele>693.64080810547</ele>
        <time>2011-01-16T10:41:36Z</time>
      </trkpt>
      <trkpt lat="45.30524" lon="5.45656">
        <ele>696.05700683594</ele>
        <time>2011-01-16T10:41:45Z</time>
      </trkpt>
      <trkpt lat="45.30526" lon="5.45656">
        <ele>696.37139892578</ele>
        <time>2011-01-16T10:41:47Z</time>
      </trkpt>
      <trkpt lat="45.3053" lon="5.45653">
        <ele>696.90197753906</ele>
        <time>2011-01-16T10:41:54Z</time>
      </trkpt>
      <trkpt lat="45.30533" lon="5.4565">
        <ele>696.89575195312</ele>
        <time>2011-01-16T10:42:00Z</time>
      </trkpt>
      <trkpt lat="45.30534" lon="5.4565">
        <ele>696.86676025391</ele>
        <time>2011-01-16T10:42:07Z</time>
      </trkpt>
      <trkpt lat="45.30535" lon="5.4565">
        <ele>696.76153564453</ele>
        <time>2011-01-16T10:42:22Z</time>
      </trkpt>
      <trkpt lat="45.30536" lon="5.4565">
        <ele>696.72369384766</ele>
        <time>2011-01-16T10:42:39Z</time>
      </trkpt>
      <trkpt lat="45.30536" lon="5.4565">
        <ele>696.71197509766</ele>
        <time>2011-01-16T10:42:56Z</time>
      </trkpt>
      <trkpt lat="45.30536" lon="5.4565">
        <ele>696.73089599609</ele>
        <time>2011-01-16T10:43:08Z</time>
      </trkpt>
      <trkpt lat="45.30537" lon="5.45649">
        <ele>696.72027587891</ele>
        <time>2011-01-16T10:43:22Z</time>
      </trkpt>
      <trkpt lat="45.30536" lon="5.4565">
        <ele>696.71923828125</ele>
        <time>2011-01-16T10:43:31Z</time>
      </trkpt>
      <trkpt lat="45.30537" lon="5.45649">
        <ele>696.74621582031</ele>
        <time>2011-01-16T10:43:41Z</time>
      </trkpt>
      <trkpt lat="45.30536" lon="5.45649">
        <ele>696.77160644531</ele>
        <time>2011-01-16T10:43:56Z</time>
      </trkpt>
      <trkpt lat="45.30536" lon="5.45649">
        <ele>696.77062988281</ele>
        <time>2011-01-16T10:44:21Z</time>
      </trkpt>
      <trkpt lat="45.30536" lon="5.45649">
        <ele>696.74835205078</ele>
        <time>2011-01-16T10:44:47Z</time>
      </trkpt>
      <trkpt lat="45.30536" lon="5.4565">
        <ele>696.75006103516</ele>
        <time>2011-01-16T10:44:59Z</time>
      </trkpt>
      <trkpt lat="45.30539" lon="5.4565">
        <ele>696.60083007812</ele>
        <time>2011-01-16T10:45:15Z</time>
      </trkpt>
      <trkpt lat="45.30544" lon="5.4565">
        <ele>696.25646972656</ele>
        <time>2011-01-16T10:45:19Z</time>
      </trkpt>
      <trkpt lat="45.30559" lon="5.45657">
        <ele>694.94561767578</ele>
        <time>2011-01-16T10:45:29Z</time>
      </trkpt>
      <trkpt lat="45.30568" lon="5.45663">
        <ele>693.78393554688</ele>
        <time>2011-01-16T10:45:35Z</time>
      </trkpt>
      <trkpt lat="45.30576" lon="5.45669">
        <ele>692.736328125</ele>
        <time>2011-01-16T10:45:43Z</time>
      </trkpt>
      <trkpt lat="45.30584" lon="5.45675">
        <ele>691.93927001953</ele>
        <time>2011-01-16T10:45:52Z</time>
      </trkpt>
      <trkpt lat="45.30592" lon="5.45681">
        <ele>691.51959228516</ele>
        <time>2011-01-16T10:46:01Z</time>
      </trkpt>
      <trkpt lat="45.30599" lon="5.45684">
        <ele>691.21051025391</ele>
        <time>2011-01-16T10:46:08Z</time>
      </trkpt>
      <trkpt lat="45.30607" lon="5.45686">
        <ele>690.87872314453</ele>
        <time>2011-01-16T10:46:17Z</time>
      </trkpt>
      <trkpt lat="45.30618" lon="5.4569">
        <ele>690.12377929688</ele>
        <time>2011-01-16T10:46:26Z</time>
      </trkpt>
      <trkpt lat="45.30627" lon="5.45698">
        <ele>689.56604003906</ele>
        <time>2011-01-16T10:46:35Z</time>
      </trkpt>
      <trkpt lat="45.3063" lon="5.457">
        <ele>689.33264160156</ele>
        <time>2011-01-16T10:46:38Z</time>
      </trkpt>
      <trkpt lat="45.3064" lon="5.45711">
        <ele>689.14782714844</ele>
        <time>2011-01-16T10:46:45Z</time>
      </trkpt>
      <trkpt lat="45.30648" lon="5.45718">
        <ele>689.35662841797</ele>
        <time>2011-01-16T10:46:50Z</time>
      </trkpt>
      <trkpt lat="45.30657" lon="5.45731">
        <ele>689.75183105469</ele>
        <time>2011-01-16T10:46:57Z</time>
      </trkpt>
      <trkpt lat="45.30671" lon="5.45745">
        <ele>689.66064453125</ele>
        <time>2011-01-16T10:47:06Z</time>
      </trkpt>
      <trkpt lat="45.30683" lon="5.45756">
        <ele>689.92755126953</ele>
        <time>2011-01-16T10:47:14Z</time>
      </trkpt>
      <trkpt lat="45.30695" lon="5.45765">
        <ele>690.08660888672</ele>
        <time>2011-01-16T10:47:22Z</time>
      </trkpt>
      <trkpt lat="45.30705" lon="5.45773">
        <ele>690.58331298828</ele>
        <time>2011-01-16T10:47:28Z</time>
      </trkpt>
      <trkpt lat="45.30718" lon="5.45784">
        <ele>691.66131591797</ele>
        <time>2011-01-16T10:47:35Z</time>
      </trkpt>
      <trkpt lat="45.30729" lon="5.45794">
        <ele>692.24908447266</ele>
        <time>2011-01-16T10:47:41Z</time>
      </trkpt>
      <trkpt lat="45.30738" lon="5.45805">
        <ele>692.80181884766</ele>
        <time>2011-01-16T10:47:47Z</time>
      </trkpt>
      <trkpt lat="45.30748" lon="5.45819">
        <ele>693.05096435547</ele>
        <time>2011-01-16T10:47:54Z</time>
      </trkpt>
      <trkpt lat="45.30757" lon="5.45834">
        <ele>693.82189941406</ele>
        <time>2011-01-16T10:48:01Z</time>
      </trkpt>
      <trkpt lat="45.30767" lon="5.45852">
        <ele>695.35479736328</ele>
        <time>2011-01-16T10:48:09Z</time>
      </trkpt>
      <trkpt lat="45.30775" lon="5.45869">
        <ele>696.6357421875</ele>
        <time>2011-01-16T10:48:16Z</time>
      </trkpt>
      <trkpt lat="45.30781" lon="5.45883">
        <ele>697.34954833984</ele>
        <time>2011-01-16T10:48:22Z</time>
      </trkpt>
      <trkpt lat="45.30785" lon="5.45898">
        <ele>698.57891845703</ele>
        <time>2011-01-16T10:48:28Z</time>
      </trkpt>
      <trkpt lat="45.3079" lon="5.45915">
        <ele>700.36865234375</ele>
        <time>2011-01-16T10:48:34Z</time>
      </trkpt>
      <trkpt lat="45.30793" lon="5.4593">
        <ele>703.62469482422</ele>
        <time>2011-01-16T10:48:39Z</time>
      </trkpt>
      <trkpt lat="45.30796" lon="5.45945">
        <ele>707.36169433594</ele>
        <time>2011-01-16T10:48:44Z</time>
      </trkpt>
      <trkpt lat="45.30799" lon="5.45961">
        <ele>708.82330322266</ele>
        <time>2011-01-16T10:48:49Z</time>
      </trkpt>
      <trkpt lat="45.30801" lon="5.45972">
        <ele>709.78381347656</ele>
        <time>2011-01-16T10:48:53Z</time>
      </trkpt>
      <trkpt lat="45.30804" lon="5.45982">
        <ele>710.32214355469</ele>
        <time>2011-01-16T10:48:58Z</time>
      </trkpt>
      <trkpt lat="45.30806" lon="5.45988">
        <ele>710.58923339844</ele>
        <time>2011-01-16T10:49:00Z</time>
      </trkpt>
      <trkpt lat="45.30813" lon="5.46007">
        <ele>710.69104003906</ele>
        <time>2011-01-16T10:49:07Z</time>
      </trkpt>
      <trkpt lat="45.30819" lon="5.4602">
        <ele>709.92926025391</ele>
        <time>2011-01-16T10:49:12Z</time>
      </trkpt>
      <trkpt lat="45.30826" lon="5.46034">
        <ele>709.55407714844</ele>
        <time>2011-01-16T10:49:18Z</time>
      </trkpt>
      <trkpt lat="45.30835" lon="5.46051">
        <ele>709.8125</ele>
        <time>2011-01-16T10:49:25Z</time>
      </trkpt>
      <trkpt lat="45.30841" lon="5.46066">
        <ele>710.06671142578</ele>
        <time>2011-01-16T10:49:31Z</time>
      </trkpt>
      <trkpt lat="45.3085" lon="5.46083">
        <ele>710.40228271484</ele>
        <time>2011-01-16T10:49:38Z</time>
      </trkpt>
      <trkpt lat="45.30851" lon="5.46085">
        <ele>710.328125</ele>
        <time>2011-01-16T10:49:39Z</time>
      </trkpt>
      <trkpt lat="45.30859" lon="5.46085">
        <ele>710.03430175781</ele>
        <time>2011-01-16T10:49:43Z</time>
      </trkpt>
      <trkpt lat="45.30874" lon="5.46075">
        <ele>708.91839599609</ele>
        <time>2011-01-16T10:49:51Z</time>
      </trkpt>
      <trkpt lat="45.30882" lon="5.46071">
        <ele>708.36993408203</ele>
        <time>2011-01-16T10:49:57Z</time>
      </trkpt>
      <trkpt lat="45.30894" lon="5.46064">
        <ele>707.77532958984</ele>
        <time>2011-01-16T10:50:07Z</time>
      </trkpt>
      <trkpt lat="45.30903" lon="5.46057">
        <ele>707.46459960938</ele>
        <time>2011-01-16T10:50:16Z</time>
      </trkpt>
      <trkpt lat="45.3091" lon="5.46049">
        <ele>707.63732910156</ele>
        <time>2011-01-16T10:50:23Z</time>
      </trkpt>
      <trkpt lat="45.30919" lon="5.4604">
        <ele>708.86883544922</ele>
        <time>2011-01-16T10:50:32Z</time>
      </trkpt>
      <trkpt lat="45.30928" lon="5.46033">
        <ele>713.18273925781</ele>
        <time>2011-01-16T10:50:42Z</time>
      </trkpt>
      <trkpt lat="45.30933" lon="5.46033">
        <ele>715.36999511719</ele>
        <time>2011-01-16T10:50:48Z</time>
      </trkpt>
      <trkpt lat="45.30941" lon="5.46036">
        <ele>718.29541015625</ele>
        <time>2011-01-16T10:50:56Z</time>
      </trkpt>
      <trkpt lat="45.30949" lon="5.4604">
        <ele>720.10699462891</ele>
        <time>2011-01-16T10:51:04Z</time>
      </trkpt>
      <trkpt lat="45.30957" lon="5.46042">
        <ele>721.07531738281</ele>
        <time>2011-01-16T10:51:13Z</time>
      </trkpt>
      <trkpt lat="45.30963" lon="5.46043">
        <ele>721.75372314453</ele>
        <time>2011-01-16T10:51:20Z</time>
      </trkpt>
      <trkpt lat="45.30969" lon="5.46043">
        <ele>722.49969482422</ele>
        <time>2011-01-16T10:51:26Z</time>
      </trkpt>
      <trkpt lat="45.30978" lon="5.46045">
        <ele>723.55126953125</ele>
        <time>2011-01-16T10:51:35Z</time>
      </trkpt>
      <trkpt lat="45.30985" lon="5.46047">
        <ele>724.44738769531</ele>
        <time>2011-01-16T10:51:45Z</time>
      </trkpt>
      <trkpt lat="45.30993" lon="5.46048">
        <ele>725.57348632812</ele>
        <time>2011-01-16T10:51:52Z</time>
      </trkpt>
      <trkpt lat="45.31001" lon="5.46049">
        <ele>726.88671875</ele>
        <time>2011-01-16T10:51:58Z</time>
      </trkpt>
      <trkpt lat="45.31009" lon="5.46051">
        <ele>729.09020996094</ele>
        <time>2011-01-16T10:52:05Z</time>
      </trkpt>
      <trkpt lat="45.31013" lon="5.46054">
        <ele>730.13995361328</ele>
        <time>2011-01-16T10:52:10Z</time>
      </trkpt>
      <trkpt lat="45.31022" lon="5.46055">
        <ele>732.38415527344</ele>
        <time>2011-01-16T10:52:18Z</time>
      </trkpt>
      <trkpt lat="45.31028" lon="5.46055">
        <ele>734.19653320312</ele>
        <time>2011-01-16T10:52:25Z</time>
      </trkpt>
      <trkpt lat="45.31034" lon="5.46055">
        <ele>735.87243652344</ele>
        <time>2011-01-16T10:52:32Z</time>
      </trkpt>
      <trkpt lat="45.31038" lon="5.46055">
        <ele>736.85046386719</ele>
        <time>2011-01-16T10:52:38Z</time>
      </trkpt>
      <trkpt lat="45.3104" lon="5.46055">
        <ele>737.68798828125</ele>
        <time>2011-01-16T10:52:43Z</time>
      </trkpt>
      <trkpt lat="45.31048" lon="5.46054">
        <ele>740.07623291016</ele>
        <time>2011-01-16T10:52:47Z</time>
      </trkpt>
      <trkpt lat="45.3106" lon="5.46055">
        <ele>743.24645996094</ele>
        <time>2011-01-16T10:52:56Z</time>
      </trkpt>
      <trkpt lat="45.31067" lon="5.46056">
        <ele>744.69964599609</ele>
        <time>2011-01-16T10:53:02Z</time>
      </trkpt>
      <trkpt lat="45.31076" lon="5.46059">
        <ele>746.8828125</ele>
        <time>2011-01-16T10:53:10Z</time>
      </trkpt>
      <trkpt lat="45.31079" lon="5.46061">
        <ele>747.49926757812</ele>
        <time>2011-01-16T10:53:13Z</time>
      </trkpt>
      <trkpt lat="45.31085" lon="5.46063">
        <ele>748.79107666016</ele>
        <time>2011-01-16T10:53:18Z</time>
      </trkpt>
      <trkpt lat="45.31095" lon="5.46067">
        <ele>752.47772216797</ele>
        <time>2011-01-16T10:53:26Z</time>
      </trkpt>
      <trkpt lat="45.31104" lon="5.46074">
        <ele>755.83697509766</ele>
        <time>2011-01-16T10:53:36Z</time>
      </trkpt>
      <trkpt lat="45.31112" lon="5.46083">
        <ele>758.31744384766</ele>
        <time>2011-01-16T10:53:42Z</time>
      </trkpt>
      <trkpt lat="45.3112" lon="5.46095">
        <ele>757.48822021484</ele>
        <time>2011-01-16T10:53:48Z</time>
      </trkpt>
      <trkpt lat="45.31125" lon="5.46104">
        <ele>757.07843017578</ele>
        <time>2011-01-16T10:53:53Z</time>
      </trkpt>
      <trkpt lat="45.31129" lon="5.46114">
        <ele>757.11853027344</ele>
        <time>2011-01-16T10:53:58Z</time>
      </trkpt>
      <trkpt lat="45.31135" lon="5.46125">
        <ele>757.42572021484</ele>
        <time>2011-01-16T10:54:04Z</time>
      </trkpt>
      <trkpt lat="45.31139" lon="5.46134">
        <ele>757.84564208984</ele>
        <time>2011-01-16T10:54:09Z</time>
      </trkpt>
      <trkpt lat="45.31146" lon="5.46146">
        <ele>756.25836181641</ele>
        <time>2011-01-16T10:54:15Z</time>
      </trkpt>
      <trkpt lat="45.31153" lon="5.46162">
        <ele>753.73309326172</ele>
        <time>2011-01-16T10:54:22Z</time>
      </trkpt>
      <trkpt lat="45.3116" lon="5.46175">
        <ele>752.43634033203</ele>
        <time>2011-01-16T10:54:28Z</time>
      </trkpt>
      <trkpt lat="45.31166" lon="5.46185">
        <ele>751.94195556641</ele>
        <time>2011-01-16T10:54:33Z</time>
      </trkpt>
      <trkpt lat="45.31173" lon="5.46201">
        <ele>751.65667724609</ele>
        <time>2011-01-16T10:54:40Z</time>
      </trkpt>
      <trkpt lat="45.31179" lon="5.46214">
        <ele>750.76257324219</ele>
        <time>2011-01-16T10:54:46Z</time>
      </trkpt>
      <trkpt lat="45.31182" lon="5.4622">
        <ele>750.70556640625</ele>
        <time>2011-01-16T10:54:51Z</time>
      </trkpt>
      <trkpt lat="45.31185" lon="5.46226">
        <ele>751.42718505859</ele>
        <time>2011-01-16T10:54:56Z</time>
      </trkpt>
      <trkpt lat="45.3119" lon="5.46237">
        <ele>752.38781738281</ele>
        <time>2011-01-16T10:55:01Z</time>
      </trkpt>
      <trkpt lat="45.31191" lon="5.46238">
        <ele>752.75817871094</ele>
        <time>2011-01-16T10:55:02Z</time>
      </trkpt>
      <trkpt lat="45.31193" lon="5.46242">
        <ele>752.78057861328</ele>
        <time>2011-01-16T10:55:04Z</time>
      </trkpt>
      <trkpt lat="45.312" lon="5.46256">
        <ele>752.51440429688</ele>
        <time>2011-01-16T10:55:11Z</time>
      </trkpt>
      <trkpt lat="45.31207" lon="5.46268">
        <ele>752.06414794922</ele>
        <time>2011-01-16T10:55:16Z</time>
      </trkpt>
      <trkpt lat="45.31214" lon="5.46284">
        <ele>752.18786621094</ele>
        <time>2011-01-16T10:55:23Z</time>
      </trkpt>
      <trkpt lat="45.31219" lon="5.46296">
        <ele>752.37329101562</ele>
        <time>2011-01-16T10:55:28Z</time>
      </trkpt>
      <trkpt lat="45.31225" lon="5.46312">
        <ele>752.03887939453</ele>
        <time>2011-01-16T10:55:34Z</time>
      </trkpt>
      <trkpt lat="45.31231" lon="5.46332">
        <ele>751.73223876953</ele>
        <time>2011-01-16T10:55:41Z</time>
      </trkpt>
      <trkpt lat="45.31237" lon="5.46349">
        <ele>751.05395507812</ele>
        <time>2011-01-16T10:55:47Z</time>
      </trkpt>
      <trkpt lat="45.31247" lon="5.46364">
        <ele>752.33752441406</ele>
        <time>2011-01-16T10:55:53Z</time>
      </trkpt>
      <trkpt lat="45.31254" lon="5.46377">
        <ele>753.25634765625</ele>
        <time>2011-01-16T10:55:58Z</time>
      </trkpt>
      <trkpt lat="45.3126" lon="5.46389">
        <ele>754.43017578125</ele>
        <time>2011-01-16T10:56:03Z</time>
      </trkpt>
      <trkpt lat="45.31268" lon="5.46393">
        <ele>757.29064941406</ele>
        <time>2011-01-16T10:56:07Z</time>
      </trkpt>
      <trkpt lat="45.31271" lon="5.46394">
        <ele>758.38079833984</ele>
        <time>2011-01-16T10:56:08Z</time>
      </trkpt>
      <trkpt lat="45.31284" lon="5.46391">
        <ele>762.05596923828</ele>
        <time>2011-01-16T10:56:14Z</time>
      </trkpt>
      <trkpt lat="45.31288" lon="5.4639">
        <ele>762.27368164062</ele>
        <time>2011-01-16T10:56:16Z</time>
      </trkpt>
      <trkpt lat="45.31291" lon="5.46389">
        <ele>762.47668457031</ele>
        <time>2011-01-16T10:56:18Z</time>
      </trkpt>
      <trkpt lat="45.31305" lon="5.46389">
        <ele>762.96118164062</ele>
        <time>2011-01-16T10:56:23Z</time>
      </trkpt>
      <trkpt lat="45.31319" lon="5.46386">
        <ele>762.62683105469</ele>
        <time>2011-01-16T10:56:29Z</time>
      </trkpt>
      <trkpt lat="45.31331" lon="5.46383">
        <ele>762.29205322266</ele>
        <time>2011-01-16T10:56:34Z</time>
      </trkpt>
      <trkpt lat="45.31343" lon="5.46382">
        <ele>761.81579589844</ele>
        <time>2011-01-16T10:56:39Z</time>
      </trkpt>
      <trkpt lat="45.31356" lon="5.46382">
        <ele>761.20855712891</ele>
        <time>2011-01-16T10:56:44Z</time>
      </trkpt>
      <trkpt lat="45.31365" lon="5.46383">
        <ele>760.85266113281</ele>
        <time>2011-01-16T10:56:48Z</time>
      </trkpt>
      <trkpt lat="45.31377" lon="5.46382">
        <ele>760.44067382812</ele>
        <time>2011-01-16T10:56:53Z</time>
      </trkpt>
      <trkpt lat="45.31394" lon="5.46379">
        <ele>759.77532958984</ele>
        <time>2011-01-16T10:57:00Z</time>
      </trkpt>
      <trkpt lat="45.31402" lon="5.46366">
        <ele>759.83038330078</ele>
        <time>2011-01-16T10:57:05Z</time>
      </trkpt>
      <trkpt lat="45.31408" lon="5.46349">
        <ele>760</ele>
        <time>2011-01-16T10:57:10Z</time>
      </trkpt>
      <trkpt lat="45.31413" lon="5.46334">
        <ele>760</ele>
        <time>2011-01-16T10:57:15Z</time>
      </trkpt>
      <trkpt lat="45.31419" lon="5.46318">
        <ele>759.45928955078</ele>
        <time>2011-01-16T10:57:20Z</time>
      </trkpt>
      <trkpt lat="45.3143" lon="5.46312">
        <ele>756.90765380859</ele>
        <time>2011-01-16T10:57:25Z</time>
      </trkpt>
      <trkpt lat="45.31435" lon="5.46311">
        <ele>755.91577148438</ele>
        <time>2011-01-16T10:57:27Z</time>
      </trkpt>
      <trkpt lat="45.31444" lon="5.46308">
        <ele>753.97454833984</ele>
        <time>2011-01-16T10:57:31Z</time>
      </trkpt>
      <trkpt lat="45.31458" lon="5.46307">
        <ele>750.20245361328</ele>
        <time>2011-01-16T10:57:36Z</time>
      </trkpt>
      <trkpt lat="45.31467" lon="5.46306">
        <ele>747.59417724609</ele>
        <time>2011-01-16T10:57:40Z</time>
      </trkpt>
      <trkpt lat="45.31484" lon="5.463">
        <ele>743.24291992188</ele>
        <time>2011-01-16T10:57:46Z</time>
      </trkpt>
      <trkpt lat="45.31486" lon="5.46299">
        <ele>742.75616455078</ele>
        <time>2011-01-16T10:57:47Z</time>
      </trkpt>
      <trkpt lat="45.31499" lon="5.46295">
        <ele>740.24230957031</ele>
        <time>2011-01-16T10:57:52Z</time>
      </trkpt>
      <trkpt lat="45.31509" lon="5.46298">
        <ele>737.20239257812</ele>
        <time>2011-01-16T10:57:55Z</time>
      </trkpt>
      <trkpt lat="45.31523" lon="5.46299">
        <ele>733.25390625</ele>
        <time>2011-01-16T10:57:59Z</time>
      </trkpt>
      <trkpt lat="45.31535" lon="5.46291">
        <ele>729.76507568359</ele>
        <time>2011-01-16T10:58:05Z</time>
      </trkpt>
      <trkpt lat="45.31541" lon="5.46287">
        <ele>727.89739990234</ele>
        <time>2011-01-16T10:58:09Z</time>
      </trkpt>
      <trkpt lat="45.31543" lon="5.46286">
        <ele>727.36181640625</ele>
        <time>2011-01-16T10:58:14Z</time>
      </trkpt>
      <trkpt lat="45.31546" lon="5.46289">
        <ele>726.71295166016</ele>
        <time>2011-01-16T10:58:35Z</time>
      </trkpt>
      <trkpt lat="45.3155" lon="5.4629">
        <ele>725.88897705078</ele>
        <time>2011-01-16T10:58:59Z</time>
      </trkpt>
      <trkpt lat="45.31553" lon="5.4629">
        <ele>725.20062255859</ele>
        <time>2011-01-16T10:59:33Z</time>
      </trkpt>
      <trkpt lat="45.31556" lon="5.46289">
        <ele>724.34716796875</ele>
        <time>2011-01-16T10:59:38Z</time>
      </trkpt>
      <trkpt lat="45.31561" lon="5.46289">
        <ele>723.49285888672</ele>
        <time>2011-01-16T10:59:43Z</time>
      </trkpt>
      <trkpt lat="45.31573" lon="5.4629">
        <ele>721.57232666016</ele>
        <time>2011-01-16T10:59:48Z</time>
      </trkpt>
      <trkpt lat="45.31587" lon="5.4629">
        <ele>719.49536132812</ele>
        <time>2011-01-16T10:59:53Z</time>
      </trkpt>
      <trkpt lat="45.31597" lon="5.46289">
        <ele>718.01220703125</ele>
        <time>2011-01-16T10:59:57Z</time>
      </trkpt>
      <trkpt lat="45.31603" lon="5.46288">
        <ele>717.18823242188</ele>
        <time>2011-01-16T10:59:59Z</time>
      </trkpt>
      <trkpt lat="45.31618" lon="5.46289">
        <ele>714.99096679688</ele>
        <time>2011-01-16T11:00:05Z</time>
      </trkpt>
      <trkpt lat="45.31633" lon="5.46285">
        <ele>712.90356445312</ele>
        <time>2011-01-16T11:00:10Z</time>
      </trkpt>
      <trkpt lat="45.31649" lon="5.46275">
        <ele>710.40985107422</ele>
        <time>2011-01-16T11:00:15Z</time>
      </trkpt>
      <trkpt lat="45.31662" lon="5.46263">
        <ele>707.65295410156</ele>
        <time>2011-01-16T11:00:20Z</time>
      </trkpt>
      <trkpt lat="45.31666" lon="5.46257">
        <ele>706.58178710938</ele>
        <time>2011-01-16T11:00:22Z</time>
      </trkpt>
      <trkpt lat="45.31682" lon="5.46266">
        <ele>704.59387207031</ele>
        <time>2011-01-16T11:00:27Z</time>
      </trkpt>
      <trkpt lat="45.31686" lon="5.46275">
        <ele>704.31195068359</ele>
        <time>2011-01-16T11:00:29Z</time>
      </trkpt>
      <trkpt lat="45.31688" lon="5.46298">
        <ele>704.10443115234</ele>
        <time>2011-01-16T11:00:34Z</time>
      </trkpt>
      <trkpt lat="45.31686" lon="5.46326">
        <ele>703.7265625</ele>
        <time>2011-01-16T11:00:40Z</time>
      </trkpt>
      <trkpt lat="45.31682" lon="5.46342">
        <ele>703.95147705078</ele>
        <time>2011-01-16T11:00:44Z</time>
      </trkpt>
      <trkpt lat="45.31671" lon="5.46362">
        <ele>705.12481689453</ele>
        <time>2011-01-16T11:00:49Z</time>
      </trkpt>
      <trkpt lat="45.3166" lon="5.46389">
        <ele>705.27685546875</ele>
        <time>2011-01-16T11:00:54Z</time>
      </trkpt>
      <trkpt lat="45.31654" lon="5.46403">
        <ele>705.22509765625</ele>
        <time>2011-01-16T11:00:57Z</time>
      </trkpt>
      <trkpt lat="45.31647" lon="5.46427">
        <ele>704.84814453125</ele>
        <time>2011-01-16T11:01:02Z</time>
      </trkpt>
      <trkpt lat="45.31644" lon="5.4644">
        <ele>704.55639648438</ele>
        <time>2011-01-16T11:01:05Z</time>
      </trkpt>
      <trkpt lat="45.31645" lon="5.46459">
        <ele>702.90783691406</ele>
        <time>2011-01-16T11:01:09Z</time>
      </trkpt>
      <trkpt lat="45.31646" lon="5.46465">
        <ele>702.38012695312</ele>
        <time>2011-01-16T11:01:10Z</time>
      </trkpt>
      <trkpt lat="45.31648" lon="5.46491">
        <ele>699.84783935547</ele>
        <time>2011-01-16T11:01:15Z</time>
      </trkpt>
      <trkpt lat="45.31652" lon="5.46504">
        <ele>696.79547119141</ele>
        <time>2011-01-16T11:01:18Z</time>
      </trkpt>
      <trkpt lat="45.3166" lon="5.46499">
        <ele>695.31268310547</ele>
        <time>2011-01-16T11:01:22Z</time>
      </trkpt>
      <trkpt lat="45.31673" lon="5.46486">
        <ele>692.35400390625</ele>
        <time>2011-01-16T11:01:27Z</time>
      </trkpt>
      <trkpt lat="45.31681" lon="5.46483">
        <ele>688.26580810547</ele>
        <time>2011-01-16T11:01:30Z</time>
      </trkpt>
      <trkpt lat="45.31701" lon="5.46489">
        <ele>678.62707519531</ele>
        <time>2011-01-16T11:01:36Z</time>
      </trkpt>
      <trkpt lat="45.31713" lon="5.46487">
        <ele>675.30590820312</ele>
        <time>2011-01-16T11:01:40Z</time>
      </trkpt>
      <trkpt lat="45.31718" lon="5.46488">
        <ele>673.50445556641</ele>
        <time>2011-01-16T11:01:42Z</time>
      </trkpt>
      <trkpt lat="45.31729" lon="5.46503">
        <ele>668.52923583984</ele>
        <time>2011-01-16T11:01:47Z</time>
      </trkpt>
      <trkpt lat="45.31744" lon="5.46525">
        <ele>661.18188476562</ele>
        <time>2011-01-16T11:01:53Z</time>
      </trkpt>
      <trkpt lat="45.31749" lon="5.46547">
        <ele>657.25720214844</ele>
        <time>2011-01-16T11:01:58Z</time>
      </trkpt>
      <trkpt lat="45.3175" lon="5.46566">
        <ele>654.83520507812</ele>
        <time>2011-01-16T11:02:02Z</time>
      </trkpt>
      <trkpt lat="45.31749" lon="5.46588">
        <ele>652.68286132812</ele>
        <time>2011-01-16T11:02:07Z</time>
      </trkpt>
      <trkpt lat="45.31749" lon="5.46591">
        <ele>652.39270019531</ele>
        <time>2011-01-16T11:02:08Z</time>
      </trkpt>
      <trkpt lat="45.3175" lon="5.46596">
        <ele>651.55474853516</ele>
        <time>2011-01-16T11:02:10Z</time>
      </trkpt>
      <trkpt lat="45.3175" lon="5.46594">
        <ele>651.81616210938</ele>
        <time>2011-01-16T11:02:16Z</time>
      </trkpt>
      <trkpt lat="45.3175" lon="5.46586">
        <ele>652.67504882812</ele>
        <time>2011-01-16T11:02:20Z</time>
      </trkpt>
      <trkpt lat="45.31748" lon="5.46568">
        <ele>655.05688476562</ele>
        <time>2011-01-16T11:02:26Z</time>
      </trkpt>
      <trkpt lat="45.31745" lon="5.46553">
        <ele>657.53210449219</ele>
        <time>2011-01-16T11:02:31Z</time>
      </trkpt>
      <trkpt lat="45.31739" lon="5.46537">
        <ele>661.07275390625</ele>
        <time>2011-01-16T11:02:37Z</time>
      </trkpt>
      <trkpt lat="45.31737" lon="5.46533">
        <ele>662.05200195312</ele>
        <time>2011-01-16T11:02:39Z</time>
      </trkpt>
      <trkpt lat="45.31732" lon="5.46525">
        <ele>664.49676513672</ele>
        <time>2011-01-16T11:02:46Z</time>
      </trkpt>
      <trkpt lat="45.3173" lon="5.46516">
        <ele>666.53942871094</ele>
        <time>2011-01-16T11:02:52Z</time>
      </trkpt>
      <trkpt lat="45.31728" lon="5.46512">
        <ele>667.5107421875</ele>
        <time>2011-01-16T11:02:55Z</time>
      </trkpt>
      <trkpt lat="45.31729" lon="5.46507">
        <ele>667.88287353516</ele>
        <time>2011-01-16T11:02:59Z</time>
      </trkpt>
      <trkpt lat="45.31731" lon="5.46508">
        <ele>667.22607421875</ele>
        <time>2011-01-16T11:03:04Z</time>
      </trkpt>
      <trkpt lat="45.31735" lon="5.46522">
        <ele>664.03125</ele>
        <time>2011-01-16T11:03:09Z</time>
      </trkpt>
      <trkpt lat="45.3174" lon="5.46536">
        <ele>660.91961669922</ele>
        <time>2011-01-16T11:03:13Z</time>
      </trkpt>
      <trkpt lat="45.31741" lon="5.4654">
        <ele>660.27819824219</ele>
        <time>2011-01-16T11:03:14Z</time>
      </trkpt>
      <trkpt lat="45.31746" lon="5.46562">
        <ele>656.40960693359</ele>
        <time>2011-01-16T11:03:19Z</time>
      </trkpt>
      <trkpt lat="45.31747" lon="5.46585">
        <ele>653.55828857422</ele>
        <time>2011-01-16T11:03:24Z</time>
      </trkpt>
      <trkpt lat="45.31751" lon="5.46609">
        <ele>650.04791259766</ele>
        <time>2011-01-16T11:03:29Z</time>
      </trkpt>
      <trkpt lat="45.31755" lon="5.46629">
        <ele>647.84478759766</ele>
        <time>2011-01-16T11:03:34Z</time>
      </trkpt>
      <trkpt lat="45.31769" lon="5.46626">
        <ele>645.57543945312</ele>
        <time>2011-01-16T11:03:39Z</time>
      </trkpt>
      <trkpt lat="45.31771" lon="5.46622">
        <ele>645.33166503906</ele>
        <time>2011-01-16T11:03:40Z</time>
      </trkpt>
      <trkpt lat="45.31787" lon="5.46609">
        <ele>644.13244628906</ele>
        <time>2011-01-16T11:03:45Z</time>
      </trkpt>
      <trkpt lat="45.31803" lon="5.46596">
        <ele>643.32904052734</ele>
        <time>2011-01-16T11:03:50Z</time>
      </trkpt>
      <trkpt lat="45.31818" lon="5.46577">
        <ele>642.50427246094</ele>
        <time>2011-01-16T11:03:55Z</time>
      </trkpt>
      <trkpt lat="45.31826" lon="5.46556">
        <ele>641.98071289062</ele>
        <time>2011-01-16T11:03:59Z</time>
      </trkpt>
      <trkpt lat="45.31842" lon="5.46564">
        <ele>638.29138183594</ele>
        <time>2011-01-16T11:04:03Z</time>
      </trkpt>
      <trkpt lat="45.31844" lon="5.46569">
        <ele>637.2998046875</ele>
        <time>2011-01-16T11:04:04Z</time>
      </trkpt>
      <trkpt lat="45.31853" lon="5.46594">
        <ele>630.71997070312</ele>
        <time>2011-01-16T11:04:10Z</time>
      </trkpt>
      <trkpt lat="45.31861" lon="5.46613">
        <ele>624.83367919922</ele>
        <time>2011-01-16T11:04:15Z</time>
      </trkpt>
      <trkpt lat="45.3187" lon="5.46626">
        <ele>621.61834716797</ele>
        <time>2011-01-16T11:04:19Z</time>
      </trkpt>
      <trkpt lat="45.31878" lon="5.46646">
        <ele>618.07580566406</ele>
        <time>2011-01-16T11:04:24Z</time>
      </trkpt>
      <trkpt lat="45.31883" lon="5.46667">
        <ele>614.79266357422</ele>
        <time>2011-01-16T11:04:28Z</time>
      </trkpt>
      <trkpt lat="45.3188" lon="5.46676">
        <ele>614.62438964844</ele>
        <time>2011-01-16T11:04:30Z</time>
      </trkpt>
      <trkpt lat="45.31871" lon="5.46698">
        <ele>614.10681152344</ele>
        <time>2011-01-16T11:04:35Z</time>
      </trkpt>
      <trkpt lat="45.3187" lon="5.46715">
        <ele>612.49493408203</ele>
        <time>2011-01-16T11:04:38Z</time>
      </trkpt>
      <trkpt lat="45.31867" lon="5.46724">
        <ele>611.91546630859</ele>
        <time>2011-01-16T11:04:40Z</time>
      </trkpt>
      <trkpt lat="45.31862" lon="5.4675">
        <ele>609.95068359375</ele>
        <time>2011-01-16T11:04:45Z</time>
      </trkpt>
      <trkpt lat="45.31858" lon="5.46768">
        <ele>608.32495117188</ele>
        <time>2011-01-16T11:04:49Z</time>
      </trkpt>
      <trkpt lat="45.31854" lon="5.46798">
        <ele>605.35363769531</ele>
        <time>2011-01-16T11:04:54Z</time>
      </trkpt>
      <trkpt lat="45.31847" lon="5.46824">
        <ele>603.38275146484</ele>
        <time>2011-01-16T11:04:59Z</time>
      </trkpt>
      <trkpt lat="45.31841" lon="5.46841">
        <ele>601.31317138672</ele>
        <time>2011-01-16T11:05:03Z</time>
      </trkpt>
      <trkpt lat="45.3184" lon="5.46846">
        <ele>600.33282470703</ele>
        <time>2011-01-16T11:05:05Z</time>
      </trkpt>
      <trkpt lat="45.3184" lon="5.46849">
        <ele>599.74206542969</ele>
        <time>2011-01-16T11:05:13Z</time>
      </trkpt>
      <trkpt lat="45.31838" lon="5.46853">
        <ele>599.01849365234</ele>
        <time>2011-01-16T11:05:16Z</time>
      </trkpt>
      <trkpt lat="45.31833" lon="5.46861">
        <ele>597.97546386719</ele>
        <time>2011-01-16T11:05:20Z</time>
      </trkpt>
      <trkpt lat="45.31824" lon="5.46868">
        <ele>597.63208007812</ele>
        <time>2011-01-16T11:05:25Z</time>
      </trkpt>
      <trkpt lat="45.31823" lon="5.46868">
        <ele>597.71447753906</ele>
        <time>2011-01-16T11:05:34Z</time>
      </trkpt>
      <trkpt lat="45.31822" lon="5.4687">
        <ele>597.45361328125</ele>
        <time>2011-01-16T11:05:49Z</time>
      </trkpt>
      <trkpt lat="45.31823" lon="5.46878">
        <ele>596.23822021484</ele>
        <time>2011-01-16T11:05:55Z</time>
      </trkpt>
      <trkpt lat="45.31823" lon="5.46882">
        <ele>595.68890380859</ele>
        <time>2011-01-16T11:05:59Z</time>
      </trkpt>
      <trkpt lat="45.31821" lon="5.46886">
        <ele>595.30438232422</ele>
        <time>2011-01-16T11:06:02Z</time>
      </trkpt>
      <trkpt lat="45.31823" lon="5.46898">
        <ele>592.478515625</ele>
        <time>2011-01-16T11:06:08Z</time>
      </trkpt>
      <trkpt lat="45.3182" lon="5.46907">
        <ele>590.53875732422</ele>
        <time>2011-01-16T11:06:12Z</time>
      </trkpt>
      <trkpt lat="45.31821" lon="5.46918">
        <ele>587.7587890625</ele>
        <time>2011-01-16T11:06:17Z</time>
      </trkpt>
      <trkpt lat="45.31824" lon="5.46928">
        <ele>585.97351074219</ele>
        <time>2011-01-16T11:06:22Z</time>
      </trkpt>
      <trkpt lat="45.3183" lon="5.46934">
        <ele>584.70324707031</ele>
        <time>2011-01-16T11:06:26Z</time>
      </trkpt>
      <trkpt lat="45.31831" lon="5.46936">
        <ele>584.41479492188</ele>
        <time>2011-01-16T11:06:27Z</time>
      </trkpt>
      <trkpt lat="45.31832" lon="5.46938">
        <ele>583.96166992188</ele>
        <time>2011-01-16T11:06:29Z</time>
      </trkpt>
      <trkpt lat="45.31833" lon="5.46939">
        <ele>583.83801269531</ele>
        <time>2011-01-16T11:06:31Z</time>
      </trkpt>
      <trkpt lat="45.31835" lon="5.46942">
        <ele>583.11114501953</ele>
        <time>2011-01-16T11:06:34Z</time>
      </trkpt>
      <trkpt lat="45.31836" lon="5.46947">
        <ele>582.40844726562</ele>
        <time>2011-01-16T11:06:40Z</time>
      </trkpt>
      <trkpt lat="45.31839" lon="5.46956">
        <ele>581.13067626953</ele>
        <time>2011-01-16T11:06:46Z</time>
      </trkpt>
      <trkpt lat="45.31838" lon="5.46961">
        <ele>580.53887939453</ele>
        <time>2011-01-16T11:06:50Z</time>
      </trkpt>
      <trkpt lat="45.31838" lon="5.46969">
        <ele>579.61114501953</ele>
        <time>2011-01-16T11:06:55Z</time>
      </trkpt>
      <trkpt lat="45.31838" lon="5.46977">
        <ele>579.04730224609</ele>
        <time>2011-01-16T11:07:00Z</time>
      </trkpt>
      <trkpt lat="45.31837" lon="5.46993">
        <ele>578.47253417969</ele>
        <time>2011-01-16T11:07:07Z</time>
      </trkpt>
      <trkpt lat="45.31836" lon="5.47008">
        <ele>577.92388916016</ele>
        <time>2011-01-16T11:07:11Z</time>
      </trkpt>
      <trkpt lat="45.31836" lon="5.47026">
        <ele>577.21838378906</ele>
        <time>2011-01-16T11:07:16Z</time>
      </trkpt>
      <trkpt lat="45.31835" lon="5.4704">
        <ele>576.26947021484</ele>
        <time>2011-01-16T11:07:20Z</time>
      </trkpt>
      <trkpt lat="45.31835" lon="5.47059">
        <ele>575.04956054688</ele>
        <time>2011-01-16T11:07:25Z</time>
      </trkpt>
      <trkpt lat="45.31832" lon="5.47074">
        <ele>573.75689697266</ele>
        <time>2011-01-16T11:07:30Z</time>
      </trkpt>
      <trkpt lat="45.31829" lon="5.4709">
        <ele>571.84924316406</ele>
        <time>2011-01-16T11:07:35Z</time>
      </trkpt>
      <trkpt lat="45.31826" lon="5.47107">
        <ele>569.49853515625</ele>
        <time>2011-01-16T11:07:40Z</time>
      </trkpt>
      <trkpt lat="45.31823" lon="5.47125">
        <ele>568.00579833984</ele>
        <time>2011-01-16T11:07:45Z</time>
      </trkpt>
      <trkpt lat="45.3182" lon="5.47143">
        <ele>566.22473144531</ele>
        <time>2011-01-16T11:07:50Z</time>
      </trkpt>
      <trkpt lat="45.31815" lon="5.47164">
        <ele>563.59149169922</ele>
        <time>2011-01-16T11:07:56Z</time>
      </trkpt>
      <trkpt lat="45.31812" lon="5.4718">
        <ele>562.30981445312</ele>
        <time>2011-01-16T11:08:00Z</time>
      </trkpt>
      <trkpt lat="45.31808" lon="5.472">
        <ele>560.82122802734</ele>
        <time>2011-01-16T11:08:06Z</time>
      </trkpt>
      <trkpt lat="45.31805" lon="5.47216">
        <ele>559.78039550781</ele>
        <time>2011-01-16T11:08:11Z</time>
      </trkpt>
      <trkpt lat="45.31803" lon="5.47235">
        <ele>559.33923339844</ele>
        <time>2011-01-16T11:08:17Z</time>
      </trkpt>
      <trkpt lat="45.31803" lon="5.47241">
        <ele>559.36022949219</ele>
        <time>2011-01-16T11:08:19Z</time>
      </trkpt>
      <trkpt lat="45.31805" lon="5.47253">
        <ele>559.97125244141</ele>
        <time>2011-01-16T11:08:24Z</time>
      </trkpt>
      <trkpt lat="45.31807" lon="5.47266">
        <ele>560.63781738281</ele>
        <time>2011-01-16T11:08:29Z</time>
      </trkpt>
      <trkpt lat="45.31807" lon="5.47281">
        <ele>560.50842285156</ele>
        <time>2011-01-16T11:08:34Z</time>
      </trkpt>
      <trkpt lat="45.31807" lon="5.47284">
        <ele>560.50842285156</ele>
        <time>2011-01-16T11:08:35Z</time>
      </trkpt>
      <trkpt lat="45.31806" lon="5.47295">
        <ele>560.12390136719</ele>
        <time>2011-01-16T11:08:39Z</time>
      </trkpt>
      <trkpt lat="45.31807" lon="5.47309">
        <ele>560.89294433594</ele>
        <time>2011-01-16T11:08:45Z</time>
      </trkpt>
      <trkpt lat="45.31809" lon="5.4732">
        <ele>561.85424804688</ele>
        <time>2011-01-16T11:08:50Z</time>
      </trkpt>
      <trkpt lat="45.3181" lon="5.47324">
        <ele>562.23876953125</ele>
        <time>2011-01-16T11:08:52Z</time>
      </trkpt>
      <trkpt lat="45.31815" lon="5.47337">
        <ele>564.59771728516</ele>
        <time>2011-01-16T11:08:58Z</time>
      </trkpt>
      <trkpt lat="45.31816" lon="5.47342">
        <ele>565.20513916016</ele>
        <time>2011-01-16T11:09:00Z</time>
      </trkpt>
      <trkpt lat="45.3182" lon="5.47355">
        <ele>567.38092041016</ele>
        <time>2011-01-16T11:09:05Z</time>
      </trkpt>
      <trkpt lat="45.31824" lon="5.4737">
        <ele>569.18115234375</ele>
        <time>2011-01-16T11:09:11Z</time>
      </trkpt>
      <trkpt lat="45.31828" lon="5.47379">
        <ele>570.49951171875</ele>
        <time>2011-01-16T11:09:14Z</time>
      </trkpt>
      <trkpt lat="45.31834" lon="5.47391">
        <ele>573.02752685547</ele>
        <time>2011-01-16T11:09:19Z</time>
      </trkpt>
      <trkpt lat="45.31843" lon="5.47404">
        <ele>575.70538330078</ele>
        <time>2011-01-16T11:09:26Z</time>
      </trkpt>
      <trkpt lat="45.3185" lon="5.47415">
        <ele>577.90863037109</ele>
        <time>2011-01-16T11:09:31Z</time>
      </trkpt>
      <trkpt lat="45.31855" lon="5.47423">
        <ele>579.61315917969</ele>
        <time>2011-01-16T11:09:36Z</time>
      </trkpt>
      <trkpt lat="45.31857" lon="5.47427">
        <ele>580.18536376953</ele>
        <time>2011-01-16T11:09:38Z</time>
      </trkpt>
      <trkpt lat="45.31865" lon="5.47434">
        <ele>581.77648925781</ele>
        <time>2011-01-16T11:09:44Z</time>
      </trkpt>
      <trkpt lat="45.31872" lon="5.47441">
        <ele>582.26745605469</ele>
        <time>2011-01-16T11:09:49Z</time>
      </trkpt>
      <trkpt lat="45.31874" lon="5.47445">
        <ele>582.39447021484</ele>
        <time>2011-01-16T11:09:51Z</time>
      </trkpt>
      <trkpt lat="45.31882" lon="5.47453">
        <ele>582.97467041016</ele>
        <time>2011-01-16T11:09:57Z</time>
      </trkpt>
      <trkpt lat="45.3189" lon="5.47459">
        <ele>583.63220214844</ele>
        <time>2011-01-16T11:10:02Z</time>
      </trkpt>
      <trkpt lat="45.319" lon="5.47462">
        <ele>585.36944580078</ele>
        <time>2011-01-16T11:10:08Z</time>
      </trkpt>
      <trkpt lat="45.3191" lon="5.47462">
        <ele>587.10668945312</ele>
        <time>2011-01-16T11:10:13Z</time>
      </trkpt>
      <trkpt lat="45.31913" lon="5.4746">
        <ele>587.76239013672</ele>
        <time>2011-01-16T11:10:15Z</time>
      </trkpt>
      <trkpt lat="45.31916" lon="5.47459">
        <ele>588.34948730469</ele>
        <time>2011-01-16T11:10:17Z</time>
      </trkpt>
      <trkpt lat="45.31922" lon="5.47455">
        <ele>590.85729980469</ele>
        <time>2011-01-16T11:10:21Z</time>
      </trkpt>
      <trkpt lat="45.3193" lon="5.47447">
        <ele>594.29779052734</ele>
        <time>2011-01-16T11:10:28Z</time>
      </trkpt>
      <trkpt lat="45.31936" lon="5.47437">
        <ele>596.99096679688</ele>
        <time>2011-01-16T11:10:36Z</time>
      </trkpt>
      <trkpt lat="45.31944" lon="5.47436">
        <ele>600.42419433594</ele>
        <time>2011-01-16T11:10:42Z</time>
      </trkpt>
      <trkpt lat="45.31954" lon="5.47439">
        <ele>602.32623291016</ele>
        <time>2011-01-16T11:10:50Z</time>
      </trkpt>
      <trkpt lat="45.31963" lon="5.4744">
        <ele>604.12451171875</ele>
        <time>2011-01-16T11:10:56Z</time>
      </trkpt>
      <trkpt lat="45.31964" lon="5.47441">
        <ele>604.42797851562</ele>
        <time>2011-01-16T11:10:57Z</time>
      </trkpt>
      <trkpt lat="45.31973" lon="5.47442">
        <ele>606.57135009766</ele>
        <time>2011-01-16T11:11:03Z</time>
      </trkpt>
      <trkpt lat="45.31981" lon="5.4744">
        <ele>610.38397216797</ele>
        <time>2011-01-16T11:11:09Z</time>
      </trkpt>
      <trkpt lat="45.31989" lon="5.47437">
        <ele>614.07641601562</ele>
        <time>2011-01-16T11:11:14Z</time>
      </trkpt>
      <trkpt lat="45.31995" lon="5.47436">
        <ele>616.97406005859</ele>
        <time>2011-01-16T11:11:18Z</time>
      </trkpt>
      <trkpt lat="45.32005" lon="5.47433">
        <ele>620.07879638672</ele>
        <time>2011-01-16T11:11:24Z</time>
      </trkpt>
      <trkpt lat="45.32007" lon="5.47433">
        <ele>620.27117919922</ele>
        <time>2011-01-16T11:11:25Z</time>
      </trkpt>
      <trkpt lat="45.32011" lon="5.47431">
        <ele>620.94018554688</ele>
        <time>2011-01-16T11:11:29Z</time>
      </trkpt>
      <trkpt lat="45.32021" lon="5.4743">
        <ele>622.10913085938</ele>
        <time>2011-01-16T11:11:34Z</time>
      </trkpt>
      <trkpt lat="45.32036" lon="5.47432">
        <ele>626.71044921875</ele>
        <time>2011-01-16T11:11:41Z</time>
      </trkpt>
      <trkpt lat="45.32046" lon="5.4743">
        <ele>631.09399414062</ele>
        <time>2011-01-16T11:11:47Z</time>
      </trkpt>
      <trkpt lat="45.32055" lon="5.47432">
        <ele>635.22235107422</ele>
        <time>2011-01-16T11:11:52Z</time>
      </trkpt>
      <trkpt lat="45.32061" lon="5.47433">
        <ele>637.41107177734</ele>
        <time>2011-01-16T11:11:56Z</time>
      </trkpt>
      <trkpt lat="45.32067" lon="5.47434">
        <ele>639.64514160156</ele>
        <time>2011-01-16T11:12:01Z</time>
      </trkpt>
      <trkpt lat="45.32076" lon="5.47432">
        <ele>643.19152832031</ele>
        <time>2011-01-16T11:12:06Z</time>
      </trkpt>
      <trkpt lat="45.32085" lon="5.4743">
        <ele>646.91357421875</ele>
        <time>2011-01-16T11:12:11Z</time>
      </trkpt>
      <trkpt lat="45.32093" lon="5.47431">
        <ele>649.92791748047</ele>
        <time>2011-01-16T11:12:15Z</time>
      </trkpt>
      <trkpt lat="45.32095" lon="5.47432">
        <ele>650.71752929688</ele>
        <time>2011-01-16T11:12:16Z</time>
      </trkpt>
      <trkpt lat="45.32107" lon="5.47435">
        <ele>655.44854736328</ele>
        <time>2011-01-16T11:12:23Z</time>
      </trkpt>
      <trkpt lat="45.32108" lon="5.47435">
        <ele>656.08715820312</ele>
        <time>2011-01-16T11:12:24Z</time>
      </trkpt>
      <trkpt lat="45.32122" lon="5.47436">
        <ele>661.04064941406</ele>
        <time>2011-01-16T11:12:31Z</time>
      </trkpt>
      <trkpt lat="45.32134" lon="5.47444">
        <ele>664.23352050781</ele>
        <time>2011-01-16T11:12:36Z</time>
      </trkpt>
      <trkpt lat="45.32138" lon="5.47446">
        <ele>665.27551269531</ele>
        <time>2011-01-16T11:12:38Z</time>
      </trkpt>
      <trkpt lat="45.3214" lon="5.47447">
        <ele>666.326171875</ele>
        <time>2011-01-16T11:12:40Z</time>
      </trkpt>
      <trkpt lat="45.32148" lon="5.4745">
        <ele>670.14581298828</ele>
        <time>2011-01-16T11:12:48Z</time>
      </trkpt>
      <trkpt lat="45.32155" lon="5.4745">
        <ele>674.39141845703</ele>
        <time>2011-01-16T11:12:56Z</time>
      </trkpt>
      <trkpt lat="45.32159" lon="5.47452">
        <ele>677.05041503906</ele>
        <time>2011-01-16T11:13:01Z</time>
      </trkpt>
      <trkpt lat="45.32166" lon="5.47451">
        <ele>681.30053710938</ele>
        <time>2011-01-16T11:13:08Z</time>
      </trkpt>
      <trkpt lat="45.32174" lon="5.47451">
        <ele>682.95233154297</ele>
        <time>2011-01-16T11:13:14Z</time>
      </trkpt>
      <trkpt lat="45.32181" lon="5.47457">
        <ele>683.72717285156</ele>
        <time>2011-01-16T11:13:19Z</time>
      </trkpt>
      <trkpt lat="45.32184" lon="5.47459">
        <ele>684.04400634766</ele>
        <time>2011-01-16T11:13:25Z</time>
      </trkpt>
      <trkpt lat="45.32193" lon="5.47458">
        <ele>685.80822753906</ele>
        <time>2011-01-16T11:13:33Z</time>
      </trkpt>
      <trkpt lat="45.32198" lon="5.47459">
        <ele>686.75646972656</ele>
        <time>2011-01-16T11:13:38Z</time>
      </trkpt>
      <trkpt lat="45.32206" lon="5.4746">
        <ele>688.46832275391</ele>
        <time>2011-01-16T11:13:47Z</time>
      </trkpt>
      <trkpt lat="45.32208" lon="5.47462">
        <ele>688.63952636719</ele>
        <time>2011-01-16T11:13:49Z</time>
      </trkpt>
      <trkpt lat="45.3222" lon="5.47472">
        <ele>689.57611083984</ele>
        <time>2011-01-16T11:13:59Z</time>
      </trkpt>
      <trkpt lat="45.32228" lon="5.47475">
        <ele>690.25720214844</ele>
        <time>2011-01-16T11:14:06Z</time>
      </trkpt>
      <trkpt lat="45.32234" lon="5.47476">
        <ele>690.78198242188</ele>
        <time>2011-01-16T11:14:11Z</time>
      </trkpt>
      <trkpt lat="45.32241" lon="5.47478">
        <ele>691.33666992188</ele>
        <time>2011-01-16T11:14:18Z</time>
      </trkpt>
      <trkpt lat="45.32246" lon="5.47478">
        <ele>691.83312988281</ele>
        <time>2011-01-16T11:14:24Z</time>
      </trkpt>
      <trkpt lat="45.3225" lon="5.47481">
        <ele>692.00482177734</ele>
        <time>2011-01-16T11:14:28Z</time>
      </trkpt>
      <trkpt lat="45.32254" lon="5.47484">
        <ele>691.83386230469</ele>
        <time>2011-01-16T11:14:32Z</time>
      </trkpt>
      <trkpt lat="45.32261" lon="5.47485">
        <ele>691.87438964844</ele>
        <time>2011-01-16T11:14:38Z</time>
      </trkpt>
      <trkpt lat="45.32262" lon="5.47485">
        <ele>691.82373046875</ele>
        <time>2011-01-16T11:14:40Z</time>
      </trkpt>
      <trkpt lat="45.3227" lon="5.47484">
        <ele>692.19091796875</ele>
        <time>2011-01-16T11:14:47Z</time>
      </trkpt>
      <trkpt lat="45.32276" lon="5.47485">
        <ele>692.09155273438</ele>
        <time>2011-01-16T11:14:52Z</time>
      </trkpt>
      <trkpt lat="45.3228" lon="5.47481">
        <ele>692.74438476562</ele>
        <time>2011-01-16T11:14:58Z</time>
      </trkpt>
      <trkpt lat="45.32287" lon="5.4748">
        <ele>693.27313232422</ele>
        <time>2011-01-16T11:15:05Z</time>
      </trkpt>
      <trkpt lat="45.32291" lon="5.47479">
        <ele>693.45166015625</ele>
        <time>2011-01-16T11:15:09Z</time>
      </trkpt>
      <trkpt lat="45.32296" lon="5.47475">
        <ele>694.28936767578</ele>
        <time>2011-01-16T11:15:15Z</time>
      </trkpt>
      <trkpt lat="45.32298" lon="5.4747">
        <ele>695.16851806641</ele>
        <time>2011-01-16T11:15:21Z</time>
      </trkpt>
      <trkpt lat="45.32301" lon="5.47465">
        <ele>696.11840820312</ele>
        <time>2011-01-16T11:15:29Z</time>
      </trkpt>
      <trkpt lat="45.32301" lon="5.47464">
        <ele>696.31207275391</ele>
        <time>2011-01-16T11:15:30Z</time>
      </trkpt>
      <trkpt lat="45.32301" lon="5.47455">
        <ele>697.97570800781</ele>
        <time>2011-01-16T11:15:36Z</time>
      </trkpt>
      <trkpt lat="45.323" lon="5.47451">
        <ele>698.74401855469</ele>
        <time>2011-01-16T11:15:43Z</time>
      </trkpt>
      <trkpt lat="45.32301" lon="5.47446">
        <ele>699.68176269531</ele>
        <time>2011-01-16T11:15:49Z</time>
      </trkpt>
      <trkpt lat="45.323" lon="5.47441">
        <ele>700.61041259766</ele>
        <time>2011-01-16T11:15:55Z</time>
      </trkpt>
      <trkpt lat="45.323" lon="5.47437">
        <ele>701.37426757812</ele>
        <time>2011-01-16T11:16:01Z</time>
      </trkpt>
      <trkpt lat="45.32302" lon="5.47431">
        <ele>702.33557128906</ele>
        <time>2011-01-16T11:16:08Z</time>
      </trkpt>
      <trkpt lat="45.32305" lon="5.47424">
        <ele>703.75177001953</ele>
        <time>2011-01-16T11:16:16Z</time>
      </trkpt>
      <trkpt lat="45.32306" lon="5.47416">
        <ele>705.25726318359</ele>
        <time>2011-01-16T11:16:24Z</time>
      </trkpt>
      <trkpt lat="45.32306" lon="5.4741">
        <ele>706.94396972656</ele>
        <time>2011-01-16T11:16:31Z</time>
      </trkpt>
      <trkpt lat="45.32306" lon="5.47405">
        <ele>708.35101318359</ele>
        <time>2011-01-16T11:16:37Z</time>
      </trkpt>
      <trkpt lat="45.32307" lon="5.47398">
        <ele>710.20513916016</ele>
        <time>2011-01-16T11:16:45Z</time>
      </trkpt>
      <trkpt lat="45.3231" lon="5.47391">
        <ele>711.60260009766</ele>
        <time>2011-01-16T11:16:52Z</time>
      </trkpt>
      <trkpt lat="45.32312" lon="5.47384">
        <ele>712.76043701172</ele>
        <time>2011-01-16T11:16:59Z</time>
      </trkpt>
      <trkpt lat="45.32313" lon="5.47378">
        <ele>713.53161621094</ele>
        <time>2011-01-16T11:17:06Z</time>
      </trkpt>
      <trkpt lat="45.32312" lon="5.4737">
        <ele>715.17346191406</ele>
        <time>2011-01-16T11:17:12Z</time>
      </trkpt>
      <trkpt lat="45.32309" lon="5.47362">
        <ele>717.11804199219</ele>
        <time>2011-01-16T11:17:15Z</time>
      </trkpt>
      <trkpt lat="45.32308" lon="5.47356">
        <ele>718.68072509766</ele>
        <time>2011-01-16T11:17:18Z</time>
      </trkpt>
      <trkpt lat="45.32304" lon="5.47347">
        <ele>721.06195068359</ele>
        <time>2011-01-16T11:17:22Z</time>
      </trkpt>
      <trkpt lat="45.32304" lon="5.47342">
        <ele>721.97180175781</ele>
        <time>2011-01-16T11:17:24Z</time>
      </trkpt>
      <trkpt lat="45.32305" lon="5.47328">
        <ele>724.76556396484</ele>
        <time>2011-01-16T11:17:32Z</time>
      </trkpt>
      <trkpt lat="45.32301" lon="5.4732">
        <ele>725.72766113281</ele>
        <time>2011-01-16T11:17:39Z</time>
      </trkpt>
      <trkpt lat="45.32296" lon="5.47313">
        <ele>726.68328857422</ele>
        <time>2011-01-16T11:17:45Z</time>
      </trkpt>
      <trkpt lat="45.32297" lon="5.47305">
        <ele>728.08959960938</ele>
        <time>2011-01-16T11:17:54Z</time>
      </trkpt>
      <trkpt lat="45.32294" lon="5.47295">
        <ele>729.13507080078</ele>
        <time>2011-01-16T11:18:00Z</time>
      </trkpt>
      <trkpt lat="45.32293" lon="5.47284">
        <ele>730.2783203125</ele>
        <time>2011-01-16T11:18:06Z</time>
      </trkpt>
      <trkpt lat="45.32295" lon="5.47275">
        <ele>731.46899414062</ele>
        <time>2011-01-16T11:18:12Z</time>
      </trkpt>
      <trkpt lat="45.32296" lon="5.4727">
        <ele>732.4482421875</ele>
        <time>2011-01-16T11:18:16Z</time>
      </trkpt>
      <trkpt lat="45.323" lon="5.47258">
        <ele>734.63671875</ele>
        <time>2011-01-16T11:18:25Z</time>
      </trkpt>
      <trkpt lat="45.32305" lon="5.47245">
        <ele>736.55712890625</ele>
        <time>2011-01-16T11:18:34Z</time>
      </trkpt>
      <trkpt lat="45.32309" lon="5.47236">
        <ele>736.82153320312</ele>
        <time>2011-01-16T11:18:39Z</time>
      </trkpt>
      <trkpt lat="45.32316" lon="5.47221">
        <ele>736.81994628906</ele>
        <time>2011-01-16T11:18:45Z</time>
      </trkpt>
      <trkpt lat="45.32322" lon="5.4721">
        <ele>736.94366455078</ele>
        <time>2011-01-16T11:18:50Z</time>
      </trkpt>
      <trkpt lat="45.32331" lon="5.47201">
        <ele>737.080078125</ele>
        <time>2011-01-16T11:18:55Z</time>
      </trkpt>
      <trkpt lat="45.32342" lon="5.47185">
        <ele>736.84875488281</ele>
        <time>2011-01-16T11:19:02Z</time>
      </trkpt>
      <trkpt lat="45.32348" lon="5.47175">
        <ele>736.18273925781</ele>
        <time>2011-01-16T11:19:06Z</time>
      </trkpt>
      <trkpt lat="45.32359" lon="5.47155">
        <ele>735.97247314453</ele>
        <time>2011-01-16T11:19:14Z</time>
      </trkpt>
      <trkpt lat="45.32368" lon="5.47138">
        <ele>734.73095703125</ele>
        <time>2011-01-16T11:19:20Z</time>
      </trkpt>
      <trkpt lat="45.32372" lon="5.47119">
        <ele>733.49932861328</ele>
        <time>2011-01-16T11:19:26Z</time>
      </trkpt>
      <trkpt lat="45.32375" lon="5.47103">
        <ele>732.7607421875</ele>
        <time>2011-01-16T11:19:31Z</time>
      </trkpt>
      <trkpt lat="45.32376" lon="5.471">
        <ele>732.56976318359</ele>
        <time>2011-01-16T11:19:32Z</time>
      </trkpt>
      <trkpt lat="45.32378" lon="5.47083">
        <ele>732.89898681641</ele>
        <time>2011-01-16T11:19:37Z</time>
      </trkpt>
      <trkpt lat="45.32377" lon="5.47075">
        <ele>733.40002441406</ele>
        <time>2011-01-16T11:19:39Z</time>
      </trkpt>
      <trkpt lat="45.3238" lon="5.47056">
        <ele>733.05004882812</ele>
        <time>2011-01-16T11:19:44Z</time>
      </trkpt>
      <trkpt lat="45.32381" lon="5.47035">
        <ele>733.79119873047</ele>
        <time>2011-01-16T11:19:50Z</time>
      </trkpt>
      <trkpt lat="45.32383" lon="5.47018">
        <ele>734.63989257812</ele>
        <time>2011-01-16T11:19:55Z</time>
      </trkpt>
      <trkpt lat="45.32383" lon="5.46997">
        <ele>736.14251708984</ele>
        <time>2011-01-16T11:20:01Z</time>
      </trkpt>
      <trkpt lat="45.32383" lon="5.46994">
        <ele>736.29742431641</ele>
        <time>2011-01-16T11:20:02Z</time>
      </trkpt>
      <trkpt lat="45.32382" lon="5.46973">
        <ele>736.95104980469</ele>
        <time>2011-01-16T11:20:08Z</time>
      </trkpt>
      <trkpt lat="45.32381" lon="5.46957">
        <ele>738.27838134766</ele>
        <time>2011-01-16T11:20:12Z</time>
      </trkpt>
      <trkpt lat="45.32382" lon="5.46936">
        <ele>739.47119140625</ele>
        <time>2011-01-16T11:20:18Z</time>
      </trkpt>
      <trkpt lat="45.3238" lon="5.46913">
        <ele>740</ele>
        <time>2011-01-16T11:20:23Z</time>
      </trkpt>
      <trkpt lat="45.32381" lon="5.46909">
        <ele>740</ele>
        <time>2011-01-16T11:20:24Z</time>
      </trkpt>
      <trkpt lat="45.32381" lon="5.46883">
        <ele>739.66516113281</ele>
        <time>2011-01-16T11:20:30Z</time>
      </trkpt>
      <trkpt lat="45.32384" lon="5.46861">
        <ele>738.35339355469</ele>
        <time>2011-01-16T11:20:36Z</time>
      </trkpt>
      <trkpt lat="45.32386" lon="5.4684">
        <ele>736.51068115234</ele>
        <time>2011-01-16T11:20:42Z</time>
      </trkpt>
      <trkpt lat="45.32388" lon="5.4683">
        <ele>735.75219726562</ele>
        <time>2011-01-16T11:20:45Z</time>
      </trkpt>
      <trkpt lat="45.32385" lon="5.46805">
        <ele>733.96838378906</ele>
        <time>2011-01-16T11:20:52Z</time>
      </trkpt>
      <trkpt lat="45.32381" lon="5.46781">
        <ele>731.97668457031</ele>
        <time>2011-01-16T11:20:58Z</time>
      </trkpt>
      <trkpt lat="45.32379" lon="5.46767">
        <ele>730.57196044922</ele>
        <time>2011-01-16T11:21:03Z</time>
      </trkpt>
      <trkpt lat="45.32379" lon="5.46765">
        <ele>730.36584472656</ele>
        <time>2011-01-16T11:21:04Z</time>
      </trkpt>
    </trkseg>
  </trk>
</gpx>